<?xml version="1.0" encoding="UTF-8" standalone="no" ?>
<gpx xmlns="http://www.topografix.com/GPX/1/1" xmlns:xsi="http://www.w3.org/2001/XMLSchema-instance" xsi:schemaLocation="http://www.topografix.com/GPX/1/1 http://www.topografix.com/GPX/1/1/gpx.xsd" version="1.1" creator="VisuGPX - https://www.visugpx.com">
  <metadata>
    <name>la boue troude 2015 45 km</name>
    <desc><![CDATA[circuit sympa pas trop difficile, sur terrain assez sec!]]></desc>
  </metadata>
  <trk>
    <name><![CDATA[2015-10-11 08:13]]></name>
    <desc><![CDATA[<h1>OruxMaps</h1><br /><hr align="center" width="480" style="height: 2px; width: 517px"/><h2>Nom: 2015-10-11 08:13</h2><br /><p>Temps de départ: 10/11/2015 08:14</p><p>Temps d'arrivée: 10/11/2015 11:32</p><p>Distance: 47km (03:18)</p><p>Temps déplacement: 02:47</p><p>Vitesse moyenne: 14,2km/h</p><p>Vitesse moyenne: 16,8km/h</p><p>Vitess Max.: 42,4km/h</p><p>Altitude minimale: 62m</p><p>Altitude maximale: 162m</p><p>Vitesse d'élévation: 653,7m/h</p><p>Vitesse de descente: -1159,3m/h</p><p>Gain Altitude: 1034m</p><p>Perte Altitude: -1049m</p><p>Temps d'élévation: 01:34</p><p>Temps de descente: 00:54</p><hr align="center" width="480" style="height: 2px; width: 517px"/>]]></desc>
    <trkseg>
      <trkpt lat="49.29859" lon="0.87837">
        <ele>148.32</ele>
        <time>2015-10-11T06:14:31Z</time>
      </trkpt>
      <trkpt lat="49.29849" lon="0.87728">
        <ele>85.13</ele>
        <time>2015-10-11T06:14:33Z</time>
      </trkpt>
      <trkpt lat="49.29871" lon="0.87829">
        <ele>124.88</ele>
        <time>2015-10-11T06:14:35Z</time>
      </trkpt>
      <trkpt lat="49.29879" lon="0.87833">
        <ele>160.56</ele>
        <time>2015-10-11T06:15:02Z</time>
      </trkpt>
      <trkpt lat="49.29888" lon="0.87833">
        <ele>162.54</ele>
        <time>2015-10-11T06:15:34Z</time>
      </trkpt>
      <trkpt lat="49.29874" lon="0.87829">
        <ele>141.01</ele>
        <time>2015-10-11T06:19:37Z</time>
      </trkpt>
      <trkpt lat="49.29869" lon="0.87829">
        <ele>137.62</ele>
        <time>2015-10-11T06:20:15Z</time>
      </trkpt>
      <trkpt lat="49.29869" lon="0.87821">
        <ele>135.18</ele>
        <time>2015-10-11T06:20:27Z</time>
      </trkpt>
      <trkpt lat="49.29874" lon="0.87821">
        <ele>132.42</ele>
        <time>2015-10-11T06:20:45Z</time>
      </trkpt>
      <trkpt lat="49.29883" lon="0.87826">
        <ele>130.83</ele>
        <time>2015-10-11T06:20:55Z</time>
      </trkpt>
      <trkpt lat="49.29886" lon="0.87834">
        <ele>130.26</ele>
        <time>2015-10-11T06:21:03Z</time>
      </trkpt>
      <trkpt lat="49.29884" lon="0.87827">
        <ele>130.16</ele>
        <time>2015-10-11T06:21:25Z</time>
      </trkpt>
      <trkpt lat="49.29881" lon="0.87821">
        <ele>130.12</ele>
        <time>2015-10-11T06:21:33Z</time>
      </trkpt>
      <trkpt lat="49.29877" lon="0.87825">
        <ele>130.07</ele>
        <time>2015-10-11T06:21:43Z</time>
      </trkpt>
      <trkpt lat="49.29872" lon="0.87825">
        <ele>129.68</ele>
        <time>2015-10-11T06:22:09Z</time>
      </trkpt>
      <trkpt lat="49.29869" lon="0.87829">
        <ele>131.27</ele>
        <time>2015-10-11T06:22:35Z</time>
      </trkpt>
      <trkpt lat="49.29864" lon="0.87827">
        <ele>131.7</ele>
        <time>2015-10-11T06:23:11Z</time>
      </trkpt>
      <trkpt lat="49.2986" lon="0.87832">
        <ele>130.1</ele>
        <time>2015-10-11T06:23:33Z</time>
      </trkpt>
      <trkpt lat="49.29863" lon="0.87826">
        <ele>129.68</ele>
        <time>2015-10-11T06:24:15Z</time>
      </trkpt>
      <trkpt lat="49.29868" lon="0.87825">
        <ele>131</ele>
        <time>2015-10-11T06:24:33Z</time>
      </trkpt>
      <trkpt lat="49.29864" lon="0.87813">
        <ele>130.44</ele>
        <time>2015-10-11T06:25:11Z</time>
      </trkpt>
      <trkpt lat="49.29861" lon="0.87808">
        <ele>130.11</ele>
        <time>2015-10-11T06:25:13Z</time>
      </trkpt>
      <trkpt lat="49.29857" lon="0.87805">
        <ele>129.78</ele>
        <time>2015-10-11T06:25:15Z</time>
      </trkpt>
      <trkpt lat="49.29851" lon="0.87803">
        <ele>129.46</ele>
        <time>2015-10-11T06:25:17Z</time>
      </trkpt>
      <trkpt lat="49.29845" lon="0.87803">
        <ele>129.15</ele>
        <time>2015-10-11T06:25:19Z</time>
      </trkpt>
      <trkpt lat="49.29841" lon="0.87803">
        <ele>128.85</ele>
        <time>2015-10-11T06:25:21Z</time>
      </trkpt>
      <trkpt lat="49.29836" lon="0.87802">
        <ele>128.3</ele>
        <time>2015-10-11T06:25:25Z</time>
      </trkpt>
      <trkpt lat="49.29836" lon="0.87789">
        <ele>127.86</ele>
        <time>2015-10-11T06:25:29Z</time>
      </trkpt>
      <trkpt lat="49.29837" lon="0.87779">
        <ele>127.7</ele>
        <time>2015-10-11T06:25:31Z</time>
      </trkpt>
      <trkpt lat="49.29839" lon="0.87768">
        <ele>127.6</ele>
        <time>2015-10-11T06:25:33Z</time>
      </trkpt>
      <trkpt lat="49.29841" lon="0.87754">
        <ele>127.54</ele>
        <time>2015-10-11T06:25:35Z</time>
      </trkpt>
      <trkpt lat="49.2984" lon="0.87743">
        <ele>127.5</ele>
        <time>2015-10-11T06:25:37Z</time>
      </trkpt>
      <trkpt lat="49.2984" lon="0.87732">
        <ele>127.46</ele>
        <time>2015-10-11T06:25:39Z</time>
      </trkpt>
      <trkpt lat="49.29839" lon="0.87724">
        <ele>127.45</ele>
        <time>2015-10-11T06:25:41Z</time>
      </trkpt>
      <trkpt lat="49.2984" lon="0.87716">
        <ele>127.42</ele>
        <time>2015-10-11T06:25:43Z</time>
      </trkpt>
      <trkpt lat="49.2984" lon="0.87708">
        <ele>127.38</ele>
        <time>2015-10-11T06:25:45Z</time>
      </trkpt>
      <trkpt lat="49.29848" lon="0.87706">
        <ele>127.28</ele>
        <time>2015-10-11T06:25:49Z</time>
      </trkpt>
      <trkpt lat="49.29852" lon="0.87713">
        <ele>127.03</ele>
        <time>2015-10-11T06:25:51Z</time>
      </trkpt>
      <trkpt lat="49.29857" lon="0.87725">
        <ele>126.35</ele>
        <time>2015-10-11T06:25:53Z</time>
      </trkpt>
      <trkpt lat="49.2986" lon="0.87735">
        <ele>125.93</ele>
        <time>2015-10-11T06:25:55Z</time>
      </trkpt>
      <trkpt lat="49.29864" lon="0.8774">
        <ele>125.67</ele>
        <time>2015-10-11T06:25:57Z</time>
      </trkpt>
      <trkpt lat="49.29871" lon="0.87741">
        <ele>125.51</ele>
        <time>2015-10-11T06:25:59Z</time>
      </trkpt>
      <trkpt lat="49.29878" lon="0.87741">
        <ele>125.24</ele>
        <time>2015-10-11T06:26:01Z</time>
      </trkpt>
      <trkpt lat="49.29886" lon="0.87737">
        <ele>124.62</ele>
        <time>2015-10-11T06:26:03Z</time>
      </trkpt>
      <trkpt lat="49.29891" lon="0.87736">
        <ele>124.26</ele>
        <time>2015-10-11T06:26:05Z</time>
      </trkpt>
      <trkpt lat="49.29896" lon="0.87737">
        <ele>124.05</ele>
        <time>2015-10-11T06:26:07Z</time>
      </trkpt>
      <trkpt lat="49.29904" lon="0.87741">
        <ele>123.79</ele>
        <time>2015-10-11T06:26:11Z</time>
      </trkpt>
      <trkpt lat="49.29909" lon="0.8774">
        <ele>123.66</ele>
        <time>2015-10-11T06:26:13Z</time>
      </trkpt>
      <trkpt lat="49.29913" lon="0.87731">
        <ele>123.56</ele>
        <time>2015-10-11T06:26:15Z</time>
      </trkpt>
      <trkpt lat="49.29913" lon="0.87722">
        <ele>123.42</ele>
        <time>2015-10-11T06:26:17Z</time>
      </trkpt>
      <trkpt lat="49.29913" lon="0.87713">
        <ele>123.29</ele>
        <time>2015-10-11T06:26:19Z</time>
      </trkpt>
      <trkpt lat="49.29913" lon="0.87701">
        <ele>122.7</ele>
        <time>2015-10-11T06:26:21Z</time>
      </trkpt>
      <trkpt lat="49.29914" lon="0.87688">
        <ele>122.67</ele>
        <time>2015-10-11T06:26:23Z</time>
      </trkpt>
      <trkpt lat="49.29916" lon="0.87673">
        <ele>122.59</ele>
        <time>2015-10-11T06:26:25Z</time>
      </trkpt>
      <trkpt lat="49.2992" lon="0.87657">
        <ele>121.93</ele>
        <time>2015-10-11T06:26:27Z</time>
      </trkpt>
      <trkpt lat="49.29925" lon="0.87645">
        <ele>121.71</ele>
        <time>2015-10-11T06:26:29Z</time>
      </trkpt>
      <trkpt lat="49.29929" lon="0.87639">
        <ele>121.64</ele>
        <time>2015-10-11T06:26:31Z</time>
      </trkpt>
      <trkpt lat="49.29933" lon="0.87632">
        <ele>121.64</ele>
        <time>2015-10-11T06:26:33Z</time>
      </trkpt>
      <trkpt lat="49.29937" lon="0.87625">
        <ele>121.69</ele>
        <time>2015-10-11T06:26:35Z</time>
      </trkpt>
      <trkpt lat="49.29942" lon="0.87618">
        <ele>121.73</ele>
        <time>2015-10-11T06:26:37Z</time>
      </trkpt>
      <trkpt lat="49.29945" lon="0.87613">
        <ele>121.8</ele>
        <time>2015-10-11T06:26:39Z</time>
      </trkpt>
      <trkpt lat="49.2994" lon="0.876">
        <ele>122.04</ele>
        <time>2015-10-11T06:26:43Z</time>
      </trkpt>
      <trkpt lat="49.29935" lon="0.87594">
        <ele>122.2</ele>
        <time>2015-10-11T06:26:45Z</time>
      </trkpt>
      <trkpt lat="49.2993" lon="0.87589">
        <ele>122.35</ele>
        <time>2015-10-11T06:26:47Z</time>
      </trkpt>
      <trkpt lat="49.29926" lon="0.87576">
        <ele>122.66</ele>
        <time>2015-10-11T06:26:51Z</time>
      </trkpt>
      <trkpt lat="49.29924" lon="0.87569">
        <ele>122.78</ele>
        <time>2015-10-11T06:26:53Z</time>
      </trkpt>
      <trkpt lat="49.29925" lon="0.87554">
        <ele>122.87</ele>
        <time>2015-10-11T06:26:57Z</time>
      </trkpt>
      <trkpt lat="49.29927" lon="0.87544">
        <ele>122.97</ele>
        <time>2015-10-11T06:26:59Z</time>
      </trkpt>
      <trkpt lat="49.29928" lon="0.87534">
        <ele>123.13</ele>
        <time>2015-10-11T06:27:01Z</time>
      </trkpt>
      <trkpt lat="49.29932" lon="0.87525">
        <ele>123.28</ele>
        <time>2015-10-11T06:27:03Z</time>
      </trkpt>
      <trkpt lat="49.29935" lon="0.87517">
        <ele>123.42</ele>
        <time>2015-10-11T06:27:05Z</time>
      </trkpt>
      <trkpt lat="49.29939" lon="0.87508">
        <ele>123.62</ele>
        <time>2015-10-11T06:27:09Z</time>
      </trkpt>
      <trkpt lat="49.29943" lon="0.87499">
        <ele>123.8</ele>
        <time>2015-10-11T06:27:15Z</time>
      </trkpt>
      <trkpt lat="49.29943" lon="0.87492">
        <ele>123.91</ele>
        <time>2015-10-11T06:27:17Z</time>
      </trkpt>
      <trkpt lat="49.2994" lon="0.87485">
        <ele>124.03</ele>
        <time>2015-10-11T06:27:19Z</time>
      </trkpt>
      <trkpt lat="49.29938" lon="0.87479">
        <ele>124.17</ele>
        <time>2015-10-11T06:27:21Z</time>
      </trkpt>
      <trkpt lat="49.29934" lon="0.87472">
        <ele>124.29</ele>
        <time>2015-10-11T06:27:23Z</time>
      </trkpt>
      <trkpt lat="49.29931" lon="0.87466">
        <ele>124.41</ele>
        <time>2015-10-11T06:27:25Z</time>
      </trkpt>
      <trkpt lat="49.29928" lon="0.87461">
        <ele>124.55</ele>
        <time>2015-10-11T06:27:27Z</time>
      </trkpt>
      <trkpt lat="49.29923" lon="0.87456">
        <ele>124.71</ele>
        <time>2015-10-11T06:27:29Z</time>
      </trkpt>
      <trkpt lat="49.29919" lon="0.8745">
        <ele>124.85</ele>
        <time>2015-10-11T06:27:31Z</time>
      </trkpt>
      <trkpt lat="49.29915" lon="0.87444">
        <ele>124.92</ele>
        <time>2015-10-11T06:27:33Z</time>
      </trkpt>
      <trkpt lat="49.29909" lon="0.87436">
        <ele>124.97</ele>
        <time>2015-10-11T06:27:37Z</time>
      </trkpt>
      <trkpt lat="49.29906" lon="0.87429">
        <ele>124.94</ele>
        <time>2015-10-11T06:27:39Z</time>
      </trkpt>
      <trkpt lat="49.29906" lon="0.8742">
        <ele>124.91</ele>
        <time>2015-10-11T06:27:43Z</time>
      </trkpt>
      <trkpt lat="49.29907" lon="0.87411">
        <ele>124.93</ele>
        <time>2015-10-11T06:27:45Z</time>
      </trkpt>
      <trkpt lat="49.29911" lon="0.87399">
        <ele>125.38</ele>
        <time>2015-10-11T06:27:47Z</time>
      </trkpt>
      <trkpt lat="49.29916" lon="0.87387">
        <ele>126.07</ele>
        <time>2015-10-11T06:27:49Z</time>
      </trkpt>
      <trkpt lat="49.29922" lon="0.87374">
        <ele>126.83</ele>
        <time>2015-10-11T06:27:51Z</time>
      </trkpt>
      <trkpt lat="49.29927" lon="0.87361">
        <ele>127.12</ele>
        <time>2015-10-11T06:27:53Z</time>
      </trkpt>
      <trkpt lat="49.29931" lon="0.87348">
        <ele>127.19</ele>
        <time>2015-10-11T06:27:55Z</time>
      </trkpt>
      <trkpt lat="49.29937" lon="0.87335">
        <ele>127.34</ele>
        <time>2015-10-11T06:27:57Z</time>
      </trkpt>
      <trkpt lat="49.29942" lon="0.87323">
        <ele>127.52</ele>
        <time>2015-10-11T06:27:59Z</time>
      </trkpt>
      <trkpt lat="49.29948" lon="0.87311">
        <ele>127.7</ele>
        <time>2015-10-11T06:28:01Z</time>
      </trkpt>
      <trkpt lat="49.29955" lon="0.87305">
        <ele>127.71</ele>
        <time>2015-10-11T06:28:03Z</time>
      </trkpt>
      <trkpt lat="49.29961" lon="0.87297">
        <ele>127.87</ele>
        <time>2015-10-11T06:28:04Z</time>
      </trkpt>
      <trkpt lat="49.29966" lon="0.87288">
        <ele>128.5</ele>
        <time>2015-10-11T06:28:06Z</time>
      </trkpt>
      <trkpt lat="49.29972" lon="0.87278">
        <ele>129.09</ele>
        <time>2015-10-11T06:28:08Z</time>
      </trkpt>
      <trkpt lat="49.29977" lon="0.87268">
        <ele>129.4</ele>
        <time>2015-10-11T06:28:10Z</time>
      </trkpt>
      <trkpt lat="49.29982" lon="0.87257">
        <ele>129.64</ele>
        <time>2015-10-11T06:28:12Z</time>
      </trkpt>
      <trkpt lat="49.29986" lon="0.87246">
        <ele>129.73</ele>
        <time>2015-10-11T06:28:14Z</time>
      </trkpt>
      <trkpt lat="49.2999" lon="0.87235">
        <ele>129.94</ele>
        <time>2015-10-11T06:28:16Z</time>
      </trkpt>
      <trkpt lat="49.29993" lon="0.87225">
        <ele>130.34</ele>
        <time>2015-10-11T06:28:18Z</time>
      </trkpt>
      <trkpt lat="49.29997" lon="0.87216">
        <ele>130.54</ele>
        <time>2015-10-11T06:28:20Z</time>
      </trkpt>
      <trkpt lat="49.30001" lon="0.87207">
        <ele>130.61</ele>
        <time>2015-10-11T06:28:22Z</time>
      </trkpt>
      <trkpt lat="49.30006" lon="0.87198">
        <ele>130.61</ele>
        <time>2015-10-11T06:28:24Z</time>
      </trkpt>
      <trkpt lat="49.30012" lon="0.87191">
        <ele>130.56</ele>
        <time>2015-10-11T06:28:26Z</time>
      </trkpt>
      <trkpt lat="49.3002" lon="0.87185">
        <ele>130.63</ele>
        <time>2015-10-11T06:28:28Z</time>
      </trkpt>
      <trkpt lat="49.30028" lon="0.87183">
        <ele>130.6</ele>
        <time>2015-10-11T06:28:30Z</time>
      </trkpt>
      <trkpt lat="49.30035" lon="0.87182">
        <ele>130.5</ele>
        <time>2015-10-11T06:28:32Z</time>
      </trkpt>
      <trkpt lat="49.30042" lon="0.87181">
        <ele>130.44</ele>
        <time>2015-10-11T06:28:34Z</time>
      </trkpt>
      <trkpt lat="49.30046" lon="0.87175">
        <ele>130.41</ele>
        <time>2015-10-11T06:28:36Z</time>
      </trkpt>
      <trkpt lat="49.30052" lon="0.87171">
        <ele>130.6</ele>
        <time>2015-10-11T06:28:38Z</time>
      </trkpt>
      <trkpt lat="49.3006" lon="0.87171">
        <ele>130.92</ele>
        <time>2015-10-11T06:28:40Z</time>
      </trkpt>
      <trkpt lat="49.30069" lon="0.87171">
        <ele>130.91</ele>
        <time>2015-10-11T06:28:42Z</time>
      </trkpt>
      <trkpt lat="49.30078" lon="0.87172">
        <ele>130.6</ele>
        <time>2015-10-11T06:28:44Z</time>
      </trkpt>
      <trkpt lat="49.30088" lon="0.87172">
        <ele>130.41</ele>
        <time>2015-10-11T06:28:46Z</time>
      </trkpt>
      <trkpt lat="49.30098" lon="0.87172">
        <ele>130.19</ele>
        <time>2015-10-11T06:28:48Z</time>
      </trkpt>
      <trkpt lat="49.30109" lon="0.87172">
        <ele>129.93</ele>
        <time>2015-10-11T06:28:50Z</time>
      </trkpt>
      <trkpt lat="49.30119" lon="0.87171">
        <ele>129.59</ele>
        <time>2015-10-11T06:28:52Z</time>
      </trkpt>
      <trkpt lat="49.3013" lon="0.87171">
        <ele>129.07</ele>
        <time>2015-10-11T06:28:54Z</time>
      </trkpt>
      <trkpt lat="49.30139" lon="0.87172">
        <ele>128.61</ele>
        <time>2015-10-11T06:28:56Z</time>
      </trkpt>
      <trkpt lat="49.30149" lon="0.87172">
        <ele>128.2</ele>
        <time>2015-10-11T06:28:58Z</time>
      </trkpt>
      <trkpt lat="49.30159" lon="0.87173">
        <ele>127.71</ele>
        <time>2015-10-11T06:29:00Z</time>
      </trkpt>
      <trkpt lat="49.30171" lon="0.87171">
        <ele>126.82</ele>
        <time>2015-10-11T06:29:02Z</time>
      </trkpt>
      <trkpt lat="49.30183" lon="0.87169">
        <ele>125.54</ele>
        <time>2015-10-11T06:29:04Z</time>
      </trkpt>
      <trkpt lat="49.30196" lon="0.87166">
        <ele>124.22</ele>
        <time>2015-10-11T06:29:06Z</time>
      </trkpt>
      <trkpt lat="49.30209" lon="0.87162">
        <ele>122.95</ele>
        <time>2015-10-11T06:29:08Z</time>
      </trkpt>
      <trkpt lat="49.30224" lon="0.87158">
        <ele>121.86</ele>
        <time>2015-10-11T06:29:10Z</time>
      </trkpt>
      <trkpt lat="49.30237" lon="0.87154">
        <ele>120.83</ele>
        <time>2015-10-11T06:29:12Z</time>
      </trkpt>
      <trkpt lat="49.30251" lon="0.87152">
        <ele>119.9</ele>
        <time>2015-10-11T06:29:14Z</time>
      </trkpt>
      <trkpt lat="49.30265" lon="0.87151">
        <ele>119.18</ele>
        <time>2015-10-11T06:29:16Z</time>
      </trkpt>
      <trkpt lat="49.30278" lon="0.87152">
        <ele>118.71</ele>
        <time>2015-10-11T06:29:18Z</time>
      </trkpt>
      <trkpt lat="49.3029" lon="0.87153">
        <ele>118.45</ele>
        <time>2015-10-11T06:29:20Z</time>
      </trkpt>
      <trkpt lat="49.30302" lon="0.87154">
        <ele>118.32</ele>
        <time>2015-10-11T06:29:22Z</time>
      </trkpt>
      <trkpt lat="49.30314" lon="0.87155">
        <ele>118.3</ele>
        <time>2015-10-11T06:29:24Z</time>
      </trkpt>
      <trkpt lat="49.30327" lon="0.87155">
        <ele>118.33</ele>
        <time>2015-10-11T06:29:26Z</time>
      </trkpt>
      <trkpt lat="49.30339" lon="0.87154">
        <ele>118.41</ele>
        <time>2015-10-11T06:29:28Z</time>
      </trkpt>
      <trkpt lat="49.3035" lon="0.87153">
        <ele>118.35</ele>
        <time>2015-10-11T06:29:30Z</time>
      </trkpt>
      <trkpt lat="49.30361" lon="0.87152">
        <ele>118.31</ele>
        <time>2015-10-11T06:29:32Z</time>
      </trkpt>
      <trkpt lat="49.30373" lon="0.87151">
        <ele>118.23</ele>
        <time>2015-10-11T06:29:34Z</time>
      </trkpt>
      <trkpt lat="49.30385" lon="0.87149">
        <ele>118.18</ele>
        <time>2015-10-11T06:29:36Z</time>
      </trkpt>
      <trkpt lat="49.30398" lon="0.87149">
        <ele>118.34</ele>
        <time>2015-10-11T06:29:38Z</time>
      </trkpt>
      <trkpt lat="49.3041" lon="0.8715">
        <ele>118.79</ele>
        <time>2015-10-11T06:29:40Z</time>
      </trkpt>
      <trkpt lat="49.3042" lon="0.87151">
        <ele>119.7</ele>
        <time>2015-10-11T06:29:42Z</time>
      </trkpt>
      <trkpt lat="49.30432" lon="0.87153">
        <ele>120.68</ele>
        <time>2015-10-11T06:29:44Z</time>
      </trkpt>
      <trkpt lat="49.30444" lon="0.87156">
        <ele>121.17</ele>
        <time>2015-10-11T06:29:46Z</time>
      </trkpt>
      <trkpt lat="49.30455" lon="0.87158">
        <ele>121.34</ele>
        <time>2015-10-11T06:29:48Z</time>
      </trkpt>
      <trkpt lat="49.30467" lon="0.87161">
        <ele>121.26</ele>
        <time>2015-10-11T06:29:50Z</time>
      </trkpt>
      <trkpt lat="49.30478" lon="0.87162">
        <ele>121.18</ele>
        <time>2015-10-11T06:29:52Z</time>
      </trkpt>
      <trkpt lat="49.30489" lon="0.87163">
        <ele>121.1</ele>
        <time>2015-10-11T06:29:54Z</time>
      </trkpt>
      <trkpt lat="49.30502" lon="0.87162">
        <ele>121.28</ele>
        <time>2015-10-11T06:29:56Z</time>
      </trkpt>
      <trkpt lat="49.30514" lon="0.87161">
        <ele>121.56</ele>
        <time>2015-10-11T06:29:58Z</time>
      </trkpt>
      <trkpt lat="49.30525" lon="0.8716">
        <ele>121.62</ele>
        <time>2015-10-11T06:30:00Z</time>
      </trkpt>
      <trkpt lat="49.30536" lon="0.87158">
        <ele>121.5</ele>
        <time>2015-10-11T06:30:02Z</time>
      </trkpt>
      <trkpt lat="49.30548" lon="0.87155">
        <ele>121.34</ele>
        <time>2015-10-11T06:30:04Z</time>
      </trkpt>
      <trkpt lat="49.3056" lon="0.87152">
        <ele>121.38</ele>
        <time>2015-10-11T06:30:06Z</time>
      </trkpt>
      <trkpt lat="49.30572" lon="0.8715">
        <ele>121.54</ele>
        <time>2015-10-11T06:30:08Z</time>
      </trkpt>
      <trkpt lat="49.30584" lon="0.87148">
        <ele>121.6</ele>
        <time>2015-10-11T06:30:10Z</time>
      </trkpt>
      <trkpt lat="49.30596" lon="0.87146">
        <ele>121.55</ele>
        <time>2015-10-11T06:30:12Z</time>
      </trkpt>
      <trkpt lat="49.3061" lon="0.87145">
        <ele>121.24</ele>
        <time>2015-10-11T06:30:14Z</time>
      </trkpt>
      <trkpt lat="49.30623" lon="0.87144">
        <ele>120.76</ele>
        <time>2015-10-11T06:30:16Z</time>
      </trkpt>
      <trkpt lat="49.30636" lon="0.87145">
        <ele>120.18</ele>
        <time>2015-10-11T06:30:18Z</time>
      </trkpt>
      <trkpt lat="49.3065" lon="0.87146">
        <ele>119.61</ele>
        <time>2015-10-11T06:30:20Z</time>
      </trkpt>
      <trkpt lat="49.30663" lon="0.87149">
        <ele>119.18</ele>
        <time>2015-10-11T06:30:22Z</time>
      </trkpt>
      <trkpt lat="49.30677" lon="0.87152">
        <ele>118.82</ele>
        <time>2015-10-11T06:30:24Z</time>
      </trkpt>
      <trkpt lat="49.3069" lon="0.87156">
        <ele>118.44</ele>
        <time>2015-10-11T06:30:26Z</time>
      </trkpt>
      <trkpt lat="49.30704" lon="0.8716">
        <ele>118.22</ele>
        <time>2015-10-11T06:30:28Z</time>
      </trkpt>
      <trkpt lat="49.30718" lon="0.87163">
        <ele>118.09</ele>
        <time>2015-10-11T06:30:30Z</time>
      </trkpt>
      <trkpt lat="49.3073" lon="0.87165">
        <ele>117.37</ele>
        <time>2015-10-11T06:30:32Z</time>
      </trkpt>
      <trkpt lat="49.30743" lon="0.87166">
        <ele>116.37</ele>
        <time>2015-10-11T06:30:34Z</time>
      </trkpt>
      <trkpt lat="49.30757" lon="0.87166">
        <ele>115.44</ele>
        <time>2015-10-11T06:30:36Z</time>
      </trkpt>
      <trkpt lat="49.30771" lon="0.87165">
        <ele>114.64</ele>
        <time>2015-10-11T06:30:38Z</time>
      </trkpt>
      <trkpt lat="49.30784" lon="0.87163">
        <ele>114.02</ele>
        <time>2015-10-11T06:30:40Z</time>
      </trkpt>
      <trkpt lat="49.30797" lon="0.87159">
        <ele>113.58</ele>
        <time>2015-10-11T06:30:42Z</time>
      </trkpt>
      <trkpt lat="49.30811" lon="0.87153">
        <ele>113.29</ele>
        <time>2015-10-11T06:30:44Z</time>
      </trkpt>
      <trkpt lat="49.30825" lon="0.87147">
        <ele>113.27</ele>
        <time>2015-10-11T06:30:46Z</time>
      </trkpt>
      <trkpt lat="49.30839" lon="0.8714">
        <ele>113.3</ele>
        <time>2015-10-11T06:30:48Z</time>
      </trkpt>
      <trkpt lat="49.30851" lon="0.87133">
        <ele>113.3</ele>
        <time>2015-10-11T06:30:50Z</time>
      </trkpt>
      <trkpt lat="49.30863" lon="0.87126">
        <ele>113.19</ele>
        <time>2015-10-11T06:30:52Z</time>
      </trkpt>
      <trkpt lat="49.30876" lon="0.8712">
        <ele>112.94</ele>
        <time>2015-10-11T06:30:54Z</time>
      </trkpt>
      <trkpt lat="49.30887" lon="0.87114">
        <ele>112.49</ele>
        <time>2015-10-11T06:30:56Z</time>
      </trkpt>
      <trkpt lat="49.30896" lon="0.8711">
        <ele>111.81</ele>
        <time>2015-10-11T06:30:58Z</time>
      </trkpt>
      <trkpt lat="49.30902" lon="0.87105">
        <ele>111.36</ele>
        <time>2015-10-11T06:31:00Z</time>
      </trkpt>
      <trkpt lat="49.30903" lon="0.87093">
        <ele>111.34</ele>
        <time>2015-10-11T06:31:02Z</time>
      </trkpt>
      <trkpt lat="49.30898" lon="0.87077">
        <ele>111.77</ele>
        <time>2015-10-11T06:31:04Z</time>
      </trkpt>
      <trkpt lat="49.30892" lon="0.87062">
        <ele>112.02</ele>
        <time>2015-10-11T06:31:06Z</time>
      </trkpt>
      <trkpt lat="49.30886" lon="0.87047">
        <ele>112.34</ele>
        <time>2015-10-11T06:31:08Z</time>
      </trkpt>
      <trkpt lat="49.30879" lon="0.87031">
        <ele>112.22</ele>
        <time>2015-10-11T06:31:10Z</time>
      </trkpt>
      <trkpt lat="49.30871" lon="0.87014">
        <ele>111.78</ele>
        <time>2015-10-11T06:31:12Z</time>
      </trkpt>
      <trkpt lat="49.30865" lon="0.86997">
        <ele>111.84</ele>
        <time>2015-10-11T06:31:14Z</time>
      </trkpt>
      <trkpt lat="49.30859" lon="0.86981">
        <ele>111.87</ele>
        <time>2015-10-11T06:31:16Z</time>
      </trkpt>
      <trkpt lat="49.30855" lon="0.86965">
        <ele>111.86</ele>
        <time>2015-10-11T06:31:18Z</time>
      </trkpt>
      <trkpt lat="49.30858" lon="0.8695">
        <ele>112.11</ele>
        <time>2015-10-11T06:31:20Z</time>
      </trkpt>
      <trkpt lat="49.30868" lon="0.86939">
        <ele>112.47</ele>
        <time>2015-10-11T06:31:22Z</time>
      </trkpt>
      <trkpt lat="49.30878" lon="0.86927">
        <ele>112.26</ele>
        <time>2015-10-11T06:31:24Z</time>
      </trkpt>
      <trkpt lat="49.30885" lon="0.86914">
        <ele>111.26</ele>
        <time>2015-10-11T06:31:26Z</time>
      </trkpt>
      <trkpt lat="49.30892" lon="0.86899">
        <ele>110.49</ele>
        <time>2015-10-11T06:31:28Z</time>
      </trkpt>
      <trkpt lat="49.30898" lon="0.86884">
        <ele>110.66</ele>
        <time>2015-10-11T06:31:30Z</time>
      </trkpt>
      <trkpt lat="49.30903" lon="0.86869">
        <ele>111.76</ele>
        <time>2015-10-11T06:31:32Z</time>
      </trkpt>
      <trkpt lat="49.30907" lon="0.86855">
        <ele>112.93</ele>
        <time>2015-10-11T06:31:34Z</time>
      </trkpt>
      <trkpt lat="49.30912" lon="0.8684">
        <ele>114.22</ele>
        <time>2015-10-11T06:31:36Z</time>
      </trkpt>
      <trkpt lat="49.30917" lon="0.86825">
        <ele>115.71</ele>
        <time>2015-10-11T06:31:38Z</time>
      </trkpt>
      <trkpt lat="49.30922" lon="0.8681">
        <ele>117.02</ele>
        <time>2015-10-11T06:31:40Z</time>
      </trkpt>
      <trkpt lat="49.30926" lon="0.86795">
        <ele>118.01</ele>
        <time>2015-10-11T06:31:42Z</time>
      </trkpt>
      <trkpt lat="49.30932" lon="0.86782">
        <ele>118.94</ele>
        <time>2015-10-11T06:31:44Z</time>
      </trkpt>
      <trkpt lat="49.30937" lon="0.86767">
        <ele>119.66</ele>
        <time>2015-10-11T06:31:46Z</time>
      </trkpt>
      <trkpt lat="49.30943" lon="0.86752">
        <ele>119.89</ele>
        <time>2015-10-11T06:31:48Z</time>
      </trkpt>
      <trkpt lat="49.30948" lon="0.86737">
        <ele>119.61</ele>
        <time>2015-10-11T06:31:50Z</time>
      </trkpt>
      <trkpt lat="49.30953" lon="0.8672">
        <ele>119.16</ele>
        <time>2015-10-11T06:31:52Z</time>
      </trkpt>
      <trkpt lat="49.30959" lon="0.86702">
        <ele>119.34</ele>
        <time>2015-10-11T06:31:54Z</time>
      </trkpt>
      <trkpt lat="49.30967" lon="0.86685">
        <ele>119.62</ele>
        <time>2015-10-11T06:31:56Z</time>
      </trkpt>
      <trkpt lat="49.30974" lon="0.86669">
        <ele>120.77</ele>
        <time>2015-10-11T06:31:58Z</time>
      </trkpt>
      <trkpt lat="49.30983" lon="0.86653">
        <ele>121.87</ele>
        <time>2015-10-11T06:32:00Z</time>
      </trkpt>
      <trkpt lat="49.30993" lon="0.86638">
        <ele>122.43</ele>
        <time>2015-10-11T06:32:02Z</time>
      </trkpt>
      <trkpt lat="49.31002" lon="0.86624">
        <ele>123.15</ele>
        <time>2015-10-11T06:32:04Z</time>
      </trkpt>
      <trkpt lat="49.31009" lon="0.86613">
        <ele>123.6</ele>
        <time>2015-10-11T06:32:06Z</time>
      </trkpt>
      <trkpt lat="49.31017" lon="0.866">
        <ele>124.45</ele>
        <time>2015-10-11T06:32:08Z</time>
      </trkpt>
      <trkpt lat="49.31025" lon="0.86587">
        <ele>125.07</ele>
        <time>2015-10-11T06:32:10Z</time>
      </trkpt>
      <trkpt lat="49.31033" lon="0.86573">
        <ele>125.65</ele>
        <time>2015-10-11T06:32:12Z</time>
      </trkpt>
      <trkpt lat="49.31041" lon="0.8656">
        <ele>126.43</ele>
        <time>2015-10-11T06:32:14Z</time>
      </trkpt>
      <trkpt lat="49.31048" lon="0.86546">
        <ele>127.28</ele>
        <time>2015-10-11T06:32:16Z</time>
      </trkpt>
      <trkpt lat="49.31055" lon="0.86532">
        <ele>127.61</ele>
        <time>2015-10-11T06:32:18Z</time>
      </trkpt>
      <trkpt lat="49.31062" lon="0.86518">
        <ele>127.32</ele>
        <time>2015-10-11T06:32:20Z</time>
      </trkpt>
      <trkpt lat="49.31069" lon="0.86503">
        <ele>126.72</ele>
        <time>2015-10-11T06:32:22Z</time>
      </trkpt>
      <trkpt lat="49.31076" lon="0.86488">
        <ele>126.36</ele>
        <time>2015-10-11T06:32:24Z</time>
      </trkpt>
      <trkpt lat="49.31083" lon="0.86474">
        <ele>125.91</ele>
        <time>2015-10-11T06:32:26Z</time>
      </trkpt>
      <trkpt lat="49.31089" lon="0.86461">
        <ele>125.2</ele>
        <time>2015-10-11T06:32:28Z</time>
      </trkpt>
      <trkpt lat="49.31095" lon="0.86448">
        <ele>124.3</ele>
        <time>2015-10-11T06:32:30Z</time>
      </trkpt>
      <trkpt lat="49.31101" lon="0.86436">
        <ele>123.41</ele>
        <time>2015-10-11T06:32:32Z</time>
      </trkpt>
      <trkpt lat="49.31106" lon="0.86423">
        <ele>122.68</ele>
        <time>2015-10-11T06:32:34Z</time>
      </trkpt>
      <trkpt lat="49.31111" lon="0.86409">
        <ele>121.8</ele>
        <time>2015-10-11T06:32:36Z</time>
      </trkpt>
      <trkpt lat="49.31116" lon="0.86395">
        <ele>121.58</ele>
        <time>2015-10-11T06:32:38Z</time>
      </trkpt>
      <trkpt lat="49.31121" lon="0.86381">
        <ele>121.67</ele>
        <time>2015-10-11T06:32:40Z</time>
      </trkpt>
      <trkpt lat="49.31127" lon="0.86365">
        <ele>121.82</ele>
        <time>2015-10-11T06:32:42Z</time>
      </trkpt>
      <trkpt lat="49.31131" lon="0.86348">
        <ele>121.7</ele>
        <time>2015-10-11T06:32:44Z</time>
      </trkpt>
      <trkpt lat="49.31135" lon="0.8633">
        <ele>121.51</ele>
        <time>2015-10-11T06:32:46Z</time>
      </trkpt>
      <trkpt lat="49.31138" lon="0.8631">
        <ele>121.23</ele>
        <time>2015-10-11T06:32:48Z</time>
      </trkpt>
      <trkpt lat="49.31138" lon="0.86291">
        <ele>121.6</ele>
        <time>2015-10-11T06:32:50Z</time>
      </trkpt>
      <trkpt lat="49.31138" lon="0.86272">
        <ele>122.13</ele>
        <time>2015-10-11T06:32:52Z</time>
      </trkpt>
      <trkpt lat="49.31137" lon="0.86255">
        <ele>122.31</ele>
        <time>2015-10-11T06:32:54Z</time>
      </trkpt>
      <trkpt lat="49.31136" lon="0.86238">
        <ele>122.15</ele>
        <time>2015-10-11T06:32:56Z</time>
      </trkpt>
      <trkpt lat="49.31136" lon="0.8622">
        <ele>122.26</ele>
        <time>2015-10-11T06:32:58Z</time>
      </trkpt>
      <trkpt lat="49.31135" lon="0.86202">
        <ele>122.8</ele>
        <time>2015-10-11T06:33:00Z</time>
      </trkpt>
      <trkpt lat="49.31134" lon="0.86185">
        <ele>123.29</ele>
        <time>2015-10-11T06:33:02Z</time>
      </trkpt>
      <trkpt lat="49.31132" lon="0.86166">
        <ele>123.17</ele>
        <time>2015-10-11T06:33:04Z</time>
      </trkpt>
      <trkpt lat="49.3113" lon="0.86147">
        <ele>122.77</ele>
        <time>2015-10-11T06:33:06Z</time>
      </trkpt>
      <trkpt lat="49.31128" lon="0.86128">
        <ele>122.28</ele>
        <time>2015-10-11T06:33:08Z</time>
      </trkpt>
      <trkpt lat="49.31125" lon="0.86108">
        <ele>122.05</ele>
        <time>2015-10-11T06:33:10Z</time>
      </trkpt>
      <trkpt lat="49.31122" lon="0.8609">
        <ele>121.98</ele>
        <time>2015-10-11T06:33:12Z</time>
      </trkpt>
      <trkpt lat="49.31119" lon="0.86071">
        <ele>121.67</ele>
        <time>2015-10-11T06:33:14Z</time>
      </trkpt>
      <trkpt lat="49.31117" lon="0.86054">
        <ele>121.28</ele>
        <time>2015-10-11T06:33:16Z</time>
      </trkpt>
      <trkpt lat="49.31115" lon="0.86036">
        <ele>120.86</ele>
        <time>2015-10-11T06:33:18Z</time>
      </trkpt>
      <trkpt lat="49.31112" lon="0.86018">
        <ele>121</ele>
        <time>2015-10-11T06:33:20Z</time>
      </trkpt>
      <trkpt lat="49.3111" lon="0.85999">
        <ele>121.1</ele>
        <time>2015-10-11T06:33:22Z</time>
      </trkpt>
      <trkpt lat="49.31108" lon="0.85981">
        <ele>121.56</ele>
        <time>2015-10-11T06:33:24Z</time>
      </trkpt>
      <trkpt lat="49.31106" lon="0.85962">
        <ele>122.19</ele>
        <time>2015-10-11T06:33:26Z</time>
      </trkpt>
      <trkpt lat="49.31104" lon="0.85944">
        <ele>122.21</ele>
        <time>2015-10-11T06:33:28Z</time>
      </trkpt>
      <trkpt lat="49.31102" lon="0.85925">
        <ele>121.98</ele>
        <time>2015-10-11T06:33:30Z</time>
      </trkpt>
      <trkpt lat="49.31101" lon="0.85907">
        <ele>121.59</ele>
        <time>2015-10-11T06:33:32Z</time>
      </trkpt>
      <trkpt lat="49.311" lon="0.8589">
        <ele>121.38</ele>
        <time>2015-10-11T06:33:34Z</time>
      </trkpt>
      <trkpt lat="49.31099" lon="0.85873">
        <ele>121.43</ele>
        <time>2015-10-11T06:33:36Z</time>
      </trkpt>
      <trkpt lat="49.31099" lon="0.85858">
        <ele>121.71</ele>
        <time>2015-10-11T06:33:38Z</time>
      </trkpt>
      <trkpt lat="49.31099" lon="0.85842">
        <ele>121.92</ele>
        <time>2015-10-11T06:33:40Z</time>
      </trkpt>
      <trkpt lat="49.31099" lon="0.85825">
        <ele>122.05</ele>
        <time>2015-10-11T06:33:42Z</time>
      </trkpt>
      <trkpt lat="49.31099" lon="0.85806">
        <ele>122.08</ele>
        <time>2015-10-11T06:33:44Z</time>
      </trkpt>
      <trkpt lat="49.311" lon="0.8579">
        <ele>122.13</ele>
        <time>2015-10-11T06:33:46Z</time>
      </trkpt>
      <trkpt lat="49.31102" lon="0.85773">
        <ele>122.15</ele>
        <time>2015-10-11T06:33:48Z</time>
      </trkpt>
      <trkpt lat="49.31108" lon="0.85756">
        <ele>122.5</ele>
        <time>2015-10-11T06:33:50Z</time>
      </trkpt>
      <trkpt lat="49.31116" lon="0.85745">
        <ele>123.04</ele>
        <time>2015-10-11T06:33:52Z</time>
      </trkpt>
      <trkpt lat="49.31124" lon="0.85734">
        <ele>123.77</ele>
        <time>2015-10-11T06:33:54Z</time>
      </trkpt>
      <trkpt lat="49.31132" lon="0.85724">
        <ele>124.44</ele>
        <time>2015-10-11T06:33:56Z</time>
      </trkpt>
      <trkpt lat="49.3114" lon="0.85715">
        <ele>124.85</ele>
        <time>2015-10-11T06:33:58Z</time>
      </trkpt>
      <trkpt lat="49.31148" lon="0.85704">
        <ele>125.49</ele>
        <time>2015-10-11T06:34:00Z</time>
      </trkpt>
      <trkpt lat="49.31154" lon="0.85692">
        <ele>126.66</ele>
        <time>2015-10-11T06:34:02Z</time>
      </trkpt>
      <trkpt lat="49.31161" lon="0.8568">
        <ele>127.51</ele>
        <time>2015-10-11T06:34:04Z</time>
      </trkpt>
      <trkpt lat="49.31167" lon="0.8567">
        <ele>127.82</ele>
        <time>2015-10-11T06:34:06Z</time>
      </trkpt>
      <trkpt lat="49.31173" lon="0.85658">
        <ele>128.06</ele>
        <time>2015-10-11T06:34:08Z</time>
      </trkpt>
      <trkpt lat="49.3118" lon="0.85647">
        <ele>128.12</ele>
        <time>2015-10-11T06:34:10Z</time>
      </trkpt>
      <trkpt lat="49.31187" lon="0.85634">
        <ele>127.67</ele>
        <time>2015-10-11T06:34:12Z</time>
      </trkpt>
      <trkpt lat="49.31193" lon="0.85621">
        <ele>127.56</ele>
        <time>2015-10-11T06:34:14Z</time>
      </trkpt>
      <trkpt lat="49.31201" lon="0.85608">
        <ele>127.64</ele>
        <time>2015-10-11T06:34:16Z</time>
      </trkpt>
      <trkpt lat="49.3121" lon="0.85595">
        <ele>127.89</ele>
        <time>2015-10-11T06:34:18Z</time>
      </trkpt>
      <trkpt lat="49.31218" lon="0.85583">
        <ele>128</ele>
        <time>2015-10-11T06:34:20Z</time>
      </trkpt>
      <trkpt lat="49.31226" lon="0.85569">
        <ele>127.97</ele>
        <time>2015-10-11T06:34:22Z</time>
      </trkpt>
      <trkpt lat="49.31234" lon="0.85554">
        <ele>127.93</ele>
        <time>2015-10-11T06:34:24Z</time>
      </trkpt>
      <trkpt lat="49.31242" lon="0.85538">
        <ele>127.88</ele>
        <time>2015-10-11T06:34:26Z</time>
      </trkpt>
      <trkpt lat="49.31248" lon="0.85522">
        <ele>127.59</ele>
        <time>2015-10-11T06:34:28Z</time>
      </trkpt>
      <trkpt lat="49.31255" lon="0.85505">
        <ele>127.53</ele>
        <time>2015-10-11T06:34:30Z</time>
      </trkpt>
      <trkpt lat="49.31261" lon="0.85489">
        <ele>127.54</ele>
        <time>2015-10-11T06:34:32Z</time>
      </trkpt>
      <trkpt lat="49.31267" lon="0.85473">
        <ele>128.02</ele>
        <time>2015-10-11T06:34:34Z</time>
      </trkpt>
      <trkpt lat="49.31273" lon="0.85458">
        <ele>128.05</ele>
        <time>2015-10-11T06:34:36Z</time>
      </trkpt>
      <trkpt lat="49.31277" lon="0.85443">
        <ele>127.59</ele>
        <time>2015-10-11T06:34:38Z</time>
      </trkpt>
      <trkpt lat="49.31281" lon="0.85425">
        <ele>127.25</ele>
        <time>2015-10-11T06:34:40Z</time>
      </trkpt>
      <trkpt lat="49.31286" lon="0.85405">
        <ele>126.98</ele>
        <time>2015-10-11T06:34:42Z</time>
      </trkpt>
      <trkpt lat="49.31292" lon="0.85387">
        <ele>126.81</ele>
        <time>2015-10-11T06:34:44Z</time>
      </trkpt>
      <trkpt lat="49.31298" lon="0.85369">
        <ele>126.53</ele>
        <time>2015-10-11T06:34:46Z</time>
      </trkpt>
      <trkpt lat="49.31306" lon="0.85354">
        <ele>126.48</ele>
        <time>2015-10-11T06:34:48Z</time>
      </trkpt>
      <trkpt lat="49.31315" lon="0.85338">
        <ele>127.04</ele>
        <time>2015-10-11T06:34:50Z</time>
      </trkpt>
      <trkpt lat="49.31325" lon="0.85322">
        <ele>128.32</ele>
        <time>2015-10-11T06:34:52Z</time>
      </trkpt>
      <trkpt lat="49.31333" lon="0.85308">
        <ele>129.24</ele>
        <time>2015-10-11T06:34:54Z</time>
      </trkpt>
      <trkpt lat="49.31341" lon="0.85295">
        <ele>129.43</ele>
        <time>2015-10-11T06:34:56Z</time>
      </trkpt>
      <trkpt lat="49.31348" lon="0.85283">
        <ele>129.46</ele>
        <time>2015-10-11T06:34:58Z</time>
      </trkpt>
      <trkpt lat="49.31355" lon="0.8527">
        <ele>129.63</ele>
        <time>2015-10-11T06:35:00Z</time>
      </trkpt>
      <trkpt lat="49.31363" lon="0.85257">
        <ele>129.91</ele>
        <time>2015-10-11T06:35:02Z</time>
      </trkpt>
      <trkpt lat="49.3137" lon="0.85244">
        <ele>130.26</ele>
        <time>2015-10-11T06:35:04Z</time>
      </trkpt>
      <trkpt lat="49.31377" lon="0.85232">
        <ele>130.34</ele>
        <time>2015-10-11T06:35:06Z</time>
      </trkpt>
      <trkpt lat="49.31385" lon="0.85217">
        <ele>130.17</ele>
        <time>2015-10-11T06:35:08Z</time>
      </trkpt>
      <trkpt lat="49.31393" lon="0.85203">
        <ele>129.89</ele>
        <time>2015-10-11T06:35:10Z</time>
      </trkpt>
      <trkpt lat="49.31399" lon="0.85189">
        <ele>129.8</ele>
        <time>2015-10-11T06:35:12Z</time>
      </trkpt>
      <trkpt lat="49.31404" lon="0.85175">
        <ele>130.04</ele>
        <time>2015-10-11T06:35:14Z</time>
      </trkpt>
      <trkpt lat="49.31409" lon="0.85159">
        <ele>130.39</ele>
        <time>2015-10-11T06:35:16Z</time>
      </trkpt>
      <trkpt lat="49.31415" lon="0.85144">
        <ele>130.66</ele>
        <time>2015-10-11T06:35:18Z</time>
      </trkpt>
      <trkpt lat="49.31424" lon="0.85137">
        <ele>130.8</ele>
        <time>2015-10-11T06:35:20Z</time>
      </trkpt>
      <trkpt lat="49.31436" lon="0.85138">
        <ele>130.09</ele>
        <time>2015-10-11T06:35:22Z</time>
      </trkpt>
      <trkpt lat="49.31447" lon="0.85141">
        <ele>128.87</ele>
        <time>2015-10-11T06:35:24Z</time>
      </trkpt>
      <trkpt lat="49.31458" lon="0.85145">
        <ele>127.98</ele>
        <time>2015-10-11T06:35:26Z</time>
      </trkpt>
      <trkpt lat="49.31469" lon="0.85147">
        <ele>126.95</ele>
        <time>2015-10-11T06:35:28Z</time>
      </trkpt>
      <trkpt lat="49.31481" lon="0.8515">
        <ele>126.23</ele>
        <time>2015-10-11T06:35:30Z</time>
      </trkpt>
      <trkpt lat="49.31493" lon="0.85154">
        <ele>125.78</ele>
        <time>2015-10-11T06:35:32Z</time>
      </trkpt>
      <trkpt lat="49.31504" lon="0.85158">
        <ele>125.17</ele>
        <time>2015-10-11T06:35:34Z</time>
      </trkpt>
      <trkpt lat="49.31517" lon="0.85163">
        <ele>124.57</ele>
        <time>2015-10-11T06:35:36Z</time>
      </trkpt>
      <trkpt lat="49.31531" lon="0.8517">
        <ele>124.74</ele>
        <time>2015-10-11T06:35:38Z</time>
      </trkpt>
      <trkpt lat="49.31544" lon="0.85177">
        <ele>125.65</ele>
        <time>2015-10-11T06:35:40Z</time>
      </trkpt>
      <trkpt lat="49.31555" lon="0.85183">
        <ele>126.68</ele>
        <time>2015-10-11T06:35:42Z</time>
      </trkpt>
      <trkpt lat="49.31564" lon="0.85188">
        <ele>127.39</ele>
        <time>2015-10-11T06:35:44Z</time>
      </trkpt>
      <trkpt lat="49.31575" lon="0.85194">
        <ele>127.7</ele>
        <time>2015-10-11T06:35:46Z</time>
      </trkpt>
      <trkpt lat="49.31585" lon="0.85199">
        <ele>127.81</ele>
        <time>2015-10-11T06:35:48Z</time>
      </trkpt>
      <trkpt lat="49.31596" lon="0.85205">
        <ele>128.09</ele>
        <time>2015-10-11T06:35:50Z</time>
      </trkpt>
      <trkpt lat="49.31606" lon="0.85209">
        <ele>128.77</ele>
        <time>2015-10-11T06:35:52Z</time>
      </trkpt>
      <trkpt lat="49.31617" lon="0.85213">
        <ele>129.24</ele>
        <time>2015-10-11T06:35:54Z</time>
      </trkpt>
      <trkpt lat="49.31626" lon="0.85217">
        <ele>129.35</ele>
        <time>2015-10-11T06:35:56Z</time>
      </trkpt>
      <trkpt lat="49.31635" lon="0.85221">
        <ele>129.13</ele>
        <time>2015-10-11T06:35:58Z</time>
      </trkpt>
      <trkpt lat="49.31644" lon="0.85225">
        <ele>128.53</ele>
        <time>2015-10-11T06:36:00Z</time>
      </trkpt>
      <trkpt lat="49.31654" lon="0.85229">
        <ele>127.73</ele>
        <time>2015-10-11T06:36:02Z</time>
      </trkpt>
      <trkpt lat="49.31662" lon="0.85232">
        <ele>127.28</ele>
        <time>2015-10-11T06:36:04Z</time>
      </trkpt>
      <trkpt lat="49.31669" lon="0.85234">
        <ele>127</ele>
        <time>2015-10-11T06:36:06Z</time>
      </trkpt>
      <trkpt lat="49.31676" lon="0.85237">
        <ele>126.84</ele>
        <time>2015-10-11T06:36:08Z</time>
      </trkpt>
      <trkpt lat="49.31682" lon="0.85239">
        <ele>126.76</ele>
        <time>2015-10-11T06:36:10Z</time>
      </trkpt>
      <trkpt lat="49.3169" lon="0.85243">
        <ele>126.71</ele>
        <time>2015-10-11T06:36:12Z</time>
      </trkpt>
      <trkpt lat="49.31699" lon="0.85247">
        <ele>126.65</ele>
        <time>2015-10-11T06:36:14Z</time>
      </trkpt>
      <trkpt lat="49.31708" lon="0.85251">
        <ele>126.57</ele>
        <time>2015-10-11T06:36:16Z</time>
      </trkpt>
      <trkpt lat="49.31718" lon="0.85256">
        <ele>126.07</ele>
        <time>2015-10-11T06:36:18Z</time>
      </trkpt>
      <trkpt lat="49.31727" lon="0.8526">
        <ele>125.47</ele>
        <time>2015-10-11T06:36:20Z</time>
      </trkpt>
      <trkpt lat="49.31734" lon="0.85263">
        <ele>124.97</ele>
        <time>2015-10-11T06:36:22Z</time>
      </trkpt>
      <trkpt lat="49.31742" lon="0.85266">
        <ele>124.34</ele>
        <time>2015-10-11T06:36:24Z</time>
      </trkpt>
      <trkpt lat="49.31752" lon="0.85271">
        <ele>123.76</ele>
        <time>2015-10-11T06:36:26Z</time>
      </trkpt>
      <trkpt lat="49.31763" lon="0.85278">
        <ele>123.25</ele>
        <time>2015-10-11T06:36:28Z</time>
      </trkpt>
      <trkpt lat="49.31775" lon="0.85285">
        <ele>122.86</ele>
        <time>2015-10-11T06:36:30Z</time>
      </trkpt>
      <trkpt lat="49.31785" lon="0.85292">
        <ele>122.4</ele>
        <time>2015-10-11T06:36:32Z</time>
      </trkpt>
      <trkpt lat="49.31793" lon="0.85298">
        <ele>122.1</ele>
        <time>2015-10-11T06:36:34Z</time>
      </trkpt>
      <trkpt lat="49.31797" lon="0.85302">
        <ele>122.01</ele>
        <time>2015-10-11T06:36:42Z</time>
      </trkpt>
      <trkpt lat="49.31801" lon="0.85305">
        <ele>122.14</ele>
        <time>2015-10-11T06:36:44Z</time>
      </trkpt>
      <trkpt lat="49.31806" lon="0.85307">
        <ele>122.47</ele>
        <time>2015-10-11T06:36:46Z</time>
      </trkpt>
      <trkpt lat="49.31815" lon="0.8531">
        <ele>123.07</ele>
        <time>2015-10-11T06:36:48Z</time>
      </trkpt>
      <trkpt lat="49.31825" lon="0.85314">
        <ele>123.65</ele>
        <time>2015-10-11T06:36:50Z</time>
      </trkpt>
      <trkpt lat="49.31835" lon="0.85318">
        <ele>123.84</ele>
        <time>2015-10-11T06:36:52Z</time>
      </trkpt>
      <trkpt lat="49.31845" lon="0.85324">
        <ele>123.77</ele>
        <time>2015-10-11T06:36:54Z</time>
      </trkpt>
      <trkpt lat="49.31855" lon="0.85329">
        <ele>123.6</ele>
        <time>2015-10-11T06:36:56Z</time>
      </trkpt>
      <trkpt lat="49.31865" lon="0.85335">
        <ele>123.62</ele>
        <time>2015-10-11T06:36:58Z</time>
      </trkpt>
      <trkpt lat="49.31876" lon="0.85342">
        <ele>123.44</ele>
        <time>2015-10-11T06:37:00Z</time>
      </trkpt>
      <trkpt lat="49.31886" lon="0.85348">
        <ele>122.96</ele>
        <time>2015-10-11T06:37:02Z</time>
      </trkpt>
      <trkpt lat="49.31898" lon="0.85355">
        <ele>121.92</ele>
        <time>2015-10-11T06:37:04Z</time>
      </trkpt>
      <trkpt lat="49.31909" lon="0.85362">
        <ele>121.32</ele>
        <time>2015-10-11T06:37:06Z</time>
      </trkpt>
      <trkpt lat="49.31922" lon="0.85363">
        <ele>120.42</ele>
        <time>2015-10-11T06:37:08Z</time>
      </trkpt>
      <trkpt lat="49.31928" lon="0.85348">
        <ele>120.02</ele>
        <time>2015-10-11T06:37:10Z</time>
      </trkpt>
      <trkpt lat="49.31933" lon="0.85328">
        <ele>119.35</ele>
        <time>2015-10-11T06:37:12Z</time>
      </trkpt>
      <trkpt lat="49.3194" lon="0.85308">
        <ele>118.15</ele>
        <time>2015-10-11T06:37:14Z</time>
      </trkpt>
      <trkpt lat="49.31948" lon="0.85282">
        <ele>116.5</ele>
        <time>2015-10-11T06:37:16Z</time>
      </trkpt>
      <trkpt lat="49.31958" lon="0.85256">
        <ele>114.64</ele>
        <time>2015-10-11T06:37:18Z</time>
      </trkpt>
      <trkpt lat="49.31973" lon="0.85236">
        <ele>112.38</ele>
        <time>2015-10-11T06:37:20Z</time>
      </trkpt>
      <trkpt lat="49.31988" lon="0.85214">
        <ele>110.21</ele>
        <time>2015-10-11T06:37:22Z</time>
      </trkpt>
      <trkpt lat="49.32004" lon="0.85195">
        <ele>108.76</ele>
        <time>2015-10-11T06:37:24Z</time>
      </trkpt>
      <trkpt lat="49.3202" lon="0.85175">
        <ele>107.67</ele>
        <time>2015-10-11T06:37:26Z</time>
      </trkpt>
      <trkpt lat="49.32039" lon="0.85155">
        <ele>106.47</ele>
        <time>2015-10-11T06:37:28Z</time>
      </trkpt>
      <trkpt lat="49.32058" lon="0.85138">
        <ele>105.34</ele>
        <time>2015-10-11T06:37:30Z</time>
      </trkpt>
      <trkpt lat="49.32075" lon="0.85121">
        <ele>104.3</ele>
        <time>2015-10-11T06:37:32Z</time>
      </trkpt>
      <trkpt lat="49.32085" lon="0.85101">
        <ele>102.9</ele>
        <time>2015-10-11T06:37:34Z</time>
      </trkpt>
      <trkpt lat="49.32086" lon="0.8508">
        <ele>101.24</ele>
        <time>2015-10-11T06:37:36Z</time>
      </trkpt>
      <trkpt lat="49.32084" lon="0.85058">
        <ele>99.85</ele>
        <time>2015-10-11T06:37:38Z</time>
      </trkpt>
      <trkpt lat="49.32089" lon="0.85039">
        <ele>98.91</ele>
        <time>2015-10-11T06:37:40Z</time>
      </trkpt>
      <trkpt lat="49.321" lon="0.85027">
        <ele>98.18</ele>
        <time>2015-10-11T06:37:42Z</time>
      </trkpt>
      <trkpt lat="49.3211" lon="0.85022">
        <ele>96.99</ele>
        <time>2015-10-11T06:37:44Z</time>
      </trkpt>
      <trkpt lat="49.32118" lon="0.8503">
        <ele>96.5</ele>
        <time>2015-10-11T06:37:46Z</time>
      </trkpt>
      <trkpt lat="49.32124" lon="0.85045">
        <ele>96.77</ele>
        <time>2015-10-11T06:37:48Z</time>
      </trkpt>
      <trkpt lat="49.32131" lon="0.85063">
        <ele>97.62</ele>
        <time>2015-10-11T06:37:50Z</time>
      </trkpt>
      <trkpt lat="49.3214" lon="0.85081">
        <ele>98.55</ele>
        <time>2015-10-11T06:37:52Z</time>
      </trkpt>
      <trkpt lat="49.32151" lon="0.85093">
        <ele>99.78</ele>
        <time>2015-10-11T06:37:54Z</time>
      </trkpt>
      <trkpt lat="49.32161" lon="0.85089">
        <ele>100.42</ele>
        <time>2015-10-11T06:37:56Z</time>
      </trkpt>
      <trkpt lat="49.32169" lon="0.85081">
        <ele>100.92</ele>
        <time>2015-10-11T06:37:58Z</time>
      </trkpt>
      <trkpt lat="49.32178" lon="0.85071">
        <ele>101.78</ele>
        <time>2015-10-11T06:38:00Z</time>
      </trkpt>
      <trkpt lat="49.32186" lon="0.85062">
        <ele>102.74</ele>
        <time>2015-10-11T06:38:02Z</time>
      </trkpt>
      <trkpt lat="49.32195" lon="0.85052">
        <ele>103.44</ele>
        <time>2015-10-11T06:38:04Z</time>
      </trkpt>
      <trkpt lat="49.32203" lon="0.85044">
        <ele>104.01</ele>
        <time>2015-10-11T06:38:06Z</time>
      </trkpt>
      <trkpt lat="49.32212" lon="0.85037">
        <ele>104.2</ele>
        <time>2015-10-11T06:38:08Z</time>
      </trkpt>
      <trkpt lat="49.32222" lon="0.8503">
        <ele>104.06</ele>
        <time>2015-10-11T06:38:10Z</time>
      </trkpt>
      <trkpt lat="49.32233" lon="0.85025">
        <ele>103.35</ele>
        <time>2015-10-11T06:38:12Z</time>
      </trkpt>
      <trkpt lat="49.32243" lon="0.8502">
        <ele>102.9</ele>
        <time>2015-10-11T06:38:14Z</time>
      </trkpt>
      <trkpt lat="49.32254" lon="0.85013">
        <ele>102.5</ele>
        <time>2015-10-11T06:38:16Z</time>
      </trkpt>
      <trkpt lat="49.32265" lon="0.85006">
        <ele>102.55</ele>
        <time>2015-10-11T06:38:18Z</time>
      </trkpt>
      <trkpt lat="49.32275" lon="0.84998">
        <ele>103.49</ele>
        <time>2015-10-11T06:38:20Z</time>
      </trkpt>
      <trkpt lat="49.32286" lon="0.84988">
        <ele>104.75</ele>
        <time>2015-10-11T06:38:22Z</time>
      </trkpt>
      <trkpt lat="49.32297" lon="0.84979">
        <ele>105.67</ele>
        <time>2015-10-11T06:38:24Z</time>
      </trkpt>
      <trkpt lat="49.32309" lon="0.8497">
        <ele>106.73</ele>
        <time>2015-10-11T06:38:26Z</time>
      </trkpt>
      <trkpt lat="49.32323" lon="0.84961">
        <ele>107.28</ele>
        <time>2015-10-11T06:38:28Z</time>
      </trkpt>
      <trkpt lat="49.32337" lon="0.84954">
        <ele>107.64</ele>
        <time>2015-10-11T06:38:30Z</time>
      </trkpt>
      <trkpt lat="49.32349" lon="0.84948">
        <ele>107.93</ele>
        <time>2015-10-11T06:38:32Z</time>
      </trkpt>
      <trkpt lat="49.32359" lon="0.84943">
        <ele>107.92</ele>
        <time>2015-10-11T06:38:34Z</time>
      </trkpt>
      <trkpt lat="49.3237" lon="0.84938">
        <ele>107.92</ele>
        <time>2015-10-11T06:38:36Z</time>
      </trkpt>
      <trkpt lat="49.32379" lon="0.84933">
        <ele>107.24</ele>
        <time>2015-10-11T06:38:38Z</time>
      </trkpt>
      <trkpt lat="49.32388" lon="0.84929">
        <ele>106.25</ele>
        <time>2015-10-11T06:38:40Z</time>
      </trkpt>
      <trkpt lat="49.32397" lon="0.84924">
        <ele>105.3</ele>
        <time>2015-10-11T06:38:42Z</time>
      </trkpt>
      <trkpt lat="49.32406" lon="0.8492">
        <ele>104.45</ele>
        <time>2015-10-11T06:38:44Z</time>
      </trkpt>
      <trkpt lat="49.32415" lon="0.84916">
        <ele>104.12</ele>
        <time>2015-10-11T06:38:46Z</time>
      </trkpt>
      <trkpt lat="49.32423" lon="0.84911">
        <ele>104.19</ele>
        <time>2015-10-11T06:38:48Z</time>
      </trkpt>
      <trkpt lat="49.32431" lon="0.84908">
        <ele>104.49</ele>
        <time>2015-10-11T06:38:50Z</time>
      </trkpt>
      <trkpt lat="49.32438" lon="0.84905">
        <ele>104.74</ele>
        <time>2015-10-11T06:38:52Z</time>
      </trkpt>
      <trkpt lat="49.32442" lon="0.84907">
        <ele>104.98</ele>
        <time>2015-10-11T06:38:54Z</time>
      </trkpt>
      <trkpt lat="49.32446" lon="0.84913">
        <ele>105.2</ele>
        <time>2015-10-11T06:38:56Z</time>
      </trkpt>
      <trkpt lat="49.32451" lon="0.84913">
        <ele>105.36</ele>
        <time>2015-10-11T06:38:58Z</time>
      </trkpt>
      <trkpt lat="49.32455" lon="0.84912">
        <ele>105.49</ele>
        <time>2015-10-11T06:39:00Z</time>
      </trkpt>
      <trkpt lat="49.32459" lon="0.84907">
        <ele>105.62</ele>
        <time>2015-10-11T06:39:02Z</time>
      </trkpt>
      <trkpt lat="49.32464" lon="0.84902">
        <ele>105.83</ele>
        <time>2015-10-11T06:39:04Z</time>
      </trkpt>
      <trkpt lat="49.32469" lon="0.84898">
        <ele>106.1</ele>
        <time>2015-10-11T06:39:06Z</time>
      </trkpt>
      <trkpt lat="49.32473" lon="0.84894">
        <ele>106.33</ele>
        <time>2015-10-11T06:39:08Z</time>
      </trkpt>
      <trkpt lat="49.32474" lon="0.84884">
        <ele>106.89</ele>
        <time>2015-10-11T06:39:12Z</time>
      </trkpt>
      <trkpt lat="49.32468" lon="0.84884">
        <ele>107.24</ele>
        <time>2015-10-11T06:39:14Z</time>
      </trkpt>
      <trkpt lat="49.32463" lon="0.84886">
        <ele>107.59</ele>
        <time>2015-10-11T06:39:16Z</time>
      </trkpt>
      <trkpt lat="49.32458" lon="0.84887">
        <ele>107.93</ele>
        <time>2015-10-11T06:39:18Z</time>
      </trkpt>
      <trkpt lat="49.32454" lon="0.84878">
        <ele>109.26</ele>
        <time>2015-10-11T06:39:20Z</time>
      </trkpt>
      <trkpt lat="49.32455" lon="0.84867">
        <ele>111.06</ele>
        <time>2015-10-11T06:39:22Z</time>
      </trkpt>
      <trkpt lat="49.32457" lon="0.84857">
        <ele>112.68</ele>
        <time>2015-10-11T06:39:24Z</time>
      </trkpt>
      <trkpt lat="49.3246" lon="0.84844">
        <ele>113.5</ele>
        <time>2015-10-11T06:39:26Z</time>
      </trkpt>
      <trkpt lat="49.32463" lon="0.84833">
        <ele>113.93</ele>
        <time>2015-10-11T06:39:28Z</time>
      </trkpt>
      <trkpt lat="49.32465" lon="0.84822">
        <ele>114.19</ele>
        <time>2015-10-11T06:39:30Z</time>
      </trkpt>
      <trkpt lat="49.32465" lon="0.84809">
        <ele>114.36</ele>
        <time>2015-10-11T06:39:32Z</time>
      </trkpt>
      <trkpt lat="49.32467" lon="0.84795">
        <ele>114.82</ele>
        <time>2015-10-11T06:39:34Z</time>
      </trkpt>
      <trkpt lat="49.32468" lon="0.84781">
        <ele>115.33</ele>
        <time>2015-10-11T06:39:36Z</time>
      </trkpt>
      <trkpt lat="49.32469" lon="0.84766">
        <ele>115.35</ele>
        <time>2015-10-11T06:39:38Z</time>
      </trkpt>
      <trkpt lat="49.32473" lon="0.84751">
        <ele>114.64</ele>
        <time>2015-10-11T06:39:40Z</time>
      </trkpt>
      <trkpt lat="49.32476" lon="0.84736">
        <ele>113.86</ele>
        <time>2015-10-11T06:39:42Z</time>
      </trkpt>
      <trkpt lat="49.32478" lon="0.84721">
        <ele>113.37</ele>
        <time>2015-10-11T06:39:44Z</time>
      </trkpt>
      <trkpt lat="49.32478" lon="0.84705">
        <ele>113.46</ele>
        <time>2015-10-11T06:39:46Z</time>
      </trkpt>
      <trkpt lat="49.32474" lon="0.8469">
        <ele>113.76</ele>
        <time>2015-10-11T06:39:48Z</time>
      </trkpt>
      <trkpt lat="49.32471" lon="0.84674">
        <ele>114.06</ele>
        <time>2015-10-11T06:39:50Z</time>
      </trkpt>
      <trkpt lat="49.32468" lon="0.84659">
        <ele>114.8</ele>
        <time>2015-10-11T06:39:52Z</time>
      </trkpt>
      <trkpt lat="49.32464" lon="0.84644">
        <ele>114.84</ele>
        <time>2015-10-11T06:39:54Z</time>
      </trkpt>
      <trkpt lat="49.32462" lon="0.84629">
        <ele>115.44</ele>
        <time>2015-10-11T06:39:56Z</time>
      </trkpt>
      <trkpt lat="49.3246" lon="0.84615">
        <ele>116.35</ele>
        <time>2015-10-11T06:39:58Z</time>
      </trkpt>
      <trkpt lat="49.32456" lon="0.846">
        <ele>118.12</ele>
        <time>2015-10-11T06:40:00Z</time>
      </trkpt>
      <trkpt lat="49.3245" lon="0.84585">
        <ele>119.35</ele>
        <time>2015-10-11T06:40:02Z</time>
      </trkpt>
      <trkpt lat="49.32445" lon="0.84572">
        <ele>119.83</ele>
        <time>2015-10-11T06:40:04Z</time>
      </trkpt>
      <trkpt lat="49.32446" lon="0.84558">
        <ele>120</ele>
        <time>2015-10-11T06:40:06Z</time>
      </trkpt>
      <trkpt lat="49.32449" lon="0.84546">
        <ele>119.16</ele>
        <time>2015-10-11T06:40:08Z</time>
      </trkpt>
      <trkpt lat="49.32453" lon="0.84531">
        <ele>118.25</ele>
        <time>2015-10-11T06:40:10Z</time>
      </trkpt>
      <trkpt lat="49.32458" lon="0.84518">
        <ele>117.5</ele>
        <time>2015-10-11T06:40:12Z</time>
      </trkpt>
      <trkpt lat="49.32464" lon="0.84504">
        <ele>116.25</ele>
        <time>2015-10-11T06:40:14Z</time>
      </trkpt>
      <trkpt lat="49.32471" lon="0.84494">
        <ele>115.51</ele>
        <time>2015-10-11T06:40:16Z</time>
      </trkpt>
      <trkpt lat="49.32475" lon="0.8448">
        <ele>114.58</ele>
        <time>2015-10-11T06:40:18Z</time>
      </trkpt>
      <trkpt lat="49.32481" lon="0.8447">
        <ele>113.74</ele>
        <time>2015-10-11T06:40:20Z</time>
      </trkpt>
      <trkpt lat="49.3249" lon="0.84462">
        <ele>112.63</ele>
        <time>2015-10-11T06:40:22Z</time>
      </trkpt>
      <trkpt lat="49.32496" lon="0.84457">
        <ele>111.97</ele>
        <time>2015-10-11T06:40:24Z</time>
      </trkpt>
      <trkpt lat="49.32502" lon="0.84452">
        <ele>111.53</ele>
        <time>2015-10-11T06:40:26Z</time>
      </trkpt>
      <trkpt lat="49.32509" lon="0.84449">
        <ele>111.23</ele>
        <time>2015-10-11T06:40:28Z</time>
      </trkpt>
      <trkpt lat="49.32515" lon="0.84445">
        <ele>111.05</ele>
        <time>2015-10-11T06:40:30Z</time>
      </trkpt>
      <trkpt lat="49.32522" lon="0.84442">
        <ele>110.87</ele>
        <time>2015-10-11T06:40:32Z</time>
      </trkpt>
      <trkpt lat="49.32529" lon="0.8444">
        <ele>110.77</ele>
        <time>2015-10-11T06:40:34Z</time>
      </trkpt>
      <trkpt lat="49.32536" lon="0.84438">
        <ele>110.66</ele>
        <time>2015-10-11T06:40:36Z</time>
      </trkpt>
      <trkpt lat="49.32543" lon="0.84433">
        <ele>110.51</ele>
        <time>2015-10-11T06:40:38Z</time>
      </trkpt>
      <trkpt lat="49.32547" lon="0.84422">
        <ele>110.13</ele>
        <time>2015-10-11T06:40:40Z</time>
      </trkpt>
      <trkpt lat="49.32554" lon="0.84422">
        <ele>109.65</ele>
        <time>2015-10-11T06:40:42Z</time>
      </trkpt>
      <trkpt lat="49.32563" lon="0.84422">
        <ele>109.6</ele>
        <time>2015-10-11T06:40:44Z</time>
      </trkpt>
      <trkpt lat="49.32571" lon="0.8442">
        <ele>109.45</ele>
        <time>2015-10-11T06:40:46Z</time>
      </trkpt>
      <trkpt lat="49.32578" lon="0.84422">
        <ele>109.34</ele>
        <time>2015-10-11T06:40:48Z</time>
      </trkpt>
      <trkpt lat="49.32586" lon="0.84418">
        <ele>108.98</ele>
        <time>2015-10-11T06:40:50Z</time>
      </trkpt>
      <trkpt lat="49.32593" lon="0.84416">
        <ele>108.79</ele>
        <time>2015-10-11T06:40:52Z</time>
      </trkpt>
      <trkpt lat="49.32602" lon="0.84419">
        <ele>108.63</ele>
        <time>2015-10-11T06:40:54Z</time>
      </trkpt>
      <trkpt lat="49.32611" lon="0.84414">
        <ele>109.03</ele>
        <time>2015-10-11T06:40:56Z</time>
      </trkpt>
      <trkpt lat="49.3262" lon="0.84409">
        <ele>109.62</ele>
        <time>2015-10-11T06:40:58Z</time>
      </trkpt>
      <trkpt lat="49.3263" lon="0.84409">
        <ele>110.17</ele>
        <time>2015-10-11T06:41:00Z</time>
      </trkpt>
      <trkpt lat="49.3264" lon="0.8441">
        <ele>111.05</ele>
        <time>2015-10-11T06:41:02Z</time>
      </trkpt>
      <trkpt lat="49.32645" lon="0.84403">
        <ele>112.16</ele>
        <time>2015-10-11T06:41:04Z</time>
      </trkpt>
      <trkpt lat="49.32651" lon="0.84395">
        <ele>113.37</ele>
        <time>2015-10-11T06:41:06Z</time>
      </trkpt>
      <trkpt lat="49.32659" lon="0.84392">
        <ele>114.15</ele>
        <time>2015-10-11T06:41:08Z</time>
      </trkpt>
      <trkpt lat="49.32666" lon="0.84384">
        <ele>114.78</ele>
        <time>2015-10-11T06:41:10Z</time>
      </trkpt>
      <trkpt lat="49.32672" lon="0.84375">
        <ele>116.37</ele>
        <time>2015-10-11T06:41:12Z</time>
      </trkpt>
      <trkpt lat="49.32681" lon="0.84368">
        <ele>119.08</ele>
        <time>2015-10-11T06:41:14Z</time>
      </trkpt>
      <trkpt lat="49.32688" lon="0.84361">
        <ele>120.62</ele>
        <time>2015-10-11T06:41:16Z</time>
      </trkpt>
      <trkpt lat="49.32694" lon="0.84351">
        <ele>121.51</ele>
        <time>2015-10-11T06:41:18Z</time>
      </trkpt>
      <trkpt lat="49.32698" lon="0.8434">
        <ele>122.02</ele>
        <time>2015-10-11T06:41:20Z</time>
      </trkpt>
      <trkpt lat="49.32708" lon="0.84337">
        <ele>122.34</ele>
        <time>2015-10-11T06:41:22Z</time>
      </trkpt>
      <trkpt lat="49.32716" lon="0.84335">
        <ele>122.56</ele>
        <time>2015-10-11T06:41:24Z</time>
      </trkpt>
      <trkpt lat="49.32723" lon="0.8433">
        <ele>122.7</ele>
        <time>2015-10-11T06:41:26Z</time>
      </trkpt>
      <trkpt lat="49.32727" lon="0.84325">
        <ele>122.82</ele>
        <time>2015-10-11T06:41:28Z</time>
      </trkpt>
      <trkpt lat="49.32731" lon="0.84317">
        <ele>122.92</ele>
        <time>2015-10-11T06:41:30Z</time>
      </trkpt>
      <trkpt lat="49.32738" lon="0.84313">
        <ele>122.94</ele>
        <time>2015-10-11T06:41:32Z</time>
      </trkpt>
      <trkpt lat="49.32742" lon="0.84308">
        <ele>122.86</ele>
        <time>2015-10-11T06:41:34Z</time>
      </trkpt>
      <trkpt lat="49.32746" lon="0.84304">
        <ele>122.72</ele>
        <time>2015-10-11T06:41:36Z</time>
      </trkpt>
      <trkpt lat="49.32751" lon="0.84301">
        <ele>122.59</ele>
        <time>2015-10-11T06:41:38Z</time>
      </trkpt>
      <trkpt lat="49.32756" lon="0.84295">
        <ele>122.5</ele>
        <time>2015-10-11T06:41:40Z</time>
      </trkpt>
      <trkpt lat="49.32762" lon="0.84289">
        <ele>122.47</ele>
        <time>2015-10-11T06:41:42Z</time>
      </trkpt>
      <trkpt lat="49.32768" lon="0.84286">
        <ele>122.45</ele>
        <time>2015-10-11T06:41:44Z</time>
      </trkpt>
      <trkpt lat="49.32774" lon="0.84282">
        <ele>122.42</ele>
        <time>2015-10-11T06:41:46Z</time>
      </trkpt>
      <trkpt lat="49.3278" lon="0.84276">
        <ele>122.42</ele>
        <time>2015-10-11T06:41:48Z</time>
      </trkpt>
      <trkpt lat="49.32786" lon="0.8427">
        <ele>122.4</ele>
        <time>2015-10-11T06:41:50Z</time>
      </trkpt>
      <trkpt lat="49.32793" lon="0.84267">
        <ele>122.41</ele>
        <time>2015-10-11T06:41:52Z</time>
      </trkpt>
      <trkpt lat="49.32799" lon="0.84264">
        <ele>122.83</ele>
        <time>2015-10-11T06:41:54Z</time>
      </trkpt>
      <trkpt lat="49.32805" lon="0.84261">
        <ele>123.06</ele>
        <time>2015-10-11T06:41:56Z</time>
      </trkpt>
      <trkpt lat="49.32813" lon="0.84256">
        <ele>123.22</ele>
        <time>2015-10-11T06:41:58Z</time>
      </trkpt>
      <trkpt lat="49.3282" lon="0.84251">
        <ele>123.27</ele>
        <time>2015-10-11T06:42:00Z</time>
      </trkpt>
      <trkpt lat="49.32828" lon="0.84248">
        <ele>123.12</ele>
        <time>2015-10-11T06:42:02Z</time>
      </trkpt>
      <trkpt lat="49.32834" lon="0.84244">
        <ele>122.99</ele>
        <time>2015-10-11T06:42:04Z</time>
      </trkpt>
      <trkpt lat="49.32843" lon="0.84239">
        <ele>122.5</ele>
        <time>2015-10-11T06:42:06Z</time>
      </trkpt>
      <trkpt lat="49.32853" lon="0.84233">
        <ele>122.06</ele>
        <time>2015-10-11T06:42:08Z</time>
      </trkpt>
      <trkpt lat="49.32862" lon="0.84226">
        <ele>121.11</ele>
        <time>2015-10-11T06:42:10Z</time>
      </trkpt>
      <trkpt lat="49.3287" lon="0.8422">
        <ele>120.08</ele>
        <time>2015-10-11T06:42:12Z</time>
      </trkpt>
      <trkpt lat="49.3288" lon="0.84217">
        <ele>119.59</ele>
        <time>2015-10-11T06:42:14Z</time>
      </trkpt>
      <trkpt lat="49.32888" lon="0.84213">
        <ele>119.41</ele>
        <time>2015-10-11T06:42:16Z</time>
      </trkpt>
      <trkpt lat="49.329" lon="0.8421">
        <ele>119.06</ele>
        <time>2015-10-11T06:42:18Z</time>
      </trkpt>
      <trkpt lat="49.32908" lon="0.84203">
        <ele>118.5</ele>
        <time>2015-10-11T06:42:20Z</time>
      </trkpt>
      <trkpt lat="49.32917" lon="0.84197">
        <ele>117.71</ele>
        <time>2015-10-11T06:42:22Z</time>
      </trkpt>
      <trkpt lat="49.32926" lon="0.84191">
        <ele>117.35</ele>
        <time>2015-10-11T06:42:24Z</time>
      </trkpt>
      <trkpt lat="49.32937" lon="0.84186">
        <ele>117.19</ele>
        <time>2015-10-11T06:42:26Z</time>
      </trkpt>
      <trkpt lat="49.32942" lon="0.84192">
        <ele>117.12</ele>
        <time>2015-10-11T06:42:28Z</time>
      </trkpt>
      <trkpt lat="49.32951" lon="0.84194">
        <ele>116.92</ele>
        <time>2015-10-11T06:42:32Z</time>
      </trkpt>
      <trkpt lat="49.32958" lon="0.842">
        <ele>116.82</ele>
        <time>2015-10-11T06:42:34Z</time>
      </trkpt>
      <trkpt lat="49.32958" lon="0.84213">
        <ele>116.81</ele>
        <time>2015-10-11T06:42:36Z</time>
      </trkpt>
      <trkpt lat="49.32958" lon="0.84226">
        <ele>116.48</ele>
        <time>2015-10-11T06:42:38Z</time>
      </trkpt>
      <trkpt lat="49.32958" lon="0.8424">
        <ele>115.97</ele>
        <time>2015-10-11T06:42:40Z</time>
      </trkpt>
      <trkpt lat="49.32957" lon="0.84258">
        <ele>114.51</ele>
        <time>2015-10-11T06:42:42Z</time>
      </trkpt>
      <trkpt lat="49.32958" lon="0.84281">
        <ele>113.28</ele>
        <time>2015-10-11T06:42:44Z</time>
      </trkpt>
      <trkpt lat="49.32958" lon="0.84302">
        <ele>112.14</ele>
        <time>2015-10-11T06:42:46Z</time>
      </trkpt>
      <trkpt lat="49.32959" lon="0.84321">
        <ele>111.28</ele>
        <time>2015-10-11T06:42:48Z</time>
      </trkpt>
      <trkpt lat="49.32959" lon="0.84336">
        <ele>110.66</ele>
        <time>2015-10-11T06:42:50Z</time>
      </trkpt>
      <trkpt lat="49.32959" lon="0.84349">
        <ele>110.11</ele>
        <time>2015-10-11T06:42:52Z</time>
      </trkpt>
      <trkpt lat="49.3296" lon="0.84363">
        <ele>109.79</ele>
        <time>2015-10-11T06:42:54Z</time>
      </trkpt>
      <trkpt lat="49.3296" lon="0.84376">
        <ele>109.51</ele>
        <time>2015-10-11T06:42:56Z</time>
      </trkpt>
      <trkpt lat="49.32962" lon="0.84388">
        <ele>109.94</ele>
        <time>2015-10-11T06:42:58Z</time>
      </trkpt>
      <trkpt lat="49.32962" lon="0.84401">
        <ele>110.89</ele>
        <time>2015-10-11T06:43:00Z</time>
      </trkpt>
      <trkpt lat="49.32962" lon="0.84414">
        <ele>111.51</ele>
        <time>2015-10-11T06:43:02Z</time>
      </trkpt>
      <trkpt lat="49.32963" lon="0.84429">
        <ele>112.03</ele>
        <time>2015-10-11T06:43:04Z</time>
      </trkpt>
      <trkpt lat="49.32963" lon="0.84444">
        <ele>112.19</ele>
        <time>2015-10-11T06:43:06Z</time>
      </trkpt>
      <trkpt lat="49.32966" lon="0.8446">
        <ele>111.72</ele>
        <time>2015-10-11T06:43:08Z</time>
      </trkpt>
      <trkpt lat="49.3297" lon="0.84477">
        <ele>111.34</ele>
        <time>2015-10-11T06:43:10Z</time>
      </trkpt>
      <trkpt lat="49.32975" lon="0.84495">
        <ele>110.71</ele>
        <time>2015-10-11T06:43:12Z</time>
      </trkpt>
      <trkpt lat="49.32981" lon="0.84512">
        <ele>110.16</ele>
        <time>2015-10-11T06:43:14Z</time>
      </trkpt>
      <trkpt lat="49.32986" lon="0.8453">
        <ele>109.44</ele>
        <time>2015-10-11T06:43:16Z</time>
      </trkpt>
      <trkpt lat="49.32992" lon="0.84549">
        <ele>108.81</ele>
        <time>2015-10-11T06:43:18Z</time>
      </trkpt>
      <trkpt lat="49.32997" lon="0.84568">
        <ele>108.45</ele>
        <time>2015-10-11T06:43:20Z</time>
      </trkpt>
      <trkpt lat="49.33003" lon="0.84588">
        <ele>108.04</ele>
        <time>2015-10-11T06:43:22Z</time>
      </trkpt>
      <trkpt lat="49.33005" lon="0.8461">
        <ele>107.94</ele>
        <time>2015-10-11T06:43:24Z</time>
      </trkpt>
      <trkpt lat="49.33011" lon="0.84628">
        <ele>107.79</ele>
        <time>2015-10-11T06:43:26Z</time>
      </trkpt>
      <trkpt lat="49.33017" lon="0.84648">
        <ele>107.63</ele>
        <time>2015-10-11T06:43:28Z</time>
      </trkpt>
      <trkpt lat="49.33024" lon="0.84668">
        <ele>106.67</ele>
        <time>2015-10-11T06:43:30Z</time>
      </trkpt>
      <trkpt lat="49.33028" lon="0.84678">
        <ele>106</ele>
        <time>2015-10-11T06:43:32Z</time>
      </trkpt>
      <trkpt lat="49.33029" lon="0.84692">
        <ele>104.72</ele>
        <time>2015-10-11T06:43:44Z</time>
      </trkpt>
      <trkpt lat="49.33028" lon="0.84706">
        <ele>104.37</ele>
        <time>2015-10-11T06:43:48Z</time>
      </trkpt>
      <trkpt lat="49.33029" lon="0.84726">
        <ele>101.43</ele>
        <time>2015-10-11T06:44:16Z</time>
      </trkpt>
      <trkpt lat="49.33031" lon="0.84732">
        <ele>101.1</ele>
        <time>2015-10-11T06:44:18Z</time>
      </trkpt>
      <trkpt lat="49.33037" lon="0.84734">
        <ele>100.7</ele>
        <time>2015-10-11T06:44:20Z</time>
      </trkpt>
      <trkpt lat="49.33043" lon="0.84734">
        <ele>100.21</ele>
        <time>2015-10-11T06:44:22Z</time>
      </trkpt>
      <trkpt lat="49.33051" lon="0.84738">
        <ele>99.68</ele>
        <time>2015-10-11T06:44:24Z</time>
      </trkpt>
      <trkpt lat="49.33055" lon="0.84744">
        <ele>99.11</ele>
        <time>2015-10-11T06:44:26Z</time>
      </trkpt>
      <trkpt lat="49.33061" lon="0.84748">
        <ele>98.57</ele>
        <time>2015-10-11T06:44:28Z</time>
      </trkpt>
      <trkpt lat="49.33067" lon="0.84747">
        <ele>98.08</ele>
        <time>2015-10-11T06:44:30Z</time>
      </trkpt>
      <trkpt lat="49.33071" lon="0.84743">
        <ele>97.65</ele>
        <time>2015-10-11T06:44:32Z</time>
      </trkpt>
      <trkpt lat="49.33077" lon="0.84733">
        <ele>96.46</ele>
        <time>2015-10-11T06:44:35Z</time>
      </trkpt>
      <trkpt lat="49.3308" lon="0.84722">
        <ele>95</ele>
        <time>2015-10-11T06:44:37Z</time>
      </trkpt>
      <trkpt lat="49.33081" lon="0.84708">
        <ele>94.76</ele>
        <time>2015-10-11T06:44:39Z</time>
      </trkpt>
      <trkpt lat="49.3308" lon="0.84696">
        <ele>94.94</ele>
        <time>2015-10-11T06:44:41Z</time>
      </trkpt>
      <trkpt lat="49.33083" lon="0.84687">
        <ele>95.28</ele>
        <time>2015-10-11T06:44:43Z</time>
      </trkpt>
      <trkpt lat="49.33088" lon="0.84684">
        <ele>95.5</ele>
        <time>2015-10-11T06:44:45Z</time>
      </trkpt>
      <trkpt lat="49.33093" lon="0.84683">
        <ele>95.61</ele>
        <time>2015-10-11T06:44:47Z</time>
      </trkpt>
      <trkpt lat="49.33099" lon="0.84683">
        <ele>95.7</ele>
        <time>2015-10-11T06:44:49Z</time>
      </trkpt>
      <trkpt lat="49.33103" lon="0.84683">
        <ele>95.73</ele>
        <time>2015-10-11T06:44:51Z</time>
      </trkpt>
      <trkpt lat="49.33111" lon="0.84674">
        <ele>95.87</ele>
        <time>2015-10-11T06:44:55Z</time>
      </trkpt>
      <trkpt lat="49.3312" lon="0.84672">
        <ele>96.26</ele>
        <time>2015-10-11T06:44:57Z</time>
      </trkpt>
      <trkpt lat="49.33129" lon="0.84678">
        <ele>96.35</ele>
        <time>2015-10-11T06:44:59Z</time>
      </trkpt>
      <trkpt lat="49.33139" lon="0.84682">
        <ele>96.34</ele>
        <time>2015-10-11T06:45:01Z</time>
      </trkpt>
      <trkpt lat="49.3315" lon="0.84686">
        <ele>96.08</ele>
        <time>2015-10-11T06:45:03Z</time>
      </trkpt>
      <trkpt lat="49.33163" lon="0.84686">
        <ele>95.66</ele>
        <time>2015-10-11T06:45:05Z</time>
      </trkpt>
      <trkpt lat="49.33174" lon="0.84684">
        <ele>94.62</ele>
        <time>2015-10-11T06:45:07Z</time>
      </trkpt>
      <trkpt lat="49.33178" lon="0.84691">
        <ele>94.09</ele>
        <time>2015-10-11T06:45:09Z</time>
      </trkpt>
      <trkpt lat="49.33179" lon="0.84702">
        <ele>93.78</ele>
        <time>2015-10-11T06:45:11Z</time>
      </trkpt>
      <trkpt lat="49.33178" lon="0.84712">
        <ele>93.6</ele>
        <time>2015-10-11T06:45:13Z</time>
      </trkpt>
      <trkpt lat="49.33179" lon="0.84724">
        <ele>93.6</ele>
        <time>2015-10-11T06:45:15Z</time>
      </trkpt>
      <trkpt lat="49.33178" lon="0.84738">
        <ele>93.7</ele>
        <time>2015-10-11T06:45:17Z</time>
      </trkpt>
      <trkpt lat="49.33176" lon="0.84752">
        <ele>93.75</ele>
        <time>2015-10-11T06:45:19Z</time>
      </trkpt>
      <trkpt lat="49.33174" lon="0.84767">
        <ele>93.21</ele>
        <time>2015-10-11T06:45:21Z</time>
      </trkpt>
      <trkpt lat="49.33173" lon="0.8478">
        <ele>92.71</ele>
        <time>2015-10-11T06:45:23Z</time>
      </trkpt>
      <trkpt lat="49.33171" lon="0.84792">
        <ele>92.46</ele>
        <time>2015-10-11T06:45:25Z</time>
      </trkpt>
      <trkpt lat="49.33173" lon="0.84801">
        <ele>92.32</ele>
        <time>2015-10-11T06:45:27Z</time>
      </trkpt>
      <trkpt lat="49.33175" lon="0.8481">
        <ele>92.32</ele>
        <time>2015-10-11T06:45:31Z</time>
      </trkpt>
      <trkpt lat="49.3318" lon="0.84818">
        <ele>92.8</ele>
        <time>2015-10-11T06:45:39Z</time>
      </trkpt>
      <trkpt lat="49.33179" lon="0.84826">
        <ele>93.39</ele>
        <time>2015-10-11T06:45:43Z</time>
      </trkpt>
      <trkpt lat="49.33178" lon="0.84834">
        <ele>93.66</ele>
        <time>2015-10-11T06:45:45Z</time>
      </trkpt>
      <trkpt lat="49.33178" lon="0.84841">
        <ele>93.91</ele>
        <time>2015-10-11T06:45:47Z</time>
      </trkpt>
      <trkpt lat="49.33177" lon="0.84853">
        <ele>94.12</ele>
        <time>2015-10-11T06:45:49Z</time>
      </trkpt>
      <trkpt lat="49.33173" lon="0.84864">
        <ele>94.46</ele>
        <time>2015-10-11T06:45:51Z</time>
      </trkpt>
      <trkpt lat="49.33169" lon="0.84876">
        <ele>94.63</ele>
        <time>2015-10-11T06:45:53Z</time>
      </trkpt>
      <trkpt lat="49.33172" lon="0.84888">
        <ele>94.74</ele>
        <time>2015-10-11T06:45:55Z</time>
      </trkpt>
      <trkpt lat="49.33171" lon="0.84904">
        <ele>95.94</ele>
        <time>2015-10-11T06:45:57Z</time>
      </trkpt>
      <trkpt lat="49.3317" lon="0.84918">
        <ele>96.57</ele>
        <time>2015-10-11T06:45:59Z</time>
      </trkpt>
      <trkpt lat="49.33168" lon="0.84931">
        <ele>95.89</ele>
        <time>2015-10-11T06:46:01Z</time>
      </trkpt>
      <trkpt lat="49.33166" lon="0.84944">
        <ele>94.93</ele>
        <time>2015-10-11T06:46:03Z</time>
      </trkpt>
      <trkpt lat="49.33164" lon="0.84955">
        <ele>94.37</ele>
        <time>2015-10-11T06:46:05Z</time>
      </trkpt>
      <trkpt lat="49.33162" lon="0.84969">
        <ele>94.28</ele>
        <time>2015-10-11T06:46:07Z</time>
      </trkpt>
      <trkpt lat="49.3316" lon="0.84984">
        <ele>94.57</ele>
        <time>2015-10-11T06:46:09Z</time>
      </trkpt>
      <trkpt lat="49.33159" lon="0.84995">
        <ele>94.8</ele>
        <time>2015-10-11T06:46:11Z</time>
      </trkpt>
      <trkpt lat="49.3316" lon="0.8501">
        <ele>95.2</ele>
        <time>2015-10-11T06:46:15Z</time>
      </trkpt>
      <trkpt lat="49.3316" lon="0.85017">
        <ele>95.37</ele>
        <time>2015-10-11T06:46:17Z</time>
      </trkpt>
      <trkpt lat="49.3316" lon="0.85026">
        <ele>95.86</ele>
        <time>2015-10-11T06:46:21Z</time>
      </trkpt>
      <trkpt lat="49.3316" lon="0.85036">
        <ele>96.18</ele>
        <time>2015-10-11T06:46:25Z</time>
      </trkpt>
      <trkpt lat="49.33162" lon="0.85046">
        <ele>96.55</ele>
        <time>2015-10-11T06:46:29Z</time>
      </trkpt>
      <trkpt lat="49.3316" lon="0.85058">
        <ele>96.68</ele>
        <time>2015-10-11T06:46:31Z</time>
      </trkpt>
      <trkpt lat="49.33161" lon="0.85073">
        <ele>96.44</ele>
        <time>2015-10-11T06:46:33Z</time>
      </trkpt>
      <trkpt lat="49.33161" lon="0.85087">
        <ele>95.89</ele>
        <time>2015-10-11T06:46:35Z</time>
      </trkpt>
      <trkpt lat="49.33164" lon="0.851">
        <ele>95.56</ele>
        <time>2015-10-11T06:46:37Z</time>
      </trkpt>
      <trkpt lat="49.33165" lon="0.85111">
        <ele>95.27</ele>
        <time>2015-10-11T06:46:39Z</time>
      </trkpt>
      <trkpt lat="49.33162" lon="0.8512">
        <ele>95.12</ele>
        <time>2015-10-11T06:46:41Z</time>
      </trkpt>
      <trkpt lat="49.33158" lon="0.85129">
        <ele>95.02</ele>
        <time>2015-10-11T06:46:43Z</time>
      </trkpt>
      <trkpt lat="49.33156" lon="0.85142">
        <ele>94.94</ele>
        <time>2015-10-11T06:46:45Z</time>
      </trkpt>
      <trkpt lat="49.33155" lon="0.85152">
        <ele>94.91</ele>
        <time>2015-10-11T06:46:47Z</time>
      </trkpt>
      <trkpt lat="49.33154" lon="0.85161">
        <ele>94.91</ele>
        <time>2015-10-11T06:46:49Z</time>
      </trkpt>
      <trkpt lat="49.33154" lon="0.85182">
        <ele>95.28</ele>
        <time>2015-10-11T06:46:55Z</time>
      </trkpt>
      <trkpt lat="49.33155" lon="0.85191">
        <ele>95.61</ele>
        <time>2015-10-11T06:46:57Z</time>
      </trkpt>
      <trkpt lat="49.33156" lon="0.85201">
        <ele>96.01</ele>
        <time>2015-10-11T06:46:59Z</time>
      </trkpt>
      <trkpt lat="49.33161" lon="0.85208">
        <ele>96.46</ele>
        <time>2015-10-11T06:47:01Z</time>
      </trkpt>
      <trkpt lat="49.33168" lon="0.85216">
        <ele>98.06</ele>
        <time>2015-10-11T06:47:03Z</time>
      </trkpt>
      <trkpt lat="49.33174" lon="0.85222">
        <ele>99.09</ele>
        <time>2015-10-11T06:47:05Z</time>
      </trkpt>
      <trkpt lat="49.3318" lon="0.85228">
        <ele>99.8</ele>
        <time>2015-10-11T06:47:07Z</time>
      </trkpt>
      <trkpt lat="49.33188" lon="0.85233">
        <ele>101.16</ele>
        <time>2015-10-11T06:47:09Z</time>
      </trkpt>
      <trkpt lat="49.33194" lon="0.85234">
        <ele>101.92</ele>
        <time>2015-10-11T06:47:11Z</time>
      </trkpt>
      <trkpt lat="49.33198" lon="0.85242">
        <ele>102.59</ele>
        <time>2015-10-11T06:47:15Z</time>
      </trkpt>
      <trkpt lat="49.33201" lon="0.85252">
        <ele>102.74</ele>
        <time>2015-10-11T06:47:19Z</time>
      </trkpt>
      <trkpt lat="49.3321" lon="0.85252">
        <ele>102.77</ele>
        <time>2015-10-11T06:47:21Z</time>
      </trkpt>
      <trkpt lat="49.33217" lon="0.85252">
        <ele>102.76</ele>
        <time>2015-10-11T06:47:23Z</time>
      </trkpt>
      <trkpt lat="49.33224" lon="0.85251">
        <ele>102.7</ele>
        <time>2015-10-11T06:47:25Z</time>
      </trkpt>
      <trkpt lat="49.33232" lon="0.85253">
        <ele>102.54</ele>
        <time>2015-10-11T06:47:27Z</time>
      </trkpt>
      <trkpt lat="49.3324" lon="0.85252">
        <ele>102.33</ele>
        <time>2015-10-11T06:47:29Z</time>
      </trkpt>
      <trkpt lat="49.33248" lon="0.85248">
        <ele>101.11</ele>
        <time>2015-10-11T06:47:31Z</time>
      </trkpt>
      <trkpt lat="49.33256" lon="0.85248">
        <ele>99.94</ele>
        <time>2015-10-11T06:47:33Z</time>
      </trkpt>
      <trkpt lat="49.33263" lon="0.85249">
        <ele>99.34</ele>
        <time>2015-10-11T06:47:35Z</time>
      </trkpt>
      <trkpt lat="49.33271" lon="0.8525">
        <ele>99.09</ele>
        <time>2015-10-11T06:47:37Z</time>
      </trkpt>
      <trkpt lat="49.33277" lon="0.8525">
        <ele>99.06</ele>
        <time>2015-10-11T06:47:39Z</time>
      </trkpt>
      <trkpt lat="49.33283" lon="0.85248">
        <ele>99.08</ele>
        <time>2015-10-11T06:47:41Z</time>
      </trkpt>
      <trkpt lat="49.33291" lon="0.85247">
        <ele>99.17</ele>
        <time>2015-10-11T06:47:43Z</time>
      </trkpt>
      <trkpt lat="49.33297" lon="0.85246">
        <ele>99.31</ele>
        <time>2015-10-11T06:47:45Z</time>
      </trkpt>
      <trkpt lat="49.33303" lon="0.85242">
        <ele>99.47</ele>
        <time>2015-10-11T06:47:47Z</time>
      </trkpt>
      <trkpt lat="49.33309" lon="0.8524">
        <ele>99.6</ele>
        <time>2015-10-11T06:47:49Z</time>
      </trkpt>
      <trkpt lat="49.33315" lon="0.85235">
        <ele>99.72</ele>
        <time>2015-10-11T06:47:51Z</time>
      </trkpt>
      <trkpt lat="49.33321" lon="0.85231">
        <ele>99.91</ele>
        <time>2015-10-11T06:47:53Z</time>
      </trkpt>
      <trkpt lat="49.33326" lon="0.85227">
        <ele>100.1</ele>
        <time>2015-10-11T06:47:55Z</time>
      </trkpt>
      <trkpt lat="49.33331" lon="0.85222">
        <ele>100.32</ele>
        <time>2015-10-11T06:47:57Z</time>
      </trkpt>
      <trkpt lat="49.3334" lon="0.85215">
        <ele>100.74</ele>
        <time>2015-10-11T06:48:01Z</time>
      </trkpt>
      <trkpt lat="49.33344" lon="0.85211">
        <ele>100.99</ele>
        <time>2015-10-11T06:48:03Z</time>
      </trkpt>
      <trkpt lat="49.33351" lon="0.85207">
        <ele>102.04</ele>
        <time>2015-10-11T06:48:05Z</time>
      </trkpt>
      <trkpt lat="49.33356" lon="0.85203">
        <ele>102.69</ele>
        <time>2015-10-11T06:48:07Z</time>
      </trkpt>
      <trkpt lat="49.33361" lon="0.85198">
        <ele>103.17</ele>
        <time>2015-10-11T06:48:09Z</time>
      </trkpt>
      <trkpt lat="49.33366" lon="0.85191">
        <ele>103.55</ele>
        <time>2015-10-11T06:48:11Z</time>
      </trkpt>
      <trkpt lat="49.3337" lon="0.85186">
        <ele>103.9</ele>
        <time>2015-10-11T06:48:13Z</time>
      </trkpt>
      <trkpt lat="49.33375" lon="0.85176">
        <ele>104.75</ele>
        <time>2015-10-11T06:48:15Z</time>
      </trkpt>
      <trkpt lat="49.3338" lon="0.85167">
        <ele>105.29</ele>
        <time>2015-10-11T06:48:17Z</time>
      </trkpt>
      <trkpt lat="49.33386" lon="0.85158">
        <ele>105.7</ele>
        <time>2015-10-11T06:48:19Z</time>
      </trkpt>
      <trkpt lat="49.3339" lon="0.85151">
        <ele>106.14</ele>
        <time>2015-10-11T06:48:21Z</time>
      </trkpt>
      <trkpt lat="49.33394" lon="0.85144">
        <ele>106.57</ele>
        <time>2015-10-11T06:48:23Z</time>
      </trkpt>
      <trkpt lat="49.33398" lon="0.85137">
        <ele>106.9</ele>
        <time>2015-10-11T06:48:25Z</time>
      </trkpt>
      <trkpt lat="49.33403" lon="0.8513">
        <ele>107.24</ele>
        <time>2015-10-11T06:48:27Z</time>
      </trkpt>
      <trkpt lat="49.33407" lon="0.85124">
        <ele>107.6</ele>
        <time>2015-10-11T06:48:29Z</time>
      </trkpt>
      <trkpt lat="49.33413" lon="0.85118">
        <ele>107.98</ele>
        <time>2015-10-11T06:48:31Z</time>
      </trkpt>
      <trkpt lat="49.33422" lon="0.85106">
        <ele>108.66</ele>
        <time>2015-10-11T06:48:35Z</time>
      </trkpt>
      <trkpt lat="49.33428" lon="0.851">
        <ele>108.95</ele>
        <time>2015-10-11T06:48:37Z</time>
      </trkpt>
      <trkpt lat="49.33434" lon="0.85092">
        <ele>109.63</ele>
        <time>2015-10-11T06:48:39Z</time>
      </trkpt>
      <trkpt lat="49.33439" lon="0.85084">
        <ele>110.12</ele>
        <time>2015-10-11T06:48:41Z</time>
      </trkpt>
      <trkpt lat="49.33444" lon="0.85077">
        <ele>110.58</ele>
        <time>2015-10-11T06:48:43Z</time>
      </trkpt>
      <trkpt lat="49.33448" lon="0.85069">
        <ele>111.03</ele>
        <time>2015-10-11T06:48:45Z</time>
      </trkpt>
      <trkpt lat="49.33455" lon="0.8506">
        <ele>112.11</ele>
        <time>2015-10-11T06:48:49Z</time>
      </trkpt>
      <trkpt lat="49.33459" lon="0.85054">
        <ele>112.65</ele>
        <time>2015-10-11T06:48:51Z</time>
      </trkpt>
      <trkpt lat="49.33463" lon="0.85048">
        <ele>113.24</ele>
        <time>2015-10-11T06:48:53Z</time>
      </trkpt>
      <trkpt lat="49.33467" lon="0.85041">
        <ele>113.81</ele>
        <time>2015-10-11T06:48:55Z</time>
      </trkpt>
      <trkpt lat="49.33469" lon="0.85032">
        <ele>114.42</ele>
        <time>2015-10-11T06:48:57Z</time>
      </trkpt>
      <trkpt lat="49.3347" lon="0.85022">
        <ele>114.95</ele>
        <time>2015-10-11T06:48:59Z</time>
      </trkpt>
      <trkpt lat="49.33471" lon="0.85014">
        <ele>115.3</ele>
        <time>2015-10-11T06:49:01Z</time>
      </trkpt>
      <trkpt lat="49.33475" lon="0.85004">
        <ele>115.54</ele>
        <time>2015-10-11T06:49:03Z</time>
      </trkpt>
      <trkpt lat="49.33479" lon="0.84993">
        <ele>116.05</ele>
        <time>2015-10-11T06:49:05Z</time>
      </trkpt>
      <trkpt lat="49.33484" lon="0.84984">
        <ele>116.44</ele>
        <time>2015-10-11T06:49:09Z</time>
      </trkpt>
      <trkpt lat="49.33489" lon="0.84977">
        <ele>116.5</ele>
        <time>2015-10-11T06:49:11Z</time>
      </trkpt>
      <trkpt lat="49.33493" lon="0.8497">
        <ele>116.51</ele>
        <time>2015-10-11T06:49:13Z</time>
      </trkpt>
      <trkpt lat="49.33496" lon="0.84964">
        <ele>116.4</ele>
        <time>2015-10-11T06:49:15Z</time>
      </trkpt>
      <trkpt lat="49.33499" lon="0.84959">
        <ele>116.25</ele>
        <time>2015-10-11T06:49:17Z</time>
      </trkpt>
      <trkpt lat="49.33508" lon="0.84948">
        <ele>116.2</ele>
        <time>2015-10-11T06:49:21Z</time>
      </trkpt>
      <trkpt lat="49.33513" lon="0.8494">
        <ele>116.29</ele>
        <time>2015-10-11T06:49:23Z</time>
      </trkpt>
      <trkpt lat="49.33515" lon="0.84931">
        <ele>116.35</ele>
        <time>2015-10-11T06:49:25Z</time>
      </trkpt>
      <trkpt lat="49.33518" lon="0.84922">
        <ele>116.3</ele>
        <time>2015-10-11T06:49:27Z</time>
      </trkpt>
      <trkpt lat="49.33521" lon="0.84912">
        <ele>116.18</ele>
        <time>2015-10-11T06:49:29Z</time>
      </trkpt>
      <trkpt lat="49.33527" lon="0.84904">
        <ele>116.08</ele>
        <time>2015-10-11T06:49:31Z</time>
      </trkpt>
      <trkpt lat="49.33532" lon="0.84896">
        <ele>115.82</ele>
        <time>2015-10-11T06:49:33Z</time>
      </trkpt>
      <trkpt lat="49.3354" lon="0.84887">
        <ele>115.51</ele>
        <time>2015-10-11T06:49:37Z</time>
      </trkpt>
      <trkpt lat="49.33545" lon="0.84879">
        <ele>115.42</ele>
        <time>2015-10-11T06:49:39Z</time>
      </trkpt>
      <trkpt lat="49.33549" lon="0.84871">
        <ele>115.34</ele>
        <time>2015-10-11T06:49:41Z</time>
      </trkpt>
      <trkpt lat="49.33555" lon="0.84863">
        <ele>115.27</ele>
        <time>2015-10-11T06:49:43Z</time>
      </trkpt>
      <trkpt lat="49.33561" lon="0.84857">
        <ele>115.27</ele>
        <time>2015-10-11T06:49:45Z</time>
      </trkpt>
      <trkpt lat="49.33567" lon="0.8485">
        <ele>115.27</ele>
        <time>2015-10-11T06:49:47Z</time>
      </trkpt>
      <trkpt lat="49.33572" lon="0.84843">
        <ele>115.25</ele>
        <time>2015-10-11T06:49:49Z</time>
      </trkpt>
      <trkpt lat="49.33577" lon="0.84839">
        <ele>115.27</ele>
        <time>2015-10-11T06:49:51Z</time>
      </trkpt>
      <trkpt lat="49.33582" lon="0.84834">
        <ele>115.27</ele>
        <time>2015-10-11T06:49:53Z</time>
      </trkpt>
      <trkpt lat="49.33587" lon="0.84829">
        <ele>115.25</ele>
        <time>2015-10-11T06:49:55Z</time>
      </trkpt>
      <trkpt lat="49.33593" lon="0.84826">
        <ele>115.23</ele>
        <time>2015-10-11T06:49:57Z</time>
      </trkpt>
      <trkpt lat="49.33598" lon="0.84818">
        <ele>115.12</ele>
        <time>2015-10-11T06:49:59Z</time>
      </trkpt>
      <trkpt lat="49.33601" lon="0.84809">
        <ele>114.96</ele>
        <time>2015-10-11T06:50:01Z</time>
      </trkpt>
      <trkpt lat="49.33607" lon="0.84797">
        <ele>114.53</ele>
        <time>2015-10-11T06:50:05Z</time>
      </trkpt>
      <trkpt lat="49.33612" lon="0.8479">
        <ele>114.33</ele>
        <time>2015-10-11T06:50:07Z</time>
      </trkpt>
      <trkpt lat="49.33618" lon="0.84782">
        <ele>114.19</ele>
        <time>2015-10-11T06:50:09Z</time>
      </trkpt>
      <trkpt lat="49.33623" lon="0.84776">
        <ele>114.13</ele>
        <time>2015-10-11T06:50:11Z</time>
      </trkpt>
      <trkpt lat="49.33628" lon="0.84768">
        <ele>114.16</ele>
        <time>2015-10-11T06:50:13Z</time>
      </trkpt>
      <trkpt lat="49.33633" lon="0.84762">
        <ele>114.18</ele>
        <time>2015-10-11T06:50:15Z</time>
      </trkpt>
      <trkpt lat="49.33638" lon="0.84754">
        <ele>114.16</ele>
        <time>2015-10-11T06:50:17Z</time>
      </trkpt>
      <trkpt lat="49.33645" lon="0.84748">
        <ele>114.1</ele>
        <time>2015-10-11T06:50:19Z</time>
      </trkpt>
      <trkpt lat="49.33652" lon="0.84738">
        <ele>113.6</ele>
        <time>2015-10-11T06:50:21Z</time>
      </trkpt>
      <trkpt lat="49.33658" lon="0.84729">
        <ele>113.27</ele>
        <time>2015-10-11T06:50:23Z</time>
      </trkpt>
      <trkpt lat="49.33664" lon="0.84722">
        <ele>112.98</ele>
        <time>2015-10-11T06:50:25Z</time>
      </trkpt>
      <trkpt lat="49.33671" lon="0.84714">
        <ele>112.75</ele>
        <time>2015-10-11T06:50:27Z</time>
      </trkpt>
      <trkpt lat="49.33677" lon="0.84706">
        <ele>112.55</ele>
        <time>2015-10-11T06:50:29Z</time>
      </trkpt>
      <trkpt lat="49.33684" lon="0.84698">
        <ele>112.39</ele>
        <time>2015-10-11T06:50:31Z</time>
      </trkpt>
      <trkpt lat="49.33692" lon="0.84692">
        <ele>112.26</ele>
        <time>2015-10-11T06:50:33Z</time>
      </trkpt>
      <trkpt lat="49.337" lon="0.84684">
        <ele>112.23</ele>
        <time>2015-10-11T06:50:35Z</time>
      </trkpt>
      <trkpt lat="49.33707" lon="0.8468">
        <ele>112.08</ele>
        <time>2015-10-11T06:50:37Z</time>
      </trkpt>
      <trkpt lat="49.33715" lon="0.84671">
        <ele>111.85</ele>
        <time>2015-10-11T06:50:39Z</time>
      </trkpt>
      <trkpt lat="49.33722" lon="0.84663">
        <ele>111.77</ele>
        <time>2015-10-11T06:50:41Z</time>
      </trkpt>
      <trkpt lat="49.33731" lon="0.84654">
        <ele>112.3</ele>
        <time>2015-10-11T06:50:43Z</time>
      </trkpt>
      <trkpt lat="49.33738" lon="0.84647">
        <ele>112.82</ele>
        <time>2015-10-11T06:50:45Z</time>
      </trkpt>
      <trkpt lat="49.33745" lon="0.8464">
        <ele>113.11</ele>
        <time>2015-10-11T06:50:47Z</time>
      </trkpt>
      <trkpt lat="49.33752" lon="0.84634">
        <ele>113.29</ele>
        <time>2015-10-11T06:50:49Z</time>
      </trkpt>
      <trkpt lat="49.3376" lon="0.84633">
        <ele>113.74</ele>
        <time>2015-10-11T06:50:51Z</time>
      </trkpt>
      <trkpt lat="49.3377" lon="0.8464">
        <ele>115.13</ele>
        <time>2015-10-11T06:50:53Z</time>
      </trkpt>
      <trkpt lat="49.3378" lon="0.84648">
        <ele>116.53</ele>
        <time>2015-10-11T06:50:55Z</time>
      </trkpt>
      <trkpt lat="49.33789" lon="0.84656">
        <ele>117.43</ele>
        <time>2015-10-11T06:50:57Z</time>
      </trkpt>
      <trkpt lat="49.33798" lon="0.84664">
        <ele>117.99</ele>
        <time>2015-10-11T06:50:59Z</time>
      </trkpt>
      <trkpt lat="49.33807" lon="0.84671">
        <ele>118.28</ele>
        <time>2015-10-11T06:51:01Z</time>
      </trkpt>
      <trkpt lat="49.33817" lon="0.84681">
        <ele>117.97</ele>
        <time>2015-10-11T06:51:03Z</time>
      </trkpt>
      <trkpt lat="49.33826" lon="0.8469">
        <ele>117.28</ele>
        <time>2015-10-11T06:51:05Z</time>
      </trkpt>
      <trkpt lat="49.33835" lon="0.84697">
        <ele>116.7</ele>
        <time>2015-10-11T06:51:07Z</time>
      </trkpt>
      <trkpt lat="49.33845" lon="0.84704">
        <ele>116.46</ele>
        <time>2015-10-11T06:51:09Z</time>
      </trkpt>
      <trkpt lat="49.33854" lon="0.84711">
        <ele>116.67</ele>
        <time>2015-10-11T06:51:11Z</time>
      </trkpt>
      <trkpt lat="49.33863" lon="0.84718">
        <ele>117.34</ele>
        <time>2015-10-11T06:51:13Z</time>
      </trkpt>
      <trkpt lat="49.33872" lon="0.84725">
        <ele>118.09</ele>
        <time>2015-10-11T06:51:15Z</time>
      </trkpt>
      <trkpt lat="49.33881" lon="0.84732">
        <ele>118.8</ele>
        <time>2015-10-11T06:51:17Z</time>
      </trkpt>
      <trkpt lat="49.3389" lon="0.84739">
        <ele>119.23</ele>
        <time>2015-10-11T06:51:19Z</time>
      </trkpt>
      <trkpt lat="49.33898" lon="0.84746">
        <ele>119.28</ele>
        <time>2015-10-11T06:51:21Z</time>
      </trkpt>
      <trkpt lat="49.33907" lon="0.84753">
        <ele>119.06</ele>
        <time>2015-10-11T06:51:23Z</time>
      </trkpt>
      <trkpt lat="49.33916" lon="0.8476">
        <ele>119.01</ele>
        <time>2015-10-11T06:51:25Z</time>
      </trkpt>
      <trkpt lat="49.33924" lon="0.84768">
        <ele>118.98</ele>
        <time>2015-10-11T06:51:27Z</time>
      </trkpt>
      <trkpt lat="49.33933" lon="0.84776">
        <ele>118.87</ele>
        <time>2015-10-11T06:51:29Z</time>
      </trkpt>
      <trkpt lat="49.33943" lon="0.84785">
        <ele>118.48</ele>
        <time>2015-10-11T06:51:31Z</time>
      </trkpt>
      <trkpt lat="49.33952" lon="0.84794">
        <ele>118.16</ele>
        <time>2015-10-11T06:51:33Z</time>
      </trkpt>
      <trkpt lat="49.33961" lon="0.84804">
        <ele>118.11</ele>
        <time>2015-10-11T06:51:35Z</time>
      </trkpt>
      <trkpt lat="49.33971" lon="0.84814">
        <ele>118.63</ele>
        <time>2015-10-11T06:51:37Z</time>
      </trkpt>
      <trkpt lat="49.3398" lon="0.84824">
        <ele>119.53</ele>
        <time>2015-10-11T06:51:39Z</time>
      </trkpt>
      <trkpt lat="49.33989" lon="0.84836">
        <ele>120.36</ele>
        <time>2015-10-11T06:51:41Z</time>
      </trkpt>
      <trkpt lat="49.33998" lon="0.84848">
        <ele>120.86</ele>
        <time>2015-10-11T06:51:43Z</time>
      </trkpt>
      <trkpt lat="49.34007" lon="0.84861">
        <ele>120.96</ele>
        <time>2015-10-11T06:51:45Z</time>
      </trkpt>
      <trkpt lat="49.34016" lon="0.84873">
        <ele>120.78</ele>
        <time>2015-10-11T06:51:47Z</time>
      </trkpt>
      <trkpt lat="49.34024" lon="0.84885">
        <ele>120.68</ele>
        <time>2015-10-11T06:51:49Z</time>
      </trkpt>
      <trkpt lat="49.34032" lon="0.84898">
        <ele>120.76</ele>
        <time>2015-10-11T06:51:51Z</time>
      </trkpt>
      <trkpt lat="49.3404" lon="0.8491">
        <ele>121</ele>
        <time>2015-10-11T06:51:53Z</time>
      </trkpt>
      <trkpt lat="49.34048" lon="0.84922">
        <ele>121.49</ele>
        <time>2015-10-11T06:51:55Z</time>
      </trkpt>
      <trkpt lat="49.34055" lon="0.84934">
        <ele>122.01</ele>
        <time>2015-10-11T06:51:57Z</time>
      </trkpt>
      <trkpt lat="49.34063" lon="0.84947">
        <ele>122.25</ele>
        <time>2015-10-11T06:51:59Z</time>
      </trkpt>
      <trkpt lat="49.3407" lon="0.84961">
        <ele>122.09</ele>
        <time>2015-10-11T06:52:01Z</time>
      </trkpt>
      <trkpt lat="49.34077" lon="0.84976">
        <ele>121.53</ele>
        <time>2015-10-11T06:52:03Z</time>
      </trkpt>
      <trkpt lat="49.34084" lon="0.8499">
        <ele>120.84</ele>
        <time>2015-10-11T06:52:05Z</time>
      </trkpt>
      <trkpt lat="49.3409" lon="0.85002">
        <ele>120.91</ele>
        <time>2015-10-11T06:52:07Z</time>
      </trkpt>
      <trkpt lat="49.34097" lon="0.85018">
        <ele>121.7</ele>
        <time>2015-10-11T06:52:09Z</time>
      </trkpt>
      <trkpt lat="49.34104" lon="0.85033">
        <ele>122.66</ele>
        <time>2015-10-11T06:52:11Z</time>
      </trkpt>
      <trkpt lat="49.3411" lon="0.85048">
        <ele>123.91</ele>
        <time>2015-10-11T06:52:13Z</time>
      </trkpt>
      <trkpt lat="49.34118" lon="0.85063">
        <ele>124.4</ele>
        <time>2015-10-11T06:52:15Z</time>
      </trkpt>
      <trkpt lat="49.34126" lon="0.85079">
        <ele>124.05</ele>
        <time>2015-10-11T06:52:17Z</time>
      </trkpt>
      <trkpt lat="49.34134" lon="0.85096">
        <ele>123.31</ele>
        <time>2015-10-11T06:52:19Z</time>
      </trkpt>
      <trkpt lat="49.34143" lon="0.85113">
        <ele>122.69</ele>
        <time>2015-10-11T06:52:21Z</time>
      </trkpt>
      <trkpt lat="49.34151" lon="0.85129">
        <ele>122.36</ele>
        <time>2015-10-11T06:52:23Z</time>
      </trkpt>
      <trkpt lat="49.34158" lon="0.85146">
        <ele>122.27</ele>
        <time>2015-10-11T06:52:25Z</time>
      </trkpt>
      <trkpt lat="49.34157" lon="0.85165">
        <ele>121.87</ele>
        <time>2015-10-11T06:52:27Z</time>
      </trkpt>
      <trkpt lat="49.3415" lon="0.85181">
        <ele>121.63</ele>
        <time>2015-10-11T06:52:29Z</time>
      </trkpt>
      <trkpt lat="49.34142" lon="0.85196">
        <ele>121.67</ele>
        <time>2015-10-11T06:52:31Z</time>
      </trkpt>
      <trkpt lat="49.34134" lon="0.85211">
        <ele>121.97</ele>
        <time>2015-10-11T06:52:33Z</time>
      </trkpt>
      <trkpt lat="49.34125" lon="0.85226">
        <ele>122.52</ele>
        <time>2015-10-11T06:52:35Z</time>
      </trkpt>
      <trkpt lat="49.34116" lon="0.8524">
        <ele>123.08</ele>
        <time>2015-10-11T06:52:37Z</time>
      </trkpt>
      <trkpt lat="49.34109" lon="0.85253">
        <ele>123.04</ele>
        <time>2015-10-11T06:52:39Z</time>
      </trkpt>
      <trkpt lat="49.341" lon="0.85267">
        <ele>122.79</ele>
        <time>2015-10-11T06:52:41Z</time>
      </trkpt>
      <trkpt lat="49.34091" lon="0.85282">
        <ele>122.65</ele>
        <time>2015-10-11T06:52:43Z</time>
      </trkpt>
      <trkpt lat="49.34083" lon="0.85296">
        <ele>122.52</ele>
        <time>2015-10-11T06:52:45Z</time>
      </trkpt>
      <trkpt lat="49.34073" lon="0.85311">
        <ele>122.6</ele>
        <time>2015-10-11T06:52:47Z</time>
      </trkpt>
      <trkpt lat="49.34065" lon="0.85326">
        <ele>122.87</ele>
        <time>2015-10-11T06:52:49Z</time>
      </trkpt>
      <trkpt lat="49.34058" lon="0.85337">
        <ele>122.79</ele>
        <time>2015-10-11T06:52:51Z</time>
      </trkpt>
      <trkpt lat="49.34049" lon="0.85351">
        <ele>122.57</ele>
        <time>2015-10-11T06:52:53Z</time>
      </trkpt>
      <trkpt lat="49.3404" lon="0.85365">
        <ele>122.19</ele>
        <time>2015-10-11T06:52:55Z</time>
      </trkpt>
      <trkpt lat="49.34031" lon="0.8538">
        <ele>121.84</ele>
        <time>2015-10-11T06:52:57Z</time>
      </trkpt>
      <trkpt lat="49.34022" lon="0.85395">
        <ele>121.7</ele>
        <time>2015-10-11T06:52:59Z</time>
      </trkpt>
      <trkpt lat="49.34013" lon="0.85409">
        <ele>121.8</ele>
        <time>2015-10-11T06:53:01Z</time>
      </trkpt>
      <trkpt lat="49.34005" lon="0.85423">
        <ele>122.06</ele>
        <time>2015-10-11T06:53:03Z</time>
      </trkpt>
      <trkpt lat="49.33997" lon="0.85438">
        <ele>122.12</ele>
        <time>2015-10-11T06:53:05Z</time>
      </trkpt>
      <trkpt lat="49.33989" lon="0.85452">
        <ele>122.11</ele>
        <time>2015-10-11T06:53:07Z</time>
      </trkpt>
      <trkpt lat="49.3398" lon="0.85466">
        <ele>122.06</ele>
        <time>2015-10-11T06:53:09Z</time>
      </trkpt>
      <trkpt lat="49.33972" lon="0.85479">
        <ele>121.82</ele>
        <time>2015-10-11T06:53:11Z</time>
      </trkpt>
      <trkpt lat="49.33965" lon="0.85492">
        <ele>121.59</ele>
        <time>2015-10-11T06:53:13Z</time>
      </trkpt>
      <trkpt lat="49.33956" lon="0.85506">
        <ele>121.36</ele>
        <time>2015-10-11T06:53:15Z</time>
      </trkpt>
      <trkpt lat="49.33948" lon="0.85518">
        <ele>121.21</ele>
        <time>2015-10-11T06:53:17Z</time>
      </trkpt>
      <trkpt lat="49.3394" lon="0.85529">
        <ele>120.86</ele>
        <time>2015-10-11T06:53:19Z</time>
      </trkpt>
      <trkpt lat="49.33932" lon="0.85542">
        <ele>120.57</ele>
        <time>2015-10-11T06:53:21Z</time>
      </trkpt>
      <trkpt lat="49.33924" lon="0.85554">
        <ele>120.4</ele>
        <time>2015-10-11T06:53:23Z</time>
      </trkpt>
      <trkpt lat="49.33916" lon="0.85566">
        <ele>120.25</ele>
        <time>2015-10-11T06:53:25Z</time>
      </trkpt>
      <trkpt lat="49.33908" lon="0.85577">
        <ele>120.22</ele>
        <time>2015-10-11T06:53:27Z</time>
      </trkpt>
      <trkpt lat="49.33901" lon="0.85589">
        <ele>120.42</ele>
        <time>2015-10-11T06:53:29Z</time>
      </trkpt>
      <trkpt lat="49.33895" lon="0.85601">
        <ele>120.89</ele>
        <time>2015-10-11T06:53:31Z</time>
      </trkpt>
      <trkpt lat="49.33887" lon="0.85613">
        <ele>121.36</ele>
        <time>2015-10-11T06:53:33Z</time>
      </trkpt>
      <trkpt lat="49.33879" lon="0.85625">
        <ele>121.63</ele>
        <time>2015-10-11T06:53:35Z</time>
      </trkpt>
      <trkpt lat="49.33872" lon="0.85637">
        <ele>121.4</ele>
        <time>2015-10-11T06:53:37Z</time>
      </trkpt>
      <trkpt lat="49.33866" lon="0.85648">
        <ele>121.56</ele>
        <time>2015-10-11T06:53:39Z</time>
      </trkpt>
      <trkpt lat="49.33859" lon="0.85661">
        <ele>122.26</ele>
        <time>2015-10-11T06:53:41Z</time>
      </trkpt>
      <trkpt lat="49.33854" lon="0.85677">
        <ele>123.14</ele>
        <time>2015-10-11T06:53:43Z</time>
      </trkpt>
      <trkpt lat="49.3385" lon="0.85695">
        <ele>122.68</ele>
        <time>2015-10-11T06:53:45Z</time>
      </trkpt>
      <trkpt lat="49.33847" lon="0.85713">
        <ele>121.65</ele>
        <time>2015-10-11T06:53:47Z</time>
      </trkpt>
      <trkpt lat="49.33844" lon="0.8573">
        <ele>120.66</ele>
        <time>2015-10-11T06:53:49Z</time>
      </trkpt>
      <trkpt lat="49.33841" lon="0.8575">
        <ele>120.1</ele>
        <time>2015-10-11T06:53:51Z</time>
      </trkpt>
      <trkpt lat="49.33837" lon="0.85771">
        <ele>119.87</ele>
        <time>2015-10-11T06:53:53Z</time>
      </trkpt>
      <trkpt lat="49.33834" lon="0.85791">
        <ele>119.52</ele>
        <time>2015-10-11T06:53:55Z</time>
      </trkpt>
      <trkpt lat="49.33831" lon="0.85811">
        <ele>118.99</ele>
        <time>2015-10-11T06:53:57Z</time>
      </trkpt>
      <trkpt lat="49.33829" lon="0.8583">
        <ele>119.05</ele>
        <time>2015-10-11T06:53:59Z</time>
      </trkpt>
      <trkpt lat="49.33828" lon="0.85847">
        <ele>119.4</ele>
        <time>2015-10-11T06:54:01Z</time>
      </trkpt>
      <trkpt lat="49.33828" lon="0.85869">
        <ele>119.6</ele>
        <time>2015-10-11T06:54:03Z</time>
      </trkpt>
      <trkpt lat="49.33827" lon="0.8589">
        <ele>118.96</ele>
        <time>2015-10-11T06:54:05Z</time>
      </trkpt>
      <trkpt lat="49.33826" lon="0.85907">
        <ele>118.6</ele>
        <time>2015-10-11T06:54:07Z</time>
      </trkpt>
      <trkpt lat="49.33824" lon="0.85926">
        <ele>118.09</ele>
        <time>2015-10-11T06:54:09Z</time>
      </trkpt>
      <trkpt lat="49.33821" lon="0.85944">
        <ele>117.42</ele>
        <time>2015-10-11T06:54:11Z</time>
      </trkpt>
      <trkpt lat="49.33816" lon="0.8596">
        <ele>117.27</ele>
        <time>2015-10-11T06:54:13Z</time>
      </trkpt>
      <trkpt lat="49.33811" lon="0.85977">
        <ele>117.63</ele>
        <time>2015-10-11T06:54:15Z</time>
      </trkpt>
      <trkpt lat="49.33806" lon="0.85994">
        <ele>119.02</ele>
        <time>2015-10-11T06:54:17Z</time>
      </trkpt>
      <trkpt lat="49.33801" lon="0.86007">
        <ele>120.56</ele>
        <time>2015-10-11T06:54:19Z</time>
      </trkpt>
      <trkpt lat="49.33796" lon="0.8602">
        <ele>121.78</ele>
        <time>2015-10-11T06:54:21Z</time>
      </trkpt>
      <trkpt lat="49.33794" lon="0.86033">
        <ele>123.04</ele>
        <time>2015-10-11T06:54:23Z</time>
      </trkpt>
      <trkpt lat="49.33794" lon="0.86047">
        <ele>123.83</ele>
        <time>2015-10-11T06:54:25Z</time>
      </trkpt>
      <trkpt lat="49.33796" lon="0.86059">
        <ele>124.06</ele>
        <time>2015-10-11T06:54:27Z</time>
      </trkpt>
      <trkpt lat="49.33799" lon="0.86068">
        <ele>124.15</ele>
        <time>2015-10-11T06:54:29Z</time>
      </trkpt>
      <trkpt lat="49.33806" lon="0.86073">
        <ele>124.37</ele>
        <time>2015-10-11T06:54:31Z</time>
      </trkpt>
      <trkpt lat="49.33814" lon="0.86072">
        <ele>124.42</ele>
        <time>2015-10-11T06:54:33Z</time>
      </trkpt>
      <trkpt lat="49.33824" lon="0.8607">
        <ele>124.74</ele>
        <time>2015-10-11T06:54:35Z</time>
      </trkpt>
      <trkpt lat="49.33836" lon="0.86069">
        <ele>124.43</ele>
        <time>2015-10-11T06:54:37Z</time>
      </trkpt>
      <trkpt lat="49.33846" lon="0.86068">
        <ele>124.14</ele>
        <time>2015-10-11T06:54:39Z</time>
      </trkpt>
      <trkpt lat="49.33856" lon="0.86066">
        <ele>123.96</ele>
        <time>2015-10-11T06:54:41Z</time>
      </trkpt>
      <trkpt lat="49.33867" lon="0.86064">
        <ele>123.53</ele>
        <time>2015-10-11T06:54:43Z</time>
      </trkpt>
      <trkpt lat="49.33879" lon="0.86062">
        <ele>123.04</ele>
        <time>2015-10-11T06:54:45Z</time>
      </trkpt>
      <trkpt lat="49.33889" lon="0.8606">
        <ele>122.8</ele>
        <time>2015-10-11T06:54:47Z</time>
      </trkpt>
      <trkpt lat="49.339" lon="0.8606">
        <ele>122.25</ele>
        <time>2015-10-11T06:54:49Z</time>
      </trkpt>
      <trkpt lat="49.3391" lon="0.86058">
        <ele>121.57</ele>
        <time>2015-10-11T06:54:51Z</time>
      </trkpt>
      <trkpt lat="49.33921" lon="0.86055">
        <ele>121.46</ele>
        <time>2015-10-11T06:54:53Z</time>
      </trkpt>
      <trkpt lat="49.33932" lon="0.86053">
        <ele>121.78</ele>
        <time>2015-10-11T06:54:55Z</time>
      </trkpt>
      <trkpt lat="49.33942" lon="0.86051">
        <ele>121.98</ele>
        <time>2015-10-11T06:54:57Z</time>
      </trkpt>
      <trkpt lat="49.33954" lon="0.86049">
        <ele>121.87</ele>
        <time>2015-10-11T06:54:59Z</time>
      </trkpt>
      <trkpt lat="49.33964" lon="0.86047">
        <ele>121.93</ele>
        <time>2015-10-11T06:55:01Z</time>
      </trkpt>
      <trkpt lat="49.33975" lon="0.86045">
        <ele>122.31</ele>
        <time>2015-10-11T06:55:03Z</time>
      </trkpt>
      <trkpt lat="49.33986" lon="0.86042">
        <ele>122.9</ele>
        <time>2015-10-11T06:55:05Z</time>
      </trkpt>
      <trkpt lat="49.33998" lon="0.86039">
        <ele>123.14</ele>
        <time>2015-10-11T06:55:07Z</time>
      </trkpt>
      <trkpt lat="49.34011" lon="0.86035">
        <ele>123.09</ele>
        <time>2015-10-11T06:55:09Z</time>
      </trkpt>
      <trkpt lat="49.34022" lon="0.86033">
        <ele>122.7</ele>
        <time>2015-10-11T06:55:11Z</time>
      </trkpt>
      <trkpt lat="49.34035" lon="0.8603">
        <ele>122.8</ele>
        <time>2015-10-11T06:55:13Z</time>
      </trkpt>
      <trkpt lat="49.34049" lon="0.86027">
        <ele>122.59</ele>
        <time>2015-10-11T06:55:15Z</time>
      </trkpt>
      <trkpt lat="49.34063" lon="0.86025">
        <ele>122.33</ele>
        <time>2015-10-11T06:55:17Z</time>
      </trkpt>
      <trkpt lat="49.34075" lon="0.86023">
        <ele>121.4</ele>
        <time>2015-10-11T06:55:19Z</time>
      </trkpt>
      <trkpt lat="49.34087" lon="0.86021">
        <ele>120.83</ele>
        <time>2015-10-11T06:55:21Z</time>
      </trkpt>
      <trkpt lat="49.34099" lon="0.86019">
        <ele>120.53</ele>
        <time>2015-10-11T06:55:23Z</time>
      </trkpt>
      <trkpt lat="49.34111" lon="0.86015">
        <ele>120.21</ele>
        <time>2015-10-11T06:55:25Z</time>
      </trkpt>
      <trkpt lat="49.34124" lon="0.86012">
        <ele>120.12</ele>
        <time>2015-10-11T06:55:27Z</time>
      </trkpt>
      <trkpt lat="49.34136" lon="0.86009">
        <ele>120.2</ele>
        <time>2015-10-11T06:55:29Z</time>
      </trkpt>
      <trkpt lat="49.34148" lon="0.86006">
        <ele>119.45</ele>
        <time>2015-10-11T06:55:31Z</time>
      </trkpt>
      <trkpt lat="49.34161" lon="0.86004">
        <ele>119.51</ele>
        <time>2015-10-11T06:55:33Z</time>
      </trkpt>
      <trkpt lat="49.34173" lon="0.86001">
        <ele>119.77</ele>
        <time>2015-10-11T06:55:35Z</time>
      </trkpt>
      <trkpt lat="49.34186" lon="0.85998">
        <ele>119.89</ele>
        <time>2015-10-11T06:55:37Z</time>
      </trkpt>
      <trkpt lat="49.34199" lon="0.85996">
        <ele>120.17</ele>
        <time>2015-10-11T06:55:39Z</time>
      </trkpt>
      <trkpt lat="49.34213" lon="0.85993">
        <ele>121.36</ele>
        <time>2015-10-11T06:55:41Z</time>
      </trkpt>
      <trkpt lat="49.34227" lon="0.8599">
        <ele>122.87</ele>
        <time>2015-10-11T06:55:43Z</time>
      </trkpt>
      <trkpt lat="49.34239" lon="0.85986">
        <ele>123.4</ele>
        <time>2015-10-11T06:55:45Z</time>
      </trkpt>
      <trkpt lat="49.34253" lon="0.85983">
        <ele>122.91</ele>
        <time>2015-10-11T06:55:47Z</time>
      </trkpt>
      <trkpt lat="49.34265" lon="0.85981">
        <ele>120.96</ele>
        <time>2015-10-11T06:55:49Z</time>
      </trkpt>
      <trkpt lat="49.34279" lon="0.85978">
        <ele>118.9</ele>
        <time>2015-10-11T06:55:51Z</time>
      </trkpt>
      <trkpt lat="49.34292" lon="0.85978">
        <ele>117.24</ele>
        <time>2015-10-11T06:55:53Z</time>
      </trkpt>
      <trkpt lat="49.34305" lon="0.85975">
        <ele>115.88</ele>
        <time>2015-10-11T06:55:55Z</time>
      </trkpt>
      <trkpt lat="49.34319" lon="0.85974">
        <ele>115.67</ele>
        <time>2015-10-11T06:55:57Z</time>
      </trkpt>
      <trkpt lat="49.34331" lon="0.85971">
        <ele>116.19</ele>
        <time>2015-10-11T06:55:59Z</time>
      </trkpt>
      <trkpt lat="49.34343" lon="0.85969">
        <ele>116.69</ele>
        <time>2015-10-11T06:56:01Z</time>
      </trkpt>
      <trkpt lat="49.34352" lon="0.85968">
        <ele>116.47</ele>
        <time>2015-10-11T06:56:03Z</time>
      </trkpt>
      <trkpt lat="49.3436" lon="0.85967">
        <ele>116.26</ele>
        <time>2015-10-11T06:56:05Z</time>
      </trkpt>
      <trkpt lat="49.34367" lon="0.85967">
        <ele>116.12</ele>
        <time>2015-10-11T06:56:07Z</time>
      </trkpt>
      <trkpt lat="49.34374" lon="0.85965">
        <ele>115.91</ele>
        <time>2015-10-11T06:56:09Z</time>
      </trkpt>
      <trkpt lat="49.34382" lon="0.85962">
        <ele>115.68</ele>
        <time>2015-10-11T06:56:11Z</time>
      </trkpt>
      <trkpt lat="49.34391" lon="0.8596">
        <ele>115.28</ele>
        <time>2015-10-11T06:56:13Z</time>
      </trkpt>
      <trkpt lat="49.34397" lon="0.85957">
        <ele>115.05</ele>
        <time>2015-10-11T06:56:15Z</time>
      </trkpt>
      <trkpt lat="49.34402" lon="0.85955">
        <ele>114.97</ele>
        <time>2015-10-11T06:56:17Z</time>
      </trkpt>
      <trkpt lat="49.34408" lon="0.85955">
        <ele>115.03</ele>
        <time>2015-10-11T06:56:19Z</time>
      </trkpt>
      <trkpt lat="49.34415" lon="0.85956">
        <ele>115.25</ele>
        <time>2015-10-11T06:56:21Z</time>
      </trkpt>
      <trkpt lat="49.34422" lon="0.85956">
        <ele>115.54</ele>
        <time>2015-10-11T06:56:23Z</time>
      </trkpt>
      <trkpt lat="49.34428" lon="0.85955">
        <ele>115.85</ele>
        <time>2015-10-11T06:56:25Z</time>
      </trkpt>
      <trkpt lat="49.34436" lon="0.85957">
        <ele>116.72</ele>
        <time>2015-10-11T06:56:29Z</time>
      </trkpt>
      <trkpt lat="49.34439" lon="0.85971">
        <ele>117.65</ele>
        <time>2015-10-11T06:56:33Z</time>
      </trkpt>
      <trkpt lat="49.34438" lon="0.85981">
        <ele>118.06</ele>
        <time>2015-10-11T06:56:35Z</time>
      </trkpt>
      <trkpt lat="49.34437" lon="0.85992">
        <ele>119.25</ele>
        <time>2015-10-11T06:56:37Z</time>
      </trkpt>
      <trkpt lat="49.34435" lon="0.86007">
        <ele>120.59</ele>
        <time>2015-10-11T06:56:39Z</time>
      </trkpt>
      <trkpt lat="49.34432" lon="0.86022">
        <ele>121.27</ele>
        <time>2015-10-11T06:56:41Z</time>
      </trkpt>
      <trkpt lat="49.34429" lon="0.86037">
        <ele>121.6</ele>
        <time>2015-10-11T06:56:43Z</time>
      </trkpt>
      <trkpt lat="49.34427" lon="0.86051">
        <ele>121.79</ele>
        <time>2015-10-11T06:56:45Z</time>
      </trkpt>
      <trkpt lat="49.34426" lon="0.86065">
        <ele>121.55</ele>
        <time>2015-10-11T06:56:47Z</time>
      </trkpt>
      <trkpt lat="49.34423" lon="0.8608">
        <ele>120.94</ele>
        <time>2015-10-11T06:56:49Z</time>
      </trkpt>
      <trkpt lat="49.34421" lon="0.86093">
        <ele>120.45</ele>
        <time>2015-10-11T06:56:51Z</time>
      </trkpt>
      <trkpt lat="49.34418" lon="0.86111">
        <ele>119.66</ele>
        <time>2015-10-11T06:56:53Z</time>
      </trkpt>
      <trkpt lat="49.34414" lon="0.8613">
        <ele>118.23</ele>
        <time>2015-10-11T06:56:55Z</time>
      </trkpt>
      <trkpt lat="49.34413" lon="0.86148">
        <ele>117.1</ele>
        <time>2015-10-11T06:56:57Z</time>
      </trkpt>
      <trkpt lat="49.34411" lon="0.86165">
        <ele>116.27</ele>
        <time>2015-10-11T06:56:59Z</time>
      </trkpt>
      <trkpt lat="49.34409" lon="0.8618">
        <ele>115.36</ele>
        <time>2015-10-11T06:57:01Z</time>
      </trkpt>
      <trkpt lat="49.3441" lon="0.8619">
        <ele>114.88</ele>
        <time>2015-10-11T06:57:03Z</time>
      </trkpt>
      <trkpt lat="49.34407" lon="0.86198">
        <ele>114.68</ele>
        <time>2015-10-11T06:57:05Z</time>
      </trkpt>
      <trkpt lat="49.34405" lon="0.8621">
        <ele>114.58</ele>
        <time>2015-10-11T06:57:07Z</time>
      </trkpt>
      <trkpt lat="49.34403" lon="0.86225">
        <ele>114.51</ele>
        <time>2015-10-11T06:57:09Z</time>
      </trkpt>
      <trkpt lat="49.34401" lon="0.86239">
        <ele>114.48</ele>
        <time>2015-10-11T06:57:11Z</time>
      </trkpt>
      <trkpt lat="49.34402" lon="0.86253">
        <ele>114.47</ele>
        <time>2015-10-11T06:57:13Z</time>
      </trkpt>
      <trkpt lat="49.34399" lon="0.86271">
        <ele>114.6</ele>
        <time>2015-10-11T06:57:15Z</time>
      </trkpt>
      <trkpt lat="49.34396" lon="0.8629">
        <ele>114.18</ele>
        <time>2015-10-11T06:57:17Z</time>
      </trkpt>
      <trkpt lat="49.34396" lon="0.86308">
        <ele>113.7</ele>
        <time>2015-10-11T06:57:19Z</time>
      </trkpt>
      <trkpt lat="49.34391" lon="0.86325">
        <ele>112.87</ele>
        <time>2015-10-11T06:57:21Z</time>
      </trkpt>
      <trkpt lat="49.34386" lon="0.86337">
        <ele>112.06</ele>
        <time>2015-10-11T06:57:23Z</time>
      </trkpt>
      <trkpt lat="49.34384" lon="0.86354">
        <ele>110.97</ele>
        <time>2015-10-11T06:57:25Z</time>
      </trkpt>
      <trkpt lat="49.3438" lon="0.8637">
        <ele>110.54</ele>
        <time>2015-10-11T06:57:27Z</time>
      </trkpt>
      <trkpt lat="49.34379" lon="0.86382">
        <ele>110.44</ele>
        <time>2015-10-11T06:57:29Z</time>
      </trkpt>
      <trkpt lat="49.34378" lon="0.86393">
        <ele>110.48</ele>
        <time>2015-10-11T06:57:31Z</time>
      </trkpt>
      <trkpt lat="49.34375" lon="0.86406">
        <ele>110.61</ele>
        <time>2015-10-11T06:57:33Z</time>
      </trkpt>
      <trkpt lat="49.34372" lon="0.86422">
        <ele>111.24</ele>
        <time>2015-10-11T06:57:35Z</time>
      </trkpt>
      <trkpt lat="49.34369" lon="0.86434">
        <ele>111.47</ele>
        <time>2015-10-11T06:57:37Z</time>
      </trkpt>
      <trkpt lat="49.34367" lon="0.86446">
        <ele>111.44</ele>
        <time>2015-10-11T06:57:39Z</time>
      </trkpt>
      <trkpt lat="49.34365" lon="0.86454">
        <ele>110.94</ele>
        <time>2015-10-11T06:57:43Z</time>
      </trkpt>
      <trkpt lat="49.34347" lon="0.86468">
        <ele>110.01</ele>
        <time>2015-10-11T06:57:49Z</time>
      </trkpt>
      <trkpt lat="49.34338" lon="0.86466">
        <ele>109.7</ele>
        <time>2015-10-11T06:57:51Z</time>
      </trkpt>
      <trkpt lat="49.3433" lon="0.86469">
        <ele>109.4</ele>
        <time>2015-10-11T06:57:53Z</time>
      </trkpt>
      <trkpt lat="49.34323" lon="0.86471">
        <ele>109.1</ele>
        <time>2015-10-11T06:57:55Z</time>
      </trkpt>
      <trkpt lat="49.34317" lon="0.86469">
        <ele>108.7</ele>
        <time>2015-10-11T06:57:57Z</time>
      </trkpt>
      <trkpt lat="49.34311" lon="0.86466">
        <ele>108.28</ele>
        <time>2015-10-11T06:57:59Z</time>
      </trkpt>
      <trkpt lat="49.34305" lon="0.86466">
        <ele>107.82</ele>
        <time>2015-10-11T06:58:01Z</time>
      </trkpt>
      <trkpt lat="49.34304" lon="0.86479">
        <ele>106.83</ele>
        <time>2015-10-11T06:58:05Z</time>
      </trkpt>
      <trkpt lat="49.34296" lon="0.86491">
        <ele>103.84</ele>
        <time>2015-10-11T06:58:07Z</time>
      </trkpt>
      <trkpt lat="49.3429" lon="0.865">
        <ele>102.24</ele>
        <time>2015-10-11T06:58:09Z</time>
      </trkpt>
      <trkpt lat="49.34285" lon="0.8651">
        <ele>101.29</ele>
        <time>2015-10-11T06:58:11Z</time>
      </trkpt>
      <trkpt lat="49.34281" lon="0.86515">
        <ele>100.69</ele>
        <time>2015-10-11T06:58:13Z</time>
      </trkpt>
      <trkpt lat="49.34274" lon="0.86524">
        <ele>100.3</ele>
        <time>2015-10-11T06:58:15Z</time>
      </trkpt>
      <trkpt lat="49.34268" lon="0.86534">
        <ele>99.97</ele>
        <time>2015-10-11T06:58:17Z</time>
      </trkpt>
      <trkpt lat="49.34261" lon="0.86544">
        <ele>99.09</ele>
        <time>2015-10-11T06:58:19Z</time>
      </trkpt>
      <trkpt lat="49.34256" lon="0.86552">
        <ele>98.61</ele>
        <time>2015-10-11T06:58:21Z</time>
      </trkpt>
      <trkpt lat="49.34252" lon="0.8656">
        <ele>98.48</ele>
        <time>2015-10-11T06:58:23Z</time>
      </trkpt>
      <trkpt lat="49.3425" lon="0.86569">
        <ele>98.43</ele>
        <time>2015-10-11T06:58:25Z</time>
      </trkpt>
      <trkpt lat="49.34253" lon="0.86578">
        <ele>98.49</ele>
        <time>2015-10-11T06:58:27Z</time>
      </trkpt>
      <trkpt lat="49.34255" lon="0.8659">
        <ele>99.08</ele>
        <time>2015-10-11T06:58:29Z</time>
      </trkpt>
      <trkpt lat="49.3425" lon="0.86607">
        <ele>99.36</ele>
        <time>2015-10-11T06:58:31Z</time>
      </trkpt>
      <trkpt lat="49.34249" lon="0.86618">
        <ele>99.47</ele>
        <time>2015-10-11T06:58:33Z</time>
      </trkpt>
      <trkpt lat="49.3425" lon="0.86628">
        <ele>99.55</ele>
        <time>2015-10-11T06:58:35Z</time>
      </trkpt>
      <trkpt lat="49.34248" lon="0.86637">
        <ele>99.66</ele>
        <time>2015-10-11T06:58:37Z</time>
      </trkpt>
      <trkpt lat="49.34247" lon="0.86646">
        <ele>99.77</ele>
        <time>2015-10-11T06:58:39Z</time>
      </trkpt>
      <trkpt lat="49.34249" lon="0.86655">
        <ele>99.8</ele>
        <time>2015-10-11T06:58:41Z</time>
      </trkpt>
      <trkpt lat="49.34256" lon="0.86667">
        <ele>99.05</ele>
        <time>2015-10-11T06:58:43Z</time>
      </trkpt>
      <trkpt lat="49.34259" lon="0.8668">
        <ele>98.71</ele>
        <time>2015-10-11T06:58:45Z</time>
      </trkpt>
      <trkpt lat="49.34264" lon="0.86689">
        <ele>98.89</ele>
        <time>2015-10-11T06:58:47Z</time>
      </trkpt>
      <trkpt lat="49.34269" lon="0.86697">
        <ele>99.2</ele>
        <time>2015-10-11T06:58:49Z</time>
      </trkpt>
      <trkpt lat="49.34272" lon="0.8671">
        <ele>99.54</ele>
        <time>2015-10-11T06:58:51Z</time>
      </trkpt>
      <trkpt lat="49.34275" lon="0.86718">
        <ele>99.77</ele>
        <time>2015-10-11T06:58:53Z</time>
      </trkpt>
      <trkpt lat="49.3428" lon="0.86724">
        <ele>99.88</ele>
        <time>2015-10-11T06:58:55Z</time>
      </trkpt>
      <trkpt lat="49.34281" lon="0.86736">
        <ele>99.91</ele>
        <time>2015-10-11T06:58:57Z</time>
      </trkpt>
      <trkpt lat="49.34283" lon="0.86746">
        <ele>99.96</ele>
        <time>2015-10-11T06:58:59Z</time>
      </trkpt>
      <trkpt lat="49.34284" lon="0.86753">
        <ele>99.92</ele>
        <time>2015-10-11T06:59:01Z</time>
      </trkpt>
      <trkpt lat="49.34284" lon="0.86762">
        <ele>99.85</ele>
        <time>2015-10-11T06:59:03Z</time>
      </trkpt>
      <trkpt lat="49.34284" lon="0.8677">
        <ele>99.78</ele>
        <time>2015-10-11T06:59:05Z</time>
      </trkpt>
      <trkpt lat="49.34284" lon="0.8678">
        <ele>99.7</ele>
        <time>2015-10-11T06:59:07Z</time>
      </trkpt>
      <trkpt lat="49.34285" lon="0.86788">
        <ele>99.65</ele>
        <time>2015-10-11T06:59:09Z</time>
      </trkpt>
      <trkpt lat="49.34287" lon="0.86795">
        <ele>99.65</ele>
        <time>2015-10-11T06:59:11Z</time>
      </trkpt>
      <trkpt lat="49.34287" lon="0.86803">
        <ele>99.77</ele>
        <time>2015-10-11T06:59:13Z</time>
      </trkpt>
      <trkpt lat="49.34287" lon="0.86812">
        <ele>99.88</ele>
        <time>2015-10-11T06:59:15Z</time>
      </trkpt>
      <trkpt lat="49.34287" lon="0.86819">
        <ele>100.04</ele>
        <time>2015-10-11T06:59:17Z</time>
      </trkpt>
      <trkpt lat="49.34288" lon="0.86832">
        <ele>100.43</ele>
        <time>2015-10-11T06:59:21Z</time>
      </trkpt>
      <trkpt lat="49.3429" lon="0.86843">
        <ele>100.24</ele>
        <time>2015-10-11T06:59:29Z</time>
      </trkpt>
      <trkpt lat="49.34292" lon="0.86853">
        <ele>100.71</ele>
        <time>2015-10-11T06:59:55Z</time>
      </trkpt>
      <trkpt lat="49.34292" lon="0.86862">
        <ele>101.01</ele>
        <time>2015-10-11T06:59:59Z</time>
      </trkpt>
      <trkpt lat="49.34298" lon="0.86871">
        <ele>101.45</ele>
        <time>2015-10-11T07:00:05Z</time>
      </trkpt>
      <trkpt lat="49.34307" lon="0.86882">
        <ele>101.36</ele>
        <time>2015-10-11T07:00:09Z</time>
      </trkpt>
      <trkpt lat="49.34309" lon="0.86897">
        <ele>100.94</ele>
        <time>2015-10-11T07:00:11Z</time>
      </trkpt>
      <trkpt lat="49.34315" lon="0.86903">
        <ele>100.58</ele>
        <time>2015-10-11T07:00:13Z</time>
      </trkpt>
      <trkpt lat="49.3432" lon="0.86905">
        <ele>100.3</ele>
        <time>2015-10-11T07:00:15Z</time>
      </trkpt>
      <trkpt lat="49.34325" lon="0.86903">
        <ele>100.07</ele>
        <time>2015-10-11T07:00:17Z</time>
      </trkpt>
      <trkpt lat="49.34327" lon="0.86897">
        <ele>99.91</ele>
        <time>2015-10-11T07:00:19Z</time>
      </trkpt>
      <trkpt lat="49.34329" lon="0.86885">
        <ele>99.69</ele>
        <time>2015-10-11T07:00:23Z</time>
      </trkpt>
      <trkpt lat="49.3433" lon="0.86878">
        <ele>99.61</ele>
        <time>2015-10-11T07:00:25Z</time>
      </trkpt>
      <trkpt lat="49.34333" lon="0.86867">
        <ele>99.53</ele>
        <time>2015-10-11T07:00:29Z</time>
      </trkpt>
      <trkpt lat="49.34336" lon="0.86856">
        <ele>99.66</ele>
        <time>2015-10-11T07:00:33Z</time>
      </trkpt>
      <trkpt lat="49.34339" lon="0.86847">
        <ele>99.96</ele>
        <time>2015-10-11T07:00:37Z</time>
      </trkpt>
      <trkpt lat="49.34341" lon="0.86839">
        <ele>100.51</ele>
        <time>2015-10-11T07:00:41Z</time>
      </trkpt>
      <trkpt lat="49.34342" lon="0.86832">
        <ele>101.45</ele>
        <time>2015-10-11T07:00:45Z</time>
      </trkpt>
      <trkpt lat="49.34345" lon="0.86807">
        <ele>104.34</ele>
        <time>2015-10-11T07:00:55Z</time>
      </trkpt>
      <trkpt lat="49.34345" lon="0.86796">
        <ele>105.36</ele>
        <time>2015-10-11T07:00:59Z</time>
      </trkpt>
      <trkpt lat="49.34348" lon="0.86785">
        <ele>106.22</ele>
        <time>2015-10-11T07:01:03Z</time>
      </trkpt>
      <trkpt lat="49.3435" lon="0.86777">
        <ele>106.85</ele>
        <time>2015-10-11T07:01:07Z</time>
      </trkpt>
      <trkpt lat="49.34352" lon="0.86764">
        <ele>107.39</ele>
        <time>2015-10-11T07:01:11Z</time>
      </trkpt>
      <trkpt lat="49.34353" lon="0.86752">
        <ele>108.12</ele>
        <time>2015-10-11T07:01:15Z</time>
      </trkpt>
      <trkpt lat="49.34356" lon="0.8674">
        <ele>109.08</ele>
        <time>2015-10-11T07:01:19Z</time>
      </trkpt>
      <trkpt lat="49.34358" lon="0.86729">
        <ele>109.87</ele>
        <time>2015-10-11T07:01:23Z</time>
      </trkpt>
      <trkpt lat="49.3436" lon="0.86719">
        <ele>110.68</ele>
        <time>2015-10-11T07:01:27Z</time>
      </trkpt>
      <trkpt lat="49.34363" lon="0.86713">
        <ele>111.07</ele>
        <time>2015-10-11T07:01:29Z</time>
      </trkpt>
      <trkpt lat="49.34369" lon="0.86709">
        <ele>111.43</ele>
        <time>2015-10-11T07:01:31Z</time>
      </trkpt>
      <trkpt lat="49.34374" lon="0.86708">
        <ele>111.67</ele>
        <time>2015-10-11T07:01:32Z</time>
      </trkpt>
      <trkpt lat="49.3438" lon="0.86708">
        <ele>111.82</ele>
        <time>2015-10-11T07:01:34Z</time>
      </trkpt>
      <trkpt lat="49.34385" lon="0.86709">
        <ele>111.93</ele>
        <time>2015-10-11T07:01:36Z</time>
      </trkpt>
      <trkpt lat="49.34389" lon="0.8671">
        <ele>112.03</ele>
        <time>2015-10-11T07:01:38Z</time>
      </trkpt>
      <trkpt lat="49.34395" lon="0.86712">
        <ele>112.11</ele>
        <time>2015-10-11T07:01:40Z</time>
      </trkpt>
      <trkpt lat="49.34401" lon="0.86715">
        <ele>112.27</ele>
        <time>2015-10-11T07:01:42Z</time>
      </trkpt>
      <trkpt lat="49.34408" lon="0.86719">
        <ele>112.94</ele>
        <time>2015-10-11T07:01:44Z</time>
      </trkpt>
      <trkpt lat="49.34415" lon="0.86725">
        <ele>113.33</ele>
        <time>2015-10-11T07:01:46Z</time>
      </trkpt>
      <trkpt lat="49.34423" lon="0.86732">
        <ele>113.87</ele>
        <time>2015-10-11T07:01:48Z</time>
      </trkpt>
      <trkpt lat="49.34432" lon="0.86742">
        <ele>114.36</ele>
        <time>2015-10-11T07:01:50Z</time>
      </trkpt>
      <trkpt lat="49.34437" lon="0.86753">
        <ele>114.61</ele>
        <time>2015-10-11T07:01:52Z</time>
      </trkpt>
      <trkpt lat="49.34441" lon="0.86761">
        <ele>114.9</ele>
        <time>2015-10-11T07:01:54Z</time>
      </trkpt>
      <trkpt lat="49.34446" lon="0.86771">
        <ele>115.38</ele>
        <time>2015-10-11T07:01:56Z</time>
      </trkpt>
      <trkpt lat="49.34452" lon="0.86782">
        <ele>116.12</ele>
        <time>2015-10-11T07:01:58Z</time>
      </trkpt>
      <trkpt lat="49.34458" lon="0.86796">
        <ele>116.85</ele>
        <time>2015-10-11T07:02:00Z</time>
      </trkpt>
      <trkpt lat="49.34463" lon="0.86809">
        <ele>117.66</ele>
        <time>2015-10-11T07:02:02Z</time>
      </trkpt>
      <trkpt lat="49.34467" lon="0.86822">
        <ele>118.02</ele>
        <time>2015-10-11T07:02:04Z</time>
      </trkpt>
      <trkpt lat="49.34467" lon="0.86834">
        <ele>117.63</ele>
        <time>2015-10-11T07:02:06Z</time>
      </trkpt>
      <trkpt lat="49.34469" lon="0.86849">
        <ele>116.64</ele>
        <time>2015-10-11T07:02:08Z</time>
      </trkpt>
      <trkpt lat="49.34471" lon="0.86865">
        <ele>115.57</ele>
        <time>2015-10-11T07:02:10Z</time>
      </trkpt>
      <trkpt lat="49.34474" lon="0.86882">
        <ele>114.47</ele>
        <time>2015-10-11T07:02:12Z</time>
      </trkpt>
      <trkpt lat="49.34479" lon="0.86899">
        <ele>113.82</ele>
        <time>2015-10-11T07:02:14Z</time>
      </trkpt>
      <trkpt lat="49.34481" lon="0.86917">
        <ele>113.24</ele>
        <time>2015-10-11T07:02:16Z</time>
      </trkpt>
      <trkpt lat="49.34485" lon="0.86932">
        <ele>113.04</ele>
        <time>2015-10-11T07:02:18Z</time>
      </trkpt>
      <trkpt lat="49.34488" lon="0.86952">
        <ele>112.74</ele>
        <time>2015-10-11T07:02:20Z</time>
      </trkpt>
      <trkpt lat="49.34489" lon="0.86967">
        <ele>112.56</ele>
        <time>2015-10-11T07:02:22Z</time>
      </trkpt>
      <trkpt lat="49.34488" lon="0.86983">
        <ele>112.59</ele>
        <time>2015-10-11T07:02:24Z</time>
      </trkpt>
      <trkpt lat="49.34486" lon="0.86998">
        <ele>112.62</ele>
        <time>2015-10-11T07:02:26Z</time>
      </trkpt>
      <trkpt lat="49.34483" lon="0.87019">
        <ele>112.6</ele>
        <time>2015-10-11T07:02:28Z</time>
      </trkpt>
      <trkpt lat="49.34479" lon="0.87038">
        <ele>112.08</ele>
        <time>2015-10-11T07:02:30Z</time>
      </trkpt>
      <trkpt lat="49.34482" lon="0.87052">
        <ele>111.54</ele>
        <time>2015-10-11T07:02:32Z</time>
      </trkpt>
      <trkpt lat="49.34481" lon="0.87071">
        <ele>111.19</ele>
        <time>2015-10-11T07:02:34Z</time>
      </trkpt>
      <trkpt lat="49.3448" lon="0.8709">
        <ele>111.08</ele>
        <time>2015-10-11T07:02:36Z</time>
      </trkpt>
      <trkpt lat="49.34478" lon="0.87107">
        <ele>110.71</ele>
        <time>2015-10-11T07:02:38Z</time>
      </trkpt>
      <trkpt lat="49.34474" lon="0.87126">
        <ele>110.25</ele>
        <time>2015-10-11T07:02:40Z</time>
      </trkpt>
      <trkpt lat="49.34468" lon="0.87147">
        <ele>109.56</ele>
        <time>2015-10-11T07:02:42Z</time>
      </trkpt>
      <trkpt lat="49.34465" lon="0.87169">
        <ele>109.05</ele>
        <time>2015-10-11T07:02:44Z</time>
      </trkpt>
      <trkpt lat="49.34466" lon="0.87186">
        <ele>108.51</ele>
        <time>2015-10-11T07:02:46Z</time>
      </trkpt>
      <trkpt lat="49.34466" lon="0.87208">
        <ele>107.75</ele>
        <time>2015-10-11T07:02:48Z</time>
      </trkpt>
      <trkpt lat="49.34459" lon="0.87228">
        <ele>106.7</ele>
        <time>2015-10-11T07:02:50Z</time>
      </trkpt>
      <trkpt lat="49.34453" lon="0.87249">
        <ele>105.76</ele>
        <time>2015-10-11T07:02:52Z</time>
      </trkpt>
      <trkpt lat="49.34448" lon="0.87274">
        <ele>104.97</ele>
        <time>2015-10-11T07:02:54Z</time>
      </trkpt>
      <trkpt lat="49.34443" lon="0.87295">
        <ele>104.74</ele>
        <time>2015-10-11T07:02:56Z</time>
      </trkpt>
      <trkpt lat="49.3445" lon="0.87315">
        <ele>104.8</ele>
        <time>2015-10-11T07:02:58Z</time>
      </trkpt>
      <trkpt lat="49.34457" lon="0.87333">
        <ele>104.96</ele>
        <time>2015-10-11T07:03:00Z</time>
      </trkpt>
      <trkpt lat="49.34463" lon="0.87347">
        <ele>105.06</ele>
        <time>2015-10-11T07:03:02Z</time>
      </trkpt>
      <trkpt lat="49.34467" lon="0.87362">
        <ele>105.51</ele>
        <time>2015-10-11T07:03:04Z</time>
      </trkpt>
      <trkpt lat="49.34472" lon="0.87378">
        <ele>105.99</ele>
        <time>2015-10-11T07:03:06Z</time>
      </trkpt>
      <trkpt lat="49.34476" lon="0.87391">
        <ele>107.01</ele>
        <time>2015-10-11T07:03:08Z</time>
      </trkpt>
      <trkpt lat="49.3448" lon="0.87405">
        <ele>107.96</ele>
        <time>2015-10-11T07:03:10Z</time>
      </trkpt>
      <trkpt lat="49.34485" lon="0.87418">
        <ele>108.2</ele>
        <time>2015-10-11T07:03:12Z</time>
      </trkpt>
      <trkpt lat="49.34488" lon="0.87432">
        <ele>108.68</ele>
        <time>2015-10-11T07:03:14Z</time>
      </trkpt>
      <trkpt lat="49.3449" lon="0.87447">
        <ele>109.04</ele>
        <time>2015-10-11T07:03:16Z</time>
      </trkpt>
      <trkpt lat="49.34493" lon="0.87463">
        <ele>109.33</ele>
        <time>2015-10-11T07:03:18Z</time>
      </trkpt>
      <trkpt lat="49.34496" lon="0.8748">
        <ele>110.01</ele>
        <time>2015-10-11T07:03:20Z</time>
      </trkpt>
      <trkpt lat="49.34499" lon="0.87498">
        <ele>110.56</ele>
        <time>2015-10-11T07:03:22Z</time>
      </trkpt>
      <trkpt lat="49.34502" lon="0.87513">
        <ele>111.15</ele>
        <time>2015-10-11T07:03:24Z</time>
      </trkpt>
      <trkpt lat="49.34504" lon="0.87526">
        <ele>111.57</ele>
        <time>2015-10-11T07:03:26Z</time>
      </trkpt>
      <trkpt lat="49.3451" lon="0.8754">
        <ele>111.62</ele>
        <time>2015-10-11T07:03:28Z</time>
      </trkpt>
      <trkpt lat="49.34514" lon="0.87555">
        <ele>111.07</ele>
        <time>2015-10-11T07:03:30Z</time>
      </trkpt>
      <trkpt lat="49.3452" lon="0.87567">
        <ele>110.38</ele>
        <time>2015-10-11T07:03:32Z</time>
      </trkpt>
      <trkpt lat="49.34527" lon="0.87581">
        <ele>109.59</ele>
        <time>2015-10-11T07:03:34Z</time>
      </trkpt>
      <trkpt lat="49.34535" lon="0.87594">
        <ele>109.31</ele>
        <time>2015-10-11T07:03:36Z</time>
      </trkpt>
      <trkpt lat="49.34541" lon="0.87608">
        <ele>109.86</ele>
        <time>2015-10-11T07:03:38Z</time>
      </trkpt>
      <trkpt lat="49.34546" lon="0.87622">
        <ele>111</ele>
        <time>2015-10-11T07:03:40Z</time>
      </trkpt>
      <trkpt lat="49.3455" lon="0.87638">
        <ele>111.9</ele>
        <time>2015-10-11T07:03:42Z</time>
      </trkpt>
      <trkpt lat="49.34552" lon="0.87656">
        <ele>111.66</ele>
        <time>2015-10-11T07:03:44Z</time>
      </trkpt>
      <trkpt lat="49.34558" lon="0.87672">
        <ele>111.19</ele>
        <time>2015-10-11T07:03:46Z</time>
      </trkpt>
      <trkpt lat="49.34565" lon="0.87693">
        <ele>110.23</ele>
        <time>2015-10-11T07:03:48Z</time>
      </trkpt>
      <trkpt lat="49.34574" lon="0.87704">
        <ele>109.23</ele>
        <time>2015-10-11T07:03:50Z</time>
      </trkpt>
      <trkpt lat="49.34584" lon="0.87708">
        <ele>107.95</ele>
        <time>2015-10-11T07:03:52Z</time>
      </trkpt>
      <trkpt lat="49.34595" lon="0.87709">
        <ele>107.49</ele>
        <time>2015-10-11T07:03:54Z</time>
      </trkpt>
      <trkpt lat="49.34604" lon="0.87702">
        <ele>107.45</ele>
        <time>2015-10-11T07:03:56Z</time>
      </trkpt>
      <trkpt lat="49.34614" lon="0.87697">
        <ele>107.66</ele>
        <time>2015-10-11T07:03:58Z</time>
      </trkpt>
      <trkpt lat="49.34625" lon="0.87693">
        <ele>107.63</ele>
        <time>2015-10-11T07:04:00Z</time>
      </trkpt>
      <trkpt lat="49.34636" lon="0.8769">
        <ele>108.05</ele>
        <time>2015-10-11T07:04:02Z</time>
      </trkpt>
      <trkpt lat="49.34645" lon="0.87689">
        <ele>108.95</ele>
        <time>2015-10-11T07:04:04Z</time>
      </trkpt>
      <trkpt lat="49.34655" lon="0.87689">
        <ele>109.7</ele>
        <time>2015-10-11T07:04:06Z</time>
      </trkpt>
      <trkpt lat="49.34664" lon="0.87689">
        <ele>110.07</ele>
        <time>2015-10-11T07:04:08Z</time>
      </trkpt>
      <trkpt lat="49.34672" lon="0.87692">
        <ele>110.27</ele>
        <time>2015-10-11T07:04:10Z</time>
      </trkpt>
      <trkpt lat="49.34681" lon="0.87704">
        <ele>110.19</ele>
        <time>2015-10-11T07:04:12Z</time>
      </trkpt>
      <trkpt lat="49.34683" lon="0.87722">
        <ele>110.05</ele>
        <time>2015-10-11T07:04:14Z</time>
      </trkpt>
      <trkpt lat="49.34677" lon="0.87742">
        <ele>109.81</ele>
        <time>2015-10-11T07:04:16Z</time>
      </trkpt>
      <trkpt lat="49.34671" lon="0.87761">
        <ele>109.18</ele>
        <time>2015-10-11T07:04:18Z</time>
      </trkpt>
      <trkpt lat="49.34664" lon="0.87784">
        <ele>108.28</ele>
        <time>2015-10-11T07:04:20Z</time>
      </trkpt>
      <trkpt lat="49.34658" lon="0.87809">
        <ele>107.08</ele>
        <time>2015-10-11T07:04:22Z</time>
      </trkpt>
      <trkpt lat="49.34651" lon="0.87839">
        <ele>105.6</ele>
        <time>2015-10-11T07:04:24Z</time>
      </trkpt>
      <trkpt lat="49.34648" lon="0.87863">
        <ele>103.95</ele>
        <time>2015-10-11T07:04:26Z</time>
      </trkpt>
      <trkpt lat="49.34646" lon="0.87887">
        <ele>102.39</ele>
        <time>2015-10-11T07:04:28Z</time>
      </trkpt>
      <trkpt lat="49.34635" lon="0.87908">
        <ele>101.51</ele>
        <time>2015-10-11T07:04:30Z</time>
      </trkpt>
      <trkpt lat="49.3463" lon="0.8793">
        <ele>101</ele>
        <time>2015-10-11T07:04:32Z</time>
      </trkpt>
      <trkpt lat="49.34632" lon="0.87948">
        <ele>101.08</ele>
        <time>2015-10-11T07:04:34Z</time>
      </trkpt>
      <trkpt lat="49.34639" lon="0.87964">
        <ele>101.41</ele>
        <time>2015-10-11T07:04:36Z</time>
      </trkpt>
      <trkpt lat="49.34637" lon="0.87983">
        <ele>101.46</ele>
        <time>2015-10-11T07:04:38Z</time>
      </trkpt>
      <trkpt lat="49.34627" lon="0.87998">
        <ele>101</ele>
        <time>2015-10-11T07:04:40Z</time>
      </trkpt>
      <trkpt lat="49.34619" lon="0.88012">
        <ele>99.92</ele>
        <time>2015-10-11T07:04:42Z</time>
      </trkpt>
      <trkpt lat="49.3461" lon="0.88029">
        <ele>97.78</ele>
        <time>2015-10-11T07:04:44Z</time>
      </trkpt>
      <trkpt lat="49.34599" lon="0.8805">
        <ele>95.1</ele>
        <time>2015-10-11T07:04:46Z</time>
      </trkpt>
      <trkpt lat="49.34589" lon="0.88071">
        <ele>92.61</ele>
        <time>2015-10-11T07:04:48Z</time>
      </trkpt>
      <trkpt lat="49.3458" lon="0.88092">
        <ele>90.53</ele>
        <time>2015-10-11T07:04:50Z</time>
      </trkpt>
      <trkpt lat="49.34569" lon="0.8811">
        <ele>88.91</ele>
        <time>2015-10-11T07:04:52Z</time>
      </trkpt>
      <trkpt lat="49.34554" lon="0.88116">
        <ele>86.49</ele>
        <time>2015-10-11T07:04:54Z</time>
      </trkpt>
      <trkpt lat="49.34541" lon="0.88117">
        <ele>85.05</ele>
        <time>2015-10-11T07:04:56Z</time>
      </trkpt>
      <trkpt lat="49.34528" lon="0.88117">
        <ele>84.49</ele>
        <time>2015-10-11T07:04:58Z</time>
      </trkpt>
      <trkpt lat="49.34518" lon="0.88116">
        <ele>83.71</ele>
        <time>2015-10-11T07:05:00Z</time>
      </trkpt>
      <trkpt lat="49.34507" lon="0.88115">
        <ele>83.28</ele>
        <time>2015-10-11T07:05:02Z</time>
      </trkpt>
      <trkpt lat="49.345" lon="0.88113">
        <ele>83.03</ele>
        <time>2015-10-11T07:05:04Z</time>
      </trkpt>
      <trkpt lat="49.34494" lon="0.8811">
        <ele>82.73</ele>
        <time>2015-10-11T07:05:06Z</time>
      </trkpt>
      <trkpt lat="49.34488" lon="0.88107">
        <ele>81.74</ele>
        <time>2015-10-11T07:05:08Z</time>
      </trkpt>
      <trkpt lat="49.34478" lon="0.88103">
        <ele>80.67</ele>
        <time>2015-10-11T07:05:10Z</time>
      </trkpt>
      <trkpt lat="49.34469" lon="0.88099">
        <ele>79.4</ele>
        <time>2015-10-11T07:05:12Z</time>
      </trkpt>
      <trkpt lat="49.34459" lon="0.88095">
        <ele>78.33</ele>
        <time>2015-10-11T07:05:14Z</time>
      </trkpt>
      <trkpt lat="49.3445" lon="0.8809">
        <ele>77.86</ele>
        <time>2015-10-11T07:05:16Z</time>
      </trkpt>
      <trkpt lat="49.34441" lon="0.88085">
        <ele>78.06</ele>
        <time>2015-10-11T07:05:18Z</time>
      </trkpt>
      <trkpt lat="49.3443" lon="0.8808">
        <ele>78.14</ele>
        <time>2015-10-11T07:05:20Z</time>
      </trkpt>
      <trkpt lat="49.3442" lon="0.88076">
        <ele>78.67</ele>
        <time>2015-10-11T07:05:22Z</time>
      </trkpt>
      <trkpt lat="49.34408" lon="0.88072">
        <ele>79.25</ele>
        <time>2015-10-11T07:05:24Z</time>
      </trkpt>
      <trkpt lat="49.34397" lon="0.88068">
        <ele>79.07</ele>
        <time>2015-10-11T07:05:26Z</time>
      </trkpt>
      <trkpt lat="49.34385" lon="0.88066">
        <ele>78.28</ele>
        <time>2015-10-11T07:05:28Z</time>
      </trkpt>
      <trkpt lat="49.34376" lon="0.88068">
        <ele>77.18</ele>
        <time>2015-10-11T07:05:30Z</time>
      </trkpt>
      <trkpt lat="49.34372" lon="0.88071">
        <ele>76.62</ele>
        <time>2015-10-11T07:05:32Z</time>
      </trkpt>
      <trkpt lat="49.3438" lon="0.88074">
        <ele>76.18</ele>
        <time>2015-10-11T07:05:38Z</time>
      </trkpt>
      <trkpt lat="49.34387" lon="0.88079">
        <ele>76.31</ele>
        <time>2015-10-11T07:05:40Z</time>
      </trkpt>
      <trkpt lat="49.34395" lon="0.88086">
        <ele>75.84</ele>
        <time>2015-10-11T07:05:42Z</time>
      </trkpt>
      <trkpt lat="49.34403" lon="0.881">
        <ele>75.92</ele>
        <time>2015-10-11T07:05:44Z</time>
      </trkpt>
      <trkpt lat="49.34409" lon="0.88116">
        <ele>76.08</ele>
        <time>2015-10-11T07:05:46Z</time>
      </trkpt>
      <trkpt lat="49.34413" lon="0.88132">
        <ele>75.87</ele>
        <time>2015-10-11T07:05:48Z</time>
      </trkpt>
      <trkpt lat="49.34416" lon="0.8815">
        <ele>75.66</ele>
        <time>2015-10-11T07:05:50Z</time>
      </trkpt>
      <trkpt lat="49.34418" lon="0.88163">
        <ele>75.53</ele>
        <time>2015-10-11T07:05:52Z</time>
      </trkpt>
      <trkpt lat="49.34416" lon="0.88177">
        <ele>75.75</ele>
        <time>2015-10-11T07:05:54Z</time>
      </trkpt>
      <trkpt lat="49.34418" lon="0.88187">
        <ele>75.89</ele>
        <time>2015-10-11T07:05:56Z</time>
      </trkpt>
      <trkpt lat="49.34422" lon="0.88197">
        <ele>76.14</ele>
        <time>2015-10-11T07:05:58Z</time>
      </trkpt>
      <trkpt lat="49.34422" lon="0.88211">
        <ele>77.8</ele>
        <time>2015-10-11T07:06:00Z</time>
      </trkpt>
      <trkpt lat="49.34425" lon="0.88224">
        <ele>78.65</ele>
        <time>2015-10-11T07:06:02Z</time>
      </trkpt>
      <trkpt lat="49.34427" lon="0.88239">
        <ele>79.52</ele>
        <time>2015-10-11T07:06:04Z</time>
      </trkpt>
      <trkpt lat="49.3443" lon="0.88254">
        <ele>80.22</ele>
        <time>2015-10-11T07:06:06Z</time>
      </trkpt>
      <trkpt lat="49.34434" lon="0.88272">
        <ele>81.06</ele>
        <time>2015-10-11T07:06:08Z</time>
      </trkpt>
      <trkpt lat="49.34438" lon="0.88288">
        <ele>81.17</ele>
        <time>2015-10-11T07:06:10Z</time>
      </trkpt>
      <trkpt lat="49.34443" lon="0.883">
        <ele>81.06</ele>
        <time>2015-10-11T07:06:12Z</time>
      </trkpt>
      <trkpt lat="49.34447" lon="0.88313">
        <ele>82.29</ele>
        <time>2015-10-11T07:06:14Z</time>
      </trkpt>
      <trkpt lat="49.34451" lon="0.88326">
        <ele>83.62</ele>
        <time>2015-10-11T07:06:16Z</time>
      </trkpt>
      <trkpt lat="49.34456" lon="0.88338">
        <ele>85.18</ele>
        <time>2015-10-11T07:06:18Z</time>
      </trkpt>
      <trkpt lat="49.3446" lon="0.88349">
        <ele>86.07</ele>
        <time>2015-10-11T07:06:20Z</time>
      </trkpt>
      <trkpt lat="49.34464" lon="0.8836">
        <ele>87.19</ele>
        <time>2015-10-11T07:06:22Z</time>
      </trkpt>
      <trkpt lat="49.34466" lon="0.88371">
        <ele>88.21</ele>
        <time>2015-10-11T07:06:24Z</time>
      </trkpt>
      <trkpt lat="49.34466" lon="0.8838">
        <ele>89.12</ele>
        <time>2015-10-11T07:06:28Z</time>
      </trkpt>
      <trkpt lat="49.34467" lon="0.88391">
        <ele>89.44</ele>
        <time>2015-10-11T07:06:32Z</time>
      </trkpt>
      <trkpt lat="49.34468" lon="0.88399">
        <ele>89.49</ele>
        <time>2015-10-11T07:06:34Z</time>
      </trkpt>
      <trkpt lat="49.34476" lon="0.88406">
        <ele>89.65</ele>
        <time>2015-10-11T07:06:38Z</time>
      </trkpt>
      <trkpt lat="49.34482" lon="0.88414">
        <ele>89.79</ele>
        <time>2015-10-11T07:06:40Z</time>
      </trkpt>
      <trkpt lat="49.34483" lon="0.88425">
        <ele>89.97</ele>
        <time>2015-10-11T07:06:42Z</time>
      </trkpt>
      <trkpt lat="49.34486" lon="0.88438">
        <ele>90.12</ele>
        <time>2015-10-11T07:06:44Z</time>
      </trkpt>
      <trkpt lat="49.34489" lon="0.88449">
        <ele>90.28</ele>
        <time>2015-10-11T07:06:46Z</time>
      </trkpt>
      <trkpt lat="49.34491" lon="0.8846">
        <ele>90.4</ele>
        <time>2015-10-11T07:06:48Z</time>
      </trkpt>
      <trkpt lat="49.34493" lon="0.88471">
        <ele>90.51</ele>
        <time>2015-10-11T07:06:50Z</time>
      </trkpt>
      <trkpt lat="49.34498" lon="0.8848">
        <ele>90.58</ele>
        <time>2015-10-11T07:06:52Z</time>
      </trkpt>
      <trkpt lat="49.34504" lon="0.88486">
        <ele>90.64</ele>
        <time>2015-10-11T07:06:54Z</time>
      </trkpt>
      <trkpt lat="49.3451" lon="0.88495">
        <ele>90.84</ele>
        <time>2015-10-11T07:06:56Z</time>
      </trkpt>
      <trkpt lat="49.34512" lon="0.88504">
        <ele>90.97</ele>
        <time>2015-10-11T07:06:58Z</time>
      </trkpt>
      <trkpt lat="49.34512" lon="0.88517">
        <ele>90.71</ele>
        <time>2015-10-11T07:07:02Z</time>
      </trkpt>
      <trkpt lat="49.34512" lon="0.88524">
        <ele>90.45</ele>
        <time>2015-10-11T07:07:04Z</time>
      </trkpt>
      <trkpt lat="49.34511" lon="0.88531">
        <ele>90.1</ele>
        <time>2015-10-11T07:07:06Z</time>
      </trkpt>
      <trkpt lat="49.34504" lon="0.88549">
        <ele>87.98</ele>
        <time>2015-10-11T07:07:10Z</time>
      </trkpt>
      <trkpt lat="49.34497" lon="0.8856">
        <ele>84.97</ele>
        <time>2015-10-11T07:07:12Z</time>
      </trkpt>
      <trkpt lat="49.3449" lon="0.8857">
        <ele>83.33</ele>
        <time>2015-10-11T07:07:14Z</time>
      </trkpt>
      <trkpt lat="49.34485" lon="0.88578">
        <ele>82.35</ele>
        <time>2015-10-11T07:07:16Z</time>
      </trkpt>
      <trkpt lat="49.3448" lon="0.88586">
        <ele>81.57</ele>
        <time>2015-10-11T07:07:18Z</time>
      </trkpt>
      <trkpt lat="49.34476" lon="0.88593">
        <ele>80.93</ele>
        <time>2015-10-11T07:07:20Z</time>
      </trkpt>
      <trkpt lat="49.34472" lon="0.88602">
        <ele>80.43</ele>
        <time>2015-10-11T07:07:22Z</time>
      </trkpt>
      <trkpt lat="49.34469" lon="0.8861">
        <ele>80.01</ele>
        <time>2015-10-11T07:07:24Z</time>
      </trkpt>
      <trkpt lat="49.34465" lon="0.88619">
        <ele>79.66</ele>
        <time>2015-10-11T07:07:26Z</time>
      </trkpt>
      <trkpt lat="49.34461" lon="0.88627">
        <ele>79.3</ele>
        <time>2015-10-11T07:07:28Z</time>
      </trkpt>
      <trkpt lat="49.34457" lon="0.88634">
        <ele>79.01</ele>
        <time>2015-10-11T07:07:30Z</time>
      </trkpt>
      <trkpt lat="49.34453" lon="0.88641">
        <ele>78.77</ele>
        <time>2015-10-11T07:07:32Z</time>
      </trkpt>
      <trkpt lat="49.3445" lon="0.88647">
        <ele>78.49</ele>
        <time>2015-10-11T07:07:34Z</time>
      </trkpt>
      <trkpt lat="49.34446" lon="0.88655">
        <ele>78.24</ele>
        <time>2015-10-11T07:07:36Z</time>
      </trkpt>
      <trkpt lat="49.34443" lon="0.88661">
        <ele>78.03</ele>
        <time>2015-10-11T07:07:38Z</time>
      </trkpt>
      <trkpt lat="49.34441" lon="0.88669">
        <ele>77.83</ele>
        <time>2015-10-11T07:07:40Z</time>
      </trkpt>
      <trkpt lat="49.34438" lon="0.88676">
        <ele>77.64</ele>
        <time>2015-10-11T07:07:42Z</time>
      </trkpt>
      <trkpt lat="49.34435" lon="0.88685">
        <ele>77.27</ele>
        <time>2015-10-11T07:07:46Z</time>
      </trkpt>
      <trkpt lat="49.34432" lon="0.88698">
        <ele>77.04</ele>
        <time>2015-10-11T07:07:50Z</time>
      </trkpt>
      <trkpt lat="49.34431" lon="0.88705">
        <ele>77.02</ele>
        <time>2015-10-11T07:07:54Z</time>
      </trkpt>
      <trkpt lat="49.34431" lon="0.88713">
        <ele>77.27</ele>
        <time>2015-10-11T07:07:58Z</time>
      </trkpt>
      <trkpt lat="49.34434" lon="0.88727">
        <ele>77.64</ele>
        <time>2015-10-11T07:08:02Z</time>
      </trkpt>
      <trkpt lat="49.34436" lon="0.88736">
        <ele>77.77</ele>
        <time>2015-10-11T07:08:04Z</time>
      </trkpt>
      <trkpt lat="49.34438" lon="0.88743">
        <ele>77.85</ele>
        <time>2015-10-11T07:08:06Z</time>
      </trkpt>
      <trkpt lat="49.34441" lon="0.88753">
        <ele>78.12</ele>
        <time>2015-10-11T07:08:10Z</time>
      </trkpt>
      <trkpt lat="49.34445" lon="0.88765">
        <ele>78.77</ele>
        <time>2015-10-11T07:08:14Z</time>
      </trkpt>
      <trkpt lat="49.34449" lon="0.88777">
        <ele>79.79</ele>
        <time>2015-10-11T07:08:18Z</time>
      </trkpt>
      <trkpt lat="49.34453" lon="0.88787">
        <ele>80.91</ele>
        <time>2015-10-11T07:08:22Z</time>
      </trkpt>
      <trkpt lat="49.34457" lon="0.88799">
        <ele>81.99</ele>
        <time>2015-10-11T07:08:26Z</time>
      </trkpt>
      <trkpt lat="49.34462" lon="0.88809">
        <ele>83.04</ele>
        <time>2015-10-11T07:08:30Z</time>
      </trkpt>
      <trkpt lat="49.34468" lon="0.88818">
        <ele>84.01</ele>
        <time>2015-10-11T07:08:34Z</time>
      </trkpt>
      <trkpt lat="49.34474" lon="0.8883">
        <ele>84.82</ele>
        <time>2015-10-11T07:08:38Z</time>
      </trkpt>
      <trkpt lat="49.34477" lon="0.88839">
        <ele>85.82</ele>
        <time>2015-10-11T07:08:42Z</time>
      </trkpt>
      <trkpt lat="49.34481" lon="0.8885">
        <ele>86.81</ele>
        <time>2015-10-11T07:08:46Z</time>
      </trkpt>
      <trkpt lat="49.34481" lon="0.88863">
        <ele>87.63</ele>
        <time>2015-10-11T07:08:50Z</time>
      </trkpt>
      <trkpt lat="49.34481" lon="0.88871">
        <ele>88.06</ele>
        <time>2015-10-11T07:08:52Z</time>
      </trkpt>
      <trkpt lat="49.34485" lon="0.88881">
        <ele>89.07</ele>
        <time>2015-10-11T07:08:56Z</time>
      </trkpt>
      <trkpt lat="49.3449" lon="0.88885">
        <ele>90.37</ele>
        <time>2015-10-11T07:09:00Z</time>
      </trkpt>
      <trkpt lat="49.34494" lon="0.88891">
        <ele>91.92</ele>
        <time>2015-10-11T07:09:04Z</time>
      </trkpt>
      <trkpt lat="49.34502" lon="0.889">
        <ele>95.04</ele>
        <time>2015-10-11T07:09:12Z</time>
      </trkpt>
      <trkpt lat="49.34507" lon="0.88905">
        <ele>97.83</ele>
        <time>2015-10-11T07:09:20Z</time>
      </trkpt>
      <trkpt lat="49.34512" lon="0.88917">
        <ele>100.04</ele>
        <time>2015-10-11T07:09:26Z</time>
      </trkpt>
      <trkpt lat="49.34505" lon="0.88929">
        <ele>103.08</ele>
        <time>2015-10-11T07:09:34Z</time>
      </trkpt>
      <trkpt lat="49.34497" lon="0.88934">
        <ele>104.36</ele>
        <time>2015-10-11T07:09:38Z</time>
      </trkpt>
      <trkpt lat="49.34489" lon="0.88937">
        <ele>105.28</ele>
        <time>2015-10-11T07:09:42Z</time>
      </trkpt>
      <trkpt lat="49.34483" lon="0.88939">
        <ele>105.55</ele>
        <time>2015-10-11T07:09:44Z</time>
      </trkpt>
      <trkpt lat="49.34478" lon="0.88941">
        <ele>105.76</ele>
        <time>2015-10-11T07:09:46Z</time>
      </trkpt>
      <trkpt lat="49.34473" lon="0.88943">
        <ele>106</ele>
        <time>2015-10-11T07:09:48Z</time>
      </trkpt>
      <trkpt lat="49.34467" lon="0.88947">
        <ele>106.38</ele>
        <time>2015-10-11T07:09:52Z</time>
      </trkpt>
      <trkpt lat="49.34463" lon="0.88951">
        <ele>106.71</ele>
        <time>2015-10-11T07:09:56Z</time>
      </trkpt>
      <trkpt lat="49.3446" lon="0.88958">
        <ele>106.96</ele>
        <time>2015-10-11T07:10:00Z</time>
      </trkpt>
      <trkpt lat="49.34455" lon="0.88964">
        <ele>107.17</ele>
        <time>2015-10-11T07:10:02Z</time>
      </trkpt>
      <trkpt lat="49.34452" lon="0.8897">
        <ele>107.36</ele>
        <time>2015-10-11T07:10:04Z</time>
      </trkpt>
      <trkpt lat="49.34449" lon="0.88977">
        <ele>107.58</ele>
        <time>2015-10-11T07:10:06Z</time>
      </trkpt>
      <trkpt lat="49.34446" lon="0.88983">
        <ele>107.82</ele>
        <time>2015-10-11T07:10:08Z</time>
      </trkpt>
      <trkpt lat="49.34443" lon="0.88993">
        <ele>107.98</ele>
        <time>2015-10-11T07:10:10Z</time>
      </trkpt>
      <trkpt lat="49.34439" lon="0.89">
        <ele>108.13</ele>
        <time>2015-10-11T07:10:12Z</time>
      </trkpt>
      <trkpt lat="49.34433" lon="0.89013">
        <ele>108.28</ele>
        <time>2015-10-11T07:10:14Z</time>
      </trkpt>
      <trkpt lat="49.3443" lon="0.89021">
        <ele>108.39</ele>
        <time>2015-10-11T07:10:16Z</time>
      </trkpt>
      <trkpt lat="49.34427" lon="0.89031">
        <ele>108.75</ele>
        <time>2015-10-11T07:10:18Z</time>
      </trkpt>
      <trkpt lat="49.34423" lon="0.89039">
        <ele>108.94</ele>
        <time>2015-10-11T07:10:20Z</time>
      </trkpt>
      <trkpt lat="49.34418" lon="0.89052">
        <ele>108.83</ele>
        <time>2015-10-11T07:10:22Z</time>
      </trkpt>
      <trkpt lat="49.34415" lon="0.89065">
        <ele>107.92</ele>
        <time>2015-10-11T07:10:24Z</time>
      </trkpt>
      <trkpt lat="49.34411" lon="0.89076">
        <ele>107.44</ele>
        <time>2015-10-11T07:10:26Z</time>
      </trkpt>
      <trkpt lat="49.34407" lon="0.89091">
        <ele>107.51</ele>
        <time>2015-10-11T07:10:28Z</time>
      </trkpt>
      <trkpt lat="49.34407" lon="0.89101">
        <ele>107.57</ele>
        <time>2015-10-11T07:10:30Z</time>
      </trkpt>
      <trkpt lat="49.34408" lon="0.89111">
        <ele>107.62</ele>
        <time>2015-10-11T07:10:32Z</time>
      </trkpt>
      <trkpt lat="49.34409" lon="0.89122">
        <ele>107.67</ele>
        <time>2015-10-11T07:10:34Z</time>
      </trkpt>
      <trkpt lat="49.34411" lon="0.89131">
        <ele>107.75</ele>
        <time>2015-10-11T07:10:36Z</time>
      </trkpt>
      <trkpt lat="49.34412" lon="0.89138">
        <ele>107.86</ele>
        <time>2015-10-11T07:10:38Z</time>
      </trkpt>
      <trkpt lat="49.34415" lon="0.89151">
        <ele>108.12</ele>
        <time>2015-10-11T07:10:42Z</time>
      </trkpt>
      <trkpt lat="49.34418" lon="0.8916">
        <ele>108.32</ele>
        <time>2015-10-11T07:10:44Z</time>
      </trkpt>
      <trkpt lat="49.34422" lon="0.89169">
        <ele>108.53</ele>
        <time>2015-10-11T07:10:46Z</time>
      </trkpt>
      <trkpt lat="49.34425" lon="0.89178">
        <ele>108.77</ele>
        <time>2015-10-11T07:10:48Z</time>
      </trkpt>
      <trkpt lat="49.34428" lon="0.89189">
        <ele>109.03</ele>
        <time>2015-10-11T07:10:50Z</time>
      </trkpt>
      <trkpt lat="49.34429" lon="0.89202">
        <ele>109.27</ele>
        <time>2015-10-11T07:10:52Z</time>
      </trkpt>
      <trkpt lat="49.34431" lon="0.89213">
        <ele>109.57</ele>
        <time>2015-10-11T07:10:54Z</time>
      </trkpt>
      <trkpt lat="49.34432" lon="0.89228">
        <ele>110.49</ele>
        <time>2015-10-11T07:10:56Z</time>
      </trkpt>
      <trkpt lat="49.34433" lon="0.89245">
        <ele>111.74</ele>
        <time>2015-10-11T07:10:58Z</time>
      </trkpt>
      <trkpt lat="49.34434" lon="0.89257">
        <ele>112.4</ele>
        <time>2015-10-11T07:11:00Z</time>
      </trkpt>
      <trkpt lat="49.34436" lon="0.89271">
        <ele>112.7</ele>
        <time>2015-10-11T07:11:02Z</time>
      </trkpt>
      <trkpt lat="49.34439" lon="0.89289">
        <ele>113.02</ele>
        <time>2015-10-11T07:11:04Z</time>
      </trkpt>
      <trkpt lat="49.34444" lon="0.89305">
        <ele>113.69</ele>
        <time>2015-10-11T07:11:06Z</time>
      </trkpt>
      <trkpt lat="49.34448" lon="0.8932">
        <ele>114.02</ele>
        <time>2015-10-11T07:11:08Z</time>
      </trkpt>
      <trkpt lat="49.34451" lon="0.89332">
        <ele>114.64</ele>
        <time>2015-10-11T07:11:10Z</time>
      </trkpt>
      <trkpt lat="49.34454" lon="0.89343">
        <ele>114.98</ele>
        <time>2015-10-11T07:11:12Z</time>
      </trkpt>
      <trkpt lat="49.34458" lon="0.89355">
        <ele>115.1</ele>
        <time>2015-10-11T07:11:14Z</time>
      </trkpt>
      <trkpt lat="49.34462" lon="0.89368">
        <ele>115.81</ele>
        <time>2015-10-11T07:11:16Z</time>
      </trkpt>
      <trkpt lat="49.34466" lon="0.89378">
        <ele>116.24</ele>
        <time>2015-10-11T07:11:18Z</time>
      </trkpt>
      <trkpt lat="49.3447" lon="0.89388">
        <ele>116.53</ele>
        <time>2015-10-11T07:11:20Z</time>
      </trkpt>
      <trkpt lat="49.34475" lon="0.89398">
        <ele>116.72</ele>
        <time>2015-10-11T07:11:22Z</time>
      </trkpt>
      <trkpt lat="49.34477" lon="0.89409">
        <ele>116.88</ele>
        <time>2015-10-11T07:11:24Z</time>
      </trkpt>
      <trkpt lat="49.34479" lon="0.89419">
        <ele>117</ele>
        <time>2015-10-11T07:11:26Z</time>
      </trkpt>
      <trkpt lat="49.34482" lon="0.89429">
        <ele>117.12</ele>
        <time>2015-10-11T07:11:28Z</time>
      </trkpt>
      <trkpt lat="49.34484" lon="0.89436">
        <ele>117.28</ele>
        <time>2015-10-11T07:11:30Z</time>
      </trkpt>
      <trkpt lat="49.34486" lon="0.89444">
        <ele>117.61</ele>
        <time>2015-10-11T07:11:34Z</time>
      </trkpt>
      <trkpt lat="49.34488" lon="0.8945">
        <ele>117.84</ele>
        <time>2015-10-11T07:11:38Z</time>
      </trkpt>
      <trkpt lat="49.34489" lon="0.89463">
        <ele>117.91</ele>
        <time>2015-10-11T07:11:42Z</time>
      </trkpt>
      <trkpt lat="49.34487" lon="0.89476">
        <ele>117.93</ele>
        <time>2015-10-11T07:11:44Z</time>
      </trkpt>
      <trkpt lat="49.34483" lon="0.89487">
        <ele>117</ele>
        <time>2015-10-11T07:11:46Z</time>
      </trkpt>
      <trkpt lat="49.34477" lon="0.895">
        <ele>114.74</ele>
        <time>2015-10-11T07:11:48Z</time>
      </trkpt>
      <trkpt lat="49.34467" lon="0.8951">
        <ele>112.6</ele>
        <time>2015-10-11T07:11:50Z</time>
      </trkpt>
      <trkpt lat="49.34459" lon="0.89516">
        <ele>111.12</ele>
        <time>2015-10-11T07:11:52Z</time>
      </trkpt>
      <trkpt lat="49.3445" lon="0.8952">
        <ele>110.03</ele>
        <time>2015-10-11T07:11:54Z</time>
      </trkpt>
      <trkpt lat="49.34442" lon="0.89525">
        <ele>109.15</ele>
        <time>2015-10-11T07:11:56Z</time>
      </trkpt>
      <trkpt lat="49.34436" lon="0.89531">
        <ele>108.69</ele>
        <time>2015-10-11T07:11:58Z</time>
      </trkpt>
      <trkpt lat="49.34427" lon="0.89543">
        <ele>107.5</ele>
        <time>2015-10-11T07:12:00Z</time>
      </trkpt>
      <trkpt lat="49.3442" lon="0.89555">
        <ele>105.41</ele>
        <time>2015-10-11T07:12:02Z</time>
      </trkpt>
      <trkpt lat="49.34413" lon="0.89562">
        <ele>102.91</ele>
        <time>2015-10-11T07:12:04Z</time>
      </trkpt>
      <trkpt lat="49.34406" lon="0.8957">
        <ele>101.27</ele>
        <time>2015-10-11T07:12:06Z</time>
      </trkpt>
      <trkpt lat="49.34402" lon="0.89578">
        <ele>100.17</ele>
        <time>2015-10-11T07:12:08Z</time>
      </trkpt>
      <trkpt lat="49.34397" lon="0.89586">
        <ele>99.56</ele>
        <time>2015-10-11T07:12:10Z</time>
      </trkpt>
      <trkpt lat="49.34392" lon="0.89595">
        <ele>98.46</ele>
        <time>2015-10-11T07:12:12Z</time>
      </trkpt>
      <trkpt lat="49.34387" lon="0.89608">
        <ele>96.85</ele>
        <time>2015-10-11T07:12:14Z</time>
      </trkpt>
      <trkpt lat="49.34384" lon="0.89622">
        <ele>94.66</ele>
        <time>2015-10-11T07:12:16Z</time>
      </trkpt>
      <trkpt lat="49.34385" lon="0.89633">
        <ele>92.48</ele>
        <time>2015-10-11T07:12:18Z</time>
      </trkpt>
      <trkpt lat="49.34382" lon="0.89639">
        <ele>91.17</ele>
        <time>2015-10-11T07:12:20Z</time>
      </trkpt>
      <trkpt lat="49.34375" lon="0.89647">
        <ele>88.29</ele>
        <time>2015-10-11T07:12:22Z</time>
      </trkpt>
      <trkpt lat="49.34366" lon="0.89656">
        <ele>84.74</ele>
        <time>2015-10-11T07:12:24Z</time>
      </trkpt>
      <trkpt lat="49.34357" lon="0.89665">
        <ele>81.3</ele>
        <time>2015-10-11T07:12:26Z</time>
      </trkpt>
      <trkpt lat="49.34347" lon="0.89675">
        <ele>77.96</ele>
        <time>2015-10-11T07:12:28Z</time>
      </trkpt>
      <trkpt lat="49.34337" lon="0.89686">
        <ele>75.1</ele>
        <time>2015-10-11T07:12:30Z</time>
      </trkpt>
      <trkpt lat="49.34325" lon="0.89695">
        <ele>73.1</ele>
        <time>2015-10-11T07:12:32Z</time>
      </trkpt>
      <trkpt lat="49.34315" lon="0.89701">
        <ele>71.37</ele>
        <time>2015-10-11T07:12:34Z</time>
      </trkpt>
      <trkpt lat="49.34305" lon="0.89703">
        <ele>69.67</ele>
        <time>2015-10-11T07:12:36Z</time>
      </trkpt>
      <trkpt lat="49.34292" lon="0.89702">
        <ele>68.15</ele>
        <time>2015-10-11T07:12:38Z</time>
      </trkpt>
      <trkpt lat="49.34279" lon="0.897">
        <ele>67.66</ele>
        <time>2015-10-11T07:12:40Z</time>
      </trkpt>
      <trkpt lat="49.34267" lon="0.89698">
        <ele>68.29</ele>
        <time>2015-10-11T07:12:42Z</time>
      </trkpt>
      <trkpt lat="49.34256" lon="0.89695">
        <ele>69.45</ele>
        <time>2015-10-11T07:12:44Z</time>
      </trkpt>
      <trkpt lat="49.34249" lon="0.89691">
        <ele>70.31</ele>
        <time>2015-10-11T07:12:46Z</time>
      </trkpt>
      <trkpt lat="49.34244" lon="0.89686">
        <ele>71.17</ele>
        <time>2015-10-11T07:12:50Z</time>
      </trkpt>
      <trkpt lat="49.34239" lon="0.89678">
        <ele>72.76</ele>
        <time>2015-10-11T07:12:58Z</time>
      </trkpt>
      <trkpt lat="49.34238" lon="0.8967">
        <ele>73.25</ele>
        <time>2015-10-11T07:13:00Z</time>
      </trkpt>
      <trkpt lat="49.34237" lon="0.89661">
        <ele>74.2</ele>
        <time>2015-10-11T07:13:04Z</time>
      </trkpt>
      <trkpt lat="49.3424" lon="0.89651">
        <ele>75</ele>
        <time>2015-10-11T07:13:08Z</time>
      </trkpt>
      <trkpt lat="49.34244" lon="0.89641">
        <ele>75.39</ele>
        <time>2015-10-11T07:13:12Z</time>
      </trkpt>
      <trkpt lat="49.34246" lon="0.89635">
        <ele>75.35</ele>
        <time>2015-10-11T07:13:14Z</time>
      </trkpt>
      <trkpt lat="49.34247" lon="0.89628">
        <ele>75.24</ele>
        <time>2015-10-11T07:13:16Z</time>
      </trkpt>
      <trkpt lat="49.3425" lon="0.89621">
        <ele>75.2</ele>
        <time>2015-10-11T07:13:18Z</time>
      </trkpt>
      <trkpt lat="49.34253" lon="0.89609">
        <ele>75.34</ele>
        <time>2015-10-11T07:13:22Z</time>
      </trkpt>
      <trkpt lat="49.34251" lon="0.89596">
        <ele>75.82</ele>
        <time>2015-10-11T07:13:26Z</time>
      </trkpt>
      <trkpt lat="49.34251" lon="0.89587">
        <ele>76.26</ele>
        <time>2015-10-11T07:13:28Z</time>
      </trkpt>
      <trkpt lat="49.3425" lon="0.89579">
        <ele>76.75</ele>
        <time>2015-10-11T07:13:30Z</time>
      </trkpt>
      <trkpt lat="49.34249" lon="0.89572">
        <ele>77.25</ele>
        <time>2015-10-11T07:13:32Z</time>
      </trkpt>
      <trkpt lat="49.34248" lon="0.89561">
        <ele>77.78</ele>
        <time>2015-10-11T07:13:34Z</time>
      </trkpt>
      <trkpt lat="49.34249" lon="0.89549">
        <ele>78.33</ele>
        <time>2015-10-11T07:13:36Z</time>
      </trkpt>
      <trkpt lat="49.34249" lon="0.89538">
        <ele>78.86</ele>
        <time>2015-10-11T07:13:38Z</time>
      </trkpt>
      <trkpt lat="49.34248" lon="0.89528">
        <ele>79.3</ele>
        <time>2015-10-11T07:13:40Z</time>
      </trkpt>
      <trkpt lat="49.34244" lon="0.89519">
        <ele>79.65</ele>
        <time>2015-10-11T07:13:42Z</time>
      </trkpt>
      <trkpt lat="49.3424" lon="0.8951">
        <ele>79.92</ele>
        <time>2015-10-11T07:13:44Z</time>
      </trkpt>
      <trkpt lat="49.34235" lon="0.89501">
        <ele>80.09</ele>
        <time>2015-10-11T07:13:46Z</time>
      </trkpt>
      <trkpt lat="49.34231" lon="0.89492">
        <ele>80.16</ele>
        <time>2015-10-11T07:13:48Z</time>
      </trkpt>
      <trkpt lat="49.34227" lon="0.89484">
        <ele>80.17</ele>
        <time>2015-10-11T07:13:50Z</time>
      </trkpt>
      <trkpt lat="49.34223" lon="0.89477">
        <ele>80.07</ele>
        <time>2015-10-11T07:13:52Z</time>
      </trkpt>
      <trkpt lat="49.34219" lon="0.89468">
        <ele>79.88</ele>
        <time>2015-10-11T07:13:54Z</time>
      </trkpt>
      <trkpt lat="49.34215" lon="0.89458">
        <ele>79.76</ele>
        <time>2015-10-11T07:13:56Z</time>
      </trkpt>
      <trkpt lat="49.3421" lon="0.89448">
        <ele>79.7</ele>
        <time>2015-10-11T07:13:58Z</time>
      </trkpt>
      <trkpt lat="49.34204" lon="0.89437">
        <ele>79.7</ele>
        <time>2015-10-11T07:14:00Z</time>
      </trkpt>
      <trkpt lat="49.342" lon="0.89431">
        <ele>79.71</ele>
        <time>2015-10-11T07:14:02Z</time>
      </trkpt>
      <trkpt lat="49.34197" lon="0.89423">
        <ele>79.72</ele>
        <time>2015-10-11T07:14:04Z</time>
      </trkpt>
      <trkpt lat="49.34196" lon="0.89411">
        <ele>79.77</ele>
        <time>2015-10-11T07:14:06Z</time>
      </trkpt>
      <trkpt lat="49.34194" lon="0.89401">
        <ele>79.85</ele>
        <time>2015-10-11T07:14:08Z</time>
      </trkpt>
      <trkpt lat="49.34192" lon="0.89393">
        <ele>79.94</ele>
        <time>2015-10-11T07:14:10Z</time>
      </trkpt>
      <trkpt lat="49.34188" lon="0.89383">
        <ele>80.15</ele>
        <time>2015-10-11T07:14:14Z</time>
      </trkpt>
      <trkpt lat="49.34184" lon="0.89369">
        <ele>80.42</ele>
        <time>2015-10-11T07:14:18Z</time>
      </trkpt>
      <trkpt lat="49.34182" lon="0.89362">
        <ele>80.51</ele>
        <time>2015-10-11T07:14:20Z</time>
      </trkpt>
      <trkpt lat="49.34179" lon="0.89355">
        <ele>80.61</ele>
        <time>2015-10-11T07:14:22Z</time>
      </trkpt>
      <trkpt lat="49.34175" lon="0.89344">
        <ele>80.63</ele>
        <time>2015-10-11T07:14:24Z</time>
      </trkpt>
      <trkpt lat="49.3417" lon="0.89335">
        <ele>80.62</ele>
        <time>2015-10-11T07:14:26Z</time>
      </trkpt>
      <trkpt lat="49.34168" lon="0.89328">
        <ele>80.6</ele>
        <time>2015-10-11T07:14:28Z</time>
      </trkpt>
      <trkpt lat="49.34165" lon="0.89322">
        <ele>80.59</ele>
        <time>2015-10-11T07:14:30Z</time>
      </trkpt>
      <trkpt lat="49.34159" lon="0.89314">
        <ele>81.5</ele>
        <time>2015-10-11T07:14:32Z</time>
      </trkpt>
      <trkpt lat="49.34152" lon="0.89305">
        <ele>82.08</ele>
        <time>2015-10-11T07:14:34Z</time>
      </trkpt>
      <trkpt lat="49.34145" lon="0.89296">
        <ele>82.45</ele>
        <time>2015-10-11T07:14:36Z</time>
      </trkpt>
      <trkpt lat="49.3414" lon="0.89289">
        <ele>82.73</ele>
        <time>2015-10-11T07:14:38Z</time>
      </trkpt>
      <trkpt lat="49.34134" lon="0.89284">
        <ele>83</ele>
        <time>2015-10-11T07:14:40Z</time>
      </trkpt>
      <trkpt lat="49.34128" lon="0.89279">
        <ele>83.29</ele>
        <time>2015-10-11T07:14:42Z</time>
      </trkpt>
      <trkpt lat="49.34123" lon="0.89274">
        <ele>83.61</ele>
        <time>2015-10-11T07:14:44Z</time>
      </trkpt>
      <trkpt lat="49.3412" lon="0.89268">
        <ele>83.93</ele>
        <time>2015-10-11T07:14:46Z</time>
      </trkpt>
      <trkpt lat="49.34116" lon="0.8926">
        <ele>84.28</ele>
        <time>2015-10-11T07:14:48Z</time>
      </trkpt>
      <trkpt lat="49.34119" lon="0.89248">
        <ele>84.57</ele>
        <time>2015-10-11T07:14:50Z</time>
      </trkpt>
      <trkpt lat="49.34125" lon="0.89241">
        <ele>84.85</ele>
        <time>2015-10-11T07:14:52Z</time>
      </trkpt>
      <trkpt lat="49.3413" lon="0.8924">
        <ele>85.15</ele>
        <time>2015-10-11T07:14:54Z</time>
      </trkpt>
      <trkpt lat="49.34139" lon="0.89243">
        <ele>86.72</ele>
        <time>2015-10-11T07:14:56Z</time>
      </trkpt>
      <trkpt lat="49.34147" lon="0.89238">
        <ele>88.17</ele>
        <time>2015-10-11T07:14:58Z</time>
      </trkpt>
      <trkpt lat="49.34156" lon="0.89236">
        <ele>89.08</ele>
        <time>2015-10-11T07:15:00Z</time>
      </trkpt>
      <trkpt lat="49.3416" lon="0.89232">
        <ele>89.56</ele>
        <time>2015-10-11T07:15:02Z</time>
      </trkpt>
      <trkpt lat="49.34162" lon="0.89223">
        <ele>89.77</ele>
        <time>2015-10-11T07:15:04Z</time>
      </trkpt>
      <trkpt lat="49.34164" lon="0.89212">
        <ele>89.82</ele>
        <time>2015-10-11T07:15:06Z</time>
      </trkpt>
      <trkpt lat="49.34166" lon="0.89201">
        <ele>89.26</ele>
        <time>2015-10-11T07:15:08Z</time>
      </trkpt>
      <trkpt lat="49.34167" lon="0.89188">
        <ele>88.4</ele>
        <time>2015-10-11T07:15:10Z</time>
      </trkpt>
      <trkpt lat="49.34163" lon="0.89179">
        <ele>87.93</ele>
        <time>2015-10-11T07:15:12Z</time>
      </trkpt>
      <trkpt lat="49.34164" lon="0.89165">
        <ele>87.66</ele>
        <time>2015-10-11T07:15:14Z</time>
      </trkpt>
      <trkpt lat="49.34162" lon="0.89148">
        <ele>87.01</ele>
        <time>2015-10-11T07:15:16Z</time>
      </trkpt>
      <trkpt lat="49.34164" lon="0.89134">
        <ele>85.63</ele>
        <time>2015-10-11T07:15:18Z</time>
      </trkpt>
      <trkpt lat="49.34165" lon="0.8912">
        <ele>84.79</ele>
        <time>2015-10-11T07:15:20Z</time>
      </trkpt>
      <trkpt lat="49.34161" lon="0.89108">
        <ele>84.21</ele>
        <time>2015-10-11T07:15:22Z</time>
      </trkpt>
      <trkpt lat="49.34158" lon="0.89097">
        <ele>83.84</ele>
        <time>2015-10-11T07:15:24Z</time>
      </trkpt>
      <trkpt lat="49.34156" lon="0.89084">
        <ele>83.55</ele>
        <time>2015-10-11T07:15:26Z</time>
      </trkpt>
      <trkpt lat="49.34153" lon="0.89072">
        <ele>83.29</ele>
        <time>2015-10-11T07:15:28Z</time>
      </trkpt>
      <trkpt lat="49.34151" lon="0.89063">
        <ele>83.2</ele>
        <time>2015-10-11T07:15:30Z</time>
      </trkpt>
      <trkpt lat="49.34148" lon="0.89054">
        <ele>83.11</ele>
        <time>2015-10-11T07:15:32Z</time>
      </trkpt>
      <trkpt lat="49.34144" lon="0.89047">
        <ele>83.08</ele>
        <time>2015-10-11T07:15:34Z</time>
      </trkpt>
      <trkpt lat="49.3414" lon="0.89036">
        <ele>83.04</ele>
        <time>2015-10-11T07:15:36Z</time>
      </trkpt>
      <trkpt lat="49.34135" lon="0.8903">
        <ele>82.94</ele>
        <time>2015-10-11T07:15:38Z</time>
      </trkpt>
      <trkpt lat="49.34132" lon="0.89019">
        <ele>82.8</ele>
        <time>2015-10-11T07:15:40Z</time>
      </trkpt>
      <trkpt lat="49.34127" lon="0.89007">
        <ele>82.67</ele>
        <time>2015-10-11T07:15:42Z</time>
      </trkpt>
      <trkpt lat="49.34124" lon="0.88995">
        <ele>82.58</ele>
        <time>2015-10-11T07:15:44Z</time>
      </trkpt>
      <trkpt lat="49.34122" lon="0.88987">
        <ele>82.52</ele>
        <time>2015-10-11T07:15:46Z</time>
      </trkpt>
      <trkpt lat="49.3412" lon="0.88976">
        <ele>82.44</ele>
        <time>2015-10-11T07:15:48Z</time>
      </trkpt>
      <trkpt lat="49.34118" lon="0.88966">
        <ele>82.39</ele>
        <time>2015-10-11T07:15:50Z</time>
      </trkpt>
      <trkpt lat="49.34114" lon="0.88955">
        <ele>82.35</ele>
        <time>2015-10-11T07:15:52Z</time>
      </trkpt>
      <trkpt lat="49.34113" lon="0.88943">
        <ele>82.37</ele>
        <time>2015-10-11T07:15:54Z</time>
      </trkpt>
      <trkpt lat="49.34114" lon="0.88927">
        <ele>82.35</ele>
        <time>2015-10-11T07:15:56Z</time>
      </trkpt>
      <trkpt lat="49.34114" lon="0.88918">
        <ele>82.31</ele>
        <time>2015-10-11T07:15:58Z</time>
      </trkpt>
      <trkpt lat="49.34115" lon="0.88904">
        <ele>82.28</ele>
        <time>2015-10-11T07:16:00Z</time>
      </trkpt>
      <trkpt lat="49.34114" lon="0.88896">
        <ele>82.31</ele>
        <time>2015-10-11T07:16:02Z</time>
      </trkpt>
      <trkpt lat="49.34113" lon="0.88886">
        <ele>82.34</ele>
        <time>2015-10-11T07:16:04Z</time>
      </trkpt>
      <trkpt lat="49.34113" lon="0.88878">
        <ele>82.33</ele>
        <time>2015-10-11T07:16:06Z</time>
      </trkpt>
      <trkpt lat="49.3411" lon="0.88869">
        <ele>82.22</ele>
        <time>2015-10-11T07:16:10Z</time>
      </trkpt>
      <trkpt lat="49.34107" lon="0.88863">
        <ele>82.04</ele>
        <time>2015-10-11T07:16:14Z</time>
      </trkpt>
      <trkpt lat="49.34103" lon="0.88858">
        <ele>82.17</ele>
        <time>2015-10-11T07:16:18Z</time>
      </trkpt>
      <trkpt lat="49.34097" lon="0.88855">
        <ele>82.35</ele>
        <time>2015-10-11T07:16:22Z</time>
      </trkpt>
      <trkpt lat="49.34094" lon="0.88849">
        <ele>82.46</ele>
        <time>2015-10-11T07:16:24Z</time>
      </trkpt>
      <trkpt lat="49.34088" lon="0.88841">
        <ele>82.66</ele>
        <time>2015-10-11T07:16:28Z</time>
      </trkpt>
      <trkpt lat="49.34083" lon="0.88833">
        <ele>82.93</ele>
        <time>2015-10-11T07:16:32Z</time>
      </trkpt>
      <trkpt lat="49.34079" lon="0.88826">
        <ele>83.15</ele>
        <time>2015-10-11T07:16:36Z</time>
      </trkpt>
      <trkpt lat="49.34074" lon="0.88819">
        <ele>83.67</ele>
        <time>2015-10-11T07:16:42Z</time>
      </trkpt>
      <trkpt lat="49.34069" lon="0.88812">
        <ele>84.28</ele>
        <time>2015-10-11T07:16:48Z</time>
      </trkpt>
      <trkpt lat="49.34064" lon="0.88808">
        <ele>85.01</ele>
        <time>2015-10-11T07:16:52Z</time>
      </trkpt>
      <trkpt lat="49.3406" lon="0.88802">
        <ele>85.69</ele>
        <time>2015-10-11T07:16:56Z</time>
      </trkpt>
      <trkpt lat="49.34057" lon="0.88796">
        <ele>86.03</ele>
        <time>2015-10-11T07:16:58Z</time>
      </trkpt>
      <trkpt lat="49.34053" lon="0.88792">
        <ele>86.31</ele>
        <time>2015-10-11T07:17:00Z</time>
      </trkpt>
      <trkpt lat="49.34048" lon="0.8879">
        <ele>86.66</ele>
        <time>2015-10-11T07:17:02Z</time>
      </trkpt>
      <trkpt lat="49.34041" lon="0.88783">
        <ele>87.47</ele>
        <time>2015-10-11T07:17:06Z</time>
      </trkpt>
      <trkpt lat="49.34037" lon="0.88779">
        <ele>87.82</ele>
        <time>2015-10-11T07:17:08Z</time>
      </trkpt>
      <trkpt lat="49.34033" lon="0.88773">
        <ele>88.14</ele>
        <time>2015-10-11T07:17:10Z</time>
      </trkpt>
      <trkpt lat="49.34028" lon="0.88767">
        <ele>88.41</ele>
        <time>2015-10-11T07:17:12Z</time>
      </trkpt>
      <trkpt lat="49.34023" lon="0.88761">
        <ele>88.7</ele>
        <time>2015-10-11T07:17:14Z</time>
      </trkpt>
      <trkpt lat="49.34018" lon="0.88752">
        <ele>89.05</ele>
        <time>2015-10-11T07:17:16Z</time>
      </trkpt>
      <trkpt lat="49.34011" lon="0.88745">
        <ele>89.38</ele>
        <time>2015-10-11T07:17:18Z</time>
      </trkpt>
      <trkpt lat="49.34005" lon="0.88735">
        <ele>90.66</ele>
        <time>2015-10-11T07:17:20Z</time>
      </trkpt>
      <trkpt lat="49.33997" lon="0.88725">
        <ele>92.27</ele>
        <time>2015-10-11T07:17:22Z</time>
      </trkpt>
      <trkpt lat="49.33987" lon="0.88712">
        <ele>94.11</ele>
        <time>2015-10-11T07:17:24Z</time>
      </trkpt>
      <trkpt lat="49.33973" lon="0.88694">
        <ele>95.98</ele>
        <time>2015-10-11T07:17:26Z</time>
      </trkpt>
      <trkpt lat="49.3396" lon="0.88677">
        <ele>97.63</ele>
        <time>2015-10-11T07:17:28Z</time>
      </trkpt>
      <trkpt lat="49.33949" lon="0.88662">
        <ele>98.96</ele>
        <time>2015-10-11T07:17:30Z</time>
      </trkpt>
      <trkpt lat="49.33936" lon="0.88646">
        <ele>99.4</ele>
        <time>2015-10-11T07:17:32Z</time>
      </trkpt>
      <trkpt lat="49.33926" lon="0.88639">
        <ele>98.39</ele>
        <time>2015-10-11T07:17:34Z</time>
      </trkpt>
      <trkpt lat="49.33918" lon="0.88642">
        <ele>96.85</ele>
        <time>2015-10-11T07:17:36Z</time>
      </trkpt>
      <trkpt lat="49.33915" lon="0.88654">
        <ele>95.18</ele>
        <time>2015-10-11T07:17:38Z</time>
      </trkpt>
      <trkpt lat="49.3391" lon="0.8867">
        <ele>93.53</ele>
        <time>2015-10-11T07:17:40Z</time>
      </trkpt>
      <trkpt lat="49.33906" lon="0.88688">
        <ele>91.13</ele>
        <time>2015-10-11T07:17:42Z</time>
      </trkpt>
      <trkpt lat="49.339" lon="0.8871">
        <ele>88.66</ele>
        <time>2015-10-11T07:17:44Z</time>
      </trkpt>
      <trkpt lat="49.33892" lon="0.88735">
        <ele>86.27</ele>
        <time>2015-10-11T07:17:46Z</time>
      </trkpt>
      <trkpt lat="49.33885" lon="0.88758">
        <ele>84.08</ele>
        <time>2015-10-11T07:17:48Z</time>
      </trkpt>
      <trkpt lat="49.33879" lon="0.88781">
        <ele>82.02</ele>
        <time>2015-10-11T07:17:50Z</time>
      </trkpt>
      <trkpt lat="49.33873" lon="0.88806">
        <ele>80.89</ele>
        <time>2015-10-11T07:17:52Z</time>
      </trkpt>
      <trkpt lat="49.33868" lon="0.8883">
        <ele>80.22</ele>
        <time>2015-10-11T07:17:54Z</time>
      </trkpt>
      <trkpt lat="49.33863" lon="0.88851">
        <ele>79.62</ele>
        <time>2015-10-11T07:17:56Z</time>
      </trkpt>
      <trkpt lat="49.33858" lon="0.88868">
        <ele>78.41</ele>
        <time>2015-10-11T07:17:58Z</time>
      </trkpt>
      <trkpt lat="49.33855" lon="0.88883">
        <ele>76.5</ele>
        <time>2015-10-11T07:18:00Z</time>
      </trkpt>
      <trkpt lat="49.33852" lon="0.88897">
        <ele>74.56</ele>
        <time>2015-10-11T07:18:02Z</time>
      </trkpt>
      <trkpt lat="49.33848" lon="0.88909">
        <ele>73.35</ele>
        <time>2015-10-11T07:18:04Z</time>
      </trkpt>
      <trkpt lat="49.33845" lon="0.88923">
        <ele>72.52</ele>
        <time>2015-10-11T07:18:06Z</time>
      </trkpt>
      <trkpt lat="49.33843" lon="0.8894">
        <ele>72.18</ele>
        <time>2015-10-11T07:18:08Z</time>
      </trkpt>
      <trkpt lat="49.33841" lon="0.88954">
        <ele>72.57</ele>
        <time>2015-10-11T07:18:10Z</time>
      </trkpt>
      <trkpt lat="49.33838" lon="0.88972">
        <ele>73.13</ele>
        <time>2015-10-11T07:18:12Z</time>
      </trkpt>
      <trkpt lat="49.33836" lon="0.88991">
        <ele>73.33</ele>
        <time>2015-10-11T07:18:14Z</time>
      </trkpt>
      <trkpt lat="49.33832" lon="0.89009">
        <ele>73.18</ele>
        <time>2015-10-11T07:18:16Z</time>
      </trkpt>
      <trkpt lat="49.33832" lon="0.89026">
        <ele>72.89</ele>
        <time>2015-10-11T07:18:18Z</time>
      </trkpt>
      <trkpt lat="49.33831" lon="0.89044">
        <ele>72.62</ele>
        <time>2015-10-11T07:18:20Z</time>
      </trkpt>
      <trkpt lat="49.3383" lon="0.89063">
        <ele>71.76</ele>
        <time>2015-10-11T07:18:22Z</time>
      </trkpt>
      <trkpt lat="49.33829" lon="0.89083">
        <ele>71.05</ele>
        <time>2015-10-11T07:18:24Z</time>
      </trkpt>
      <trkpt lat="49.33828" lon="0.89102">
        <ele>70.79</ele>
        <time>2015-10-11T07:18:26Z</time>
      </trkpt>
      <trkpt lat="49.33826" lon="0.89122">
        <ele>70.52</ele>
        <time>2015-10-11T07:18:28Z</time>
      </trkpt>
      <trkpt lat="49.33825" lon="0.89139">
        <ele>70.57</ele>
        <time>2015-10-11T07:18:30Z</time>
      </trkpt>
      <trkpt lat="49.33824" lon="0.89162">
        <ele>71.03</ele>
        <time>2015-10-11T07:18:32Z</time>
      </trkpt>
      <trkpt lat="49.33825" lon="0.89186">
        <ele>70.43</ele>
        <time>2015-10-11T07:18:34Z</time>
      </trkpt>
      <trkpt lat="49.33825" lon="0.89209">
        <ele>69.69</ele>
        <time>2015-10-11T07:18:36Z</time>
      </trkpt>
      <trkpt lat="49.33828" lon="0.89235">
        <ele>69.54</ele>
        <time>2015-10-11T07:18:38Z</time>
      </trkpt>
      <trkpt lat="49.3383" lon="0.89258">
        <ele>69.25</ele>
        <time>2015-10-11T07:18:40Z</time>
      </trkpt>
      <trkpt lat="49.33833" lon="0.89284">
        <ele>68.97</ele>
        <time>2015-10-11T07:18:42Z</time>
      </trkpt>
      <trkpt lat="49.33836" lon="0.89309">
        <ele>68.07</ele>
        <time>2015-10-11T07:18:44Z</time>
      </trkpt>
      <trkpt lat="49.33837" lon="0.89327">
        <ele>67.62</ele>
        <time>2015-10-11T07:18:46Z</time>
      </trkpt>
      <trkpt lat="49.33839" lon="0.89342">
        <ele>67.27</ele>
        <time>2015-10-11T07:18:48Z</time>
      </trkpt>
      <trkpt lat="49.3384" lon="0.89351">
        <ele>67</ele>
        <time>2015-10-11T07:18:50Z</time>
      </trkpt>
      <trkpt lat="49.3384" lon="0.89358">
        <ele>66.78</ele>
        <time>2015-10-11T07:18:52Z</time>
      </trkpt>
      <trkpt lat="49.33842" lon="0.89366">
        <ele>63.72</ele>
        <time>2015-10-11T07:19:19Z</time>
      </trkpt>
      <trkpt lat="49.33843" lon="0.89375">
        <ele>62.5</ele>
        <time>2015-10-11T07:19:27Z</time>
      </trkpt>
      <trkpt lat="49.33837" lon="0.89373">
        <ele>65.52</ele>
        <time>2015-10-11T07:22:08Z</time>
      </trkpt>
      <trkpt lat="49.3383" lon="0.89367">
        <ele>67.32</ele>
        <time>2015-10-11T07:23:36Z</time>
      </trkpt>
      <trkpt lat="49.33824" lon="0.89367">
        <ele>67.47</ele>
        <time>2015-10-11T07:23:39Z</time>
      </trkpt>
      <trkpt lat="49.33818" lon="0.89367">
        <ele>67.69</ele>
        <time>2015-10-11T07:23:43Z</time>
      </trkpt>
      <trkpt lat="49.33813" lon="0.89369">
        <ele>67.68</ele>
        <time>2015-10-11T07:23:44Z</time>
      </trkpt>
      <trkpt lat="49.33805" lon="0.8937">
        <ele>67.45</ele>
        <time>2015-10-11T07:23:47Z</time>
      </trkpt>
      <trkpt lat="49.33795" lon="0.89366">
        <ele>67.36</ele>
        <time>2015-10-11T07:23:48Z</time>
      </trkpt>
      <trkpt lat="49.33786" lon="0.8936">
        <ele>67.34</ele>
        <time>2015-10-11T07:23:51Z</time>
      </trkpt>
      <trkpt lat="49.33777" lon="0.89352">
        <ele>67.32</ele>
        <time>2015-10-11T07:23:52Z</time>
      </trkpt>
      <trkpt lat="49.3377" lon="0.89344">
        <ele>67.13</ele>
        <time>2015-10-11T07:23:55Z</time>
      </trkpt>
      <trkpt lat="49.33764" lon="0.89337">
        <ele>67.18</ele>
        <time>2015-10-11T07:23:56Z</time>
      </trkpt>
      <trkpt lat="49.33758" lon="0.89333">
        <ele>67.25</ele>
        <time>2015-10-11T07:23:59Z</time>
      </trkpt>
      <trkpt lat="49.33752" lon="0.89328">
        <ele>67.38</ele>
        <time>2015-10-11T07:24:00Z</time>
      </trkpt>
      <trkpt lat="49.33744" lon="0.8932">
        <ele>67.51</ele>
        <time>2015-10-11T07:24:03Z</time>
      </trkpt>
      <trkpt lat="49.33737" lon="0.89312">
        <ele>67.68</ele>
        <time>2015-10-11T07:24:04Z</time>
      </trkpt>
      <trkpt lat="49.33729" lon="0.89306">
        <ele>67.95</ele>
        <time>2015-10-11T07:24:07Z</time>
      </trkpt>
      <trkpt lat="49.33723" lon="0.89301">
        <ele>68.47</ele>
        <time>2015-10-11T07:24:08Z</time>
      </trkpt>
      <trkpt lat="49.33716" lon="0.893">
        <ele>68.76</ele>
        <time>2015-10-11T07:24:11Z</time>
      </trkpt>
      <trkpt lat="49.33709" lon="0.89303">
        <ele>68.85</ele>
        <time>2015-10-11T07:24:12Z</time>
      </trkpt>
      <trkpt lat="49.33703" lon="0.89307">
        <ele>68.71</ele>
        <time>2015-10-11T07:24:15Z</time>
      </trkpt>
      <trkpt lat="49.33698" lon="0.89312">
        <ele>68.6</ele>
        <time>2015-10-11T07:24:16Z</time>
      </trkpt>
      <trkpt lat="49.33692" lon="0.89317">
        <ele>68.5</ele>
        <time>2015-10-11T07:24:19Z</time>
      </trkpt>
      <trkpt lat="49.33688" lon="0.89329">
        <ele>68.16</ele>
        <time>2015-10-11T07:24:20Z</time>
      </trkpt>
      <trkpt lat="49.33678" lon="0.89333">
        <ele>68.06</ele>
        <time>2015-10-11T07:24:23Z</time>
      </trkpt>
      <trkpt lat="49.33669" lon="0.89336">
        <ele>68.37</ele>
        <time>2015-10-11T07:24:24Z</time>
      </trkpt>
      <trkpt lat="49.33661" lon="0.8934">
        <ele>68.73</ele>
        <time>2015-10-11T07:24:27Z</time>
      </trkpt>
      <trkpt lat="49.33654" lon="0.89345">
        <ele>69.5</ele>
        <time>2015-10-11T07:24:28Z</time>
      </trkpt>
      <trkpt lat="49.33648" lon="0.89349">
        <ele>70.02</ele>
        <time>2015-10-11T07:24:31Z</time>
      </trkpt>
      <trkpt lat="49.33641" lon="0.89354">
        <ele>70.83</ele>
        <time>2015-10-11T07:24:32Z</time>
      </trkpt>
      <trkpt lat="49.33635" lon="0.8936">
        <ele>71.27</ele>
        <time>2015-10-11T07:24:35Z</time>
      </trkpt>
      <trkpt lat="49.33629" lon="0.89364">
        <ele>71.5</ele>
        <time>2015-10-11T07:24:36Z</time>
      </trkpt>
      <trkpt lat="49.33624" lon="0.89369">
        <ele>71.64</ele>
        <time>2015-10-11T07:24:39Z</time>
      </trkpt>
      <trkpt lat="49.33619" lon="0.89377">
        <ele>71.71</ele>
        <time>2015-10-11T07:24:40Z</time>
      </trkpt>
      <trkpt lat="49.33616" lon="0.89384">
        <ele>71.78</ele>
        <time>2015-10-11T07:24:43Z</time>
      </trkpt>
      <trkpt lat="49.33614" lon="0.89391">
        <ele>71.84</ele>
        <time>2015-10-11T07:24:44Z</time>
      </trkpt>
      <trkpt lat="49.33613" lon="0.89403">
        <ele>72.25</ele>
        <time>2015-10-11T07:24:48Z</time>
      </trkpt>
      <trkpt lat="49.33613" lon="0.8941">
        <ele>72.61</ele>
        <time>2015-10-11T07:24:51Z</time>
      </trkpt>
      <trkpt lat="49.33612" lon="0.89419">
        <ele>73.05</ele>
        <time>2015-10-11T07:24:52Z</time>
      </trkpt>
      <trkpt lat="49.33612" lon="0.89427">
        <ele>73.5</ele>
        <time>2015-10-11T07:24:55Z</time>
      </trkpt>
      <trkpt lat="49.33611" lon="0.89441">
        <ele>74.43</ele>
        <time>2015-10-11T07:24:59Z</time>
      </trkpt>
      <trkpt lat="49.33609" lon="0.89448">
        <ele>74.93</ele>
        <time>2015-10-11T07:25:00Z</time>
      </trkpt>
      <trkpt lat="49.33606" lon="0.89456">
        <ele>75.47</ele>
        <time>2015-10-11T07:25:03Z</time>
      </trkpt>
      <trkpt lat="49.33603" lon="0.89463">
        <ele>76.05</ele>
        <time>2015-10-11T07:25:04Z</time>
      </trkpt>
      <trkpt lat="49.336" lon="0.8947">
        <ele>76.56</ele>
        <time>2015-10-11T07:25:07Z</time>
      </trkpt>
      <trkpt lat="49.33597" lon="0.89476">
        <ele>77.1</ele>
        <time>2015-10-11T07:25:08Z</time>
      </trkpt>
      <trkpt lat="49.33594" lon="0.89482">
        <ele>77.66</ele>
        <time>2015-10-11T07:25:11Z</time>
      </trkpt>
      <trkpt lat="49.3359" lon="0.89488">
        <ele>78.31</ele>
        <time>2015-10-11T07:25:12Z</time>
      </trkpt>
      <trkpt lat="49.33586" lon="0.89495">
        <ele>79.08</ele>
        <time>2015-10-11T07:25:15Z</time>
      </trkpt>
      <trkpt lat="49.33582" lon="0.89502">
        <ele>79.96</ele>
        <time>2015-10-11T07:25:16Z</time>
      </trkpt>
      <trkpt lat="49.33579" lon="0.89509">
        <ele>80.78</ele>
        <time>2015-10-11T07:25:19Z</time>
      </trkpt>
      <trkpt lat="49.33576" lon="0.89516">
        <ele>81.54</ele>
        <time>2015-10-11T07:25:20Z</time>
      </trkpt>
      <trkpt lat="49.33572" lon="0.89522">
        <ele>82.27</ele>
        <time>2015-10-11T07:25:23Z</time>
      </trkpt>
      <trkpt lat="49.33569" lon="0.89528">
        <ele>82.91</ele>
        <time>2015-10-11T07:25:24Z</time>
      </trkpt>
      <trkpt lat="49.33565" lon="0.89534">
        <ele>83.46</ele>
        <time>2015-10-11T07:25:27Z</time>
      </trkpt>
      <trkpt lat="49.33561" lon="0.89539">
        <ele>84.02</ele>
        <time>2015-10-11T07:25:28Z</time>
      </trkpt>
      <trkpt lat="49.33558" lon="0.89544">
        <ele>84.61</ele>
        <time>2015-10-11T07:25:31Z</time>
      </trkpt>
      <trkpt lat="49.33553" lon="0.89549">
        <ele>85.22</ele>
        <time>2015-10-11T07:25:32Z</time>
      </trkpt>
      <trkpt lat="49.33549" lon="0.89553">
        <ele>85.76</ele>
        <time>2015-10-11T07:25:35Z</time>
      </trkpt>
      <trkpt lat="49.33544" lon="0.89558">
        <ele>86.24</ele>
        <time>2015-10-11T07:25:36Z</time>
      </trkpt>
      <trkpt lat="49.3354" lon="0.89563">
        <ele>86.75</ele>
        <time>2015-10-11T07:25:39Z</time>
      </trkpt>
      <trkpt lat="49.33537" lon="0.89569">
        <ele>87.22</ele>
        <time>2015-10-11T07:25:40Z</time>
      </trkpt>
      <trkpt lat="49.33535" lon="0.89576">
        <ele>87.74</ele>
        <time>2015-10-11T07:25:43Z</time>
      </trkpt>
      <trkpt lat="49.33532" lon="0.89582">
        <ele>88.3</ele>
        <time>2015-10-11T07:25:44Z</time>
      </trkpt>
      <trkpt lat="49.33527" lon="0.89589">
        <ele>88.93</ele>
        <time>2015-10-11T07:25:47Z</time>
      </trkpt>
      <trkpt lat="49.33523" lon="0.89595">
        <ele>89.41</ele>
        <time>2015-10-11T07:25:48Z</time>
      </trkpt>
      <trkpt lat="49.3352" lon="0.89605">
        <ele>90.33</ele>
        <time>2015-10-11T07:25:52Z</time>
      </trkpt>
      <trkpt lat="49.33517" lon="0.89617">
        <ele>91.16</ele>
        <time>2015-10-11T07:25:56Z</time>
      </trkpt>
      <trkpt lat="49.33515" lon="0.89624">
        <ele>91.53</ele>
        <time>2015-10-11T07:25:59Z</time>
      </trkpt>
      <trkpt lat="49.33512" lon="0.89631">
        <ele>91.89</ele>
        <time>2015-10-11T07:26:00Z</time>
      </trkpt>
      <trkpt lat="49.33509" lon="0.89639">
        <ele>92.26</ele>
        <time>2015-10-11T07:26:03Z</time>
      </trkpt>
      <trkpt lat="49.33506" lon="0.89648">
        <ele>92.66</ele>
        <time>2015-10-11T07:26:04Z</time>
      </trkpt>
      <trkpt lat="49.33502" lon="0.89659">
        <ele>93.04</ele>
        <time>2015-10-11T07:26:07Z</time>
      </trkpt>
      <trkpt lat="49.33499" lon="0.8967">
        <ele>93.36</ele>
        <time>2015-10-11T07:26:08Z</time>
      </trkpt>
      <trkpt lat="49.33497" lon="0.89681">
        <ele>93.65</ele>
        <time>2015-10-11T07:26:11Z</time>
      </trkpt>
      <trkpt lat="49.33493" lon="0.89694">
        <ele>95.49</ele>
        <time>2015-10-11T07:26:12Z</time>
      </trkpt>
      <trkpt lat="49.33489" lon="0.89706">
        <ele>97.8</ele>
        <time>2015-10-11T07:26:15Z</time>
      </trkpt>
      <trkpt lat="49.33486" lon="0.89718">
        <ele>100.56</ele>
        <time>2015-10-11T07:26:16Z</time>
      </trkpt>
      <trkpt lat="49.33481" lon="0.8973">
        <ele>102.37</ele>
        <time>2015-10-11T07:26:19Z</time>
      </trkpt>
      <trkpt lat="49.33479" lon="0.89743">
        <ele>103.85</ele>
        <time>2015-10-11T07:26:20Z</time>
      </trkpt>
      <trkpt lat="49.33475" lon="0.89757">
        <ele>105.71</ele>
        <time>2015-10-11T07:26:23Z</time>
      </trkpt>
      <trkpt lat="49.33471" lon="0.8977">
        <ele>107.22</ele>
        <time>2015-10-11T07:26:24Z</time>
      </trkpt>
      <trkpt lat="49.33466" lon="0.89785">
        <ele>107.84</ele>
        <time>2015-10-11T07:26:27Z</time>
      </trkpt>
      <trkpt lat="49.33463" lon="0.89797">
        <ele>108.06</ele>
        <time>2015-10-11T07:26:28Z</time>
      </trkpt>
      <trkpt lat="49.33458" lon="0.89808">
        <ele>107.6</ele>
        <time>2015-10-11T07:26:31Z</time>
      </trkpt>
      <trkpt lat="49.33449" lon="0.89816">
        <ele>107.23</ele>
        <time>2015-10-11T07:26:32Z</time>
      </trkpt>
      <trkpt lat="49.3344" lon="0.8982">
        <ele>106.83</ele>
        <time>2015-10-11T07:26:35Z</time>
      </trkpt>
      <trkpt lat="49.33431" lon="0.89823">
        <ele>106.55</ele>
        <time>2015-10-11T07:26:36Z</time>
      </trkpt>
      <trkpt lat="49.33424" lon="0.89826">
        <ele>106.43</ele>
        <time>2015-10-11T07:26:39Z</time>
      </trkpt>
      <trkpt lat="49.33416" lon="0.89827">
        <ele>106.36</ele>
        <time>2015-10-11T07:26:40Z</time>
      </trkpt>
      <trkpt lat="49.33409" lon="0.89827">
        <ele>106.24</ele>
        <time>2015-10-11T07:26:43Z</time>
      </trkpt>
      <trkpt lat="49.33401" lon="0.89826">
        <ele>106.11</ele>
        <time>2015-10-11T07:26:44Z</time>
      </trkpt>
      <trkpt lat="49.33393" lon="0.89827">
        <ele>105.92</ele>
        <time>2015-10-11T07:26:47Z</time>
      </trkpt>
      <trkpt lat="49.33387" lon="0.89829">
        <ele>105.79</ele>
        <time>2015-10-11T07:26:48Z</time>
      </trkpt>
      <trkpt lat="49.33379" lon="0.89831">
        <ele>105.74</ele>
        <time>2015-10-11T07:26:51Z</time>
      </trkpt>
      <trkpt lat="49.33373" lon="0.89833">
        <ele>105.76</ele>
        <time>2015-10-11T07:26:52Z</time>
      </trkpt>
      <trkpt lat="49.33366" lon="0.89835">
        <ele>105.83</ele>
        <time>2015-10-11T07:26:55Z</time>
      </trkpt>
      <trkpt lat="49.3336" lon="0.89836">
        <ele>105.89</ele>
        <time>2015-10-11T07:26:56Z</time>
      </trkpt>
      <trkpt lat="49.33354" lon="0.89839">
        <ele>106</ele>
        <time>2015-10-11T07:26:59Z</time>
      </trkpt>
      <trkpt lat="49.33348" lon="0.8984">
        <ele>106.17</ele>
        <time>2015-10-11T07:27:00Z</time>
      </trkpt>
      <trkpt lat="49.33341" lon="0.89843">
        <ele>106.29</ele>
        <time>2015-10-11T07:27:03Z</time>
      </trkpt>
      <trkpt lat="49.33335" lon="0.89844">
        <ele>106.31</ele>
        <time>2015-10-11T07:27:04Z</time>
      </trkpt>
      <trkpt lat="49.3333" lon="0.89846">
        <ele>106.35</ele>
        <time>2015-10-11T07:27:07Z</time>
      </trkpt>
      <trkpt lat="49.33325" lon="0.89848">
        <ele>106.45</ele>
        <time>2015-10-11T07:27:08Z</time>
      </trkpt>
      <trkpt lat="49.3332" lon="0.89849">
        <ele>106.65</ele>
        <time>2015-10-11T07:27:11Z</time>
      </trkpt>
      <trkpt lat="49.33319" lon="0.89833">
        <ele>107.14</ele>
        <time>2015-10-11T07:27:15Z</time>
      </trkpt>
      <trkpt lat="49.33321" lon="0.89823">
        <ele>107.45</ele>
        <time>2015-10-11T07:27:16Z</time>
      </trkpt>
      <trkpt lat="49.33323" lon="0.8981">
        <ele>107.74</ele>
        <time>2015-10-11T07:27:19Z</time>
      </trkpt>
      <trkpt lat="49.33324" lon="0.89801">
        <ele>108.02</ele>
        <time>2015-10-11T07:27:20Z</time>
      </trkpt>
      <trkpt lat="49.33326" lon="0.8979">
        <ele>108.27</ele>
        <time>2015-10-11T07:27:23Z</time>
      </trkpt>
      <trkpt lat="49.33327" lon="0.89778">
        <ele>109.34</ele>
        <time>2015-10-11T07:27:24Z</time>
      </trkpt>
      <trkpt lat="49.3333" lon="0.89765">
        <ele>110.71</ele>
        <time>2015-10-11T07:27:27Z</time>
      </trkpt>
      <trkpt lat="49.33332" lon="0.8975">
        <ele>112.76</ele>
        <time>2015-10-11T07:27:28Z</time>
      </trkpt>
      <trkpt lat="49.33334" lon="0.89735">
        <ele>114.54</ele>
        <time>2015-10-11T07:27:31Z</time>
      </trkpt>
      <trkpt lat="49.33338" lon="0.89719">
        <ele>116.09</ele>
        <time>2015-10-11T07:27:32Z</time>
      </trkpt>
      <trkpt lat="49.33341" lon="0.89702">
        <ele>116.17</ele>
        <time>2015-10-11T07:27:35Z</time>
      </trkpt>
      <trkpt lat="49.33342" lon="0.89686">
        <ele>115.45</ele>
        <time>2015-10-11T07:27:36Z</time>
      </trkpt>
      <trkpt lat="49.33345" lon="0.89673">
        <ele>114.46</ele>
        <time>2015-10-11T07:27:39Z</time>
      </trkpt>
      <trkpt lat="49.3335" lon="0.89659">
        <ele>113.53</ele>
        <time>2015-10-11T07:27:40Z</time>
      </trkpt>
      <trkpt lat="49.33353" lon="0.89644">
        <ele>112.67</ele>
        <time>2015-10-11T07:27:43Z</time>
      </trkpt>
      <trkpt lat="49.33356" lon="0.8963">
        <ele>112</ele>
        <time>2015-10-11T07:27:44Z</time>
      </trkpt>
      <trkpt lat="49.33358" lon="0.8962">
        <ele>111.62</ele>
        <time>2015-10-11T07:27:47Z</time>
      </trkpt>
      <trkpt lat="49.33359" lon="0.89611">
        <ele>111.43</ele>
        <time>2015-10-11T07:27:48Z</time>
      </trkpt>
      <trkpt lat="49.33359" lon="0.89601">
        <ele>111.34</ele>
        <time>2015-10-11T07:27:51Z</time>
      </trkpt>
      <trkpt lat="49.3336" lon="0.89589">
        <ele>111.33</ele>
        <time>2015-10-11T07:27:52Z</time>
      </trkpt>
      <trkpt lat="49.33361" lon="0.89572">
        <ele>111.4</ele>
        <time>2015-10-11T07:27:55Z</time>
      </trkpt>
      <trkpt lat="49.33362" lon="0.89559">
        <ele>110.64</ele>
        <time>2015-10-11T07:27:56Z</time>
      </trkpt>
      <trkpt lat="49.33364" lon="0.89543">
        <ele>109.63</ele>
        <time>2015-10-11T07:27:59Z</time>
      </trkpt>
      <trkpt lat="49.33367" lon="0.89528">
        <ele>108.92</ele>
        <time>2015-10-11T07:28:00Z</time>
      </trkpt>
      <trkpt lat="49.3337" lon="0.89512">
        <ele>108.7</ele>
        <time>2015-10-11T07:28:03Z</time>
      </trkpt>
      <trkpt lat="49.33372" lon="0.89498">
        <ele>108.66</ele>
        <time>2015-10-11T07:28:04Z</time>
      </trkpt>
      <trkpt lat="49.33374" lon="0.89482">
        <ele>109.04</ele>
        <time>2015-10-11T07:28:07Z</time>
      </trkpt>
      <trkpt lat="49.33377" lon="0.89465">
        <ele>109.5</ele>
        <time>2015-10-11T07:28:08Z</time>
      </trkpt>
      <trkpt lat="49.3338" lon="0.89447">
        <ele>109.85</ele>
        <time>2015-10-11T07:28:11Z</time>
      </trkpt>
      <trkpt lat="49.33382" lon="0.89428">
        <ele>110.12</ele>
        <time>2015-10-11T07:28:12Z</time>
      </trkpt>
      <trkpt lat="49.33384" lon="0.89404">
        <ele>109.91</ele>
        <time>2015-10-11T07:28:15Z</time>
      </trkpt>
      <trkpt lat="49.33387" lon="0.89378">
        <ele>108.81</ele>
        <time>2015-10-11T07:28:16Z</time>
      </trkpt>
      <trkpt lat="49.33389" lon="0.8936">
        <ele>107.64</ele>
        <time>2015-10-11T07:28:19Z</time>
      </trkpt>
      <trkpt lat="49.33389" lon="0.89347">
        <ele>106.94</ele>
        <time>2015-10-11T07:28:20Z</time>
      </trkpt>
      <trkpt lat="49.33391" lon="0.89336">
        <ele>106.53</ele>
        <time>2015-10-11T07:28:23Z</time>
      </trkpt>
      <trkpt lat="49.33394" lon="0.89322">
        <ele>105.98</ele>
        <time>2015-10-11T07:28:24Z</time>
      </trkpt>
      <trkpt lat="49.33396" lon="0.89311">
        <ele>105.09</ele>
        <time>2015-10-11T07:28:27Z</time>
      </trkpt>
      <trkpt lat="49.33399" lon="0.893">
        <ele>104.32</ele>
        <time>2015-10-11T07:28:28Z</time>
      </trkpt>
      <trkpt lat="49.33401" lon="0.89287">
        <ele>103.45</ele>
        <time>2015-10-11T07:28:31Z</time>
      </trkpt>
      <trkpt lat="49.33403" lon="0.89274">
        <ele>102.75</ele>
        <time>2015-10-11T07:28:32Z</time>
      </trkpt>
      <trkpt lat="49.33406" lon="0.8926">
        <ele>102.27</ele>
        <time>2015-10-11T07:28:35Z</time>
      </trkpt>
      <trkpt lat="49.33408" lon="0.89246">
        <ele>101.66</ele>
        <time>2015-10-11T07:28:36Z</time>
      </trkpt>
      <trkpt lat="49.3341" lon="0.89231">
        <ele>101.14</ele>
        <time>2015-10-11T07:28:39Z</time>
      </trkpt>
      <trkpt lat="49.33412" lon="0.89218">
        <ele>100.77</ele>
        <time>2015-10-11T07:28:40Z</time>
      </trkpt>
      <trkpt lat="49.33416" lon="0.89206">
        <ele>100.6</ele>
        <time>2015-10-11T07:28:43Z</time>
      </trkpt>
      <trkpt lat="49.33418" lon="0.89196">
        <ele>101.26</ele>
        <time>2015-10-11T07:28:44Z</time>
      </trkpt>
      <trkpt lat="49.33419" lon="0.89181">
        <ele>101.99</ele>
        <time>2015-10-11T07:28:47Z</time>
      </trkpt>
      <trkpt lat="49.3342" lon="0.89165">
        <ele>102.27</ele>
        <time>2015-10-11T07:28:48Z</time>
      </trkpt>
      <trkpt lat="49.33422" lon="0.89149">
        <ele>101.99</ele>
        <time>2015-10-11T07:28:51Z</time>
      </trkpt>
      <trkpt lat="49.33424" lon="0.89133">
        <ele>101.92</ele>
        <time>2015-10-11T07:28:52Z</time>
      </trkpt>
      <trkpt lat="49.33427" lon="0.89118">
        <ele>102.43</ele>
        <time>2015-10-11T07:28:55Z</time>
      </trkpt>
      <trkpt lat="49.3343" lon="0.89102">
        <ele>102.43</ele>
        <time>2015-10-11T07:28:56Z</time>
      </trkpt>
      <trkpt lat="49.33432" lon="0.89088">
        <ele>102.81</ele>
        <time>2015-10-11T07:28:59Z</time>
      </trkpt>
      <trkpt lat="49.33434" lon="0.89071">
        <ele>103.15</ele>
        <time>2015-10-11T07:29:00Z</time>
      </trkpt>
      <trkpt lat="49.33436" lon="0.89057">
        <ele>102.99</ele>
        <time>2015-10-11T07:29:03Z</time>
      </trkpt>
      <trkpt lat="49.33439" lon="0.8904">
        <ele>102.79</ele>
        <time>2015-10-11T07:29:04Z</time>
      </trkpt>
      <trkpt lat="49.33443" lon="0.89024">
        <ele>102.24</ele>
        <time>2015-10-11T07:29:07Z</time>
      </trkpt>
      <trkpt lat="49.33446" lon="0.89005">
        <ele>101.26</ele>
        <time>2015-10-11T07:29:08Z</time>
      </trkpt>
      <trkpt lat="49.33451" lon="0.88985">
        <ele>100.39</ele>
        <time>2015-10-11T07:29:11Z</time>
      </trkpt>
      <trkpt lat="49.33454" lon="0.88963">
        <ele>99.9</ele>
        <time>2015-10-11T07:29:12Z</time>
      </trkpt>
      <trkpt lat="49.33454" lon="0.8894">
        <ele>99.15</ele>
        <time>2015-10-11T07:29:15Z</time>
      </trkpt>
      <trkpt lat="49.3346" lon="0.8892">
        <ele>98.55</ele>
        <time>2015-10-11T07:29:16Z</time>
      </trkpt>
      <trkpt lat="49.33461" lon="0.8891">
        <ele>98.22</ele>
        <time>2015-10-11T07:29:19Z</time>
      </trkpt>
      <trkpt lat="49.33463" lon="0.88901">
        <ele>98.08</ele>
        <time>2015-10-11T07:29:20Z</time>
      </trkpt>
      <trkpt lat="49.33466" lon="0.88887">
        <ele>97.99</ele>
        <time>2015-10-11T07:29:23Z</time>
      </trkpt>
      <trkpt lat="49.33466" lon="0.88876">
        <ele>97.93</ele>
        <time>2015-10-11T07:29:24Z</time>
      </trkpt>
      <trkpt lat="49.33467" lon="0.88867">
        <ele>97.86</ele>
        <time>2015-10-11T07:29:27Z</time>
      </trkpt>
      <trkpt lat="49.33469" lon="0.88855">
        <ele>97.86</ele>
        <time>2015-10-11T07:29:28Z</time>
      </trkpt>
      <trkpt lat="49.33472" lon="0.88843">
        <ele>98.36</ele>
        <time>2015-10-11T07:29:31Z</time>
      </trkpt>
      <trkpt lat="49.33474" lon="0.88831">
        <ele>98.87</ele>
        <time>2015-10-11T07:29:32Z</time>
      </trkpt>
      <trkpt lat="49.33478" lon="0.88815">
        <ele>99.83</ele>
        <time>2015-10-11T07:29:35Z</time>
      </trkpt>
      <trkpt lat="49.3348" lon="0.88801">
        <ele>100.69</ele>
        <time>2015-10-11T07:29:36Z</time>
      </trkpt>
      <trkpt lat="49.33482" lon="0.88786">
        <ele>101.56</ele>
        <time>2015-10-11T07:29:39Z</time>
      </trkpt>
      <trkpt lat="49.33486" lon="0.88767">
        <ele>102.25</ele>
        <time>2015-10-11T07:29:40Z</time>
      </trkpt>
      <trkpt lat="49.33488" lon="0.88747">
        <ele>102.56</ele>
        <time>2015-10-11T07:29:43Z</time>
      </trkpt>
      <trkpt lat="49.3349" lon="0.88729">
        <ele>102.67</ele>
        <time>2015-10-11T07:29:44Z</time>
      </trkpt>
      <trkpt lat="49.33494" lon="0.88711">
        <ele>102.84</ele>
        <time>2015-10-11T07:29:47Z</time>
      </trkpt>
      <trkpt lat="49.33498" lon="0.88694">
        <ele>102.6</ele>
        <time>2015-10-11T07:29:48Z</time>
      </trkpt>
      <trkpt lat="49.335" lon="0.88676">
        <ele>102.34</ele>
        <time>2015-10-11T07:29:51Z</time>
      </trkpt>
      <trkpt lat="49.33502" lon="0.88662">
        <ele>102.15</ele>
        <time>2015-10-11T07:29:52Z</time>
      </trkpt>
      <trkpt lat="49.33504" lon="0.88649">
        <ele>101.98</ele>
        <time>2015-10-11T07:29:55Z</time>
      </trkpt>
      <trkpt lat="49.33505" lon="0.88638">
        <ele>101.55</ele>
        <time>2015-10-11T07:29:56Z</time>
      </trkpt>
      <trkpt lat="49.33508" lon="0.88625">
        <ele>101.07</ele>
        <time>2015-10-11T07:29:59Z</time>
      </trkpt>
      <trkpt lat="49.33509" lon="0.88615">
        <ele>100.81</ele>
        <time>2015-10-11T07:30:00Z</time>
      </trkpt>
      <trkpt lat="49.3351" lon="0.88606">
        <ele>100.7</ele>
        <time>2015-10-11T07:30:03Z</time>
      </trkpt>
      <trkpt lat="49.33511" lon="0.88599">
        <ele>100.74</ele>
        <time>2015-10-11T07:30:04Z</time>
      </trkpt>
      <trkpt lat="49.33514" lon="0.88589">
        <ele>100.88</ele>
        <time>2015-10-11T07:30:07Z</time>
      </trkpt>
      <trkpt lat="49.3352" lon="0.88585">
        <ele>101.02</ele>
        <time>2015-10-11T07:30:08Z</time>
      </trkpt>
      <trkpt lat="49.33527" lon="0.88585">
        <ele>101.12</ele>
        <time>2015-10-11T07:30:11Z</time>
      </trkpt>
      <trkpt lat="49.33536" lon="0.88586">
        <ele>101.64</ele>
        <time>2015-10-11T07:30:12Z</time>
      </trkpt>
      <trkpt lat="49.33547" lon="0.88588">
        <ele>102.17</ele>
        <time>2015-10-11T07:30:15Z</time>
      </trkpt>
      <trkpt lat="49.33557" lon="0.88589">
        <ele>102.78</ele>
        <time>2015-10-11T07:30:16Z</time>
      </trkpt>
      <trkpt lat="49.33565" lon="0.88591">
        <ele>103.32</ele>
        <time>2015-10-11T07:30:19Z</time>
      </trkpt>
      <trkpt lat="49.33572" lon="0.88594">
        <ele>104</ele>
        <time>2015-10-11T07:30:20Z</time>
      </trkpt>
      <trkpt lat="49.33583" lon="0.88598">
        <ele>104.26</ele>
        <time>2015-10-11T07:30:23Z</time>
      </trkpt>
      <trkpt lat="49.33594" lon="0.88602">
        <ele>104.31</ele>
        <time>2015-10-11T07:30:24Z</time>
      </trkpt>
      <trkpt lat="49.33605" lon="0.88607">
        <ele>103.35</ele>
        <time>2015-10-11T07:30:27Z</time>
      </trkpt>
      <trkpt lat="49.33616" lon="0.88613">
        <ele>102.48</ele>
        <time>2015-10-11T07:30:28Z</time>
      </trkpt>
      <trkpt lat="49.33623" lon="0.88615">
        <ele>101.95</ele>
        <time>2015-10-11T07:30:31Z</time>
      </trkpt>
      <trkpt lat="49.33632" lon="0.88616">
        <ele>101.33</ele>
        <time>2015-10-11T07:30:32Z</time>
      </trkpt>
      <trkpt lat="49.33641" lon="0.8862">
        <ele>100.99</ele>
        <time>2015-10-11T07:30:35Z</time>
      </trkpt>
      <trkpt lat="49.3365" lon="0.88625">
        <ele>100.72</ele>
        <time>2015-10-11T07:30:36Z</time>
      </trkpt>
      <trkpt lat="49.33658" lon="0.8863">
        <ele>100.51</ele>
        <time>2015-10-11T07:30:39Z</time>
      </trkpt>
      <trkpt lat="49.33667" lon="0.88634">
        <ele>99.81</ele>
        <time>2015-10-11T07:30:40Z</time>
      </trkpt>
      <trkpt lat="49.33677" lon="0.88634">
        <ele>99.13</ele>
        <time>2015-10-11T07:30:43Z</time>
      </trkpt>
      <trkpt lat="49.33686" lon="0.88639">
        <ele>98.68</ele>
        <time>2015-10-11T07:30:44Z</time>
      </trkpt>
      <trkpt lat="49.33692" lon="0.88647">
        <ele>98.4</ele>
        <time>2015-10-11T07:30:47Z</time>
      </trkpt>
      <trkpt lat="49.33698" lon="0.88645">
        <ele>98.28</ele>
        <time>2015-10-11T07:30:48Z</time>
      </trkpt>
      <trkpt lat="49.33704" lon="0.88646">
        <ele>98.27</ele>
        <time>2015-10-11T07:30:51Z</time>
      </trkpt>
      <trkpt lat="49.3371" lon="0.88647">
        <ele>98.27</ele>
        <time>2015-10-11T07:30:52Z</time>
      </trkpt>
      <trkpt lat="49.33717" lon="0.88649">
        <ele>98.12</ele>
        <time>2015-10-11T07:30:55Z</time>
      </trkpt>
      <trkpt lat="49.33728" lon="0.88653">
        <ele>97.95</ele>
        <time>2015-10-11T07:30:59Z</time>
      </trkpt>
      <trkpt lat="49.33736" lon="0.88654">
        <ele>97.86</ele>
        <time>2015-10-11T07:31:00Z</time>
      </trkpt>
      <trkpt lat="49.33742" lon="0.88656">
        <ele>97.77</ele>
        <time>2015-10-11T07:31:03Z</time>
      </trkpt>
      <trkpt lat="49.33747" lon="0.88658">
        <ele>97.7</ele>
        <time>2015-10-11T07:31:04Z</time>
      </trkpt>
      <trkpt lat="49.33754" lon="0.8866">
        <ele>97.32</ele>
        <time>2015-10-11T07:31:07Z</time>
      </trkpt>
      <trkpt lat="49.33759" lon="0.88662">
        <ele>97.03</ele>
        <time>2015-10-11T07:31:08Z</time>
      </trkpt>
      <trkpt lat="49.3377" lon="0.88665">
        <ele>95.51</ele>
        <time>2015-10-11T07:31:11Z</time>
      </trkpt>
      <trkpt lat="49.33781" lon="0.88665">
        <ele>93.5</ele>
        <time>2015-10-11T07:31:12Z</time>
      </trkpt>
      <trkpt lat="49.33791" lon="0.88669">
        <ele>91.89</ele>
        <time>2015-10-11T07:31:15Z</time>
      </trkpt>
      <trkpt lat="49.33801" lon="0.88671">
        <ele>91.14</ele>
        <time>2015-10-11T07:31:16Z</time>
      </trkpt>
      <trkpt lat="49.33801" lon="0.88661">
        <ele>90.56</ele>
        <time>2015-10-11T07:31:23Z</time>
      </trkpt>
      <trkpt lat="49.33799" lon="0.88653">
        <ele>90.55</ele>
        <time>2015-10-11T07:31:24Z</time>
      </trkpt>
      <trkpt lat="49.33795" lon="0.88645">
        <ele>90.52</ele>
        <time>2015-10-11T07:31:27Z</time>
      </trkpt>
      <trkpt lat="49.33791" lon="0.88635">
        <ele>90.49</ele>
        <time>2015-10-11T07:31:28Z</time>
      </trkpt>
      <trkpt lat="49.33787" lon="0.88624">
        <ele>90.45</ele>
        <time>2015-10-11T07:31:31Z</time>
      </trkpt>
      <trkpt lat="49.33783" lon="0.88614">
        <ele>90.39</ele>
        <time>2015-10-11T07:31:32Z</time>
      </trkpt>
      <trkpt lat="49.33779" lon="0.88605">
        <ele>90.37</ele>
        <time>2015-10-11T07:31:35Z</time>
      </trkpt>
      <trkpt lat="49.33777" lon="0.88595">
        <ele>90.3</ele>
        <time>2015-10-11T07:31:36Z</time>
      </trkpt>
      <trkpt lat="49.33773" lon="0.88583">
        <ele>90.17</ele>
        <time>2015-10-11T07:31:39Z</time>
      </trkpt>
      <trkpt lat="49.3377" lon="0.88572">
        <ele>89.88</ele>
        <time>2015-10-11T07:31:40Z</time>
      </trkpt>
      <trkpt lat="49.33768" lon="0.88561">
        <ele>89.54</ele>
        <time>2015-10-11T07:31:43Z</time>
      </trkpt>
      <trkpt lat="49.33768" lon="0.8855">
        <ele>89.23</ele>
        <time>2015-10-11T07:31:44Z</time>
      </trkpt>
      <trkpt lat="49.33768" lon="0.88539">
        <ele>88.9</ele>
        <time>2015-10-11T07:31:47Z</time>
      </trkpt>
      <trkpt lat="49.33768" lon="0.8853">
        <ele>88.6</ele>
        <time>2015-10-11T07:31:48Z</time>
      </trkpt>
      <trkpt lat="49.3377" lon="0.88521">
        <ele>88.32</ele>
        <time>2015-10-11T07:31:51Z</time>
      </trkpt>
      <trkpt lat="49.33772" lon="0.8851">
        <ele>88.11</ele>
        <time>2015-10-11T07:31:52Z</time>
      </trkpt>
      <trkpt lat="49.33776" lon="0.88499">
        <ele>87.94</ele>
        <time>2015-10-11T07:31:55Z</time>
      </trkpt>
      <trkpt lat="49.33779" lon="0.88494">
        <ele>87.81</ele>
        <time>2015-10-11T07:31:56Z</time>
      </trkpt>
      <trkpt lat="49.33783" lon="0.88485">
        <ele>87.76</ele>
        <time>2015-10-11T07:31:59Z</time>
      </trkpt>
      <trkpt lat="49.33787" lon="0.88475">
        <ele>87.75</ele>
        <time>2015-10-11T07:32:00Z</time>
      </trkpt>
      <trkpt lat="49.33792" lon="0.88463">
        <ele>87.75</ele>
        <time>2015-10-11T07:32:03Z</time>
      </trkpt>
      <trkpt lat="49.33795" lon="0.88452">
        <ele>87.57</ele>
        <time>2015-10-11T07:32:04Z</time>
      </trkpt>
      <trkpt lat="49.33797" lon="0.88443">
        <ele>87.46</ele>
        <time>2015-10-11T07:32:07Z</time>
      </trkpt>
      <trkpt lat="49.33797" lon="0.88433">
        <ele>87.42</ele>
        <time>2015-10-11T07:32:08Z</time>
      </trkpt>
      <trkpt lat="49.33797" lon="0.88424">
        <ele>87.4</ele>
        <time>2015-10-11T07:32:11Z</time>
      </trkpt>
      <trkpt lat="49.33796" lon="0.88414">
        <ele>87.35</ele>
        <time>2015-10-11T07:32:12Z</time>
      </trkpt>
      <trkpt lat="49.33794" lon="0.88405">
        <ele>87.29</ele>
        <time>2015-10-11T07:32:15Z</time>
      </trkpt>
      <trkpt lat="49.33794" lon="0.88396">
        <ele>87.24</ele>
        <time>2015-10-11T07:32:16Z</time>
      </trkpt>
      <trkpt lat="49.33794" lon="0.88388">
        <ele>87.22</ele>
        <time>2015-10-11T07:32:19Z</time>
      </trkpt>
      <trkpt lat="49.33794" lon="0.88376">
        <ele>87.28</ele>
        <time>2015-10-11T07:32:20Z</time>
      </trkpt>
      <trkpt lat="49.33795" lon="0.88364">
        <ele>87.35</ele>
        <time>2015-10-11T07:32:23Z</time>
      </trkpt>
      <trkpt lat="49.33796" lon="0.88353">
        <ele>87.61</ele>
        <time>2015-10-11T07:32:27Z</time>
      </trkpt>
      <trkpt lat="49.33796" lon="0.88342">
        <ele>87.87</ele>
        <time>2015-10-11T07:32:31Z</time>
      </trkpt>
      <trkpt lat="49.33795" lon="0.88335">
        <ele>88.02</ele>
        <time>2015-10-11T07:32:32Z</time>
      </trkpt>
      <trkpt lat="49.33789" lon="0.88327">
        <ele>88.34</ele>
        <time>2015-10-11T07:32:36Z</time>
      </trkpt>
      <trkpt lat="49.33787" lon="0.88319">
        <ele>88.54</ele>
        <time>2015-10-11T07:32:39Z</time>
      </trkpt>
      <trkpt lat="49.33782" lon="0.88312">
        <ele>88.75</ele>
        <time>2015-10-11T07:32:40Z</time>
      </trkpt>
      <trkpt lat="49.3378" lon="0.88305">
        <ele>88.96</ele>
        <time>2015-10-11T07:32:43Z</time>
      </trkpt>
      <trkpt lat="49.33777" lon="0.88299">
        <ele>89.1</ele>
        <time>2015-10-11T07:32:44Z</time>
      </trkpt>
      <trkpt lat="49.33774" lon="0.88291">
        <ele>89.26</ele>
        <time>2015-10-11T07:32:47Z</time>
      </trkpt>
      <trkpt lat="49.3377" lon="0.88284">
        <ele>89.39</ele>
        <time>2015-10-11T07:32:48Z</time>
      </trkpt>
      <trkpt lat="49.33767" lon="0.88277">
        <ele>89.49</ele>
        <time>2015-10-11T07:32:51Z</time>
      </trkpt>
      <trkpt lat="49.33761" lon="0.88268">
        <ele>89.62</ele>
        <time>2015-10-11T07:32:52Z</time>
      </trkpt>
      <trkpt lat="49.33756" lon="0.88259">
        <ele>89.75</ele>
        <time>2015-10-11T07:32:55Z</time>
      </trkpt>
      <trkpt lat="49.33752" lon="0.88251">
        <ele>89.8</ele>
        <time>2015-10-11T07:32:56Z</time>
      </trkpt>
      <trkpt lat="49.33747" lon="0.88243">
        <ele>89.83</ele>
        <time>2015-10-11T07:32:59Z</time>
      </trkpt>
      <trkpt lat="49.33744" lon="0.88234">
        <ele>90.16</ele>
        <time>2015-10-11T07:33:00Z</time>
      </trkpt>
      <trkpt lat="49.33741" lon="0.88222">
        <ele>90.79</ele>
        <time>2015-10-11T07:33:03Z</time>
      </trkpt>
      <trkpt lat="49.33739" lon="0.88211">
        <ele>91.19</ele>
        <time>2015-10-11T07:33:04Z</time>
      </trkpt>
      <trkpt lat="49.33738" lon="0.882">
        <ele>91.48</ele>
        <time>2015-10-11T07:33:07Z</time>
      </trkpt>
      <trkpt lat="49.33736" lon="0.88188">
        <ele>91.7</ele>
        <time>2015-10-11T07:33:08Z</time>
      </trkpt>
      <trkpt lat="49.33736" lon="0.88175">
        <ele>91.84</ele>
        <time>2015-10-11T07:33:11Z</time>
      </trkpt>
      <trkpt lat="49.33734" lon="0.88165">
        <ele>92.02</ele>
        <time>2015-10-11T07:33:12Z</time>
      </trkpt>
      <trkpt lat="49.33733" lon="0.88156">
        <ele>92.25</ele>
        <time>2015-10-11T07:33:15Z</time>
      </trkpt>
      <trkpt lat="49.33731" lon="0.88148">
        <ele>92.5</ele>
        <time>2015-10-11T07:33:16Z</time>
      </trkpt>
      <trkpt lat="49.33731" lon="0.88139">
        <ele>92.71</ele>
        <time>2015-10-11T07:33:19Z</time>
      </trkpt>
      <trkpt lat="49.33731" lon="0.88131">
        <ele>92.98</ele>
        <time>2015-10-11T07:33:20Z</time>
      </trkpt>
      <trkpt lat="49.33733" lon="0.88123">
        <ele>93.22</ele>
        <time>2015-10-11T07:33:23Z</time>
      </trkpt>
      <trkpt lat="49.33734" lon="0.88114">
        <ele>93.42</ele>
        <time>2015-10-11T07:33:24Z</time>
      </trkpt>
      <trkpt lat="49.33735" lon="0.88106">
        <ele>93.65</ele>
        <time>2015-10-11T07:33:27Z</time>
      </trkpt>
      <trkpt lat="49.33734" lon="0.88097">
        <ele>93.85</ele>
        <time>2015-10-11T07:33:28Z</time>
      </trkpt>
      <trkpt lat="49.33735" lon="0.88088">
        <ele>94.04</ele>
        <time>2015-10-11T07:33:31Z</time>
      </trkpt>
      <trkpt lat="49.33735" lon="0.8808">
        <ele>94.2</ele>
        <time>2015-10-11T07:33:32Z</time>
      </trkpt>
      <trkpt lat="49.33736" lon="0.88072">
        <ele>94.39</ele>
        <time>2015-10-11T07:33:35Z</time>
      </trkpt>
      <trkpt lat="49.33736" lon="0.88064">
        <ele>94.58</ele>
        <time>2015-10-11T07:33:36Z</time>
      </trkpt>
      <trkpt lat="49.33736" lon="0.88055">
        <ele>94.81</ele>
        <time>2015-10-11T07:33:39Z</time>
      </trkpt>
      <trkpt lat="49.33736" lon="0.88046">
        <ele>95.1</ele>
        <time>2015-10-11T07:33:40Z</time>
      </trkpt>
      <trkpt lat="49.33737" lon="0.88038">
        <ele>95.42</ele>
        <time>2015-10-11T07:33:43Z</time>
      </trkpt>
      <trkpt lat="49.33736" lon="0.8803">
        <ele>95.73</ele>
        <time>2015-10-11T07:33:44Z</time>
      </trkpt>
      <trkpt lat="49.33735" lon="0.88018">
        <ele>96.37</ele>
        <time>2015-10-11T07:33:48Z</time>
      </trkpt>
      <trkpt lat="49.33736" lon="0.8801">
        <ele>96.7</ele>
        <time>2015-10-11T07:33:51Z</time>
      </trkpt>
      <trkpt lat="49.33737" lon="0.88001">
        <ele>97.09</ele>
        <time>2015-10-11T07:33:52Z</time>
      </trkpt>
      <trkpt lat="49.33735" lon="0.87983">
        <ele>97.8</ele>
        <time>2015-10-11T07:33:56Z</time>
      </trkpt>
      <trkpt lat="49.33734" lon="0.87971">
        <ele>98.15</ele>
        <time>2015-10-11T07:33:59Z</time>
      </trkpt>
      <trkpt lat="49.33733" lon="0.87961">
        <ele>98.49</ele>
        <time>2015-10-11T07:34:00Z</time>
      </trkpt>
      <trkpt lat="49.33733" lon="0.87953">
        <ele>98.83</ele>
        <time>2015-10-11T07:34:03Z</time>
      </trkpt>
      <trkpt lat="49.33733" lon="0.87943">
        <ele>99.21</ele>
        <time>2015-10-11T07:34:04Z</time>
      </trkpt>
      <trkpt lat="49.33732" lon="0.87934">
        <ele>99.65</ele>
        <time>2015-10-11T07:34:07Z</time>
      </trkpt>
      <trkpt lat="49.33731" lon="0.87926">
        <ele>100.09</ele>
        <time>2015-10-11T07:34:08Z</time>
      </trkpt>
      <trkpt lat="49.3373" lon="0.87918">
        <ele>100.58</ele>
        <time>2015-10-11T07:34:11Z</time>
      </trkpt>
      <trkpt lat="49.33726" lon="0.87911">
        <ele>101.1</ele>
        <time>2015-10-11T07:34:12Z</time>
      </trkpt>
      <trkpt lat="49.33723" lon="0.87904">
        <ele>101.63</ele>
        <time>2015-10-11T07:34:15Z</time>
      </trkpt>
      <trkpt lat="49.33718" lon="0.87897">
        <ele>102.02</ele>
        <time>2015-10-11T07:34:16Z</time>
      </trkpt>
      <trkpt lat="49.33715" lon="0.87892">
        <ele>102.4</ele>
        <time>2015-10-11T07:34:19Z</time>
      </trkpt>
      <trkpt lat="49.33707" lon="0.87883">
        <ele>103.21</ele>
        <time>2015-10-11T07:34:23Z</time>
      </trkpt>
      <trkpt lat="49.33704" lon="0.87878">
        <ele>103.63</ele>
        <time>2015-10-11T07:34:24Z</time>
      </trkpt>
      <trkpt lat="49.33698" lon="0.8787">
        <ele>104.7</ele>
        <time>2015-10-11T07:34:28Z</time>
      </trkpt>
      <trkpt lat="49.33693" lon="0.87865">
        <ele>106.01</ele>
        <time>2015-10-11T07:34:32Z</time>
      </trkpt>
      <trkpt lat="49.33686" lon="0.87862">
        <ele>107.42</ele>
        <time>2015-10-11T07:34:36Z</time>
      </trkpt>
      <trkpt lat="49.3368" lon="0.87858">
        <ele>108.64</ele>
        <time>2015-10-11T07:34:40Z</time>
      </trkpt>
      <trkpt lat="49.33671" lon="0.87854">
        <ele>109.72</ele>
        <time>2015-10-11T07:34:44Z</time>
      </trkpt>
      <trkpt lat="49.33668" lon="0.8785">
        <ele>110.19</ele>
        <time>2015-10-11T07:34:47Z</time>
      </trkpt>
      <trkpt lat="49.33665" lon="0.87844">
        <ele>110.63</ele>
        <time>2015-10-11T07:34:48Z</time>
      </trkpt>
      <trkpt lat="49.33661" lon="0.87839">
        <ele>111.05</ele>
        <time>2015-10-11T07:34:51Z</time>
      </trkpt>
      <trkpt lat="49.33658" lon="0.87833">
        <ele>111.44</ele>
        <time>2015-10-11T07:34:52Z</time>
      </trkpt>
      <trkpt lat="49.33652" lon="0.87828">
        <ele>111.79</ele>
        <time>2015-10-11T07:34:55Z</time>
      </trkpt>
      <trkpt lat="49.33648" lon="0.87823">
        <ele>112.14</ele>
        <time>2015-10-11T07:34:56Z</time>
      </trkpt>
      <trkpt lat="49.3364" lon="0.87816">
        <ele>112.78</ele>
        <time>2015-10-11T07:35:00Z</time>
      </trkpt>
      <trkpt lat="49.33636" lon="0.87812">
        <ele>113.17</ele>
        <time>2015-10-11T07:35:03Z</time>
      </trkpt>
      <trkpt lat="49.33634" lon="0.87805">
        <ele>113.69</ele>
        <time>2015-10-11T07:35:04Z</time>
      </trkpt>
      <trkpt lat="49.33634" lon="0.87793">
        <ele>114.22</ele>
        <time>2015-10-11T07:35:07Z</time>
      </trkpt>
      <trkpt lat="49.33633" lon="0.87783">
        <ele>114.78</ele>
        <time>2015-10-11T07:35:08Z</time>
      </trkpt>
      <trkpt lat="49.33634" lon="0.87774">
        <ele>115.33</ele>
        <time>2015-10-11T07:35:11Z</time>
      </trkpt>
      <trkpt lat="49.33636" lon="0.87766">
        <ele>115.79</ele>
        <time>2015-10-11T07:35:12Z</time>
      </trkpt>
      <trkpt lat="49.33638" lon="0.87756">
        <ele>116.2</ele>
        <time>2015-10-11T07:35:15Z</time>
      </trkpt>
      <trkpt lat="49.33639" lon="0.87745">
        <ele>116.55</ele>
        <time>2015-10-11T07:35:16Z</time>
      </trkpt>
      <trkpt lat="49.33641" lon="0.87733">
        <ele>117.89</ele>
        <time>2015-10-11T07:35:19Z</time>
      </trkpt>
      <trkpt lat="49.33642" lon="0.87724">
        <ele>118.73</ele>
        <time>2015-10-11T07:35:20Z</time>
      </trkpt>
      <trkpt lat="49.33643" lon="0.87711">
        <ele>119.29</ele>
        <time>2015-10-11T07:35:23Z</time>
      </trkpt>
      <trkpt lat="49.33643" lon="0.87701">
        <ele>119.73</ele>
        <time>2015-10-11T07:35:24Z</time>
      </trkpt>
      <trkpt lat="49.33645" lon="0.87691">
        <ele>120.08</ele>
        <time>2015-10-11T07:35:27Z</time>
      </trkpt>
      <trkpt lat="49.33647" lon="0.87679">
        <ele>120.43</ele>
        <time>2015-10-11T07:35:28Z</time>
      </trkpt>
      <trkpt lat="49.33648" lon="0.87666">
        <ele>120.78</ele>
        <time>2015-10-11T07:35:31Z</time>
      </trkpt>
      <trkpt lat="49.33649" lon="0.87657">
        <ele>121.21</ele>
        <time>2015-10-11T07:35:32Z</time>
      </trkpt>
      <trkpt lat="49.33651" lon="0.87645">
        <ele>121.47</ele>
        <time>2015-10-11T07:35:35Z</time>
      </trkpt>
      <trkpt lat="49.33652" lon="0.87634">
        <ele>122.1</ele>
        <time>2015-10-11T07:35:36Z</time>
      </trkpt>
      <trkpt lat="49.33654" lon="0.87622">
        <ele>122.63</ele>
        <time>2015-10-11T07:35:39Z</time>
      </trkpt>
      <trkpt lat="49.33657" lon="0.87605">
        <ele>122.38</ele>
        <time>2015-10-11T07:35:40Z</time>
      </trkpt>
      <trkpt lat="49.3366" lon="0.87591">
        <ele>121.36</ele>
        <time>2015-10-11T07:35:43Z</time>
      </trkpt>
      <trkpt lat="49.33663" lon="0.8758">
        <ele>121.47</ele>
        <time>2015-10-11T07:35:44Z</time>
      </trkpt>
      <trkpt lat="49.33666" lon="0.87567">
        <ele>121.32</ele>
        <time>2015-10-11T07:35:47Z</time>
      </trkpt>
      <trkpt lat="49.33669" lon="0.87553">
        <ele>121.11</ele>
        <time>2015-10-11T07:35:48Z</time>
      </trkpt>
      <trkpt lat="49.33672" lon="0.8754">
        <ele>120.91</ele>
        <time>2015-10-11T07:35:51Z</time>
      </trkpt>
      <trkpt lat="49.33677" lon="0.87525">
        <ele>120.07</ele>
        <time>2015-10-11T07:35:52Z</time>
      </trkpt>
      <trkpt lat="49.33681" lon="0.87511">
        <ele>119.33</ele>
        <time>2015-10-11T07:35:55Z</time>
      </trkpt>
      <trkpt lat="49.33681" lon="0.875">
        <ele>118.95</ele>
        <time>2015-10-11T07:35:56Z</time>
      </trkpt>
      <trkpt lat="49.33675" lon="0.87492">
        <ele>118.72</ele>
        <time>2015-10-11T07:35:59Z</time>
      </trkpt>
      <trkpt lat="49.33669" lon="0.87486">
        <ele>118.56</ele>
        <time>2015-10-11T07:36:00Z</time>
      </trkpt>
      <trkpt lat="49.33664" lon="0.87478">
        <ele>118.53</ele>
        <time>2015-10-11T07:36:03Z</time>
      </trkpt>
      <trkpt lat="49.3366" lon="0.8747">
        <ele>118.51</ele>
        <time>2015-10-11T07:36:04Z</time>
      </trkpt>
      <trkpt lat="49.33654" lon="0.87463">
        <ele>118.51</ele>
        <time>2015-10-11T07:36:07Z</time>
      </trkpt>
      <trkpt lat="49.33647" lon="0.87455">
        <ele>118.51</ele>
        <time>2015-10-11T07:36:08Z</time>
      </trkpt>
      <trkpt lat="49.3364" lon="0.87449">
        <ele>118.54</ele>
        <time>2015-10-11T07:36:11Z</time>
      </trkpt>
      <trkpt lat="49.33633" lon="0.87443">
        <ele>118.52</ele>
        <time>2015-10-11T07:36:12Z</time>
      </trkpt>
      <trkpt lat="49.33628" lon="0.87434">
        <ele>118.53</ele>
        <time>2015-10-11T07:36:15Z</time>
      </trkpt>
      <trkpt lat="49.33625" lon="0.87426">
        <ele>118.63</ele>
        <time>2015-10-11T07:36:16Z</time>
      </trkpt>
      <trkpt lat="49.33619" lon="0.87418">
        <ele>118.88</ele>
        <time>2015-10-11T07:36:19Z</time>
      </trkpt>
      <trkpt lat="49.33611" lon="0.87412">
        <ele>118.37</ele>
        <time>2015-10-11T07:36:20Z</time>
      </trkpt>
      <trkpt lat="49.33601" lon="0.87408">
        <ele>117.07</ele>
        <time>2015-10-11T07:36:23Z</time>
      </trkpt>
      <trkpt lat="49.33594" lon="0.87404">
        <ele>116.34</ele>
        <time>2015-10-11T07:36:24Z</time>
      </trkpt>
      <trkpt lat="49.33586" lon="0.87399">
        <ele>115.95</ele>
        <time>2015-10-11T07:36:27Z</time>
      </trkpt>
      <trkpt lat="49.33577" lon="0.87391">
        <ele>115.54</ele>
        <time>2015-10-11T07:36:28Z</time>
      </trkpt>
      <trkpt lat="49.33568" lon="0.87386">
        <ele>115.33</ele>
        <time>2015-10-11T07:36:31Z</time>
      </trkpt>
      <trkpt lat="49.33558" lon="0.8738">
        <ele>115.43</ele>
        <time>2015-10-11T07:36:32Z</time>
      </trkpt>
      <trkpt lat="49.3355" lon="0.87372">
        <ele>116.46</ele>
        <time>2015-10-11T07:36:35Z</time>
      </trkpt>
      <trkpt lat="49.33542" lon="0.87365">
        <ele>118.11</ele>
        <time>2015-10-11T07:36:36Z</time>
      </trkpt>
      <trkpt lat="49.33534" lon="0.87356">
        <ele>119.26</ele>
        <time>2015-10-11T07:36:39Z</time>
      </trkpt>
      <trkpt lat="49.33526" lon="0.8735">
        <ele>120.62</ele>
        <time>2015-10-11T07:36:40Z</time>
      </trkpt>
      <trkpt lat="49.33517" lon="0.87347">
        <ele>122.5</ele>
        <time>2015-10-11T07:36:43Z</time>
      </trkpt>
      <trkpt lat="49.33508" lon="0.87342">
        <ele>123.57</ele>
        <time>2015-10-11T07:36:44Z</time>
      </trkpt>
      <trkpt lat="49.33499" lon="0.87337">
        <ele>125.74</ele>
        <time>2015-10-11T07:36:47Z</time>
      </trkpt>
      <trkpt lat="49.33491" lon="0.87334">
        <ele>127.24</ele>
        <time>2015-10-11T07:36:48Z</time>
      </trkpt>
      <trkpt lat="49.33481" lon="0.87329">
        <ele>128.61</ele>
        <time>2015-10-11T07:36:51Z</time>
      </trkpt>
      <trkpt lat="49.33472" lon="0.87325">
        <ele>129.86</ele>
        <time>2015-10-11T07:36:52Z</time>
      </trkpt>
      <trkpt lat="49.33461" lon="0.8732">
        <ele>131.15</ele>
        <time>2015-10-11T07:36:55Z</time>
      </trkpt>
      <trkpt lat="49.33452" lon="0.87316">
        <ele>131.85</ele>
        <time>2015-10-11T07:36:56Z</time>
      </trkpt>
      <trkpt lat="49.33443" lon="0.87313">
        <ele>131.29</ele>
        <time>2015-10-11T07:36:59Z</time>
      </trkpt>
      <trkpt lat="49.33435" lon="0.87306">
        <ele>130.63</ele>
        <time>2015-10-11T07:37:00Z</time>
      </trkpt>
      <trkpt lat="49.33426" lon="0.87298">
        <ele>129.74</ele>
        <time>2015-10-11T07:37:03Z</time>
      </trkpt>
      <trkpt lat="49.33416" lon="0.87293">
        <ele>129.39</ele>
        <time>2015-10-11T07:37:04Z</time>
      </trkpt>
      <trkpt lat="49.33406" lon="0.87289">
        <ele>129.62</ele>
        <time>2015-10-11T07:37:07Z</time>
      </trkpt>
      <trkpt lat="49.33395" lon="0.87289">
        <ele>130.07</ele>
        <time>2015-10-11T07:37:08Z</time>
      </trkpt>
      <trkpt lat="49.33386" lon="0.87289">
        <ele>130.81</ele>
        <time>2015-10-11T07:37:11Z</time>
      </trkpt>
      <trkpt lat="49.33376" lon="0.87288">
        <ele>130.86</ele>
        <time>2015-10-11T07:37:12Z</time>
      </trkpt>
      <trkpt lat="49.33367" lon="0.87285">
        <ele>130.1</ele>
        <time>2015-10-11T07:37:15Z</time>
      </trkpt>
      <trkpt lat="49.33357" lon="0.87282">
        <ele>129.47</ele>
        <time>2015-10-11T07:37:16Z</time>
      </trkpt>
      <trkpt lat="49.33349" lon="0.87274">
        <ele>129.4</ele>
        <time>2015-10-11T07:37:19Z</time>
      </trkpt>
      <trkpt lat="49.33338" lon="0.87265">
        <ele>129.2</ele>
        <time>2015-10-11T07:37:20Z</time>
      </trkpt>
      <trkpt lat="49.33326" lon="0.8726">
        <ele>128.62</ele>
        <time>2015-10-11T07:37:23Z</time>
      </trkpt>
      <trkpt lat="49.33319" lon="0.87264">
        <ele>128.08</ele>
        <time>2015-10-11T07:37:24Z</time>
      </trkpt>
      <trkpt lat="49.3331" lon="0.87268">
        <ele>127.05</ele>
        <time>2015-10-11T07:37:27Z</time>
      </trkpt>
      <trkpt lat="49.33302" lon="0.87273">
        <ele>125.82</ele>
        <time>2015-10-11T07:37:28Z</time>
      </trkpt>
      <trkpt lat="49.33297" lon="0.87282">
        <ele>125.08</ele>
        <time>2015-10-11T07:37:31Z</time>
      </trkpt>
      <trkpt lat="49.33294" lon="0.87294">
        <ele>124.6</ele>
        <time>2015-10-11T07:37:32Z</time>
      </trkpt>
      <trkpt lat="49.33292" lon="0.87309">
        <ele>124.12</ele>
        <time>2015-10-11T07:37:35Z</time>
      </trkpt>
      <trkpt lat="49.33291" lon="0.87321">
        <ele>123.85</ele>
        <time>2015-10-11T07:37:36Z</time>
      </trkpt>
      <trkpt lat="49.33289" lon="0.87336">
        <ele>123.85</ele>
        <time>2015-10-11T07:37:39Z</time>
      </trkpt>
      <trkpt lat="49.33288" lon="0.87349">
        <ele>124.97</ele>
        <time>2015-10-11T07:37:40Z</time>
      </trkpt>
      <trkpt lat="49.33287" lon="0.87361">
        <ele>125.96</ele>
        <time>2015-10-11T07:37:43Z</time>
      </trkpt>
      <trkpt lat="49.33284" lon="0.87378">
        <ele>127.09</ele>
        <time>2015-10-11T07:37:44Z</time>
      </trkpt>
      <trkpt lat="49.33283" lon="0.87391">
        <ele>128.27</ele>
        <time>2015-10-11T07:37:47Z</time>
      </trkpt>
      <trkpt lat="49.33281" lon="0.87405">
        <ele>128.87</ele>
        <time>2015-10-11T07:37:48Z</time>
      </trkpt>
      <trkpt lat="49.33278" lon="0.8742">
        <ele>129.46</ele>
        <time>2015-10-11T07:37:51Z</time>
      </trkpt>
      <trkpt lat="49.33276" lon="0.87433">
        <ele>129.87</ele>
        <time>2015-10-11T07:37:52Z</time>
      </trkpt>
      <trkpt lat="49.33273" lon="0.87446">
        <ele>130.51</ele>
        <time>2015-10-11T07:37:55Z</time>
      </trkpt>
      <trkpt lat="49.33272" lon="0.87458">
        <ele>130.9</ele>
        <time>2015-10-11T07:37:56Z</time>
      </trkpt>
      <trkpt lat="49.3327" lon="0.8747">
        <ele>131.11</ele>
        <time>2015-10-11T07:37:59Z</time>
      </trkpt>
      <trkpt lat="49.33268" lon="0.87483">
        <ele>131.01</ele>
        <time>2015-10-11T07:38:00Z</time>
      </trkpt>
      <trkpt lat="49.33266" lon="0.87499">
        <ele>130.79</ele>
        <time>2015-10-11T07:38:03Z</time>
      </trkpt>
      <trkpt lat="49.33264" lon="0.87512">
        <ele>130.66</ele>
        <time>2015-10-11T07:38:04Z</time>
      </trkpt>
      <trkpt lat="49.33263" lon="0.87527">
        <ele>129.83</ele>
        <time>2015-10-11T07:38:07Z</time>
      </trkpt>
      <trkpt lat="49.3326" lon="0.87541">
        <ele>129.88</ele>
        <time>2015-10-11T07:38:08Z</time>
      </trkpt>
      <trkpt lat="49.33259" lon="0.87556">
        <ele>129.69</ele>
        <time>2015-10-11T07:38:11Z</time>
      </trkpt>
      <trkpt lat="49.33257" lon="0.8757">
        <ele>129.64</ele>
        <time>2015-10-11T07:38:12Z</time>
      </trkpt>
      <trkpt lat="49.33255" lon="0.87581">
        <ele>129.58</ele>
        <time>2015-10-11T07:38:15Z</time>
      </trkpt>
      <trkpt lat="49.33254" lon="0.87596">
        <ele>129.25</ele>
        <time>2015-10-11T07:38:16Z</time>
      </trkpt>
      <trkpt lat="49.3325" lon="0.87611">
        <ele>130.45</ele>
        <time>2015-10-11T07:38:19Z</time>
      </trkpt>
      <trkpt lat="49.33247" lon="0.87625">
        <ele>132.35</ele>
        <time>2015-10-11T07:38:20Z</time>
      </trkpt>
      <trkpt lat="49.33245" lon="0.87637">
        <ele>133.34</ele>
        <time>2015-10-11T07:38:23Z</time>
      </trkpt>
      <trkpt lat="49.33243" lon="0.8765">
        <ele>133.66</ele>
        <time>2015-10-11T07:38:24Z</time>
      </trkpt>
      <trkpt lat="49.33241" lon="0.87661">
        <ele>133.7</ele>
        <time>2015-10-11T07:38:27Z</time>
      </trkpt>
      <trkpt lat="49.33238" lon="0.87672">
        <ele>133.74</ele>
        <time>2015-10-11T07:38:28Z</time>
      </trkpt>
      <trkpt lat="49.33237" lon="0.87684">
        <ele>133.81</ele>
        <time>2015-10-11T07:38:31Z</time>
      </trkpt>
      <trkpt lat="49.33235" lon="0.87694">
        <ele>133.84</ele>
        <time>2015-10-11T07:38:32Z</time>
      </trkpt>
      <trkpt lat="49.33234" lon="0.87702">
        <ele>133.78</ele>
        <time>2015-10-11T07:38:35Z</time>
      </trkpt>
      <trkpt lat="49.33231" lon="0.87708">
        <ele>133.56</ele>
        <time>2015-10-11T07:38:39Z</time>
      </trkpt>
      <trkpt lat="49.33234" lon="0.87701">
        <ele>132.95</ele>
        <time>2015-10-11T07:38:44Z</time>
      </trkpt>
      <trkpt lat="49.33236" lon="0.87693">
        <ele>132.8</ele>
        <time>2015-10-11T07:38:47Z</time>
      </trkpt>
      <trkpt lat="49.33238" lon="0.87683">
        <ele>132.64</ele>
        <time>2015-10-11T07:38:48Z</time>
      </trkpt>
      <trkpt lat="49.33239" lon="0.87674">
        <ele>132.56</ele>
        <time>2015-10-11T07:38:51Z</time>
      </trkpt>
      <trkpt lat="49.33241" lon="0.87661">
        <ele>132.51</ele>
        <time>2015-10-11T07:38:52Z</time>
      </trkpt>
      <trkpt lat="49.33241" lon="0.87644">
        <ele>132.5</ele>
        <time>2015-10-11T07:38:55Z</time>
      </trkpt>
      <trkpt lat="49.33241" lon="0.87629">
        <ele>132.54</ele>
        <time>2015-10-11T07:38:56Z</time>
      </trkpt>
      <trkpt lat="49.33241" lon="0.87616">
        <ele>132.79</ele>
        <time>2015-10-11T07:38:59Z</time>
      </trkpt>
      <trkpt lat="49.33243" lon="0.87602">
        <ele>132.92</ele>
        <time>2015-10-11T07:39:00Z</time>
      </trkpt>
      <trkpt lat="49.33245" lon="0.87588">
        <ele>132.99</ele>
        <time>2015-10-11T07:39:03Z</time>
      </trkpt>
      <trkpt lat="49.33248" lon="0.87572">
        <ele>133.38</ele>
        <time>2015-10-11T07:39:04Z</time>
      </trkpt>
      <trkpt lat="49.33251" lon="0.8756">
        <ele>133.58</ele>
        <time>2015-10-11T07:39:07Z</time>
      </trkpt>
      <trkpt lat="49.33253" lon="0.87548">
        <ele>133.35</ele>
        <time>2015-10-11T07:39:08Z</time>
      </trkpt>
      <trkpt lat="49.33255" lon="0.87535">
        <ele>132.55</ele>
        <time>2015-10-11T07:39:11Z</time>
      </trkpt>
      <trkpt lat="49.33258" lon="0.87522">
        <ele>131.27</ele>
        <time>2015-10-11T07:39:12Z</time>
      </trkpt>
      <trkpt lat="49.3326" lon="0.87509">
        <ele>130.65</ele>
        <time>2015-10-11T07:39:15Z</time>
      </trkpt>
      <trkpt lat="49.33262" lon="0.87497">
        <ele>130.5</ele>
        <time>2015-10-11T07:39:16Z</time>
      </trkpt>
      <trkpt lat="49.33264" lon="0.87484">
        <ele>130.86</ele>
        <time>2015-10-11T07:39:19Z</time>
      </trkpt>
      <trkpt lat="49.33267" lon="0.87472">
        <ele>131.4</ele>
        <time>2015-10-11T07:39:20Z</time>
      </trkpt>
      <trkpt lat="49.33269" lon="0.87458">
        <ele>131.86</ele>
        <time>2015-10-11T07:39:24Z</time>
      </trkpt>
      <trkpt lat="49.33271" lon="0.87452">
        <ele>131.99</ele>
        <time>2015-10-11T07:39:27Z</time>
      </trkpt>
      <trkpt lat="49.33274" lon="0.87444">
        <ele>132.11</ele>
        <time>2015-10-11T07:39:28Z</time>
      </trkpt>
      <trkpt lat="49.33276" lon="0.87432">
        <ele>132.22</ele>
        <time>2015-10-11T07:39:31Z</time>
      </trkpt>
      <trkpt lat="49.33276" lon="0.87417">
        <ele>131.78</ele>
        <time>2015-10-11T07:39:32Z</time>
      </trkpt>
      <trkpt lat="49.33279" lon="0.87401">
        <ele>131.04</ele>
        <time>2015-10-11T07:39:35Z</time>
      </trkpt>
      <trkpt lat="49.3328" lon="0.87386">
        <ele>130.61</ele>
        <time>2015-10-11T07:39:36Z</time>
      </trkpt>
      <trkpt lat="49.33282" lon="0.87368">
        <ele>130.75</ele>
        <time>2015-10-11T07:39:39Z</time>
      </trkpt>
      <trkpt lat="49.33284" lon="0.87352">
        <ele>130.62</ele>
        <time>2015-10-11T07:39:40Z</time>
      </trkpt>
      <trkpt lat="49.33286" lon="0.87336">
        <ele>130.13</ele>
        <time>2015-10-11T07:39:43Z</time>
      </trkpt>
      <trkpt lat="49.33289" lon="0.87321">
        <ele>129.37</ele>
        <time>2015-10-11T07:39:44Z</time>
      </trkpt>
      <trkpt lat="49.33291" lon="0.87304">
        <ele>128.44</ele>
        <time>2015-10-11T07:39:47Z</time>
      </trkpt>
      <trkpt lat="49.33294" lon="0.87286">
        <ele>128.08</ele>
        <time>2015-10-11T07:39:48Z</time>
      </trkpt>
      <trkpt lat="49.33297" lon="0.87269">
        <ele>127.28</ele>
        <time>2015-10-11T07:39:51Z</time>
      </trkpt>
      <trkpt lat="49.33294" lon="0.87259">
        <ele>126.82</ele>
        <time>2015-10-11T07:39:52Z</time>
      </trkpt>
      <trkpt lat="49.3329" lon="0.87251">
        <ele>126.59</ele>
        <time>2015-10-11T07:39:55Z</time>
      </trkpt>
      <trkpt lat="49.33287" lon="0.87243">
        <ele>126.51</ele>
        <time>2015-10-11T07:39:56Z</time>
      </trkpt>
      <trkpt lat="49.33285" lon="0.87231">
        <ele>126.52</ele>
        <time>2015-10-11T07:39:59Z</time>
      </trkpt>
      <trkpt lat="49.33281" lon="0.87225">
        <ele>126.54</ele>
        <time>2015-10-11T07:40:00Z</time>
      </trkpt>
      <trkpt lat="49.33274" lon="0.8722">
        <ele>126.53</ele>
        <time>2015-10-11T07:40:03Z</time>
      </trkpt>
      <trkpt lat="49.33267" lon="0.87219">
        <ele>126.55</ele>
        <time>2015-10-11T07:40:04Z</time>
      </trkpt>
      <trkpt lat="49.3326" lon="0.87218">
        <ele>126.53</ele>
        <time>2015-10-11T07:40:07Z</time>
      </trkpt>
      <trkpt lat="49.33251" lon="0.87214">
        <ele>126.5</ele>
        <time>2015-10-11T07:40:08Z</time>
      </trkpt>
      <trkpt lat="49.33242" lon="0.87209">
        <ele>126.18</ele>
        <time>2015-10-11T07:40:11Z</time>
      </trkpt>
      <trkpt lat="49.33234" lon="0.87204">
        <ele>125.97</ele>
        <time>2015-10-11T07:40:12Z</time>
      </trkpt>
      <trkpt lat="49.33226" lon="0.87194">
        <ele>126.03</ele>
        <time>2015-10-11T07:40:15Z</time>
      </trkpt>
      <trkpt lat="49.33218" lon="0.87181">
        <ele>125.44</ele>
        <time>2015-10-11T07:40:16Z</time>
      </trkpt>
      <trkpt lat="49.33212" lon="0.87168">
        <ele>124.72</ele>
        <time>2015-10-11T07:40:19Z</time>
      </trkpt>
      <trkpt lat="49.33203" lon="0.87156">
        <ele>123.9</ele>
        <time>2015-10-11T07:40:20Z</time>
      </trkpt>
      <trkpt lat="49.3319" lon="0.87146">
        <ele>122.98</ele>
        <time>2015-10-11T07:40:23Z</time>
      </trkpt>
      <trkpt lat="49.33182" lon="0.8714">
        <ele>122.45</ele>
        <time>2015-10-11T07:40:24Z</time>
      </trkpt>
      <trkpt lat="49.33175" lon="0.87133">
        <ele>122.1</ele>
        <time>2015-10-11T07:40:27Z</time>
      </trkpt>
      <trkpt lat="49.33165" lon="0.87125">
        <ele>122.52</ele>
        <time>2015-10-11T07:40:28Z</time>
      </trkpt>
      <trkpt lat="49.33158" lon="0.87118">
        <ele>122.79</ele>
        <time>2015-10-11T07:40:31Z</time>
      </trkpt>
      <trkpt lat="49.33152" lon="0.87106">
        <ele>123.31</ele>
        <time>2015-10-11T07:40:32Z</time>
      </trkpt>
      <trkpt lat="49.33145" lon="0.87093">
        <ele>123.34</ele>
        <time>2015-10-11T07:40:35Z</time>
      </trkpt>
      <trkpt lat="49.33138" lon="0.87078">
        <ele>123.17</ele>
        <time>2015-10-11T07:40:36Z</time>
      </trkpt>
      <trkpt lat="49.33129" lon="0.87068">
        <ele>123.33</ele>
        <time>2015-10-11T07:40:39Z</time>
      </trkpt>
      <trkpt lat="49.33121" lon="0.87056">
        <ele>123.97</ele>
        <time>2015-10-11T07:40:40Z</time>
      </trkpt>
      <trkpt lat="49.33112" lon="0.87047">
        <ele>124.64</ele>
        <time>2015-10-11T07:40:43Z</time>
      </trkpt>
      <trkpt lat="49.33103" lon="0.87037">
        <ele>125.03</ele>
        <time>2015-10-11T07:40:44Z</time>
      </trkpt>
      <trkpt lat="49.33096" lon="0.87027">
        <ele>125.18</ele>
        <time>2015-10-11T07:40:47Z</time>
      </trkpt>
      <trkpt lat="49.3309" lon="0.87014">
        <ele>125.85</ele>
        <time>2015-10-11T07:40:48Z</time>
      </trkpt>
      <trkpt lat="49.33086" lon="0.87">
        <ele>126.13</ele>
        <time>2015-10-11T07:40:51Z</time>
      </trkpt>
      <trkpt lat="49.33082" lon="0.86988">
        <ele>126.25</ele>
        <time>2015-10-11T07:40:52Z</time>
      </trkpt>
      <trkpt lat="49.3308" lon="0.86976">
        <ele>126.06</ele>
        <time>2015-10-11T07:40:55Z</time>
      </trkpt>
      <trkpt lat="49.33075" lon="0.86964">
        <ele>125.53</ele>
        <time>2015-10-11T07:40:56Z</time>
      </trkpt>
      <trkpt lat="49.33069" lon="0.8695">
        <ele>124.24</ele>
        <time>2015-10-11T07:40:59Z</time>
      </trkpt>
      <trkpt lat="49.33064" lon="0.86936">
        <ele>123.06</ele>
        <time>2015-10-11T07:41:00Z</time>
      </trkpt>
      <trkpt lat="49.33057" lon="0.86923">
        <ele>122.21</ele>
        <time>2015-10-11T07:41:03Z</time>
      </trkpt>
      <trkpt lat="49.3305" lon="0.8691">
        <ele>121.37</ele>
        <time>2015-10-11T07:41:04Z</time>
      </trkpt>
      <trkpt lat="49.33043" lon="0.86901">
        <ele>120.62</ele>
        <time>2015-10-11T07:41:07Z</time>
      </trkpt>
      <trkpt lat="49.33033" lon="0.86892">
        <ele>120.08</ele>
        <time>2015-10-11T07:41:08Z</time>
      </trkpt>
      <trkpt lat="49.33022" lon="0.86888">
        <ele>119.57</ele>
        <time>2015-10-11T07:41:11Z</time>
      </trkpt>
      <trkpt lat="49.33015" lon="0.86884">
        <ele>119.42</ele>
        <time>2015-10-11T07:41:12Z</time>
      </trkpt>
      <trkpt lat="49.33004" lon="0.86884">
        <ele>119.76</ele>
        <time>2015-10-11T07:41:15Z</time>
      </trkpt>
      <trkpt lat="49.32992" lon="0.86884">
        <ele>120.46</ele>
        <time>2015-10-11T07:41:16Z</time>
      </trkpt>
      <trkpt lat="49.32981" lon="0.86886">
        <ele>121.64</ele>
        <time>2015-10-11T07:41:19Z</time>
      </trkpt>
      <trkpt lat="49.3297" lon="0.86886">
        <ele>122.33</ele>
        <time>2015-10-11T07:41:20Z</time>
      </trkpt>
      <trkpt lat="49.32957" lon="0.86887">
        <ele>122.59</ele>
        <time>2015-10-11T07:41:23Z</time>
      </trkpt>
      <trkpt lat="49.32946" lon="0.86889">
        <ele>122.55</ele>
        <time>2015-10-11T07:41:24Z</time>
      </trkpt>
      <trkpt lat="49.32934" lon="0.86891">
        <ele>122.43</ele>
        <time>2015-10-11T07:41:27Z</time>
      </trkpt>
      <trkpt lat="49.32921" lon="0.86892">
        <ele>121.92</ele>
        <time>2015-10-11T07:41:28Z</time>
      </trkpt>
      <trkpt lat="49.32908" lon="0.86893">
        <ele>120.82</ele>
        <time>2015-10-11T07:41:31Z</time>
      </trkpt>
      <trkpt lat="49.32895" lon="0.86893">
        <ele>119.48</ele>
        <time>2015-10-11T07:41:32Z</time>
      </trkpt>
      <trkpt lat="49.32882" lon="0.86892">
        <ele>118.68</ele>
        <time>2015-10-11T07:41:35Z</time>
      </trkpt>
      <trkpt lat="49.3287" lon="0.86889">
        <ele>119.02</ele>
        <time>2015-10-11T07:41:36Z</time>
      </trkpt>
      <trkpt lat="49.32857" lon="0.86889">
        <ele>119.5</ele>
        <time>2015-10-11T07:41:39Z</time>
      </trkpt>
      <trkpt lat="49.32843" lon="0.86887">
        <ele>119.43</ele>
        <time>2015-10-11T07:41:40Z</time>
      </trkpt>
      <trkpt lat="49.3283" lon="0.86878">
        <ele>118.78</ele>
        <time>2015-10-11T07:41:43Z</time>
      </trkpt>
      <trkpt lat="49.32824" lon="0.86873">
        <ele>118.35</ele>
        <time>2015-10-11T07:41:44Z</time>
      </trkpt>
      <trkpt lat="49.32818" lon="0.86859">
        <ele>117.41</ele>
        <time>2015-10-11T07:41:47Z</time>
      </trkpt>
      <trkpt lat="49.32809" lon="0.86855">
        <ele>116.4</ele>
        <time>2015-10-11T07:41:48Z</time>
      </trkpt>
      <trkpt lat="49.32801" lon="0.86849">
        <ele>115.6</ele>
        <time>2015-10-11T07:41:51Z</time>
      </trkpt>
      <trkpt lat="49.32794" lon="0.86844">
        <ele>113.87</ele>
        <time>2015-10-11T07:41:52Z</time>
      </trkpt>
      <trkpt lat="49.32787" lon="0.86839">
        <ele>112.55</ele>
        <time>2015-10-11T07:41:55Z</time>
      </trkpt>
      <trkpt lat="49.3278" lon="0.86831">
        <ele>111.98</ele>
        <time>2015-10-11T07:41:56Z</time>
      </trkpt>
      <trkpt lat="49.32774" lon="0.86823">
        <ele>111.62</ele>
        <time>2015-10-11T07:41:59Z</time>
      </trkpt>
      <trkpt lat="49.32767" lon="0.86816">
        <ele>110.44</ele>
        <time>2015-10-11T07:42:00Z</time>
      </trkpt>
      <trkpt lat="49.32758" lon="0.86808">
        <ele>109.43</ele>
        <time>2015-10-11T07:42:03Z</time>
      </trkpt>
      <trkpt lat="49.32748" lon="0.86799">
        <ele>109.2</ele>
        <time>2015-10-11T07:42:04Z</time>
      </trkpt>
      <trkpt lat="49.3274" lon="0.86791">
        <ele>109.41</ele>
        <time>2015-10-11T07:42:07Z</time>
      </trkpt>
      <trkpt lat="49.3273" lon="0.86782">
        <ele>109.41</ele>
        <time>2015-10-11T07:42:08Z</time>
      </trkpt>
      <trkpt lat="49.32721" lon="0.86774">
        <ele>108.94</ele>
        <time>2015-10-11T07:42:11Z</time>
      </trkpt>
      <trkpt lat="49.32711" lon="0.86766">
        <ele>108.57</ele>
        <time>2015-10-11T07:42:12Z</time>
      </trkpt>
      <trkpt lat="49.32701" lon="0.86759">
        <ele>108.17</ele>
        <time>2015-10-11T07:42:15Z</time>
      </trkpt>
      <trkpt lat="49.32692" lon="0.86754">
        <ele>108.45</ele>
        <time>2015-10-11T07:42:16Z</time>
      </trkpt>
      <trkpt lat="49.32683" lon="0.86749">
        <ele>109.35</ele>
        <time>2015-10-11T07:42:19Z</time>
      </trkpt>
      <trkpt lat="49.32674" lon="0.86743">
        <ele>110.72</ele>
        <time>2015-10-11T07:42:20Z</time>
      </trkpt>
      <trkpt lat="49.32664" lon="0.86738">
        <ele>112.19</ele>
        <time>2015-10-11T07:42:23Z</time>
      </trkpt>
      <trkpt lat="49.32654" lon="0.86733">
        <ele>112.95</ele>
        <time>2015-10-11T07:42:24Z</time>
      </trkpt>
      <trkpt lat="49.32645" lon="0.86726">
        <ele>113.64</ele>
        <time>2015-10-11T07:42:27Z</time>
      </trkpt>
      <trkpt lat="49.32637" lon="0.8672">
        <ele>114.8</ele>
        <time>2015-10-11T07:42:28Z</time>
      </trkpt>
      <trkpt lat="49.32628" lon="0.86713">
        <ele>116.12</ele>
        <time>2015-10-11T07:42:31Z</time>
      </trkpt>
      <trkpt lat="49.32619" lon="0.86706">
        <ele>116.91</ele>
        <time>2015-10-11T07:42:32Z</time>
      </trkpt>
      <trkpt lat="49.32609" lon="0.86699">
        <ele>117.21</ele>
        <time>2015-10-11T07:42:35Z</time>
      </trkpt>
      <trkpt lat="49.32599" lon="0.86693">
        <ele>117.39</ele>
        <time>2015-10-11T07:42:36Z</time>
      </trkpt>
      <trkpt lat="49.32589" lon="0.86689">
        <ele>117.55</ele>
        <time>2015-10-11T07:42:39Z</time>
      </trkpt>
      <trkpt lat="49.3258" lon="0.86682">
        <ele>118.02</ele>
        <time>2015-10-11T07:42:40Z</time>
      </trkpt>
      <trkpt lat="49.32576" lon="0.86668">
        <ele>118.31</ele>
        <time>2015-10-11T07:42:43Z</time>
      </trkpt>
      <trkpt lat="49.32577" lon="0.86651">
        <ele>118.65</ele>
        <time>2015-10-11T07:42:44Z</time>
      </trkpt>
      <trkpt lat="49.32579" lon="0.86637">
        <ele>118.57</ele>
        <time>2015-10-11T07:42:47Z</time>
      </trkpt>
      <trkpt lat="49.3258" lon="0.86629">
        <ele>118.53</ele>
        <time>2015-10-11T07:42:48Z</time>
      </trkpt>
      <trkpt lat="49.32581" lon="0.86616">
        <ele>118.67</ele>
        <time>2015-10-11T07:42:51Z</time>
      </trkpt>
      <trkpt lat="49.32583" lon="0.86601">
        <ele>119.35</ele>
        <time>2015-10-11T07:42:52Z</time>
      </trkpt>
      <trkpt lat="49.3258" lon="0.8659">
        <ele>119.66</ele>
        <time>2015-10-11T07:42:55Z</time>
      </trkpt>
      <trkpt lat="49.32571" lon="0.86577">
        <ele>120.14</ele>
        <time>2015-10-11T07:42:56Z</time>
      </trkpt>
      <trkpt lat="49.32565" lon="0.86566">
        <ele>120.27</ele>
        <time>2015-10-11T07:42:59Z</time>
      </trkpt>
      <trkpt lat="49.32559" lon="0.86555">
        <ele>120.4</ele>
        <time>2015-10-11T07:43:00Z</time>
      </trkpt>
      <trkpt lat="49.32554" lon="0.86543">
        <ele>120.59</ele>
        <time>2015-10-11T07:43:03Z</time>
      </trkpt>
      <trkpt lat="49.32545" lon="0.86532">
        <ele>120.28</ele>
        <time>2015-10-11T07:43:04Z</time>
      </trkpt>
      <trkpt lat="49.32535" lon="0.86523">
        <ele>120.2</ele>
        <time>2015-10-11T07:43:07Z</time>
      </trkpt>
      <trkpt lat="49.32527" lon="0.86514">
        <ele>119.91</ele>
        <time>2015-10-11T07:43:08Z</time>
      </trkpt>
      <trkpt lat="49.3252" lon="0.86501">
        <ele>119.89</ele>
        <time>2015-10-11T07:43:11Z</time>
      </trkpt>
      <trkpt lat="49.32512" lon="0.86495">
        <ele>120.26</ele>
        <time>2015-10-11T07:43:12Z</time>
      </trkpt>
      <trkpt lat="49.32506" lon="0.86484">
        <ele>120.37</ele>
        <time>2015-10-11T07:43:15Z</time>
      </trkpt>
      <trkpt lat="49.32504" lon="0.86473">
        <ele>119.76</ele>
        <time>2015-10-11T07:43:16Z</time>
      </trkpt>
      <trkpt lat="49.32505" lon="0.86459">
        <ele>118.29</ele>
        <time>2015-10-11T07:43:19Z</time>
      </trkpt>
      <trkpt lat="49.325" lon="0.86447">
        <ele>116.81</ele>
        <time>2015-10-11T07:43:20Z</time>
      </trkpt>
      <trkpt lat="49.32491" lon="0.86436">
        <ele>116.03</ele>
        <time>2015-10-11T07:43:23Z</time>
      </trkpt>
      <trkpt lat="49.32487" lon="0.86421">
        <ele>115.68</ele>
        <time>2015-10-11T07:43:24Z</time>
      </trkpt>
      <trkpt lat="49.32484" lon="0.86408">
        <ele>116.01</ele>
        <time>2015-10-11T07:43:27Z</time>
      </trkpt>
      <trkpt lat="49.32481" lon="0.86392">
        <ele>117.07</ele>
        <time>2015-10-11T07:43:28Z</time>
      </trkpt>
      <trkpt lat="49.32475" lon="0.86376">
        <ele>117.98</ele>
        <time>2015-10-11T07:43:31Z</time>
      </trkpt>
      <trkpt lat="49.32469" lon="0.86363">
        <ele>118.46</ele>
        <time>2015-10-11T07:43:32Z</time>
      </trkpt>
      <trkpt lat="49.32467" lon="0.86348">
        <ele>117.71</ele>
        <time>2015-10-11T07:43:35Z</time>
      </trkpt>
      <trkpt lat="49.32471" lon="0.86331">
        <ele>115.95</ele>
        <time>2015-10-11T07:43:36Z</time>
      </trkpt>
      <trkpt lat="49.32479" lon="0.86323">
        <ele>114.69</ele>
        <time>2015-10-11T07:43:39Z</time>
      </trkpt>
      <trkpt lat="49.32488" lon="0.86318">
        <ele>113.71</ele>
        <time>2015-10-11T07:43:40Z</time>
      </trkpt>
      <trkpt lat="49.32498" lon="0.86314">
        <ele>112.54</ele>
        <time>2015-10-11T07:43:43Z</time>
      </trkpt>
      <trkpt lat="49.32507" lon="0.86317">
        <ele>111.64</ele>
        <time>2015-10-11T07:43:44Z</time>
      </trkpt>
      <trkpt lat="49.32516" lon="0.86319">
        <ele>111.48</ele>
        <time>2015-10-11T07:43:47Z</time>
      </trkpt>
      <trkpt lat="49.32525" lon="0.86316">
        <ele>111.01</ele>
        <time>2015-10-11T07:43:48Z</time>
      </trkpt>
      <trkpt lat="49.32538" lon="0.86315">
        <ele>110.04</ele>
        <time>2015-10-11T07:43:51Z</time>
      </trkpt>
      <trkpt lat="49.32554" lon="0.86316">
        <ele>108.54</ele>
        <time>2015-10-11T07:43:52Z</time>
      </trkpt>
      <trkpt lat="49.32571" lon="0.86312">
        <ele>107.2</ele>
        <time>2015-10-11T07:43:55Z</time>
      </trkpt>
      <trkpt lat="49.32587" lon="0.86308">
        <ele>105.61</ele>
        <time>2015-10-11T07:43:56Z</time>
      </trkpt>
      <trkpt lat="49.32601" lon="0.86303">
        <ele>103.84</ele>
        <time>2015-10-11T07:43:59Z</time>
      </trkpt>
      <trkpt lat="49.32611" lon="0.86303">
        <ele>102.54</ele>
        <time>2015-10-11T07:44:00Z</time>
      </trkpt>
      <trkpt lat="49.32622" lon="0.86297">
        <ele>101.35</ele>
        <time>2015-10-11T07:44:03Z</time>
      </trkpt>
      <trkpt lat="49.32634" lon="0.86298">
        <ele>100.49</ele>
        <time>2015-10-11T07:44:04Z</time>
      </trkpt>
      <trkpt lat="49.32645" lon="0.86304">
        <ele>99.58</ele>
        <time>2015-10-11T07:44:07Z</time>
      </trkpt>
      <trkpt lat="49.32657" lon="0.86307">
        <ele>98.15</ele>
        <time>2015-10-11T07:44:08Z</time>
      </trkpt>
      <trkpt lat="49.32668" lon="0.86312">
        <ele>97.07</ele>
        <time>2015-10-11T07:44:11Z</time>
      </trkpt>
      <trkpt lat="49.32679" lon="0.86316">
        <ele>95.42</ele>
        <time>2015-10-11T07:44:12Z</time>
      </trkpt>
      <trkpt lat="49.32691" lon="0.86319">
        <ele>94.26</ele>
        <time>2015-10-11T07:44:15Z</time>
      </trkpt>
      <trkpt lat="49.32702" lon="0.86322">
        <ele>93.44</ele>
        <time>2015-10-11T07:44:16Z</time>
      </trkpt>
      <trkpt lat="49.32715" lon="0.86319">
        <ele>92.99</ele>
        <time>2015-10-11T07:44:19Z</time>
      </trkpt>
      <trkpt lat="49.32727" lon="0.86315">
        <ele>92.72</ele>
        <time>2015-10-11T07:44:20Z</time>
      </trkpt>
      <trkpt lat="49.32737" lon="0.86312">
        <ele>92.45</ele>
        <time>2015-10-11T07:44:23Z</time>
      </trkpt>
      <trkpt lat="49.32748" lon="0.86309">
        <ele>92.26</ele>
        <time>2015-10-11T07:44:24Z</time>
      </trkpt>
      <trkpt lat="49.32758" lon="0.86307">
        <ele>92.09</ele>
        <time>2015-10-11T07:44:27Z</time>
      </trkpt>
      <trkpt lat="49.32769" lon="0.86303">
        <ele>92.11</ele>
        <time>2015-10-11T07:44:28Z</time>
      </trkpt>
      <trkpt lat="49.3278" lon="0.86298">
        <ele>92.07</ele>
        <time>2015-10-11T07:44:31Z</time>
      </trkpt>
      <trkpt lat="49.3279" lon="0.86294">
        <ele>91.73</ele>
        <time>2015-10-11T07:44:32Z</time>
      </trkpt>
      <trkpt lat="49.328" lon="0.8629">
        <ele>91.54</ele>
        <time>2015-10-11T07:44:35Z</time>
      </trkpt>
      <trkpt lat="49.3281" lon="0.86287">
        <ele>91.76</ele>
        <time>2015-10-11T07:44:36Z</time>
      </trkpt>
      <trkpt lat="49.32813" lon="0.86281">
        <ele>91.93</ele>
        <time>2015-10-11T07:44:40Z</time>
      </trkpt>
      <trkpt lat="49.32818" lon="0.86264">
        <ele>92.07</ele>
        <time>2015-10-11T07:44:44Z</time>
      </trkpt>
      <trkpt lat="49.32823" lon="0.86251">
        <ele>92.06</ele>
        <time>2015-10-11T07:44:46Z</time>
      </trkpt>
      <trkpt lat="49.32832" lon="0.86231">
        <ele>92.11</ele>
        <time>2015-10-11T07:44:52Z</time>
      </trkpt>
      <trkpt lat="49.3283" lon="0.86221">
        <ele>92.31</ele>
        <time>2015-10-11T07:44:53Z</time>
      </trkpt>
      <trkpt lat="49.32825" lon="0.8622">
        <ele>95.08</ele>
        <time>2015-10-11T07:45:05Z</time>
      </trkpt>
      <trkpt lat="49.32815" lon="0.86212">
        <ele>95.78</ele>
        <time>2015-10-11T07:45:09Z</time>
      </trkpt>
      <trkpt lat="49.32809" lon="0.86205">
        <ele>96.07</ele>
        <time>2015-10-11T07:45:12Z</time>
      </trkpt>
      <trkpt lat="49.32804" lon="0.86201">
        <ele>96.28</ele>
        <time>2015-10-11T07:45:13Z</time>
      </trkpt>
      <trkpt lat="49.32798" lon="0.862">
        <ele>96.46</ele>
        <time>2015-10-11T07:45:16Z</time>
      </trkpt>
      <trkpt lat="49.32794" lon="0.86197">
        <ele>96.6</ele>
        <time>2015-10-11T07:45:17Z</time>
      </trkpt>
      <trkpt lat="49.32789" lon="0.86195">
        <ele>96.71</ele>
        <time>2015-10-11T07:45:20Z</time>
      </trkpt>
      <trkpt lat="49.32784" lon="0.86193">
        <ele>96.83</ele>
        <time>2015-10-11T07:45:21Z</time>
      </trkpt>
      <trkpt lat="49.3278" lon="0.86191">
        <ele>96.84</ele>
        <time>2015-10-11T07:45:24Z</time>
      </trkpt>
      <trkpt lat="49.32774" lon="0.86189">
        <ele>96.8</ele>
        <time>2015-10-11T07:45:25Z</time>
      </trkpt>
      <trkpt lat="49.32769" lon="0.86186">
        <ele>96.74</ele>
        <time>2015-10-11T07:45:28Z</time>
      </trkpt>
      <trkpt lat="49.32765" lon="0.86184">
        <ele>96.67</ele>
        <time>2015-10-11T07:45:29Z</time>
      </trkpt>
      <trkpt lat="49.32758" lon="0.86181">
        <ele>96.61</ele>
        <time>2015-10-11T07:45:33Z</time>
      </trkpt>
      <trkpt lat="49.32753" lon="0.86172">
        <ele>96.62</ele>
        <time>2015-10-11T07:45:37Z</time>
      </trkpt>
      <trkpt lat="49.32749" lon="0.86169">
        <ele>96.56</ele>
        <time>2015-10-11T07:45:40Z</time>
      </trkpt>
      <trkpt lat="49.32745" lon="0.86164">
        <ele>96.57</ele>
        <time>2015-10-11T07:45:41Z</time>
      </trkpt>
      <trkpt lat="49.32738" lon="0.86161">
        <ele>96.61</ele>
        <time>2015-10-11T07:45:45Z</time>
      </trkpt>
      <trkpt lat="49.32734" lon="0.86157">
        <ele>96.87</ele>
        <time>2015-10-11T07:45:49Z</time>
      </trkpt>
      <trkpt lat="49.32726" lon="0.86153">
        <ele>97.07</ele>
        <time>2015-10-11T07:45:53Z</time>
      </trkpt>
      <trkpt lat="49.32721" lon="0.86152">
        <ele>97.29</ele>
        <time>2015-10-11T07:45:56Z</time>
      </trkpt>
      <trkpt lat="49.32714" lon="0.86148">
        <ele>97.78</ele>
        <time>2015-10-11T07:46:00Z</time>
      </trkpt>
      <trkpt lat="49.32707" lon="0.86142">
        <ele>98.29</ele>
        <time>2015-10-11T07:46:04Z</time>
      </trkpt>
      <trkpt lat="49.327" lon="0.86135">
        <ele>99.08</ele>
        <time>2015-10-11T07:46:08Z</time>
      </trkpt>
      <trkpt lat="49.32696" lon="0.86132">
        <ele>99.5</ele>
        <time>2015-10-11T07:46:09Z</time>
      </trkpt>
      <trkpt lat="49.32691" lon="0.8613">
        <ele>100</ele>
        <time>2015-10-11T07:46:12Z</time>
      </trkpt>
      <trkpt lat="49.32683" lon="0.86125">
        <ele>100.98</ele>
        <time>2015-10-11T07:46:16Z</time>
      </trkpt>
      <trkpt lat="49.32676" lon="0.86119">
        <ele>101.36</ele>
        <time>2015-10-11T07:46:17Z</time>
      </trkpt>
      <trkpt lat="49.32669" lon="0.86109">
        <ele>101.67</ele>
        <time>2015-10-11T07:46:20Z</time>
      </trkpt>
      <trkpt lat="49.32665" lon="0.86104">
        <ele>101.97</ele>
        <time>2015-10-11T07:46:21Z</time>
      </trkpt>
      <trkpt lat="49.3266" lon="0.86104">
        <ele>102.23</ele>
        <time>2015-10-11T07:46:24Z</time>
      </trkpt>
      <trkpt lat="49.32656" lon="0.86099">
        <ele>102.46</ele>
        <time>2015-10-11T07:46:25Z</time>
      </trkpt>
      <trkpt lat="49.32648" lon="0.86094">
        <ele>102.97</ele>
        <time>2015-10-11T07:46:29Z</time>
      </trkpt>
      <trkpt lat="49.32643" lon="0.86091">
        <ele>103.23</ele>
        <time>2015-10-11T07:46:32Z</time>
      </trkpt>
      <trkpt lat="49.32638" lon="0.86089">
        <ele>103.54</ele>
        <time>2015-10-11T07:46:33Z</time>
      </trkpt>
      <trkpt lat="49.32631" lon="0.86085">
        <ele>103.81</ele>
        <time>2015-10-11T07:46:36Z</time>
      </trkpt>
      <trkpt lat="49.32624" lon="0.86081">
        <ele>103.97</ele>
        <time>2015-10-11T07:46:37Z</time>
      </trkpt>
      <trkpt lat="49.32617" lon="0.86077">
        <ele>104.05</ele>
        <time>2015-10-11T07:46:40Z</time>
      </trkpt>
      <trkpt lat="49.3261" lon="0.86074">
        <ele>104.07</ele>
        <time>2015-10-11T07:46:41Z</time>
      </trkpt>
      <trkpt lat="49.326" lon="0.86068">
        <ele>103.72</ele>
        <time>2015-10-11T07:46:44Z</time>
      </trkpt>
      <trkpt lat="49.32586" lon="0.8606">
        <ele>103.04</ele>
        <time>2015-10-11T07:46:45Z</time>
      </trkpt>
      <trkpt lat="49.3258" lon="0.86054">
        <ele>102.4</ele>
        <time>2015-10-11T07:46:48Z</time>
      </trkpt>
      <trkpt lat="49.32577" lon="0.86041">
        <ele>102.07</ele>
        <time>2015-10-11T07:46:49Z</time>
      </trkpt>
      <trkpt lat="49.3257" lon="0.86029">
        <ele>101.83</ele>
        <time>2015-10-11T07:46:53Z</time>
      </trkpt>
      <trkpt lat="49.32564" lon="0.86015">
        <ele>102</ele>
        <time>2015-10-11T07:46:57Z</time>
      </trkpt>
      <trkpt lat="49.32562" lon="0.86008">
        <ele>102.18</ele>
        <time>2015-10-11T07:47:00Z</time>
      </trkpt>
      <trkpt lat="49.32562" lon="0.86001">
        <ele>102.38</ele>
        <time>2015-10-11T07:47:01Z</time>
      </trkpt>
      <trkpt lat="49.32568" lon="0.8599">
        <ele>102.65</ele>
        <time>2015-10-11T07:47:05Z</time>
      </trkpt>
      <trkpt lat="49.32572" lon="0.85979">
        <ele>103.02</ele>
        <time>2015-10-11T07:47:09Z</time>
      </trkpt>
      <trkpt lat="49.32579" lon="0.85968">
        <ele>103.69</ele>
        <time>2015-10-11T07:47:13Z</time>
      </trkpt>
      <trkpt lat="49.32583" lon="0.8596">
        <ele>103.93</ele>
        <time>2015-10-11T07:47:16Z</time>
      </trkpt>
      <trkpt lat="49.32586" lon="0.85954">
        <ele>104.15</ele>
        <time>2015-10-11T07:47:17Z</time>
      </trkpt>
      <trkpt lat="49.3259" lon="0.85944">
        <ele>104.66</ele>
        <time>2015-10-11T07:47:21Z</time>
      </trkpt>
      <trkpt lat="49.32592" lon="0.85932">
        <ele>105.16</ele>
        <time>2015-10-11T07:47:25Z</time>
      </trkpt>
      <trkpt lat="49.32593" lon="0.85918">
        <ele>105.6</ele>
        <time>2015-10-11T07:47:29Z</time>
      </trkpt>
      <trkpt lat="49.32598" lon="0.85906">
        <ele>106.06</ele>
        <time>2015-10-11T07:47:33Z</time>
      </trkpt>
      <trkpt lat="49.32604" lon="0.85899">
        <ele>106.56</ele>
        <time>2015-10-11T07:47:37Z</time>
      </trkpt>
      <trkpt lat="49.32604" lon="0.85887">
        <ele>107.27</ele>
        <time>2015-10-11T07:47:41Z</time>
      </trkpt>
      <trkpt lat="49.32602" lon="0.85882">
        <ele>107.54</ele>
        <time>2015-10-11T07:47:44Z</time>
      </trkpt>
      <trkpt lat="49.32599" lon="0.85875">
        <ele>107.76</ele>
        <time>2015-10-11T07:47:45Z</time>
      </trkpt>
      <trkpt lat="49.32594" lon="0.85871">
        <ele>107.92</ele>
        <time>2015-10-11T07:47:48Z</time>
      </trkpt>
      <trkpt lat="49.3259" lon="0.85867">
        <ele>108.12</ele>
        <time>2015-10-11T07:47:49Z</time>
      </trkpt>
      <trkpt lat="49.3259" lon="0.8586">
        <ele>108.36</ele>
        <time>2015-10-11T07:47:52Z</time>
      </trkpt>
      <trkpt lat="49.32591" lon="0.85851">
        <ele>108.67</ele>
        <time>2015-10-11T07:47:53Z</time>
      </trkpt>
      <trkpt lat="49.32591" lon="0.85842">
        <ele>109.05</ele>
        <time>2015-10-11T07:47:56Z</time>
      </trkpt>
      <trkpt lat="49.32594" lon="0.85829">
        <ele>109.71</ele>
        <time>2015-10-11T07:48:00Z</time>
      </trkpt>
      <trkpt lat="49.32597" lon="0.85818">
        <ele>110.01</ele>
        <time>2015-10-11T07:48:01Z</time>
      </trkpt>
      <trkpt lat="49.326" lon="0.85812">
        <ele>110.32</ele>
        <time>2015-10-11T07:48:04Z</time>
      </trkpt>
      <trkpt lat="49.326" lon="0.85803">
        <ele>110.66</ele>
        <time>2015-10-11T07:48:05Z</time>
      </trkpt>
      <trkpt lat="49.32601" lon="0.85795">
        <ele>110.95</ele>
        <time>2015-10-11T07:48:08Z</time>
      </trkpt>
      <trkpt lat="49.32603" lon="0.85787">
        <ele>111.19</ele>
        <time>2015-10-11T07:48:09Z</time>
      </trkpt>
      <trkpt lat="49.32607" lon="0.85776">
        <ele>111.61</ele>
        <time>2015-10-11T07:48:13Z</time>
      </trkpt>
      <trkpt lat="49.32611" lon="0.85766">
        <ele>111.83</ele>
        <time>2015-10-11T07:48:16Z</time>
      </trkpt>
      <trkpt lat="49.32612" lon="0.8576">
        <ele>112.08</ele>
        <time>2015-10-11T07:48:17Z</time>
      </trkpt>
      <trkpt lat="49.32614" lon="0.85753">
        <ele>112.35</ele>
        <time>2015-10-11T07:48:20Z</time>
      </trkpt>
      <trkpt lat="49.32618" lon="0.85742">
        <ele>112.68</ele>
        <time>2015-10-11T07:48:21Z</time>
      </trkpt>
      <trkpt lat="49.3262" lon="0.85733">
        <ele>112.99</ele>
        <time>2015-10-11T07:48:24Z</time>
      </trkpt>
      <trkpt lat="49.32625" lon="0.85725">
        <ele>113.22</ele>
        <time>2015-10-11T07:48:25Z</time>
      </trkpt>
      <trkpt lat="49.32628" lon="0.85714">
        <ele>114</ele>
        <time>2015-10-11T07:48:28Z</time>
      </trkpt>
      <trkpt lat="49.32631" lon="0.85703">
        <ele>114.45</ele>
        <time>2015-10-11T07:48:29Z</time>
      </trkpt>
      <trkpt lat="49.32634" lon="0.85694">
        <ele>114.74</ele>
        <time>2015-10-11T07:48:32Z</time>
      </trkpt>
      <trkpt lat="49.32637" lon="0.85687">
        <ele>114.86</ele>
        <time>2015-10-11T07:48:33Z</time>
      </trkpt>
      <trkpt lat="49.32639" lon="0.8568">
        <ele>114.91</ele>
        <time>2015-10-11T07:48:36Z</time>
      </trkpt>
      <trkpt lat="49.3264" lon="0.85673">
        <ele>114.88</ele>
        <time>2015-10-11T07:48:37Z</time>
      </trkpt>
      <trkpt lat="49.32644" lon="0.85664">
        <ele>114.83</ele>
        <time>2015-10-11T07:48:40Z</time>
      </trkpt>
      <trkpt lat="49.32647" lon="0.85656">
        <ele>114.76</ele>
        <time>2015-10-11T07:48:41Z</time>
      </trkpt>
      <trkpt lat="49.32649" lon="0.85646">
        <ele>114.7</ele>
        <time>2015-10-11T07:48:44Z</time>
      </trkpt>
      <trkpt lat="49.32651" lon="0.85638">
        <ele>114.61</ele>
        <time>2015-10-11T07:48:45Z</time>
      </trkpt>
      <trkpt lat="49.32656" lon="0.85634">
        <ele>114.53</ele>
        <time>2015-10-11T07:48:48Z</time>
      </trkpt>
      <trkpt lat="49.32659" lon="0.85628">
        <ele>114.5</ele>
        <time>2015-10-11T07:48:49Z</time>
      </trkpt>
      <trkpt lat="49.32663" lon="0.85618">
        <ele>114.58</ele>
        <time>2015-10-11T07:48:52Z</time>
      </trkpt>
      <trkpt lat="49.32666" lon="0.85611">
        <ele>114.75</ele>
        <time>2015-10-11T07:48:53Z</time>
      </trkpt>
      <trkpt lat="49.32671" lon="0.85606">
        <ele>115.75</ele>
        <time>2015-10-11T07:48:56Z</time>
      </trkpt>
      <trkpt lat="49.32674" lon="0.85598">
        <ele>116.41</ele>
        <time>2015-10-11T07:48:57Z</time>
      </trkpt>
      <trkpt lat="49.32677" lon="0.8559">
        <ele>116.84</ele>
        <time>2015-10-11T07:49:00Z</time>
      </trkpt>
      <trkpt lat="49.32682" lon="0.85585">
        <ele>117.13</ele>
        <time>2015-10-11T07:49:01Z</time>
      </trkpt>
      <trkpt lat="49.32687" lon="0.85577">
        <ele>117.37</ele>
        <time>2015-10-11T07:49:04Z</time>
      </trkpt>
      <trkpt lat="49.3269" lon="0.85571">
        <ele>117.62</ele>
        <time>2015-10-11T07:49:05Z</time>
      </trkpt>
      <trkpt lat="49.32693" lon="0.85564">
        <ele>117.87</ele>
        <time>2015-10-11T07:49:08Z</time>
      </trkpt>
      <trkpt lat="49.32698" lon="0.85551">
        <ele>118.15</ele>
        <time>2015-10-11T07:49:12Z</time>
      </trkpt>
      <trkpt lat="49.32695" lon="0.85542">
        <ele>118.23</ele>
        <time>2015-10-11T07:49:13Z</time>
      </trkpt>
      <trkpt lat="49.32694" lon="0.85534">
        <ele>118.29</ele>
        <time>2015-10-11T07:49:16Z</time>
      </trkpt>
      <trkpt lat="49.32694" lon="0.85524">
        <ele>118.29</ele>
        <time>2015-10-11T07:49:17Z</time>
      </trkpt>
      <trkpt lat="49.32694" lon="0.85514">
        <ele>118.33</ele>
        <time>2015-10-11T07:49:20Z</time>
      </trkpt>
      <trkpt lat="49.32692" lon="0.85502">
        <ele>118.38</ele>
        <time>2015-10-11T07:49:21Z</time>
      </trkpt>
      <trkpt lat="49.32689" lon="0.85494">
        <ele>118.45</ele>
        <time>2015-10-11T07:49:24Z</time>
      </trkpt>
      <trkpt lat="49.32685" lon="0.85486">
        <ele>118.53</ele>
        <time>2015-10-11T07:49:25Z</time>
      </trkpt>
      <trkpt lat="49.32681" lon="0.85478">
        <ele>118.65</ele>
        <time>2015-10-11T07:49:28Z</time>
      </trkpt>
      <trkpt lat="49.32678" lon="0.8547">
        <ele>118.74</ele>
        <time>2015-10-11T07:49:29Z</time>
      </trkpt>
      <trkpt lat="49.32675" lon="0.85462">
        <ele>118.81</ele>
        <time>2015-10-11T07:49:32Z</time>
      </trkpt>
      <trkpt lat="49.32671" lon="0.85451">
        <ele>118.82</ele>
        <time>2015-10-11T07:49:33Z</time>
      </trkpt>
      <trkpt lat="49.32669" lon="0.85442">
        <ele>118.8</ele>
        <time>2015-10-11T07:49:36Z</time>
      </trkpt>
      <trkpt lat="49.32669" lon="0.8543">
        <ele>118.64</ele>
        <time>2015-10-11T07:49:37Z</time>
      </trkpt>
      <trkpt lat="49.3267" lon="0.8542">
        <ele>118.51</ele>
        <time>2015-10-11T07:49:40Z</time>
      </trkpt>
      <trkpt lat="49.3267" lon="0.85409">
        <ele>118.4</ele>
        <time>2015-10-11T07:49:41Z</time>
      </trkpt>
      <trkpt lat="49.32671" lon="0.85399">
        <ele>118.3</ele>
        <time>2015-10-11T07:49:44Z</time>
      </trkpt>
      <trkpt lat="49.32671" lon="0.8539">
        <ele>118.24</ele>
        <time>2015-10-11T07:49:45Z</time>
      </trkpt>
      <trkpt lat="49.32672" lon="0.85382">
        <ele>118.28</ele>
        <time>2015-10-11T07:49:48Z</time>
      </trkpt>
      <trkpt lat="49.32671" lon="0.85374">
        <ele>118.37</ele>
        <time>2015-10-11T07:49:49Z</time>
      </trkpt>
      <trkpt lat="49.32669" lon="0.85363">
        <ele>118.4</ele>
        <time>2015-10-11T07:49:52Z</time>
      </trkpt>
      <trkpt lat="49.32668" lon="0.85354">
        <ele>118.32</ele>
        <time>2015-10-11T07:49:53Z</time>
      </trkpt>
      <trkpt lat="49.32667" lon="0.85347">
        <ele>118.27</ele>
        <time>2015-10-11T07:49:56Z</time>
      </trkpt>
      <trkpt lat="49.32666" lon="0.85339">
        <ele>118.31</ele>
        <time>2015-10-11T07:49:57Z</time>
      </trkpt>
      <trkpt lat="49.32665" lon="0.85326">
        <ele>118.54</ele>
        <time>2015-10-11T07:50:01Z</time>
      </trkpt>
      <trkpt lat="49.32664" lon="0.85318">
        <ele>118.71</ele>
        <time>2015-10-11T07:50:04Z</time>
      </trkpt>
      <trkpt lat="49.32663" lon="0.8531">
        <ele>118.89</ele>
        <time>2015-10-11T07:50:05Z</time>
      </trkpt>
      <trkpt lat="49.32663" lon="0.85303">
        <ele>119.07</ele>
        <time>2015-10-11T07:50:08Z</time>
      </trkpt>
      <trkpt lat="49.32661" lon="0.85295">
        <ele>119.3</ele>
        <time>2015-10-11T07:50:09Z</time>
      </trkpt>
      <trkpt lat="49.32661" lon="0.85286">
        <ele>119.5</ele>
        <time>2015-10-11T07:50:12Z</time>
      </trkpt>
      <trkpt lat="49.32662" lon="0.85276">
        <ele>119.61</ele>
        <time>2015-10-11T07:50:13Z</time>
      </trkpt>
      <trkpt lat="49.32662" lon="0.85267">
        <ele>119.72</ele>
        <time>2015-10-11T07:50:16Z</time>
      </trkpt>
      <trkpt lat="49.32664" lon="0.85258">
        <ele>119.8</ele>
        <time>2015-10-11T07:50:17Z</time>
      </trkpt>
      <trkpt lat="49.32665" lon="0.85249">
        <ele>119.86</ele>
        <time>2015-10-11T07:50:20Z</time>
      </trkpt>
      <trkpt lat="49.32667" lon="0.85243">
        <ele>119.87</ele>
        <time>2015-10-11T07:50:21Z</time>
      </trkpt>
      <trkpt lat="49.32669" lon="0.85235">
        <ele>119.9</ele>
        <time>2015-10-11T07:50:24Z</time>
      </trkpt>
      <trkpt lat="49.32674" lon="0.85221">
        <ele>119.95</ele>
        <time>2015-10-11T07:50:28Z</time>
      </trkpt>
      <trkpt lat="49.32677" lon="0.8521">
        <ele>119.99</ele>
        <time>2015-10-11T07:50:29Z</time>
      </trkpt>
      <trkpt lat="49.32678" lon="0.85202">
        <ele>120.03</ele>
        <time>2015-10-11T07:50:32Z</time>
      </trkpt>
      <trkpt lat="49.32679" lon="0.85193">
        <ele>120.06</ele>
        <time>2015-10-11T07:50:33Z</time>
      </trkpt>
      <trkpt lat="49.32679" lon="0.85186">
        <ele>120.1</ele>
        <time>2015-10-11T07:50:36Z</time>
      </trkpt>
      <trkpt lat="49.32678" lon="0.85171">
        <ele>120.19</ele>
        <time>2015-10-11T07:50:40Z</time>
      </trkpt>
      <trkpt lat="49.32674" lon="0.85163">
        <ele>120.21</ele>
        <time>2015-10-11T07:50:41Z</time>
      </trkpt>
      <trkpt lat="49.32671" lon="0.85155">
        <ele>120.23</ele>
        <time>2015-10-11T07:50:44Z</time>
      </trkpt>
      <trkpt lat="49.32669" lon="0.85147">
        <ele>120.29</ele>
        <time>2015-10-11T07:50:45Z</time>
      </trkpt>
      <trkpt lat="49.32667" lon="0.85136">
        <ele>120.36</ele>
        <time>2015-10-11T07:50:48Z</time>
      </trkpt>
      <trkpt lat="49.32668" lon="0.85125">
        <ele>120.44</ele>
        <time>2015-10-11T07:50:49Z</time>
      </trkpt>
      <trkpt lat="49.32668" lon="0.85114">
        <ele>120.53</ele>
        <time>2015-10-11T07:50:52Z</time>
      </trkpt>
      <trkpt lat="49.32669" lon="0.85103">
        <ele>120.86</ele>
        <time>2015-10-11T07:50:53Z</time>
      </trkpt>
      <trkpt lat="49.3267" lon="0.85092">
        <ele>121.07</ele>
        <time>2015-10-11T07:50:56Z</time>
      </trkpt>
      <trkpt lat="49.32672" lon="0.85082">
        <ele>121.2</ele>
        <time>2015-10-11T07:50:57Z</time>
      </trkpt>
      <trkpt lat="49.32673" lon="0.85073">
        <ele>121.29</ele>
        <time>2015-10-11T07:51:00Z</time>
      </trkpt>
      <trkpt lat="49.32674" lon="0.85065">
        <ele>121.38</ele>
        <time>2015-10-11T07:51:01Z</time>
      </trkpt>
      <trkpt lat="49.32679" lon="0.85063">
        <ele>121.64</ele>
        <time>2015-10-11T07:51:04Z</time>
      </trkpt>
      <trkpt lat="49.32684" lon="0.85067">
        <ele>121.72</ele>
        <time>2015-10-11T07:51:05Z</time>
      </trkpt>
      <trkpt lat="49.32692" lon="0.85071">
        <ele>121.89</ele>
        <time>2015-10-11T07:51:08Z</time>
      </trkpt>
      <trkpt lat="49.32698" lon="0.85073">
        <ele>122.03</ele>
        <time>2015-10-11T07:51:09Z</time>
      </trkpt>
      <trkpt lat="49.32704" lon="0.85075">
        <ele>122.12</ele>
        <time>2015-10-11T07:51:12Z</time>
      </trkpt>
      <trkpt lat="49.32713" lon="0.85077">
        <ele>122.2</ele>
        <time>2015-10-11T07:51:13Z</time>
      </trkpt>
      <trkpt lat="49.32721" lon="0.8508">
        <ele>122.66</ele>
        <time>2015-10-11T07:51:16Z</time>
      </trkpt>
      <trkpt lat="49.32729" lon="0.85082">
        <ele>123.01</ele>
        <time>2015-10-11T07:51:17Z</time>
      </trkpt>
      <trkpt lat="49.32738" lon="0.85085">
        <ele>123.42</ele>
        <time>2015-10-11T07:51:20Z</time>
      </trkpt>
      <trkpt lat="49.32748" lon="0.85085">
        <ele>123.7</ele>
        <time>2015-10-11T07:51:21Z</time>
      </trkpt>
      <trkpt lat="49.32753" lon="0.85089">
        <ele>123.89</ele>
        <time>2015-10-11T07:51:24Z</time>
      </trkpt>
      <trkpt lat="49.32761" lon="0.85094">
        <ele>124.04</ele>
        <time>2015-10-11T07:51:25Z</time>
      </trkpt>
      <trkpt lat="49.32769" lon="0.85099">
        <ele>124.65</ele>
        <time>2015-10-11T07:51:28Z</time>
      </trkpt>
      <trkpt lat="49.32776" lon="0.85108">
        <ele>125.74</ele>
        <time>2015-10-11T07:51:29Z</time>
      </trkpt>
      <trkpt lat="49.32783" lon="0.85115">
        <ele>126.46</ele>
        <time>2015-10-11T07:51:32Z</time>
      </trkpt>
      <trkpt lat="49.32791" lon="0.8512">
        <ele>126.92</ele>
        <time>2015-10-11T07:51:33Z</time>
      </trkpt>
      <trkpt lat="49.32799" lon="0.85119">
        <ele>126.97</ele>
        <time>2015-10-11T07:51:36Z</time>
      </trkpt>
      <trkpt lat="49.32802" lon="0.85131">
        <ele>126.85</ele>
        <time>2015-10-11T07:51:40Z</time>
      </trkpt>
      <trkpt lat="49.32801" lon="0.85142">
        <ele>125.94</ele>
        <time>2015-10-11T07:51:41Z</time>
      </trkpt>
      <trkpt lat="49.32801" lon="0.85155">
        <ele>124.26</ele>
        <time>2015-10-11T07:51:44Z</time>
      </trkpt>
      <trkpt lat="49.328" lon="0.85169">
        <ele>122.19</ele>
        <time>2015-10-11T07:51:45Z</time>
      </trkpt>
      <trkpt lat="49.32799" lon="0.85185">
        <ele>120.31</ele>
        <time>2015-10-11T07:51:48Z</time>
      </trkpt>
      <trkpt lat="49.32796" lon="0.852">
        <ele>118.59</ele>
        <time>2015-10-11T07:51:49Z</time>
      </trkpt>
      <trkpt lat="49.32793" lon="0.85215">
        <ele>117.54</ele>
        <time>2015-10-11T07:51:52Z</time>
      </trkpt>
      <trkpt lat="49.3279" lon="0.85231">
        <ele>116.88</ele>
        <time>2015-10-11T07:51:53Z</time>
      </trkpt>
      <trkpt lat="49.32788" lon="0.85247">
        <ele>116.47</ele>
        <time>2015-10-11T07:51:56Z</time>
      </trkpt>
      <trkpt lat="49.32785" lon="0.85264">
        <ele>116.37</ele>
        <time>2015-10-11T07:51:57Z</time>
      </trkpt>
      <trkpt lat="49.32782" lon="0.8528">
        <ele>116.04</ele>
        <time>2015-10-11T07:52:00Z</time>
      </trkpt>
      <trkpt lat="49.32779" lon="0.85296">
        <ele>115.78</ele>
        <time>2015-10-11T07:52:01Z</time>
      </trkpt>
      <trkpt lat="49.32776" lon="0.85313">
        <ele>115.24</ele>
        <time>2015-10-11T07:52:04Z</time>
      </trkpt>
      <trkpt lat="49.32776" lon="0.85327">
        <ele>114.41</ele>
        <time>2015-10-11T07:52:05Z</time>
      </trkpt>
      <trkpt lat="49.32773" lon="0.85344">
        <ele>113.66</ele>
        <time>2015-10-11T07:52:08Z</time>
      </trkpt>
      <trkpt lat="49.32771" lon="0.85356">
        <ele>113.33</ele>
        <time>2015-10-11T07:52:09Z</time>
      </trkpt>
      <trkpt lat="49.32773" lon="0.85363">
        <ele>113.1</ele>
        <time>2015-10-11T07:52:12Z</time>
      </trkpt>
      <trkpt lat="49.32778" lon="0.85362">
        <ele>112.9</ele>
        <time>2015-10-11T07:52:13Z</time>
      </trkpt>
      <trkpt lat="49.32786" lon="0.85362">
        <ele>112.79</ele>
        <time>2015-10-11T07:52:16Z</time>
      </trkpt>
      <trkpt lat="49.32792" lon="0.85366">
        <ele>112.74</ele>
        <time>2015-10-11T07:52:17Z</time>
      </trkpt>
      <trkpt lat="49.328" lon="0.85371">
        <ele>112.8</ele>
        <time>2015-10-11T07:52:20Z</time>
      </trkpt>
      <trkpt lat="49.32807" lon="0.85374">
        <ele>112.94</ele>
        <time>2015-10-11T07:52:21Z</time>
      </trkpt>
      <trkpt lat="49.32817" lon="0.85378">
        <ele>112.82</ele>
        <time>2015-10-11T07:52:24Z</time>
      </trkpt>
      <trkpt lat="49.32825" lon="0.85382">
        <ele>112.65</ele>
        <time>2015-10-11T07:52:25Z</time>
      </trkpt>
      <trkpt lat="49.32836" lon="0.85387">
        <ele>112.27</ele>
        <time>2015-10-11T07:52:28Z</time>
      </trkpt>
      <trkpt lat="49.32848" lon="0.85389">
        <ele>111.47</ele>
        <time>2015-10-11T07:52:29Z</time>
      </trkpt>
      <trkpt lat="49.32852" lon="0.85401">
        <ele>110.9</ele>
        <time>2015-10-11T07:52:32Z</time>
      </trkpt>
      <trkpt lat="49.32857" lon="0.85411">
        <ele>109.66</ele>
        <time>2015-10-11T07:52:33Z</time>
      </trkpt>
      <trkpt lat="49.32864" lon="0.85416">
        <ele>108.96</ele>
        <time>2015-10-11T07:52:36Z</time>
      </trkpt>
      <trkpt lat="49.32871" lon="0.85419">
        <ele>108.58</ele>
        <time>2015-10-11T07:52:37Z</time>
      </trkpt>
      <trkpt lat="49.32879" lon="0.8542">
        <ele>108.36</ele>
        <time>2015-10-11T07:52:40Z</time>
      </trkpt>
      <trkpt lat="49.32886" lon="0.85422">
        <ele>108.18</ele>
        <time>2015-10-11T07:52:42Z</time>
      </trkpt>
      <trkpt lat="49.32894" lon="0.85427">
        <ele>108.01</ele>
        <time>2015-10-11T07:52:44Z</time>
      </trkpt>
      <trkpt lat="49.32905" lon="0.85433">
        <ele>107.65</ele>
        <time>2015-10-11T07:52:46Z</time>
      </trkpt>
      <trkpt lat="49.32914" lon="0.85439">
        <ele>107.64</ele>
        <time>2015-10-11T07:52:48Z</time>
      </trkpt>
      <trkpt lat="49.32924" lon="0.85446">
        <ele>108.33</ele>
        <time>2015-10-11T07:52:50Z</time>
      </trkpt>
      <trkpt lat="49.32935" lon="0.85454">
        <ele>109.15</ele>
        <time>2015-10-11T07:52:52Z</time>
      </trkpt>
      <trkpt lat="49.32943" lon="0.85455">
        <ele>109.48</ele>
        <time>2015-10-11T07:52:54Z</time>
      </trkpt>
      <trkpt lat="49.32953" lon="0.85451">
        <ele>108.73</ele>
        <time>2015-10-11T07:52:56Z</time>
      </trkpt>
      <trkpt lat="49.32963" lon="0.85451">
        <ele>107.93</ele>
        <time>2015-10-11T07:52:58Z</time>
      </trkpt>
      <trkpt lat="49.32973" lon="0.85452">
        <ele>107.31</ele>
        <time>2015-10-11T07:53:00Z</time>
      </trkpt>
      <trkpt lat="49.32984" lon="0.85454">
        <ele>106.89</ele>
        <time>2015-10-11T07:53:02Z</time>
      </trkpt>
      <trkpt lat="49.32994" lon="0.85451">
        <ele>106.6</ele>
        <time>2015-10-11T07:53:04Z</time>
      </trkpt>
      <trkpt lat="49.33004" lon="0.85449">
        <ele>106.06</ele>
        <time>2015-10-11T07:53:06Z</time>
      </trkpt>
      <trkpt lat="49.33011" lon="0.85451">
        <ele>105.7</ele>
        <time>2015-10-11T07:53:08Z</time>
      </trkpt>
      <trkpt lat="49.33017" lon="0.85449">
        <ele>105.39</ele>
        <time>2015-10-11T07:53:10Z</time>
      </trkpt>
      <trkpt lat="49.33027" lon="0.85449">
        <ele>104.56</ele>
        <time>2015-10-11T07:53:12Z</time>
      </trkpt>
      <trkpt lat="49.33035" lon="0.85455">
        <ele>103.25</ele>
        <time>2015-10-11T07:53:14Z</time>
      </trkpt>
      <trkpt lat="49.33049" lon="0.85459">
        <ele>101.64</ele>
        <time>2015-10-11T07:53:16Z</time>
      </trkpt>
      <trkpt lat="49.33061" lon="0.85464">
        <ele>100.41</ele>
        <time>2015-10-11T07:53:18Z</time>
      </trkpt>
      <trkpt lat="49.33069" lon="0.85473">
        <ele>99.29</ele>
        <time>2015-10-11T07:53:20Z</time>
      </trkpt>
      <trkpt lat="49.3307" lon="0.85488">
        <ele>97.97</ele>
        <time>2015-10-11T07:53:22Z</time>
      </trkpt>
      <trkpt lat="49.3307" lon="0.855">
        <ele>97.25</ele>
        <time>2015-10-11T07:53:24Z</time>
      </trkpt>
      <trkpt lat="49.33071" lon="0.85512">
        <ele>96.88</ele>
        <time>2015-10-11T07:53:26Z</time>
      </trkpt>
      <trkpt lat="49.33071" lon="0.85523">
        <ele>96.72</ele>
        <time>2015-10-11T07:53:28Z</time>
      </trkpt>
      <trkpt lat="49.33072" lon="0.85531">
        <ele>96.66</ele>
        <time>2015-10-11T07:53:30Z</time>
      </trkpt>
      <trkpt lat="49.33074" lon="0.85544">
        <ele>96.72</ele>
        <time>2015-10-11T07:53:32Z</time>
      </trkpt>
      <trkpt lat="49.33074" lon="0.85558">
        <ele>96.78</ele>
        <time>2015-10-11T07:53:34Z</time>
      </trkpt>
      <trkpt lat="49.33075" lon="0.85571">
        <ele>96.93</ele>
        <time>2015-10-11T07:53:36Z</time>
      </trkpt>
      <trkpt lat="49.33079" lon="0.85582">
        <ele>97.11</ele>
        <time>2015-10-11T07:53:38Z</time>
      </trkpt>
      <trkpt lat="49.33082" lon="0.85594">
        <ele>97.29</ele>
        <time>2015-10-11T07:53:40Z</time>
      </trkpt>
      <trkpt lat="49.33083" lon="0.85604">
        <ele>97.53</ele>
        <time>2015-10-11T07:53:42Z</time>
      </trkpt>
      <trkpt lat="49.33084" lon="0.85613">
        <ele>97.84</ele>
        <time>2015-10-11T07:53:44Z</time>
      </trkpt>
      <trkpt lat="49.33086" lon="0.8562">
        <ele>98.08</ele>
        <time>2015-10-11T07:53:46Z</time>
      </trkpt>
      <trkpt lat="49.33087" lon="0.85627">
        <ele>98.35</ele>
        <time>2015-10-11T07:53:48Z</time>
      </trkpt>
      <trkpt lat="49.33085" lon="0.85643">
        <ele>98.99</ele>
        <time>2015-10-11T07:53:52Z</time>
      </trkpt>
      <trkpt lat="49.33085" lon="0.85652">
        <ele>99.3</ele>
        <time>2015-10-11T07:53:54Z</time>
      </trkpt>
      <trkpt lat="49.33084" lon="0.85667">
        <ele>99.89</ele>
        <time>2015-10-11T07:53:58Z</time>
      </trkpt>
      <trkpt lat="49.33081" lon="0.8568">
        <ele>100.51</ele>
        <time>2015-10-11T07:54:02Z</time>
      </trkpt>
      <trkpt lat="49.33078" lon="0.85689">
        <ele>100.78</ele>
        <time>2015-10-11T07:54:04Z</time>
      </trkpt>
      <trkpt lat="49.33076" lon="0.85697">
        <ele>100.99</ele>
        <time>2015-10-11T07:54:06Z</time>
      </trkpt>
      <trkpt lat="49.33074" lon="0.85705">
        <ele>101.14</ele>
        <time>2015-10-11T07:54:08Z</time>
      </trkpt>
      <trkpt lat="49.3307" lon="0.85714">
        <ele>101.29</ele>
        <time>2015-10-11T07:54:10Z</time>
      </trkpt>
      <trkpt lat="49.33067" lon="0.85723">
        <ele>101.41</ele>
        <time>2015-10-11T07:54:12Z</time>
      </trkpt>
      <trkpt lat="49.33061" lon="0.85734">
        <ele>101.57</ele>
        <time>2015-10-11T07:54:14Z</time>
      </trkpt>
      <trkpt lat="49.33056" lon="0.85745">
        <ele>101.72</ele>
        <time>2015-10-11T07:54:16Z</time>
      </trkpt>
      <trkpt lat="49.3305" lon="0.85755">
        <ele>101.82</ele>
        <time>2015-10-11T07:54:18Z</time>
      </trkpt>
      <trkpt lat="49.33042" lon="0.85765">
        <ele>102.51</ele>
        <time>2015-10-11T07:54:20Z</time>
      </trkpt>
      <trkpt lat="49.33037" lon="0.85772">
        <ele>102.86</ele>
        <time>2015-10-11T07:54:22Z</time>
      </trkpt>
      <trkpt lat="49.33031" lon="0.85782">
        <ele>103.11</ele>
        <time>2015-10-11T07:54:24Z</time>
      </trkpt>
      <trkpt lat="49.33024" lon="0.85794">
        <ele>103.01</ele>
        <time>2015-10-11T07:54:26Z</time>
      </trkpt>
      <trkpt lat="49.33018" lon="0.85808">
        <ele>102.85</ele>
        <time>2015-10-11T07:54:28Z</time>
      </trkpt>
      <trkpt lat="49.3301" lon="0.85822">
        <ele>103.04</ele>
        <time>2015-10-11T07:54:30Z</time>
      </trkpt>
      <trkpt lat="49.33001" lon="0.85839">
        <ele>103.21</ele>
        <time>2015-10-11T07:54:32Z</time>
      </trkpt>
      <trkpt lat="49.32992" lon="0.85854">
        <ele>103.89</ele>
        <time>2015-10-11T07:54:34Z</time>
      </trkpt>
      <trkpt lat="49.32985" lon="0.85872">
        <ele>104.86</ele>
        <time>2015-10-11T07:54:36Z</time>
      </trkpt>
      <trkpt lat="49.32977" lon="0.8589">
        <ele>106.48</ele>
        <time>2015-10-11T07:54:38Z</time>
      </trkpt>
      <trkpt lat="49.3297" lon="0.85909">
        <ele>108.42</ele>
        <time>2015-10-11T07:54:40Z</time>
      </trkpt>
      <trkpt lat="49.32966" lon="0.85929">
        <ele>109.63</ele>
        <time>2015-10-11T07:54:42Z</time>
      </trkpt>
      <trkpt lat="49.32961" lon="0.85954">
        <ele>110.25</ele>
        <time>2015-10-11T07:54:44Z</time>
      </trkpt>
      <trkpt lat="49.32957" lon="0.85977">
        <ele>111.05</ele>
        <time>2015-10-11T07:54:46Z</time>
      </trkpt>
      <trkpt lat="49.32952" lon="0.86003">
        <ele>111.55</ele>
        <time>2015-10-11T07:54:48Z</time>
      </trkpt>
      <trkpt lat="49.32947" lon="0.86026">
        <ele>111.67</ele>
        <time>2015-10-11T07:54:50Z</time>
      </trkpt>
      <trkpt lat="49.3294" lon="0.86047">
        <ele>111.38</ele>
        <time>2015-10-11T07:54:52Z</time>
      </trkpt>
      <trkpt lat="49.32934" lon="0.86075">
        <ele>111.48</ele>
        <time>2015-10-11T07:54:54Z</time>
      </trkpt>
      <trkpt lat="49.32927" lon="0.86104">
        <ele>111.57</ele>
        <time>2015-10-11T07:54:56Z</time>
      </trkpt>
      <trkpt lat="49.3292" lon="0.86131">
        <ele>110.96</ele>
        <time>2015-10-11T07:54:58Z</time>
      </trkpt>
      <trkpt lat="49.32914" lon="0.8616">
        <ele>109.92</ele>
        <time>2015-10-11T07:55:00Z</time>
      </trkpt>
      <trkpt lat="49.32907" lon="0.86186">
        <ele>108.73</ele>
        <time>2015-10-11T07:55:02Z</time>
      </trkpt>
      <trkpt lat="49.32903" lon="0.86203">
        <ele>108.25</ele>
        <time>2015-10-11T07:55:04Z</time>
      </trkpt>
      <trkpt lat="49.32903" lon="0.86213">
        <ele>107.97</ele>
        <time>2015-10-11T07:55:06Z</time>
      </trkpt>
      <trkpt lat="49.32908" lon="0.86217">
        <ele>107.78</ele>
        <time>2015-10-11T07:55:08Z</time>
      </trkpt>
      <trkpt lat="49.32914" lon="0.86222">
        <ele>107.58</ele>
        <time>2015-10-11T07:55:10Z</time>
      </trkpt>
      <trkpt lat="49.32923" lon="0.86218">
        <ele>105.93</ele>
        <time>2015-10-11T07:55:12Z</time>
      </trkpt>
      <trkpt lat="49.32931" lon="0.86215">
        <ele>102.98</ele>
        <time>2015-10-11T07:55:14Z</time>
      </trkpt>
      <trkpt lat="49.3294" lon="0.86216">
        <ele>100.61</ele>
        <time>2015-10-11T07:55:16Z</time>
      </trkpt>
      <trkpt lat="49.32946" lon="0.86219">
        <ele>99.32</ele>
        <time>2015-10-11T07:55:18Z</time>
      </trkpt>
      <trkpt lat="49.32952" lon="0.86228">
        <ele>98.19</ele>
        <time>2015-10-11T07:55:22Z</time>
      </trkpt>
      <trkpt lat="49.32959" lon="0.86228">
        <ele>97.94</ele>
        <time>2015-10-11T07:55:24Z</time>
      </trkpt>
      <trkpt lat="49.32968" lon="0.86227">
        <ele>97.52</ele>
        <time>2015-10-11T07:55:26Z</time>
      </trkpt>
      <trkpt lat="49.32976" lon="0.86222">
        <ele>97.21</ele>
        <time>2015-10-11T07:55:28Z</time>
      </trkpt>
      <trkpt lat="49.32985" lon="0.86218">
        <ele>96.57</ele>
        <time>2015-10-11T07:55:30Z</time>
      </trkpt>
      <trkpt lat="49.32993" lon="0.86218">
        <ele>95.43</ele>
        <time>2015-10-11T07:55:32Z</time>
      </trkpt>
      <trkpt lat="49.32998" lon="0.86217">
        <ele>94.85</ele>
        <time>2015-10-11T07:55:34Z</time>
      </trkpt>
      <trkpt lat="49.33006" lon="0.86217">
        <ele>94.61</ele>
        <time>2015-10-11T07:55:36Z</time>
      </trkpt>
      <trkpt lat="49.33012" lon="0.86217">
        <ele>94.49</ele>
        <time>2015-10-11T07:55:38Z</time>
      </trkpt>
      <trkpt lat="49.3302" lon="0.86217">
        <ele>94.5</ele>
        <time>2015-10-11T07:55:40Z</time>
      </trkpt>
      <trkpt lat="49.33028" lon="0.86214">
        <ele>94.58</ele>
        <time>2015-10-11T07:55:42Z</time>
      </trkpt>
      <trkpt lat="49.33033" lon="0.86213">
        <ele>94.66</ele>
        <time>2015-10-11T07:55:44Z</time>
      </trkpt>
      <trkpt lat="49.33041" lon="0.86212">
        <ele>94.74</ele>
        <time>2015-10-11T07:55:46Z</time>
      </trkpt>
      <trkpt lat="49.33047" lon="0.86211">
        <ele>94.75</ele>
        <time>2015-10-11T07:55:48Z</time>
      </trkpt>
      <trkpt lat="49.33053" lon="0.86207">
        <ele>94.71</ele>
        <time>2015-10-11T07:55:50Z</time>
      </trkpt>
      <trkpt lat="49.33059" lon="0.86204">
        <ele>94.7</ele>
        <time>2015-10-11T07:55:52Z</time>
      </trkpt>
      <trkpt lat="49.33064" lon="0.86202">
        <ele>94.73</ele>
        <time>2015-10-11T07:55:54Z</time>
      </trkpt>
      <trkpt lat="49.33071" lon="0.862">
        <ele>94.77</ele>
        <time>2015-10-11T07:55:56Z</time>
      </trkpt>
      <trkpt lat="49.33076" lon="0.86198">
        <ele>94.85</ele>
        <time>2015-10-11T07:55:58Z</time>
      </trkpt>
      <trkpt lat="49.33084" lon="0.86197">
        <ele>94.92</ele>
        <time>2015-10-11T07:56:00Z</time>
      </trkpt>
      <trkpt lat="49.33092" lon="0.86195">
        <ele>95.06</ele>
        <time>2015-10-11T07:56:02Z</time>
      </trkpt>
      <trkpt lat="49.33101" lon="0.86194">
        <ele>95.7</ele>
        <time>2015-10-11T07:56:04Z</time>
      </trkpt>
      <trkpt lat="49.3311" lon="0.86195">
        <ele>96.86</ele>
        <time>2015-10-11T07:56:06Z</time>
      </trkpt>
      <trkpt lat="49.33118" lon="0.86194">
        <ele>97.44</ele>
        <time>2015-10-11T07:56:08Z</time>
      </trkpt>
      <trkpt lat="49.33131" lon="0.86191">
        <ele>97.9</ele>
        <time>2015-10-11T07:56:10Z</time>
      </trkpt>
      <trkpt lat="49.33152" lon="0.86186">
        <ele>97.89</ele>
        <time>2015-10-11T07:56:12Z</time>
      </trkpt>
      <trkpt lat="49.33168" lon="0.86182">
        <ele>97.97</ele>
        <time>2015-10-11T07:56:14Z</time>
      </trkpt>
      <trkpt lat="49.33174" lon="0.86177">
        <ele>98.25</ele>
        <time>2015-10-11T07:56:16Z</time>
      </trkpt>
      <trkpt lat="49.33177" lon="0.86169">
        <ele>98.36</ele>
        <time>2015-10-11T07:56:18Z</time>
      </trkpt>
      <trkpt lat="49.33181" lon="0.86159">
        <ele>98.26</ele>
        <time>2015-10-11T07:56:20Z</time>
      </trkpt>
      <trkpt lat="49.33185" lon="0.86149">
        <ele>97.16</ele>
        <time>2015-10-11T07:56:22Z</time>
      </trkpt>
      <trkpt lat="49.33189" lon="0.8614">
        <ele>96.6</ele>
        <time>2015-10-11T07:56:24Z</time>
      </trkpt>
      <trkpt lat="49.3319" lon="0.86129">
        <ele>96.53</ele>
        <time>2015-10-11T07:56:26Z</time>
      </trkpt>
      <trkpt lat="49.33192" lon="0.86116">
        <ele>96.58</ele>
        <time>2015-10-11T07:56:28Z</time>
      </trkpt>
      <trkpt lat="49.33195" lon="0.86106">
        <ele>96.26</ele>
        <time>2015-10-11T07:56:30Z</time>
      </trkpt>
      <trkpt lat="49.33197" lon="0.86094">
        <ele>95.31</ele>
        <time>2015-10-11T07:56:32Z</time>
      </trkpt>
      <trkpt lat="49.33198" lon="0.86083">
        <ele>94.67</ele>
        <time>2015-10-11T07:56:34Z</time>
      </trkpt>
      <trkpt lat="49.332" lon="0.86072">
        <ele>93.52</ele>
        <time>2015-10-11T07:56:36Z</time>
      </trkpt>
      <trkpt lat="49.33202" lon="0.86061">
        <ele>92.88</ele>
        <time>2015-10-11T07:56:38Z</time>
      </trkpt>
      <trkpt lat="49.33204" lon="0.86051">
        <ele>92.57</ele>
        <time>2015-10-11T07:56:40Z</time>
      </trkpt>
      <trkpt lat="49.33207" lon="0.86037">
        <ele>91.86</ele>
        <time>2015-10-11T07:56:42Z</time>
      </trkpt>
      <trkpt lat="49.33208" lon="0.86027">
        <ele>91.49</ele>
        <time>2015-10-11T07:56:44Z</time>
      </trkpt>
      <trkpt lat="49.33208" lon="0.86017">
        <ele>91.31</ele>
        <time>2015-10-11T07:56:46Z</time>
      </trkpt>
      <trkpt lat="49.33209" lon="0.86006">
        <ele>91.2</ele>
        <time>2015-10-11T07:56:48Z</time>
      </trkpt>
      <trkpt lat="49.33208" lon="0.85993">
        <ele>91.1</ele>
        <time>2015-10-11T07:56:50Z</time>
      </trkpt>
      <trkpt lat="49.33208" lon="0.85982">
        <ele>91.05</ele>
        <time>2015-10-11T07:56:52Z</time>
      </trkpt>
      <trkpt lat="49.33207" lon="0.85972">
        <ele>91.04</ele>
        <time>2015-10-11T07:56:54Z</time>
      </trkpt>
      <trkpt lat="49.3321" lon="0.85961">
        <ele>91.02</ele>
        <time>2015-10-11T07:56:56Z</time>
      </trkpt>
      <trkpt lat="49.3321" lon="0.85951">
        <ele>91.05</ele>
        <time>2015-10-11T07:56:58Z</time>
      </trkpt>
      <trkpt lat="49.33211" lon="0.85938">
        <ele>91.53</ele>
        <time>2015-10-11T07:57:00Z</time>
      </trkpt>
      <trkpt lat="49.33212" lon="0.85926">
        <ele>91.89</ele>
        <time>2015-10-11T07:57:02Z</time>
      </trkpt>
      <trkpt lat="49.33213" lon="0.85912">
        <ele>93.12</ele>
        <time>2015-10-11T07:57:04Z</time>
      </trkpt>
      <trkpt lat="49.33215" lon="0.859">
        <ele>93.73</ele>
        <time>2015-10-11T07:57:06Z</time>
      </trkpt>
      <trkpt lat="49.33216" lon="0.85889">
        <ele>94.08</ele>
        <time>2015-10-11T07:57:08Z</time>
      </trkpt>
      <trkpt lat="49.33216" lon="0.85877">
        <ele>94.35</ele>
        <time>2015-10-11T07:57:10Z</time>
      </trkpt>
      <trkpt lat="49.33215" lon="0.85864">
        <ele>94.53</ele>
        <time>2015-10-11T07:57:12Z</time>
      </trkpt>
      <trkpt lat="49.33214" lon="0.85853">
        <ele>94.68</ele>
        <time>2015-10-11T07:57:14Z</time>
      </trkpt>
      <trkpt lat="49.33213" lon="0.85842">
        <ele>94.37</ele>
        <time>2015-10-11T07:57:16Z</time>
      </trkpt>
      <trkpt lat="49.3321" lon="0.85829">
        <ele>93.92</ele>
        <time>2015-10-11T07:57:18Z</time>
      </trkpt>
      <trkpt lat="49.33207" lon="0.85819">
        <ele>93.71</ele>
        <time>2015-10-11T07:57:20Z</time>
      </trkpt>
      <trkpt lat="49.33206" lon="0.85806">
        <ele>93.66</ele>
        <time>2015-10-11T07:57:22Z</time>
      </trkpt>
      <trkpt lat="49.33203" lon="0.85794">
        <ele>93.73</ele>
        <time>2015-10-11T07:57:24Z</time>
      </trkpt>
      <trkpt lat="49.33202" lon="0.85778">
        <ele>94.14</ele>
        <time>2015-10-11T07:57:26Z</time>
      </trkpt>
      <trkpt lat="49.33206" lon="0.85766">
        <ele>94.18</ele>
        <time>2015-10-11T07:57:28Z</time>
      </trkpt>
      <trkpt lat="49.33211" lon="0.85758">
        <ele>94.19</ele>
        <time>2015-10-11T07:57:30Z</time>
      </trkpt>
      <trkpt lat="49.33209" lon="0.85749">
        <ele>94.2</ele>
        <time>2015-10-11T07:57:32Z</time>
      </trkpt>
      <trkpt lat="49.3321" lon="0.85739">
        <ele>94.28</ele>
        <time>2015-10-11T07:57:34Z</time>
      </trkpt>
      <trkpt lat="49.33208" lon="0.85731">
        <ele>94.42</ele>
        <time>2015-10-11T07:57:36Z</time>
      </trkpt>
      <trkpt lat="49.33205" lon="0.85724">
        <ele>94.65</ele>
        <time>2015-10-11T07:57:38Z</time>
      </trkpt>
      <trkpt lat="49.33199" lon="0.85715">
        <ele>95.09</ele>
        <time>2015-10-11T07:57:42Z</time>
      </trkpt>
      <trkpt lat="49.33195" lon="0.85709">
        <ele>95.34</ele>
        <time>2015-10-11T07:57:44Z</time>
      </trkpt>
      <trkpt lat="49.33188" lon="0.85705">
        <ele>95.62</ele>
        <time>2015-10-11T07:57:46Z</time>
      </trkpt>
      <trkpt lat="49.33182" lon="0.85702">
        <ele>95.86</ele>
        <time>2015-10-11T07:57:48Z</time>
      </trkpt>
      <trkpt lat="49.33179" lon="0.85694">
        <ele>96.1</ele>
        <time>2015-10-11T07:57:50Z</time>
      </trkpt>
      <trkpt lat="49.33174" lon="0.85683">
        <ele>96.77</ele>
        <time>2015-10-11T07:57:54Z</time>
      </trkpt>
      <trkpt lat="49.33171" lon="0.85674">
        <ele>97.15</ele>
        <time>2015-10-11T07:57:56Z</time>
      </trkpt>
      <trkpt lat="49.33168" lon="0.85662">
        <ele>97.5</ele>
        <time>2015-10-11T07:57:58Z</time>
      </trkpt>
      <trkpt lat="49.33163" lon="0.85652">
        <ele>97.8</ele>
        <time>2015-10-11T07:58:00Z</time>
      </trkpt>
      <trkpt lat="49.33156" lon="0.85642">
        <ele>98.06</ele>
        <time>2015-10-11T07:58:02Z</time>
      </trkpt>
      <trkpt lat="49.33155" lon="0.8563">
        <ele>98.3</ele>
        <time>2015-10-11T07:58:04Z</time>
      </trkpt>
      <trkpt lat="49.33153" lon="0.85617">
        <ele>98.49</ele>
        <time>2015-10-11T07:58:06Z</time>
      </trkpt>
      <trkpt lat="49.33151" lon="0.85603">
        <ele>98.68</ele>
        <time>2015-10-11T07:58:08Z</time>
      </trkpt>
      <trkpt lat="49.3315" lon="0.8559">
        <ele>98.78</ele>
        <time>2015-10-11T07:58:10Z</time>
      </trkpt>
      <trkpt lat="49.33149" lon="0.85576">
        <ele>98.81</ele>
        <time>2015-10-11T07:58:12Z</time>
      </trkpt>
      <trkpt lat="49.33148" lon="0.8556">
        <ele>97.9</ele>
        <time>2015-10-11T07:58:14Z</time>
      </trkpt>
      <trkpt lat="49.33149" lon="0.85547">
        <ele>97.33</ele>
        <time>2015-10-11T07:58:16Z</time>
      </trkpt>
      <trkpt lat="49.33151" lon="0.85533">
        <ele>96.9</ele>
        <time>2015-10-11T07:58:18Z</time>
      </trkpt>
      <trkpt lat="49.33152" lon="0.85521">
        <ele>96.63</ele>
        <time>2015-10-11T07:58:20Z</time>
      </trkpt>
      <trkpt lat="49.33152" lon="0.8551">
        <ele>96.67</ele>
        <time>2015-10-11T07:58:22Z</time>
      </trkpt>
      <trkpt lat="49.3315" lon="0.855">
        <ele>96.67</ele>
        <time>2015-10-11T07:58:24Z</time>
      </trkpt>
      <trkpt lat="49.33148" lon="0.85491">
        <ele>96.61</ele>
        <time>2015-10-11T07:58:26Z</time>
      </trkpt>
      <trkpt lat="49.33147" lon="0.8548">
        <ele>96.65</ele>
        <time>2015-10-11T07:58:28Z</time>
      </trkpt>
      <trkpt lat="49.33145" lon="0.85467">
        <ele>96.64</ele>
        <time>2015-10-11T07:58:30Z</time>
      </trkpt>
      <trkpt lat="49.33143" lon="0.85457">
        <ele>96.65</ele>
        <time>2015-10-11T07:58:32Z</time>
      </trkpt>
      <trkpt lat="49.3314" lon="0.85442">
        <ele>96.93</ele>
        <time>2015-10-11T07:58:36Z</time>
      </trkpt>
      <trkpt lat="49.33137" lon="0.85431">
        <ele>97.01</ele>
        <time>2015-10-11T07:58:38Z</time>
      </trkpt>
      <trkpt lat="49.33134" lon="0.85419">
        <ele>97.05</ele>
        <time>2015-10-11T07:58:40Z</time>
      </trkpt>
      <trkpt lat="49.33133" lon="0.85409">
        <ele>97.09</ele>
        <time>2015-10-11T07:58:42Z</time>
      </trkpt>
      <trkpt lat="49.33135" lon="0.85397">
        <ele>97.03</ele>
        <time>2015-10-11T07:58:44Z</time>
      </trkpt>
      <trkpt lat="49.33139" lon="0.85386">
        <ele>96.23</ele>
        <time>2015-10-11T07:58:46Z</time>
      </trkpt>
      <trkpt lat="49.33142" lon="0.85373">
        <ele>95.66</ele>
        <time>2015-10-11T07:58:48Z</time>
      </trkpt>
      <trkpt lat="49.33144" lon="0.85362">
        <ele>95.42</ele>
        <time>2015-10-11T07:58:50Z</time>
      </trkpt>
      <trkpt lat="49.33145" lon="0.85349">
        <ele>95.94</ele>
        <time>2015-10-11T07:58:52Z</time>
      </trkpt>
      <trkpt lat="49.33148" lon="0.85337">
        <ele>96.19</ele>
        <time>2015-10-11T07:58:54Z</time>
      </trkpt>
      <trkpt lat="49.33155" lon="0.85329">
        <ele>96.3</ele>
        <time>2015-10-11T07:58:56Z</time>
      </trkpt>
      <trkpt lat="49.33162" lon="0.85332">
        <ele>96.46</ele>
        <time>2015-10-11T07:58:58Z</time>
      </trkpt>
      <trkpt lat="49.3317" lon="0.85336">
        <ele>96.66</ele>
        <time>2015-10-11T07:59:00Z</time>
      </trkpt>
      <trkpt lat="49.33176" lon="0.85342">
        <ele>96.8</ele>
        <time>2015-10-11T07:59:04Z</time>
      </trkpt>
      <trkpt lat="49.3318" lon="0.85348">
        <ele>96.78</ele>
        <time>2015-10-11T07:59:06Z</time>
      </trkpt>
      <trkpt lat="49.33187" lon="0.85352">
        <ele>96.78</ele>
        <time>2015-10-11T07:59:12Z</time>
      </trkpt>
      <trkpt lat="49.3319" lon="0.85357">
        <ele>96.88</ele>
        <time>2015-10-11T07:59:14Z</time>
      </trkpt>
      <trkpt lat="49.33193" lon="0.85374">
        <ele>96.99</ele>
        <time>2015-10-11T07:59:16Z</time>
      </trkpt>
      <trkpt lat="49.33197" lon="0.85389">
        <ele>97.18</ele>
        <time>2015-10-11T07:59:18Z</time>
      </trkpt>
      <trkpt lat="49.33199" lon="0.85403">
        <ele>98.15</ele>
        <time>2015-10-11T07:59:20Z</time>
      </trkpt>
      <trkpt lat="49.33197" lon="0.85412">
        <ele>98.77</ele>
        <time>2015-10-11T07:59:22Z</time>
      </trkpt>
      <trkpt lat="49.33194" lon="0.85422">
        <ele>99.17</ele>
        <time>2015-10-11T07:59:24Z</time>
      </trkpt>
      <trkpt lat="49.33189" lon="0.85431">
        <ele>99.45</ele>
        <time>2015-10-11T07:59:26Z</time>
      </trkpt>
      <trkpt lat="49.33186" lon="0.85438">
        <ele>99.7</ele>
        <time>2015-10-11T07:59:28Z</time>
      </trkpt>
      <trkpt lat="49.33191" lon="0.85441">
        <ele>99.98</ele>
        <time>2015-10-11T07:59:30Z</time>
      </trkpt>
      <trkpt lat="49.33195" lon="0.85439">
        <ele>100.16</ele>
        <time>2015-10-11T07:59:32Z</time>
      </trkpt>
      <trkpt lat="49.33202" lon="0.85435">
        <ele>101.64</ele>
        <time>2015-10-11T07:59:50Z</time>
      </trkpt>
      <trkpt lat="49.33212" lon="0.8543">
        <ele>106.32</ele>
        <time>2015-10-11T08:00:34Z</time>
      </trkpt>
      <trkpt lat="49.33226" lon="0.85437">
        <ele>108.79</ele>
        <time>2015-10-11T08:00:50Z</time>
      </trkpt>
      <trkpt lat="49.33235" lon="0.85441">
        <ele>109.8</ele>
        <time>2015-10-11T08:00:58Z</time>
      </trkpt>
      <trkpt lat="49.33246" lon="0.85447">
        <ele>110.28</ele>
        <time>2015-10-11T08:01:14Z</time>
      </trkpt>
      <trkpt lat="49.33252" lon="0.8545">
        <ele>110.87</ele>
        <time>2015-10-11T08:01:18Z</time>
      </trkpt>
      <trkpt lat="49.33261" lon="0.85454">
        <ele>111.56</ele>
        <time>2015-10-11T08:01:22Z</time>
      </trkpt>
      <trkpt lat="49.33266" lon="0.85456">
        <ele>111.89</ele>
        <time>2015-10-11T08:01:24Z</time>
      </trkpt>
      <trkpt lat="49.33273" lon="0.85461">
        <ele>112.55</ele>
        <time>2015-10-11T08:01:28Z</time>
      </trkpt>
      <trkpt lat="49.33279" lon="0.85462">
        <ele>113.16</ele>
        <time>2015-10-11T08:01:32Z</time>
      </trkpt>
      <trkpt lat="49.33284" lon="0.85463">
        <ele>113.55</ele>
        <time>2015-10-11T08:01:34Z</time>
      </trkpt>
      <trkpt lat="49.3329" lon="0.85465">
        <ele>113.82</ele>
        <time>2015-10-11T08:01:36Z</time>
      </trkpt>
      <trkpt lat="49.33295" lon="0.85468">
        <ele>114.03</ele>
        <time>2015-10-11T08:01:38Z</time>
      </trkpt>
      <trkpt lat="49.33302" lon="0.85471">
        <ele>114.19</ele>
        <time>2015-10-11T08:01:40Z</time>
      </trkpt>
      <trkpt lat="49.33308" lon="0.85475">
        <ele>114.3</ele>
        <time>2015-10-11T08:01:42Z</time>
      </trkpt>
      <trkpt lat="49.33314" lon="0.85477">
        <ele>114.38</ele>
        <time>2015-10-11T08:01:44Z</time>
      </trkpt>
      <trkpt lat="49.3332" lon="0.8548">
        <ele>114.52</ele>
        <time>2015-10-11T08:01:46Z</time>
      </trkpt>
      <trkpt lat="49.33326" lon="0.85482">
        <ele>114.67</ele>
        <time>2015-10-11T08:01:48Z</time>
      </trkpt>
      <trkpt lat="49.33331" lon="0.85485">
        <ele>114.91</ele>
        <time>2015-10-11T08:01:50Z</time>
      </trkpt>
      <trkpt lat="49.33337" lon="0.85488">
        <ele>115.23</ele>
        <time>2015-10-11T08:01:52Z</time>
      </trkpt>
      <trkpt lat="49.33343" lon="0.85489">
        <ele>115.54</ele>
        <time>2015-10-11T08:01:54Z</time>
      </trkpt>
      <trkpt lat="49.33349" lon="0.85489">
        <ele>115.76</ele>
        <time>2015-10-11T08:01:56Z</time>
      </trkpt>
      <trkpt lat="49.33355" lon="0.85491">
        <ele>115.9</ele>
        <time>2015-10-11T08:01:58Z</time>
      </trkpt>
      <trkpt lat="49.33362" lon="0.85493">
        <ele>116.04</ele>
        <time>2015-10-11T08:02:00Z</time>
      </trkpt>
      <trkpt lat="49.33367" lon="0.85496">
        <ele>116.24</ele>
        <time>2015-10-11T08:02:02Z</time>
      </trkpt>
      <trkpt lat="49.33374" lon="0.85498">
        <ele>116.51</ele>
        <time>2015-10-11T08:02:04Z</time>
      </trkpt>
      <trkpt lat="49.3338" lon="0.855">
        <ele>116.74</ele>
        <time>2015-10-11T08:02:06Z</time>
      </trkpt>
      <trkpt lat="49.33387" lon="0.85502">
        <ele>116.95</ele>
        <time>2015-10-11T08:02:08Z</time>
      </trkpt>
      <trkpt lat="49.33392" lon="0.85502">
        <ele>117.2</ele>
        <time>2015-10-11T08:02:10Z</time>
      </trkpt>
      <trkpt lat="49.33398" lon="0.85506">
        <ele>117.43</ele>
        <time>2015-10-11T08:02:12Z</time>
      </trkpt>
      <trkpt lat="49.33404" lon="0.85511">
        <ele>117.6</ele>
        <time>2015-10-11T08:02:14Z</time>
      </trkpt>
      <trkpt lat="49.33411" lon="0.85513">
        <ele>117.76</ele>
        <time>2015-10-11T08:02:16Z</time>
      </trkpt>
      <trkpt lat="49.33418" lon="0.85514">
        <ele>117.93</ele>
        <time>2015-10-11T08:02:18Z</time>
      </trkpt>
      <trkpt lat="49.33425" lon="0.85515">
        <ele>118.18</ele>
        <time>2015-10-11T08:02:20Z</time>
      </trkpt>
      <trkpt lat="49.33433" lon="0.85516">
        <ele>118.5</ele>
        <time>2015-10-11T08:02:22Z</time>
      </trkpt>
      <trkpt lat="49.33441" lon="0.85518">
        <ele>118.85</ele>
        <time>2015-10-11T08:02:24Z</time>
      </trkpt>
      <trkpt lat="49.33448" lon="0.8552">
        <ele>119.19</ele>
        <time>2015-10-11T08:02:26Z</time>
      </trkpt>
      <trkpt lat="49.33455" lon="0.85523">
        <ele>119.49</ele>
        <time>2015-10-11T08:02:28Z</time>
      </trkpt>
      <trkpt lat="49.33462" lon="0.85527">
        <ele>119.74</ele>
        <time>2015-10-11T08:02:30Z</time>
      </trkpt>
      <trkpt lat="49.33469" lon="0.8553">
        <ele>119.96</ele>
        <time>2015-10-11T08:02:32Z</time>
      </trkpt>
      <trkpt lat="49.33475" lon="0.85533">
        <ele>120.19</ele>
        <time>2015-10-11T08:02:34Z</time>
      </trkpt>
      <trkpt lat="49.33482" lon="0.85534">
        <ele>121.01</ele>
        <time>2015-10-11T08:02:36Z</time>
      </trkpt>
      <trkpt lat="49.3349" lon="0.85536">
        <ele>121.86</ele>
        <time>2015-10-11T08:02:38Z</time>
      </trkpt>
      <trkpt lat="49.33496" lon="0.85539">
        <ele>122.41</ele>
        <time>2015-10-11T08:02:40Z</time>
      </trkpt>
      <trkpt lat="49.33502" lon="0.85543">
        <ele>122.77</ele>
        <time>2015-10-11T08:02:42Z</time>
      </trkpt>
      <trkpt lat="49.33508" lon="0.85546">
        <ele>122.96</ele>
        <time>2015-10-11T08:02:44Z</time>
      </trkpt>
      <trkpt lat="49.33515" lon="0.85548">
        <ele>123.06</ele>
        <time>2015-10-11T08:02:46Z</time>
      </trkpt>
      <trkpt lat="49.3352" lon="0.85549">
        <ele>123.15</ele>
        <time>2015-10-11T08:02:48Z</time>
      </trkpt>
      <trkpt lat="49.33526" lon="0.85556">
        <ele>123.25</ele>
        <time>2015-10-11T08:02:50Z</time>
      </trkpt>
      <trkpt lat="49.33529" lon="0.85568">
        <ele>123.27</ele>
        <time>2015-10-11T08:02:52Z</time>
      </trkpt>
      <trkpt lat="49.33531" lon="0.85581">
        <ele>123.22</ele>
        <time>2015-10-11T08:02:54Z</time>
      </trkpt>
      <trkpt lat="49.33532" lon="0.85594">
        <ele>123.1</ele>
        <time>2015-10-11T08:02:56Z</time>
      </trkpt>
      <trkpt lat="49.33531" lon="0.85609">
        <ele>122.21</ele>
        <time>2015-10-11T08:02:58Z</time>
      </trkpt>
      <trkpt lat="49.33531" lon="0.85625">
        <ele>121.49</ele>
        <time>2015-10-11T08:03:00Z</time>
      </trkpt>
      <trkpt lat="49.3353" lon="0.8564">
        <ele>121.65</ele>
        <time>2015-10-11T08:03:02Z</time>
      </trkpt>
      <trkpt lat="49.33527" lon="0.85659">
        <ele>122.98</ele>
        <time>2015-10-11T08:03:04Z</time>
      </trkpt>
      <trkpt lat="49.33526" lon="0.85676">
        <ele>124.28</ele>
        <time>2015-10-11T08:03:06Z</time>
      </trkpt>
      <trkpt lat="49.33523" lon="0.85694">
        <ele>124.8</ele>
        <time>2015-10-11T08:03:08Z</time>
      </trkpt>
      <trkpt lat="49.33521" lon="0.85713">
        <ele>124.29</ele>
        <time>2015-10-11T08:03:10Z</time>
      </trkpt>
      <trkpt lat="49.33519" lon="0.85732">
        <ele>123.93</ele>
        <time>2015-10-11T08:03:12Z</time>
      </trkpt>
      <trkpt lat="49.33518" lon="0.85748">
        <ele>123.87</ele>
        <time>2015-10-11T08:03:14Z</time>
      </trkpt>
      <trkpt lat="49.33514" lon="0.85765">
        <ele>124.06</ele>
        <time>2015-10-11T08:03:16Z</time>
      </trkpt>
      <trkpt lat="49.33511" lon="0.85782">
        <ele>123.99</ele>
        <time>2015-10-11T08:03:18Z</time>
      </trkpt>
      <trkpt lat="49.33508" lon="0.85799">
        <ele>123.68</ele>
        <time>2015-10-11T08:03:20Z</time>
      </trkpt>
      <trkpt lat="49.33504" lon="0.85819">
        <ele>123.03</ele>
        <time>2015-10-11T08:03:22Z</time>
      </trkpt>
      <trkpt lat="49.33501" lon="0.85838">
        <ele>122.33</ele>
        <time>2015-10-11T08:03:24Z</time>
      </trkpt>
      <trkpt lat="49.33499" lon="0.85855">
        <ele>121.68</ele>
        <time>2015-10-11T08:03:26Z</time>
      </trkpt>
      <trkpt lat="49.33495" lon="0.85874">
        <ele>120.69</ele>
        <time>2015-10-11T08:03:28Z</time>
      </trkpt>
      <trkpt lat="49.33492" lon="0.85891">
        <ele>119.83</ele>
        <time>2015-10-11T08:03:30Z</time>
      </trkpt>
      <trkpt lat="49.33489" lon="0.8591">
        <ele>119.38</ele>
        <time>2015-10-11T08:03:32Z</time>
      </trkpt>
      <trkpt lat="49.33486" lon="0.85928">
        <ele>118.96</ele>
        <time>2015-10-11T08:03:34Z</time>
      </trkpt>
      <trkpt lat="49.33484" lon="0.85945">
        <ele>118.42</ele>
        <time>2015-10-11T08:03:36Z</time>
      </trkpt>
      <trkpt lat="49.33481" lon="0.85964">
        <ele>117.46</ele>
        <time>2015-10-11T08:03:38Z</time>
      </trkpt>
      <trkpt lat="49.33476" lon="0.85984">
        <ele>116.8</ele>
        <time>2015-10-11T08:03:40Z</time>
      </trkpt>
      <trkpt lat="49.33472" lon="0.86003">
        <ele>116.73</ele>
        <time>2015-10-11T08:03:42Z</time>
      </trkpt>
      <trkpt lat="49.33469" lon="0.86021">
        <ele>117.03</ele>
        <time>2015-10-11T08:03:44Z</time>
      </trkpt>
      <trkpt lat="49.33467" lon="0.86037">
        <ele>117.71</ele>
        <time>2015-10-11T08:03:46Z</time>
      </trkpt>
      <trkpt lat="49.33469" lon="0.86051">
        <ele>118.47</ele>
        <time>2015-10-11T08:03:48Z</time>
      </trkpt>
      <trkpt lat="49.33465" lon="0.86062">
        <ele>118.88</ele>
        <time>2015-10-11T08:03:50Z</time>
      </trkpt>
      <trkpt lat="49.33462" lon="0.86078">
        <ele>119.63</ele>
        <time>2015-10-11T08:03:52Z</time>
      </trkpt>
      <trkpt lat="49.33463" lon="0.86097">
        <ele>121.03</ele>
        <time>2015-10-11T08:03:54Z</time>
      </trkpt>
      <trkpt lat="49.33462" lon="0.86119">
        <ele>122.84</ele>
        <time>2015-10-11T08:03:56Z</time>
      </trkpt>
      <trkpt lat="49.3346" lon="0.86137">
        <ele>125.17</ele>
        <time>2015-10-11T08:03:58Z</time>
      </trkpt>
      <trkpt lat="49.33458" lon="0.86157">
        <ele>126.83</ele>
        <time>2015-10-11T08:04:00Z</time>
      </trkpt>
      <trkpt lat="49.33457" lon="0.86173">
        <ele>127.64</ele>
        <time>2015-10-11T08:04:02Z</time>
      </trkpt>
      <trkpt lat="49.33458" lon="0.86192">
        <ele>128.5</ele>
        <time>2015-10-11T08:04:04Z</time>
      </trkpt>
      <trkpt lat="49.33454" lon="0.86213">
        <ele>129.48</ele>
        <time>2015-10-11T08:04:06Z</time>
      </trkpt>
      <trkpt lat="49.33451" lon="0.86234">
        <ele>129.81</ele>
        <time>2015-10-11T08:04:08Z</time>
      </trkpt>
      <trkpt lat="49.33446" lon="0.86257">
        <ele>129.39</ele>
        <time>2015-10-11T08:04:10Z</time>
      </trkpt>
      <trkpt lat="49.33443" lon="0.86279">
        <ele>127.99</ele>
        <time>2015-10-11T08:04:12Z</time>
      </trkpt>
      <trkpt lat="49.33439" lon="0.86301">
        <ele>125.88</ele>
        <time>2015-10-11T08:04:14Z</time>
      </trkpt>
      <trkpt lat="49.33435" lon="0.86324">
        <ele>123</ele>
        <time>2015-10-11T08:04:16Z</time>
      </trkpt>
      <trkpt lat="49.33431" lon="0.86349">
        <ele>120.8</ele>
        <time>2015-10-11T08:04:18Z</time>
      </trkpt>
      <trkpt lat="49.33428" lon="0.86371">
        <ele>118.62</ele>
        <time>2015-10-11T08:04:20Z</time>
      </trkpt>
      <trkpt lat="49.33424" lon="0.86389">
        <ele>116.95</ele>
        <time>2015-10-11T08:04:22Z</time>
      </trkpt>
      <trkpt lat="49.33423" lon="0.86402">
        <ele>116.07</ele>
        <time>2015-10-11T08:04:24Z</time>
      </trkpt>
      <trkpt lat="49.33427" lon="0.86407">
        <ele>115.51</ele>
        <time>2015-10-11T08:04:26Z</time>
      </trkpt>
      <trkpt lat="49.33435" lon="0.86413">
        <ele>114.74</ele>
        <time>2015-10-11T08:04:30Z</time>
      </trkpt>
      <trkpt lat="49.33441" lon="0.86416">
        <ele>114.54</ele>
        <time>2015-10-11T08:04:32Z</time>
      </trkpt>
      <trkpt lat="49.33448" lon="0.86423">
        <ele>113.92</ele>
        <time>2015-10-11T08:04:34Z</time>
      </trkpt>
      <trkpt lat="49.33454" lon="0.86432">
        <ele>113.45</ele>
        <time>2015-10-11T08:04:36Z</time>
      </trkpt>
      <trkpt lat="49.33462" lon="0.86441">
        <ele>111.62</ele>
        <time>2015-10-11T08:04:38Z</time>
      </trkpt>
      <trkpt lat="49.33472" lon="0.86446">
        <ele>110.3</ele>
        <time>2015-10-11T08:04:40Z</time>
      </trkpt>
      <trkpt lat="49.33479" lon="0.86454">
        <ele>109.95</ele>
        <time>2015-10-11T08:04:42Z</time>
      </trkpt>
      <trkpt lat="49.33483" lon="0.8647">
        <ele>109.7</ele>
        <time>2015-10-11T08:04:44Z</time>
      </trkpt>
      <trkpt lat="49.33491" lon="0.86475">
        <ele>109.5</ele>
        <time>2015-10-11T08:04:46Z</time>
      </trkpt>
      <trkpt lat="49.33499" lon="0.86476">
        <ele>108.81</ele>
        <time>2015-10-11T08:04:48Z</time>
      </trkpt>
      <trkpt lat="49.33505" lon="0.86482">
        <ele>108.41</ele>
        <time>2015-10-11T08:04:50Z</time>
      </trkpt>
      <trkpt lat="49.33512" lon="0.86485">
        <ele>108.12</ele>
        <time>2015-10-11T08:04:52Z</time>
      </trkpt>
      <trkpt lat="49.33519" lon="0.86488">
        <ele>107.94</ele>
        <time>2015-10-11T08:04:54Z</time>
      </trkpt>
      <trkpt lat="49.33523" lon="0.86489">
        <ele>107.87</ele>
        <time>2015-10-11T08:04:56Z</time>
      </trkpt>
      <trkpt lat="49.33532" lon="0.86488">
        <ele>108.23</ele>
        <time>2015-10-11T08:05:00Z</time>
      </trkpt>
      <trkpt lat="49.33536" lon="0.86491">
        <ele>108.54</ele>
        <time>2015-10-11T08:05:02Z</time>
      </trkpt>
      <trkpt lat="49.33542" lon="0.86493">
        <ele>108.92</ele>
        <time>2015-10-11T08:05:04Z</time>
      </trkpt>
      <trkpt lat="49.33547" lon="0.86494">
        <ele>109.33</ele>
        <time>2015-10-11T08:05:06Z</time>
      </trkpt>
      <trkpt lat="49.33552" lon="0.86495">
        <ele>109.74</ele>
        <time>2015-10-11T08:05:08Z</time>
      </trkpt>
      <trkpt lat="49.33557" lon="0.86499">
        <ele>110.11</ele>
        <time>2015-10-11T08:05:10Z</time>
      </trkpt>
      <trkpt lat="49.33562" lon="0.86501">
        <ele>110.51</ele>
        <time>2015-10-11T08:05:12Z</time>
      </trkpt>
      <trkpt lat="49.33567" lon="0.86503">
        <ele>110.92</ele>
        <time>2015-10-11T08:05:14Z</time>
      </trkpt>
      <trkpt lat="49.33572" lon="0.86507">
        <ele>111.29</ele>
        <time>2015-10-11T08:05:16Z</time>
      </trkpt>
      <trkpt lat="49.3358" lon="0.8651">
        <ele>111.97</ele>
        <time>2015-10-11T08:05:20Z</time>
      </trkpt>
      <trkpt lat="49.33586" lon="0.86513">
        <ele>112.29</ele>
        <time>2015-10-11T08:05:22Z</time>
      </trkpt>
      <trkpt lat="49.33591" lon="0.86515">
        <ele>112.57</ele>
        <time>2015-10-11T08:05:24Z</time>
      </trkpt>
      <trkpt lat="49.33599" lon="0.86522">
        <ele>113.09</ele>
        <time>2015-10-11T08:05:28Z</time>
      </trkpt>
      <trkpt lat="49.33603" lon="0.86524">
        <ele>113.3</ele>
        <time>2015-10-11T08:05:30Z</time>
      </trkpt>
      <trkpt lat="49.33611" lon="0.86527">
        <ele>113.67</ele>
        <time>2015-10-11T08:05:34Z</time>
      </trkpt>
      <trkpt lat="49.33616" lon="0.86529">
        <ele>113.9</ele>
        <time>2015-10-11T08:05:36Z</time>
      </trkpt>
      <trkpt lat="49.33623" lon="0.86531">
        <ele>114.14</ele>
        <time>2015-10-11T08:05:38Z</time>
      </trkpt>
      <trkpt lat="49.33631" lon="0.86533">
        <ele>114.33</ele>
        <time>2015-10-11T08:05:40Z</time>
      </trkpt>
      <trkpt lat="49.33638" lon="0.86535">
        <ele>114.48</ele>
        <time>2015-10-11T08:05:42Z</time>
      </trkpt>
      <trkpt lat="49.33645" lon="0.86535">
        <ele>114.67</ele>
        <time>2015-10-11T08:05:44Z</time>
      </trkpt>
      <trkpt lat="49.33651" lon="0.86539">
        <ele>114.92</ele>
        <time>2015-10-11T08:05:46Z</time>
      </trkpt>
      <trkpt lat="49.33659" lon="0.86542">
        <ele>115.87</ele>
        <time>2015-10-11T08:05:48Z</time>
      </trkpt>
      <trkpt lat="49.33664" lon="0.86547">
        <ele>116.44</ele>
        <time>2015-10-11T08:05:50Z</time>
      </trkpt>
      <trkpt lat="49.3367" lon="0.86548">
        <ele>116.78</ele>
        <time>2015-10-11T08:05:52Z</time>
      </trkpt>
      <trkpt lat="49.33678" lon="0.86549">
        <ele>117.32</ele>
        <time>2015-10-11T08:05:54Z</time>
      </trkpt>
      <trkpt lat="49.33684" lon="0.86552">
        <ele>117.51</ele>
        <time>2015-10-11T08:05:56Z</time>
      </trkpt>
      <trkpt lat="49.33693" lon="0.86555">
        <ele>117.11</ele>
        <time>2015-10-11T08:05:58Z</time>
      </trkpt>
      <trkpt lat="49.337" lon="0.86555">
        <ele>116.88</ele>
        <time>2015-10-11T08:06:00Z</time>
      </trkpt>
      <trkpt lat="49.33709" lon="0.86558">
        <ele>116.57</ele>
        <time>2015-10-11T08:06:02Z</time>
      </trkpt>
      <trkpt lat="49.33719" lon="0.86562">
        <ele>116.33</ele>
        <time>2015-10-11T08:06:04Z</time>
      </trkpt>
      <trkpt lat="49.33725" lon="0.86567">
        <ele>116.12</ele>
        <time>2015-10-11T08:06:06Z</time>
      </trkpt>
      <trkpt lat="49.33734" lon="0.86574">
        <ele>115.22</ele>
        <time>2015-10-11T08:06:08Z</time>
      </trkpt>
      <trkpt lat="49.33742" lon="0.86578">
        <ele>114.63</ele>
        <time>2015-10-11T08:06:10Z</time>
      </trkpt>
      <trkpt lat="49.33751" lon="0.86583">
        <ele>113.94</ele>
        <time>2015-10-11T08:06:12Z</time>
      </trkpt>
      <trkpt lat="49.3376" lon="0.86586">
        <ele>113.3</ele>
        <time>2015-10-11T08:06:14Z</time>
      </trkpt>
      <trkpt lat="49.33771" lon="0.8659">
        <ele>112.15</ele>
        <time>2015-10-11T08:06:16Z</time>
      </trkpt>
      <trkpt lat="49.3378" lon="0.86591">
        <ele>111.53</ele>
        <time>2015-10-11T08:06:18Z</time>
      </trkpt>
      <trkpt lat="49.33788" lon="0.86594">
        <ele>111</ele>
        <time>2015-10-11T08:06:20Z</time>
      </trkpt>
      <trkpt lat="49.33798" lon="0.866">
        <ele>110.85</ele>
        <time>2015-10-11T08:06:22Z</time>
      </trkpt>
      <trkpt lat="49.33804" lon="0.86612">
        <ele>111.04</ele>
        <time>2015-10-11T08:06:24Z</time>
      </trkpt>
      <trkpt lat="49.33802" lon="0.86626">
        <ele>113.06</ele>
        <time>2015-10-11T08:06:26Z</time>
      </trkpt>
      <trkpt lat="49.33804" lon="0.86642">
        <ele>115.48</ele>
        <time>2015-10-11T08:06:28Z</time>
      </trkpt>
      <trkpt lat="49.33804" lon="0.86657">
        <ele>118.34</ele>
        <time>2015-10-11T08:06:30Z</time>
      </trkpt>
      <trkpt lat="49.33805" lon="0.86674">
        <ele>121.49</ele>
        <time>2015-10-11T08:06:32Z</time>
      </trkpt>
      <trkpt lat="49.33804" lon="0.86691">
        <ele>124.42</ele>
        <time>2015-10-11T08:06:34Z</time>
      </trkpt>
      <trkpt lat="49.33803" lon="0.86708">
        <ele>126.3</ele>
        <time>2015-10-11T08:06:36Z</time>
      </trkpt>
      <trkpt lat="49.33802" lon="0.86725">
        <ele>127.19</ele>
        <time>2015-10-11T08:06:38Z</time>
      </trkpt>
      <trkpt lat="49.33801" lon="0.86743">
        <ele>127.96</ele>
        <time>2015-10-11T08:06:40Z</time>
      </trkpt>
      <trkpt lat="49.33799" lon="0.86763">
        <ele>128.55</ele>
        <time>2015-10-11T08:06:42Z</time>
      </trkpt>
      <trkpt lat="49.33798" lon="0.86781">
        <ele>128.46</ele>
        <time>2015-10-11T08:06:44Z</time>
      </trkpt>
      <trkpt lat="49.33796" lon="0.86801">
        <ele>128.51</ele>
        <time>2015-10-11T08:06:46Z</time>
      </trkpt>
      <trkpt lat="49.33792" lon="0.86822">
        <ele>128.55</ele>
        <time>2015-10-11T08:06:48Z</time>
      </trkpt>
      <trkpt lat="49.33787" lon="0.86845">
        <ele>127.97</ele>
        <time>2015-10-11T08:06:50Z</time>
      </trkpt>
      <trkpt lat="49.33791" lon="0.86857">
        <ele>126.58</ele>
        <time>2015-10-11T08:06:52Z</time>
      </trkpt>
      <trkpt lat="49.33796" lon="0.86861">
        <ele>125.06</ele>
        <time>2015-10-11T08:06:54Z</time>
      </trkpt>
      <trkpt lat="49.33798" lon="0.86873">
        <ele>122.86</ele>
        <time>2015-10-11T08:06:56Z</time>
      </trkpt>
      <trkpt lat="49.33804" lon="0.86887">
        <ele>120.66</ele>
        <time>2015-10-11T08:06:58Z</time>
      </trkpt>
      <trkpt lat="49.33808" lon="0.86901">
        <ele>118.47</ele>
        <time>2015-10-11T08:07:00Z</time>
      </trkpt>
      <trkpt lat="49.33817" lon="0.8692">
        <ele>115.79</ele>
        <time>2015-10-11T08:07:02Z</time>
      </trkpt>
      <trkpt lat="49.33826" lon="0.86933">
        <ele>113.79</ele>
        <time>2015-10-11T08:07:04Z</time>
      </trkpt>
      <trkpt lat="49.33838" lon="0.86939">
        <ele>112.11</ele>
        <time>2015-10-11T08:07:06Z</time>
      </trkpt>
      <trkpt lat="49.33852" lon="0.86947">
        <ele>110.45</ele>
        <time>2015-10-11T08:07:08Z</time>
      </trkpt>
      <trkpt lat="49.33864" lon="0.86952">
        <ele>109.51</ele>
        <time>2015-10-11T08:07:10Z</time>
      </trkpt>
      <trkpt lat="49.33876" lon="0.86957">
        <ele>108.65</ele>
        <time>2015-10-11T08:07:12Z</time>
      </trkpt>
      <trkpt lat="49.33887" lon="0.86962">
        <ele>107.14</ele>
        <time>2015-10-11T08:07:14Z</time>
      </trkpt>
      <trkpt lat="49.33901" lon="0.86967">
        <ele>106.33</ele>
        <time>2015-10-11T08:07:16Z</time>
      </trkpt>
      <trkpt lat="49.33914" lon="0.86975">
        <ele>105.56</ele>
        <time>2015-10-11T08:07:18Z</time>
      </trkpt>
      <trkpt lat="49.33917" lon="0.86988">
        <ele>104.76</ele>
        <time>2015-10-11T08:07:20Z</time>
      </trkpt>
      <trkpt lat="49.33915" lon="0.87006">
        <ele>103.42</ele>
        <time>2015-10-11T08:07:22Z</time>
      </trkpt>
      <trkpt lat="49.33915" lon="0.87027">
        <ele>102</ele>
        <time>2015-10-11T08:07:24Z</time>
      </trkpt>
      <trkpt lat="49.3392" lon="0.87047">
        <ele>101.1</ele>
        <time>2015-10-11T08:07:26Z</time>
      </trkpt>
      <trkpt lat="49.33925" lon="0.87067">
        <ele>100.42</ele>
        <time>2015-10-11T08:07:28Z</time>
      </trkpt>
      <trkpt lat="49.33932" lon="0.87088">
        <ele>99.44</ele>
        <time>2015-10-11T08:07:30Z</time>
      </trkpt>
      <trkpt lat="49.3394" lon="0.87109">
        <ele>98.38</ele>
        <time>2015-10-11T08:07:32Z</time>
      </trkpt>
      <trkpt lat="49.33948" lon="0.87129">
        <ele>97.21</ele>
        <time>2015-10-11T08:07:34Z</time>
      </trkpt>
      <trkpt lat="49.33958" lon="0.87146">
        <ele>96.61</ele>
        <time>2015-10-11T08:07:36Z</time>
      </trkpt>
      <trkpt lat="49.33968" lon="0.87157">
        <ele>96.23</ele>
        <time>2015-10-11T08:07:38Z</time>
      </trkpt>
      <trkpt lat="49.3398" lon="0.87171">
        <ele>96.19</ele>
        <time>2015-10-11T08:07:40Z</time>
      </trkpt>
      <trkpt lat="49.33991" lon="0.87185">
        <ele>95.57</ele>
        <time>2015-10-11T08:07:42Z</time>
      </trkpt>
      <trkpt lat="49.34004" lon="0.87201">
        <ele>95.04</ele>
        <time>2015-10-11T08:07:44Z</time>
      </trkpt>
      <trkpt lat="49.34016" lon="0.87213">
        <ele>94.85</ele>
        <time>2015-10-11T08:07:46Z</time>
      </trkpt>
      <trkpt lat="49.34027" lon="0.87221">
        <ele>94.93</ele>
        <time>2015-10-11T08:07:48Z</time>
      </trkpt>
      <trkpt lat="49.34036" lon="0.87227">
        <ele>95.95</ele>
        <time>2015-10-11T08:07:50Z</time>
      </trkpt>
      <trkpt lat="49.34043" lon="0.87235">
        <ele>97.29</ele>
        <time>2015-10-11T08:07:52Z</time>
      </trkpt>
      <trkpt lat="49.34051" lon="0.87243">
        <ele>98.03</ele>
        <time>2015-10-11T08:07:54Z</time>
      </trkpt>
      <trkpt lat="49.34056" lon="0.87252">
        <ele>98.51</ele>
        <time>2015-10-11T08:07:56Z</time>
      </trkpt>
      <trkpt lat="49.34061" lon="0.87263">
        <ele>98.58</ele>
        <time>2015-10-11T08:07:58Z</time>
      </trkpt>
      <trkpt lat="49.34069" lon="0.87274">
        <ele>98.58</ele>
        <time>2015-10-11T08:08:00Z</time>
      </trkpt>
      <trkpt lat="49.34076" lon="0.87288">
        <ele>98.49</ele>
        <time>2015-10-11T08:08:02Z</time>
      </trkpt>
      <trkpt lat="49.34082" lon="0.87303">
        <ele>98.42</ele>
        <time>2015-10-11T08:08:04Z</time>
      </trkpt>
      <trkpt lat="49.3409" lon="0.87316">
        <ele>98.03</ele>
        <time>2015-10-11T08:08:06Z</time>
      </trkpt>
      <trkpt lat="49.34095" lon="0.8733">
        <ele>97.46</ele>
        <time>2015-10-11T08:08:08Z</time>
      </trkpt>
      <trkpt lat="49.341" lon="0.87346">
        <ele>96.61</ele>
        <time>2015-10-11T08:08:10Z</time>
      </trkpt>
      <trkpt lat="49.34104" lon="0.87363">
        <ele>96.29</ele>
        <time>2015-10-11T08:08:12Z</time>
      </trkpt>
      <trkpt lat="49.34108" lon="0.87379">
        <ele>96.19</ele>
        <time>2015-10-11T08:08:14Z</time>
      </trkpt>
      <trkpt lat="49.34114" lon="0.87394">
        <ele>96.11</ele>
        <time>2015-10-11T08:08:16Z</time>
      </trkpt>
      <trkpt lat="49.34117" lon="0.87414">
        <ele>95.92</ele>
        <time>2015-10-11T08:08:18Z</time>
      </trkpt>
      <trkpt lat="49.34121" lon="0.87431">
        <ele>95.29</ele>
        <time>2015-10-11T08:08:20Z</time>
      </trkpt>
      <trkpt lat="49.34124" lon="0.87447">
        <ele>94.58</ele>
        <time>2015-10-11T08:08:22Z</time>
      </trkpt>
      <trkpt lat="49.34128" lon="0.87462">
        <ele>93.7</ele>
        <time>2015-10-11T08:08:24Z</time>
      </trkpt>
      <trkpt lat="49.34135" lon="0.87476">
        <ele>93.78</ele>
        <time>2015-10-11T08:08:26Z</time>
      </trkpt>
      <trkpt lat="49.3414" lon="0.87493">
        <ele>94.28</ele>
        <time>2015-10-11T08:08:28Z</time>
      </trkpt>
      <trkpt lat="49.34143" lon="0.87511">
        <ele>94.8</ele>
        <time>2015-10-11T08:08:30Z</time>
      </trkpt>
      <trkpt lat="49.34145" lon="0.87531">
        <ele>95.29</ele>
        <time>2015-10-11T08:08:32Z</time>
      </trkpt>
      <trkpt lat="49.34149" lon="0.87547">
        <ele>96.37</ele>
        <time>2015-10-11T08:08:34Z</time>
      </trkpt>
      <trkpt lat="49.3415" lon="0.87567">
        <ele>96.66</ele>
        <time>2015-10-11T08:08:36Z</time>
      </trkpt>
      <trkpt lat="49.34148" lon="0.87588">
        <ele>96.38</ele>
        <time>2015-10-11T08:08:38Z</time>
      </trkpt>
      <trkpt lat="49.34146" lon="0.87609">
        <ele>95.59</ele>
        <time>2015-10-11T08:08:40Z</time>
      </trkpt>
      <trkpt lat="49.34141" lon="0.87626">
        <ele>94.9</ele>
        <time>2015-10-11T08:08:42Z</time>
      </trkpt>
      <trkpt lat="49.34134" lon="0.87647">
        <ele>94.78</ele>
        <time>2015-10-11T08:08:44Z</time>
      </trkpt>
      <trkpt lat="49.34125" lon="0.87667">
        <ele>94.98</ele>
        <time>2015-10-11T08:08:46Z</time>
      </trkpt>
      <trkpt lat="49.3412" lon="0.87685">
        <ele>95.02</ele>
        <time>2015-10-11T08:08:48Z</time>
      </trkpt>
      <trkpt lat="49.34117" lon="0.87701">
        <ele>94.88</ele>
        <time>2015-10-11T08:08:50Z</time>
      </trkpt>
      <trkpt lat="49.34112" lon="0.87711">
        <ele>94.79</ele>
        <time>2015-10-11T08:08:52Z</time>
      </trkpt>
      <trkpt lat="49.34107" lon="0.87723">
        <ele>94.71</ele>
        <time>2015-10-11T08:08:53Z</time>
      </trkpt>
      <trkpt lat="49.34103" lon="0.87734">
        <ele>94.65</ele>
        <time>2015-10-11T08:08:55Z</time>
      </trkpt>
      <trkpt lat="49.34098" lon="0.87749">
        <ele>94.98</ele>
        <time>2015-10-11T08:08:57Z</time>
      </trkpt>
      <trkpt lat="49.34092" lon="0.87767">
        <ele>93.93</ele>
        <time>2015-10-11T08:08:59Z</time>
      </trkpt>
      <trkpt lat="49.3409" lon="0.87776">
        <ele>93.33</ele>
        <time>2015-10-11T08:09:01Z</time>
      </trkpt>
      <trkpt lat="49.34088" lon="0.87786">
        <ele>92.95</ele>
        <time>2015-10-11T08:09:03Z</time>
      </trkpt>
      <trkpt lat="49.34085" lon="0.87798">
        <ele>92.66</ele>
        <time>2015-10-11T08:09:05Z</time>
      </trkpt>
      <trkpt lat="49.34082" lon="0.87813">
        <ele>91.68</ele>
        <time>2015-10-11T08:09:07Z</time>
      </trkpt>
      <trkpt lat="49.34084" lon="0.87828">
        <ele>90.46</ele>
        <time>2015-10-11T08:09:09Z</time>
      </trkpt>
      <trkpt lat="49.34085" lon="0.87846">
        <ele>89.05</ele>
        <time>2015-10-11T08:09:11Z</time>
      </trkpt>
      <trkpt lat="49.34086" lon="0.87866">
        <ele>87.18</ele>
        <time>2015-10-11T08:09:13Z</time>
      </trkpt>
      <trkpt lat="49.3409" lon="0.87883">
        <ele>85.36</ele>
        <time>2015-10-11T08:09:15Z</time>
      </trkpt>
      <trkpt lat="49.34096" lon="0.87895">
        <ele>84.11</ele>
        <time>2015-10-11T08:09:17Z</time>
      </trkpt>
      <trkpt lat="49.34099" lon="0.87909">
        <ele>83.37</ele>
        <time>2015-10-11T08:09:19Z</time>
      </trkpt>
      <trkpt lat="49.34095" lon="0.87921">
        <ele>82.87</ele>
        <time>2015-10-11T08:09:21Z</time>
      </trkpt>
      <trkpt lat="49.34089" lon="0.87935">
        <ele>81.88</ele>
        <time>2015-10-11T08:09:23Z</time>
      </trkpt>
      <trkpt lat="49.34087" lon="0.87951">
        <ele>80.73</ele>
        <time>2015-10-11T08:09:25Z</time>
      </trkpt>
      <trkpt lat="49.34089" lon="0.87956">
        <ele>80.05</ele>
        <time>2015-10-11T08:09:27Z</time>
      </trkpt>
      <trkpt lat="49.34095" lon="0.87956">
        <ele>79.65</ele>
        <time>2015-10-11T08:09:29Z</time>
      </trkpt>
      <trkpt lat="49.34103" lon="0.87965">
        <ele>78.89</ele>
        <time>2015-10-11T08:09:31Z</time>
      </trkpt>
      <trkpt lat="49.34108" lon="0.8797">
        <ele>78.41</ele>
        <time>2015-10-11T08:09:33Z</time>
      </trkpt>
      <trkpt lat="49.34113" lon="0.87965">
        <ele>78.14</ele>
        <time>2015-10-11T08:09:35Z</time>
      </trkpt>
      <trkpt lat="49.34118" lon="0.87968">
        <ele>78.08</ele>
        <time>2015-10-11T08:09:37Z</time>
      </trkpt>
      <trkpt lat="49.34123" lon="0.87978">
        <ele>78.07</ele>
        <time>2015-10-11T08:09:39Z</time>
      </trkpt>
      <trkpt lat="49.34129" lon="0.87983">
        <ele>77.99</ele>
        <time>2015-10-11T08:09:41Z</time>
      </trkpt>
      <trkpt lat="49.34134" lon="0.87989">
        <ele>77.89</ele>
        <time>2015-10-11T08:09:43Z</time>
      </trkpt>
      <trkpt lat="49.3414" lon="0.87996">
        <ele>77.73</ele>
        <time>2015-10-11T08:09:45Z</time>
      </trkpt>
      <trkpt lat="49.34143" lon="0.88002">
        <ele>77.6</ele>
        <time>2015-10-11T08:09:47Z</time>
      </trkpt>
      <trkpt lat="49.34139" lon="0.88014">
        <ele>77.42</ele>
        <time>2015-10-11T08:09:51Z</time>
      </trkpt>
      <trkpt lat="49.34138" lon="0.88022">
        <ele>77.41</ele>
        <time>2015-10-11T08:09:53Z</time>
      </trkpt>
      <trkpt lat="49.34139" lon="0.88034">
        <ele>78.16</ele>
        <time>2015-10-11T08:09:55Z</time>
      </trkpt>
      <trkpt lat="49.34139" lon="0.88041">
        <ele>78.69</ele>
        <time>2015-10-11T08:09:57Z</time>
      </trkpt>
      <trkpt lat="49.34139" lon="0.88052">
        <ele>79.16</ele>
        <time>2015-10-11T08:09:59Z</time>
      </trkpt>
      <trkpt lat="49.34135" lon="0.88067">
        <ele>80.13</ele>
        <time>2015-10-11T08:10:03Z</time>
      </trkpt>
      <trkpt lat="49.34131" lon="0.88074">
        <ele>80.6</ele>
        <time>2015-10-11T08:10:05Z</time>
      </trkpt>
      <trkpt lat="49.34126" lon="0.88074">
        <ele>81.58</ele>
        <time>2015-10-11T08:10:09Z</time>
      </trkpt>
      <trkpt lat="49.34121" lon="0.88071">
        <ele>82.07</ele>
        <time>2015-10-11T08:10:11Z</time>
      </trkpt>
      <trkpt lat="49.34116" lon="0.88068">
        <ele>82.58</ele>
        <time>2015-10-11T08:10:13Z</time>
      </trkpt>
      <trkpt lat="49.341" lon="0.88047">
        <ele>85.19</ele>
        <time>2015-10-11T08:10:27Z</time>
      </trkpt>
      <trkpt lat="49.34091" lon="0.88043">
        <ele>86.17</ele>
        <time>2015-10-11T08:10:37Z</time>
      </trkpt>
      <trkpt lat="49.34087" lon="0.88051">
        <ele>86.48</ele>
        <time>2015-10-11T08:10:43Z</time>
      </trkpt>
      <trkpt lat="49.34081" lon="0.88053">
        <ele>86.68</ele>
        <time>2015-10-11T08:10:47Z</time>
      </trkpt>
      <trkpt lat="49.34078" lon="0.88059">
        <ele>87</ele>
        <time>2015-10-11T08:10:51Z</time>
      </trkpt>
      <trkpt lat="49.34077" lon="0.88066">
        <ele>87.43</ele>
        <time>2015-10-11T08:10:55Z</time>
      </trkpt>
      <trkpt lat="49.34077" lon="0.88075">
        <ele>87.74</ele>
        <time>2015-10-11T08:10:59Z</time>
      </trkpt>
      <trkpt lat="49.34077" lon="0.88088">
        <ele>88.23</ele>
        <time>2015-10-11T08:11:03Z</time>
      </trkpt>
      <trkpt lat="49.34077" lon="0.88095">
        <ele>88.48</ele>
        <time>2015-10-11T08:11:05Z</time>
      </trkpt>
      <trkpt lat="49.34077" lon="0.88106">
        <ele>88.71</ele>
        <time>2015-10-11T08:11:07Z</time>
      </trkpt>
      <trkpt lat="49.34079" lon="0.88113">
        <ele>88.89</ele>
        <time>2015-10-11T08:11:09Z</time>
      </trkpt>
      <trkpt lat="49.34081" lon="0.88126">
        <ele>89.01</ele>
        <time>2015-10-11T08:11:11Z</time>
      </trkpt>
      <trkpt lat="49.34077" lon="0.88138">
        <ele>89.13</ele>
        <time>2015-10-11T08:11:13Z</time>
      </trkpt>
      <trkpt lat="49.34077" lon="0.88152">
        <ele>89.21</ele>
        <time>2015-10-11T08:11:15Z</time>
      </trkpt>
      <trkpt lat="49.34076" lon="0.88161">
        <ele>89.27</ele>
        <time>2015-10-11T08:11:17Z</time>
      </trkpt>
      <trkpt lat="49.34074" lon="0.8817">
        <ele>89.28</ele>
        <time>2015-10-11T08:11:19Z</time>
      </trkpt>
      <trkpt lat="49.3407" lon="0.8818">
        <ele>89.26</ele>
        <time>2015-10-11T08:11:21Z</time>
      </trkpt>
      <trkpt lat="49.34066" lon="0.88189">
        <ele>89.22</ele>
        <time>2015-10-11T08:11:23Z</time>
      </trkpt>
      <trkpt lat="49.34063" lon="0.88199">
        <ele>89.22</ele>
        <time>2015-10-11T08:11:25Z</time>
      </trkpt>
      <trkpt lat="49.34063" lon="0.88208">
        <ele>89.26</ele>
        <time>2015-10-11T08:11:27Z</time>
      </trkpt>
      <trkpt lat="49.3406" lon="0.8822">
        <ele>89.33</ele>
        <time>2015-10-11T08:11:29Z</time>
      </trkpt>
      <trkpt lat="49.34058" lon="0.8823">
        <ele>89.39</ele>
        <time>2015-10-11T08:11:31Z</time>
      </trkpt>
      <trkpt lat="49.34056" lon="0.88241">
        <ele>89.43</ele>
        <time>2015-10-11T08:11:33Z</time>
      </trkpt>
      <trkpt lat="49.34054" lon="0.88254">
        <ele>89.46</ele>
        <time>2015-10-11T08:11:35Z</time>
      </trkpt>
      <trkpt lat="49.34051" lon="0.88266">
        <ele>89.47</ele>
        <time>2015-10-11T08:11:37Z</time>
      </trkpt>
      <trkpt lat="49.3405" lon="0.88276">
        <ele>89.36</ele>
        <time>2015-10-11T08:11:39Z</time>
      </trkpt>
      <trkpt lat="49.34053" lon="0.88289">
        <ele>88.72</ele>
        <time>2015-10-11T08:11:41Z</time>
      </trkpt>
      <trkpt lat="49.34058" lon="0.8831">
        <ele>87.88</ele>
        <time>2015-10-11T08:11:49Z</time>
      </trkpt>
      <trkpt lat="49.34063" lon="0.8831">
        <ele>88.03</ele>
        <time>2015-10-11T08:11:53Z</time>
      </trkpt>
      <trkpt lat="49.34068" lon="0.88313">
        <ele>88.53</ele>
        <time>2015-10-11T08:11:57Z</time>
      </trkpt>
      <trkpt lat="49.34073" lon="0.88318">
        <ele>89.48</ele>
        <time>2015-10-11T08:12:01Z</time>
      </trkpt>
      <trkpt lat="49.34081" lon="0.88322">
        <ele>91.14</ele>
        <time>2015-10-11T08:12:07Z</time>
      </trkpt>
      <trkpt lat="49.34085" lon="0.88326">
        <ele>92.19</ele>
        <time>2015-10-11T08:12:11Z</time>
      </trkpt>
      <trkpt lat="49.34093" lon="0.88328">
        <ele>93.09</ele>
        <time>2015-10-11T08:12:15Z</time>
      </trkpt>
      <trkpt lat="49.34102" lon="0.88334">
        <ele>94.55</ele>
        <time>2015-10-11T08:12:21Z</time>
      </trkpt>
      <trkpt lat="49.34106" lon="0.88336">
        <ele>94.99</ele>
        <time>2015-10-11T08:12:23Z</time>
      </trkpt>
      <trkpt lat="49.34115" lon="0.88339">
        <ele>95.77</ele>
        <time>2015-10-11T08:12:27Z</time>
      </trkpt>
      <trkpt lat="49.34119" lon="0.88342">
        <ele>96.11</ele>
        <time>2015-10-11T08:12:29Z</time>
      </trkpt>
      <trkpt lat="49.34126" lon="0.88347">
        <ele>96.86</ele>
        <time>2015-10-11T08:12:33Z</time>
      </trkpt>
      <trkpt lat="49.34132" lon="0.88349">
        <ele>97.22</ele>
        <time>2015-10-11T08:12:35Z</time>
      </trkpt>
      <trkpt lat="49.34137" lon="0.8835">
        <ele>97.56</ele>
        <time>2015-10-11T08:12:37Z</time>
      </trkpt>
      <trkpt lat="49.34143" lon="0.88353">
        <ele>97.9</ele>
        <time>2015-10-11T08:12:39Z</time>
      </trkpt>
      <trkpt lat="49.34149" lon="0.88355">
        <ele>98.17</ele>
        <time>2015-10-11T08:12:41Z</time>
      </trkpt>
      <trkpt lat="49.34155" lon="0.88358">
        <ele>98.39</ele>
        <time>2015-10-11T08:12:43Z</time>
      </trkpt>
      <trkpt lat="49.34164" lon="0.88361">
        <ele>99.23</ele>
        <time>2015-10-11T08:12:45Z</time>
      </trkpt>
      <trkpt lat="49.34173" lon="0.88364">
        <ele>99.84</ele>
        <time>2015-10-11T08:12:47Z</time>
      </trkpt>
      <trkpt lat="49.34185" lon="0.88368">
        <ele>100.41</ele>
        <time>2015-10-11T08:12:49Z</time>
      </trkpt>
      <trkpt lat="49.34193" lon="0.88371">
        <ele>100.74</ele>
        <time>2015-10-11T08:12:51Z</time>
      </trkpt>
      <trkpt lat="49.34201" lon="0.88375">
        <ele>100.95</ele>
        <time>2015-10-11T08:12:53Z</time>
      </trkpt>
      <trkpt lat="49.34211" lon="0.88376">
        <ele>100.84</ele>
        <time>2015-10-11T08:12:55Z</time>
      </trkpt>
      <trkpt lat="49.34218" lon="0.8838">
        <ele>100.7</ele>
        <time>2015-10-11T08:12:57Z</time>
      </trkpt>
      <trkpt lat="49.34228" lon="0.88382">
        <ele>99.98</ele>
        <time>2015-10-11T08:12:59Z</time>
      </trkpt>
      <trkpt lat="49.34238" lon="0.88386">
        <ele>99.23</ele>
        <time>2015-10-11T08:13:01Z</time>
      </trkpt>
      <trkpt lat="49.34249" lon="0.88391">
        <ele>99.22</ele>
        <time>2015-10-11T08:13:03Z</time>
      </trkpt>
      <trkpt lat="49.34259" lon="0.88396">
        <ele>98.98</ele>
        <time>2015-10-11T08:13:05Z</time>
      </trkpt>
      <trkpt lat="49.34271" lon="0.884">
        <ele>98.71</ele>
        <time>2015-10-11T08:13:07Z</time>
      </trkpt>
      <trkpt lat="49.34283" lon="0.88404">
        <ele>98.6</ele>
        <time>2015-10-11T08:13:09Z</time>
      </trkpt>
      <trkpt lat="49.34298" lon="0.8841">
        <ele>98.64</ele>
        <time>2015-10-11T08:13:11Z</time>
      </trkpt>
      <trkpt lat="49.34312" lon="0.88416">
        <ele>98.08</ele>
        <time>2015-10-11T08:13:13Z</time>
      </trkpt>
      <trkpt lat="49.34329" lon="0.88422">
        <ele>96.67</ele>
        <time>2015-10-11T08:13:15Z</time>
      </trkpt>
      <trkpt lat="49.34345" lon="0.88429">
        <ele>94.9</ele>
        <time>2015-10-11T08:13:17Z</time>
      </trkpt>
      <trkpt lat="49.34363" lon="0.88435">
        <ele>93.23</ele>
        <time>2015-10-11T08:13:19Z</time>
      </trkpt>
      <trkpt lat="49.34383" lon="0.88442">
        <ele>91.18</ele>
        <time>2015-10-11T08:13:21Z</time>
      </trkpt>
      <trkpt lat="49.34401" lon="0.88449">
        <ele>89.25</ele>
        <time>2015-10-11T08:13:23Z</time>
      </trkpt>
      <trkpt lat="49.34418" lon="0.88456">
        <ele>87.23</ele>
        <time>2015-10-11T08:13:25Z</time>
      </trkpt>
      <trkpt lat="49.34427" lon="0.88454">
        <ele>85.29</ele>
        <time>2015-10-11T08:13:27Z</time>
      </trkpt>
      <trkpt lat="49.34435" lon="0.88442">
        <ele>83.57</ele>
        <time>2015-10-11T08:13:29Z</time>
      </trkpt>
      <trkpt lat="49.34441" lon="0.8843">
        <ele>82.36</ele>
        <time>2015-10-11T08:13:31Z</time>
      </trkpt>
      <trkpt lat="49.34447" lon="0.88415">
        <ele>80.82</ele>
        <time>2015-10-11T08:13:33Z</time>
      </trkpt>
      <trkpt lat="49.34453" lon="0.88407">
        <ele>79.5</ele>
        <time>2015-10-11T08:13:35Z</time>
      </trkpt>
      <trkpt lat="49.34461" lon="0.88405">
        <ele>78.71</ele>
        <time>2015-10-11T08:13:37Z</time>
      </trkpt>
      <trkpt lat="49.34468" lon="0.88411">
        <ele>78.23</ele>
        <time>2015-10-11T08:13:39Z</time>
      </trkpt>
      <trkpt lat="49.34477" lon="0.88415">
        <ele>77.37</ele>
        <time>2015-10-11T08:13:41Z</time>
      </trkpt>
      <trkpt lat="49.3448" lon="0.88424">
        <ele>76.56</ele>
        <time>2015-10-11T08:13:43Z</time>
      </trkpt>
      <trkpt lat="49.34481" lon="0.88437">
        <ele>75.84</ele>
        <time>2015-10-11T08:13:45Z</time>
      </trkpt>
      <trkpt lat="49.34486" lon="0.8845">
        <ele>74.27</ele>
        <time>2015-10-11T08:13:47Z</time>
      </trkpt>
      <trkpt lat="49.34486" lon="0.88466">
        <ele>72.61</ele>
        <time>2015-10-11T08:13:49Z</time>
      </trkpt>
      <trkpt lat="49.34489" lon="0.88479">
        <ele>70.84</ele>
        <time>2015-10-11T08:13:51Z</time>
      </trkpt>
      <trkpt lat="49.34497" lon="0.88485">
        <ele>68.87</ele>
        <time>2015-10-11T08:13:53Z</time>
      </trkpt>
      <trkpt lat="49.34503" lon="0.88494">
        <ele>66.83</ele>
        <time>2015-10-11T08:13:55Z</time>
      </trkpt>
      <trkpt lat="49.34503" lon="0.88507">
        <ele>65.76</ele>
        <time>2015-10-11T08:13:57Z</time>
      </trkpt>
      <trkpt lat="49.34503" lon="0.88517">
        <ele>65.21</ele>
        <time>2015-10-11T08:13:59Z</time>
      </trkpt>
      <trkpt lat="49.34501" lon="0.88527">
        <ele>64.86</ele>
        <time>2015-10-11T08:14:01Z</time>
      </trkpt>
      <trkpt lat="49.34497" lon="0.88541">
        <ele>64.63</ele>
        <time>2015-10-11T08:14:03Z</time>
      </trkpt>
      <trkpt lat="49.34491" lon="0.88552">
        <ele>63.86</ele>
        <time>2015-10-11T08:14:05Z</time>
      </trkpt>
      <trkpt lat="49.34484" lon="0.88564">
        <ele>63.09</ele>
        <time>2015-10-11T08:14:07Z</time>
      </trkpt>
      <trkpt lat="49.34477" lon="0.88572">
        <ele>62.44</ele>
        <time>2015-10-11T08:14:09Z</time>
      </trkpt>
      <trkpt lat="49.3447" lon="0.88582">
        <ele>62.19</ele>
        <time>2015-10-11T08:14:11Z</time>
      </trkpt>
      <trkpt lat="49.34466" lon="0.88592">
        <ele>62.14</ele>
        <time>2015-10-11T08:14:13Z</time>
      </trkpt>
      <trkpt lat="49.34461" lon="0.88605">
        <ele>62.26</ele>
        <time>2015-10-11T08:14:15Z</time>
      </trkpt>
      <trkpt lat="49.34456" lon="0.88618">
        <ele>64.19</ele>
        <time>2015-10-11T08:14:17Z</time>
      </trkpt>
      <trkpt lat="49.34452" lon="0.88628">
        <ele>66.51</ele>
        <time>2015-10-11T08:14:19Z</time>
      </trkpt>
      <trkpt lat="49.34448" lon="0.88637">
        <ele>67.83</ele>
        <time>2015-10-11T08:14:21Z</time>
      </trkpt>
      <trkpt lat="49.34445" lon="0.88645">
        <ele>68.61</ele>
        <time>2015-10-11T08:14:23Z</time>
      </trkpt>
      <trkpt lat="49.34443" lon="0.88654">
        <ele>69.12</ele>
        <time>2015-10-11T08:14:25Z</time>
      </trkpt>
      <trkpt lat="49.3444" lon="0.88664">
        <ele>70.14</ele>
        <time>2015-10-11T08:14:27Z</time>
      </trkpt>
      <trkpt lat="49.34438" lon="0.88673">
        <ele>70.74</ele>
        <time>2015-10-11T08:14:29Z</time>
      </trkpt>
      <trkpt lat="49.34437" lon="0.88682">
        <ele>71.11</ele>
        <time>2015-10-11T08:14:31Z</time>
      </trkpt>
      <trkpt lat="49.34437" lon="0.8869">
        <ele>71.33</ele>
        <time>2015-10-11T08:14:33Z</time>
      </trkpt>
      <trkpt lat="49.34434" lon="0.88699">
        <ele>71.53</ele>
        <time>2015-10-11T08:14:35Z</time>
      </trkpt>
      <trkpt lat="49.34432" lon="0.88705">
        <ele>71.72</ele>
        <time>2015-10-11T08:14:37Z</time>
      </trkpt>
      <trkpt lat="49.34431" lon="0.88712">
        <ele>71.84</ele>
        <time>2015-10-11T08:14:39Z</time>
      </trkpt>
      <trkpt lat="49.3443" lon="0.88723">
        <ele>71.98</ele>
        <time>2015-10-11T08:14:43Z</time>
      </trkpt>
      <trkpt lat="49.34431" lon="0.88734">
        <ele>72.3</ele>
        <time>2015-10-11T08:14:47Z</time>
      </trkpt>
      <trkpt lat="49.34433" lon="0.88743">
        <ele>72.78</ele>
        <time>2015-10-11T08:14:51Z</time>
      </trkpt>
      <trkpt lat="49.34434" lon="0.88755">
        <ele>73.68</ele>
        <time>2015-10-11T08:14:57Z</time>
      </trkpt>
      <trkpt lat="49.34437" lon="0.88763">
        <ele>74.52</ele>
        <time>2015-10-11T08:15:03Z</time>
      </trkpt>
      <trkpt lat="49.34443" lon="0.88775">
        <ele>75.55</ele>
        <time>2015-10-11T08:15:09Z</time>
      </trkpt>
      <trkpt lat="49.34448" lon="0.88789">
        <ele>76.7</ele>
        <time>2015-10-11T08:15:15Z</time>
      </trkpt>
      <trkpt lat="49.34452" lon="0.88798">
        <ele>77.47</ele>
        <time>2015-10-11T08:15:21Z</time>
      </trkpt>
      <trkpt lat="49.34456" lon="0.88809">
        <ele>79.15</ele>
        <time>2015-10-11T08:15:29Z</time>
      </trkpt>
      <trkpt lat="49.34461" lon="0.8882">
        <ele>81.12</ele>
        <time>2015-10-11T08:15:35Z</time>
      </trkpt>
      <trkpt lat="49.34469" lon="0.88844">
        <ele>84.77</ele>
        <time>2015-10-11T08:15:45Z</time>
      </trkpt>
      <trkpt lat="49.34472" lon="0.88853">
        <ele>85.49</ele>
        <time>2015-10-11T08:15:47Z</time>
      </trkpt>
      <trkpt lat="49.34473" lon="0.88868">
        <ele>87.46</ele>
        <time>2015-10-11T08:15:49Z</time>
      </trkpt>
      <trkpt lat="49.3447" lon="0.88875">
        <ele>88.69</ele>
        <time>2015-10-11T08:15:51Z</time>
      </trkpt>
      <trkpt lat="49.34475" lon="0.88882">
        <ele>90.1</ele>
        <time>2015-10-11T08:15:55Z</time>
      </trkpt>
      <trkpt lat="49.34482" lon="0.88884">
        <ele>91.03</ele>
        <time>2015-10-11T08:15:59Z</time>
      </trkpt>
      <trkpt lat="49.34491" lon="0.88891">
        <ele>92.51</ele>
        <time>2015-10-11T08:16:05Z</time>
      </trkpt>
      <trkpt lat="49.34497" lon="0.88895">
        <ele>93.43</ele>
        <time>2015-10-11T08:16:09Z</time>
      </trkpt>
      <trkpt lat="49.34502" lon="0.88899">
        <ele>94.33</ele>
        <time>2015-10-11T08:16:13Z</time>
      </trkpt>
      <trkpt lat="49.34508" lon="0.88902">
        <ele>95.06</ele>
        <time>2015-10-11T08:16:17Z</time>
      </trkpt>
      <trkpt lat="49.34513" lon="0.88909">
        <ele>95.72</ele>
        <time>2015-10-11T08:16:21Z</time>
      </trkpt>
      <trkpt lat="49.34513" lon="0.88917">
        <ele>96.32</ele>
        <time>2015-10-11T08:16:25Z</time>
      </trkpt>
      <trkpt lat="49.34508" lon="0.88924">
        <ele>96.85</ele>
        <time>2015-10-11T08:16:29Z</time>
      </trkpt>
      <trkpt lat="49.34498" lon="0.8893">
        <ele>97.41</ele>
        <time>2015-10-11T08:16:33Z</time>
      </trkpt>
      <trkpt lat="49.34492" lon="0.88934">
        <ele>97.94</ele>
        <time>2015-10-11T08:16:37Z</time>
      </trkpt>
      <trkpt lat="49.34485" lon="0.88939">
        <ele>98.64</ele>
        <time>2015-10-11T08:16:43Z</time>
      </trkpt>
      <trkpt lat="49.34478" lon="0.88942">
        <ele>99.46</ele>
        <time>2015-10-11T08:16:47Z</time>
      </trkpt>
      <trkpt lat="49.3447" lon="0.88947">
        <ele>100.17</ele>
        <time>2015-10-11T08:16:51Z</time>
      </trkpt>
      <trkpt lat="49.34466" lon="0.8895">
        <ele>100.48</ele>
        <time>2015-10-11T08:16:53Z</time>
      </trkpt>
      <trkpt lat="49.34462" lon="0.88954">
        <ele>100.8</ele>
        <time>2015-10-11T08:16:55Z</time>
      </trkpt>
      <trkpt lat="49.34458" lon="0.8896">
        <ele>101.15</ele>
        <time>2015-10-11T08:16:57Z</time>
      </trkpt>
      <trkpt lat="49.34456" lon="0.88966">
        <ele>101.48</ele>
        <time>2015-10-11T08:16:59Z</time>
      </trkpt>
      <trkpt lat="49.34451" lon="0.88971">
        <ele>101.76</ele>
        <time>2015-10-11T08:17:01Z</time>
      </trkpt>
      <trkpt lat="49.34446" lon="0.88983">
        <ele>102.35</ele>
        <time>2015-10-11T08:17:05Z</time>
      </trkpt>
      <trkpt lat="49.34442" lon="0.88989">
        <ele>102.65</ele>
        <time>2015-10-11T08:17:07Z</time>
      </trkpt>
      <trkpt lat="49.34439" lon="0.88997">
        <ele>102.92</ele>
        <time>2015-10-11T08:17:09Z</time>
      </trkpt>
      <trkpt lat="49.34437" lon="0.89004">
        <ele>103.17</ele>
        <time>2015-10-11T08:17:11Z</time>
      </trkpt>
      <trkpt lat="49.34433" lon="0.89011">
        <ele>103.46</ele>
        <time>2015-10-11T08:17:13Z</time>
      </trkpt>
      <trkpt lat="49.34428" lon="0.89018">
        <ele>103.72</ele>
        <time>2015-10-11T08:17:15Z</time>
      </trkpt>
      <trkpt lat="49.34426" lon="0.89028">
        <ele>104</ele>
        <time>2015-10-11T08:17:17Z</time>
      </trkpt>
      <trkpt lat="49.34422" lon="0.89038">
        <ele>104.21</ele>
        <time>2015-10-11T08:17:19Z</time>
      </trkpt>
      <trkpt lat="49.34419" lon="0.89048">
        <ele>104.34</ele>
        <time>2015-10-11T08:17:21Z</time>
      </trkpt>
      <trkpt lat="49.34417" lon="0.89056">
        <ele>104.48</ele>
        <time>2015-10-11T08:17:23Z</time>
      </trkpt>
      <trkpt lat="49.34414" lon="0.89067">
        <ele>104.63</ele>
        <time>2015-10-11T08:17:25Z</time>
      </trkpt>
      <trkpt lat="49.3441" lon="0.89077">
        <ele>104.78</ele>
        <time>2015-10-11T08:17:27Z</time>
      </trkpt>
      <trkpt lat="49.34409" lon="0.89088">
        <ele>104.98</ele>
        <time>2015-10-11T08:17:29Z</time>
      </trkpt>
      <trkpt lat="49.34408" lon="0.89098">
        <ele>105.24</ele>
        <time>2015-10-11T08:17:31Z</time>
      </trkpt>
      <trkpt lat="49.34408" lon="0.89108">
        <ele>105.49</ele>
        <time>2015-10-11T08:17:33Z</time>
      </trkpt>
      <trkpt lat="49.34408" lon="0.89117">
        <ele>105.73</ele>
        <time>2015-10-11T08:17:35Z</time>
      </trkpt>
      <trkpt lat="49.34411" lon="0.8913">
        <ele>106.16</ele>
        <time>2015-10-11T08:17:39Z</time>
      </trkpt>
      <trkpt lat="49.34413" lon="0.8914">
        <ele>106.38</ele>
        <time>2015-10-11T08:17:41Z</time>
      </trkpt>
      <trkpt lat="49.34414" lon="0.89149">
        <ele>106.57</ele>
        <time>2015-10-11T08:17:43Z</time>
      </trkpt>
      <trkpt lat="49.34418" lon="0.89161">
        <ele>106.85</ele>
        <time>2015-10-11T08:17:47Z</time>
      </trkpt>
      <trkpt lat="49.34421" lon="0.89167">
        <ele>106.98</ele>
        <time>2015-10-11T08:17:49Z</time>
      </trkpt>
      <trkpt lat="49.34423" lon="0.89175">
        <ele>107.07</ele>
        <time>2015-10-11T08:17:51Z</time>
      </trkpt>
      <trkpt lat="49.34425" lon="0.89184">
        <ele>107.22</ele>
        <time>2015-10-11T08:17:53Z</time>
      </trkpt>
      <trkpt lat="49.34427" lon="0.89195">
        <ele>107.31</ele>
        <time>2015-10-11T08:17:55Z</time>
      </trkpt>
      <trkpt lat="49.34427" lon="0.89209">
        <ele>107.62</ele>
        <time>2015-10-11T08:17:57Z</time>
      </trkpt>
      <trkpt lat="49.34429" lon="0.89223">
        <ele>107.81</ele>
        <time>2015-10-11T08:17:59Z</time>
      </trkpt>
      <trkpt lat="49.34431" lon="0.89238">
        <ele>108.26</ele>
        <time>2015-10-11T08:18:01Z</time>
      </trkpt>
      <trkpt lat="49.34433" lon="0.89254">
        <ele>108.62</ele>
        <time>2015-10-11T08:18:03Z</time>
      </trkpt>
      <trkpt lat="49.34435" lon="0.8927">
        <ele>108.79</ele>
        <time>2015-10-11T08:18:05Z</time>
      </trkpt>
      <trkpt lat="49.34438" lon="0.89285">
        <ele>109.07</ele>
        <time>2015-10-11T08:18:07Z</time>
      </trkpt>
      <trkpt lat="49.34442" lon="0.893">
        <ele>109.27</ele>
        <time>2015-10-11T08:18:09Z</time>
      </trkpt>
      <trkpt lat="49.34446" lon="0.89313">
        <ele>109.54</ele>
        <time>2015-10-11T08:18:11Z</time>
      </trkpt>
      <trkpt lat="49.34448" lon="0.89326">
        <ele>109.7</ele>
        <time>2015-10-11T08:18:13Z</time>
      </trkpt>
      <trkpt lat="49.34451" lon="0.89344">
        <ele>109.83</ele>
        <time>2015-10-11T08:18:16Z</time>
      </trkpt>
      <trkpt lat="49.34456" lon="0.89356">
        <ele>109.89</ele>
        <time>2015-10-11T08:18:18Z</time>
      </trkpt>
      <trkpt lat="49.3446" lon="0.89366">
        <ele>110.1</ele>
        <time>2015-10-11T08:18:20Z</time>
      </trkpt>
      <trkpt lat="49.34462" lon="0.89374">
        <ele>110.26</ele>
        <time>2015-10-11T08:18:22Z</time>
      </trkpt>
      <trkpt lat="49.34466" lon="0.89384">
        <ele>110.41</ele>
        <time>2015-10-11T08:18:24Z</time>
      </trkpt>
      <trkpt lat="49.34469" lon="0.89395">
        <ele>110.58</ele>
        <time>2015-10-11T08:18:26Z</time>
      </trkpt>
      <trkpt lat="49.34471" lon="0.89405">
        <ele>110.79</ele>
        <time>2015-10-11T08:18:28Z</time>
      </trkpt>
      <trkpt lat="49.34472" lon="0.89414">
        <ele>111</ele>
        <time>2015-10-11T08:18:30Z</time>
      </trkpt>
      <trkpt lat="49.34473" lon="0.89424">
        <ele>111.24</ele>
        <time>2015-10-11T08:18:32Z</time>
      </trkpt>
      <trkpt lat="49.34476" lon="0.89433">
        <ele>111.46</ele>
        <time>2015-10-11T08:18:34Z</time>
      </trkpt>
      <trkpt lat="49.34479" lon="0.89442">
        <ele>111.67</ele>
        <time>2015-10-11T08:18:36Z</time>
      </trkpt>
      <trkpt lat="49.34481" lon="0.89449">
        <ele>111.88</ele>
        <time>2015-10-11T08:18:38Z</time>
      </trkpt>
      <trkpt lat="49.34487" lon="0.89459">
        <ele>112.28</ele>
        <time>2015-10-11T08:18:42Z</time>
      </trkpt>
      <trkpt lat="49.34488" lon="0.89469">
        <ele>112.46</ele>
        <time>2015-10-11T08:18:44Z</time>
      </trkpt>
      <trkpt lat="49.34484" lon="0.89486">
        <ele>112.68</ele>
        <time>2015-10-11T08:18:46Z</time>
      </trkpt>
      <trkpt lat="49.34476" lon="0.89501">
        <ele>112.22</ele>
        <time>2015-10-11T08:18:48Z</time>
      </trkpt>
      <trkpt lat="49.34467" lon="0.89508">
        <ele>112.13</ele>
        <time>2015-10-11T08:18:50Z</time>
      </trkpt>
      <trkpt lat="49.3446" lon="0.89516">
        <ele>111.66</ele>
        <time>2015-10-11T08:18:52Z</time>
      </trkpt>
      <trkpt lat="49.34451" lon="0.89522">
        <ele>110.21</ele>
        <time>2015-10-11T08:18:54Z</time>
      </trkpt>
      <trkpt lat="49.3444" lon="0.89534">
        <ele>107.36</ele>
        <time>2015-10-11T08:18:56Z</time>
      </trkpt>
      <trkpt lat="49.34431" lon="0.8955">
        <ele>104.45</ele>
        <time>2015-10-11T08:18:58Z</time>
      </trkpt>
      <trkpt lat="49.34422" lon="0.89564">
        <ele>101.75</ele>
        <time>2015-10-11T08:19:00Z</time>
      </trkpt>
      <trkpt lat="49.34413" lon="0.89574">
        <ele>99.08</ele>
        <time>2015-10-11T08:19:02Z</time>
      </trkpt>
      <trkpt lat="49.34404" lon="0.89586">
        <ele>96.75</ele>
        <time>2015-10-11T08:19:04Z</time>
      </trkpt>
      <trkpt lat="49.34396" lon="0.896">
        <ele>93.78</ele>
        <time>2015-10-11T08:19:06Z</time>
      </trkpt>
      <trkpt lat="49.34388" lon="0.89618">
        <ele>90.08</ele>
        <time>2015-10-11T08:19:08Z</time>
      </trkpt>
      <trkpt lat="49.34387" lon="0.8963">
        <ele>87.47</ele>
        <time>2015-10-11T08:19:10Z</time>
      </trkpt>
      <trkpt lat="49.34381" lon="0.89639">
        <ele>84.89</ele>
        <time>2015-10-11T08:19:12Z</time>
      </trkpt>
      <trkpt lat="49.34373" lon="0.89644">
        <ele>82.85</ele>
        <time>2015-10-11T08:19:14Z</time>
      </trkpt>
      <trkpt lat="49.34369" lon="0.89647">
        <ele>81.76</ele>
        <time>2015-10-11T08:19:16Z</time>
      </trkpt>
      <trkpt lat="49.34365" lon="0.89653">
        <ele>79.95</ele>
        <time>2015-10-11T08:19:26Z</time>
      </trkpt>
      <trkpt lat="49.34359" lon="0.89658">
        <ele>79.78</ele>
        <time>2015-10-11T08:19:28Z</time>
      </trkpt>
      <trkpt lat="49.34355" lon="0.89667">
        <ele>79.56</ele>
        <time>2015-10-11T08:19:30Z</time>
      </trkpt>
      <trkpt lat="49.34348" lon="0.89672">
        <ele>78.22</ele>
        <time>2015-10-11T08:19:32Z</time>
      </trkpt>
      <trkpt lat="49.34344" lon="0.89675">
        <ele>77.47</ele>
        <time>2015-10-11T08:19:34Z</time>
      </trkpt>
      <trkpt lat="49.34339" lon="0.89681">
        <ele>77</ele>
        <time>2015-10-11T08:19:36Z</time>
      </trkpt>
      <trkpt lat="49.34331" lon="0.89684">
        <ele>76.66</ele>
        <time>2015-10-11T08:19:38Z</time>
      </trkpt>
      <trkpt lat="49.34326" lon="0.89687">
        <ele>76.39</ele>
        <time>2015-10-11T08:19:40Z</time>
      </trkpt>
      <trkpt lat="49.3432" lon="0.89691">
        <ele>76.08</ele>
        <time>2015-10-11T08:19:42Z</time>
      </trkpt>
      <trkpt lat="49.34316" lon="0.89695">
        <ele>75.74</ele>
        <time>2015-10-11T08:19:44Z</time>
      </trkpt>
      <trkpt lat="49.34311" lon="0.89697">
        <ele>75.41</ele>
        <time>2015-10-11T08:19:46Z</time>
      </trkpt>
      <trkpt lat="49.34302" lon="0.89698">
        <ele>75.1</ele>
        <time>2015-10-11T08:19:48Z</time>
      </trkpt>
      <trkpt lat="49.34292" lon="0.89697">
        <ele>74.34</ele>
        <time>2015-10-11T08:19:50Z</time>
      </trkpt>
      <trkpt lat="49.3428" lon="0.89695">
        <ele>73.84</ele>
        <time>2015-10-11T08:19:52Z</time>
      </trkpt>
      <trkpt lat="49.3427" lon="0.89693">
        <ele>73.12</ele>
        <time>2015-10-11T08:19:54Z</time>
      </trkpt>
      <trkpt lat="49.34258" lon="0.89691">
        <ele>72.98</ele>
        <time>2015-10-11T08:19:56Z</time>
      </trkpt>
      <trkpt lat="49.3425" lon="0.89685">
        <ele>73.06</ele>
        <time>2015-10-11T08:19:58Z</time>
      </trkpt>
      <trkpt lat="49.34246" lon="0.89679">
        <ele>73.15</ele>
        <time>2015-10-11T08:20:00Z</time>
      </trkpt>
      <trkpt lat="49.34241" lon="0.8967">
        <ele>72.98</ele>
        <time>2015-10-11T08:20:12Z</time>
      </trkpt>
      <trkpt lat="49.3424" lon="0.89658">
        <ele>73.29</ele>
        <time>2015-10-11T08:20:18Z</time>
      </trkpt>
      <trkpt lat="49.34242" lon="0.89651">
        <ele>73.3</ele>
        <time>2015-10-11T08:20:22Z</time>
      </trkpt>
      <trkpt lat="49.34246" lon="0.89639">
        <ele>73.43</ele>
        <time>2015-10-11T08:20:26Z</time>
      </trkpt>
      <trkpt lat="49.34248" lon="0.89633">
        <ele>73.45</ele>
        <time>2015-10-11T08:20:28Z</time>
      </trkpt>
      <trkpt lat="49.34253" lon="0.89621">
        <ele>73.44</ele>
        <time>2015-10-11T08:20:32Z</time>
      </trkpt>
      <trkpt lat="49.34254" lon="0.89613">
        <ele>73.41</ele>
        <time>2015-10-11T08:20:34Z</time>
      </trkpt>
      <trkpt lat="49.34253" lon="0.896">
        <ele>73.42</ele>
        <time>2015-10-11T08:20:38Z</time>
      </trkpt>
      <trkpt lat="49.34253" lon="0.89592">
        <ele>73.43</ele>
        <time>2015-10-11T08:20:40Z</time>
      </trkpt>
      <trkpt lat="49.34252" lon="0.89584">
        <ele>73.49</ele>
        <time>2015-10-11T08:20:42Z</time>
      </trkpt>
      <trkpt lat="49.3425" lon="0.89572">
        <ele>73.64</ele>
        <time>2015-10-11T08:20:46Z</time>
      </trkpt>
      <trkpt lat="49.34248" lon="0.89565">
        <ele>73.8</ele>
        <time>2015-10-11T08:20:48Z</time>
      </trkpt>
      <trkpt lat="49.3425" lon="0.89553">
        <ele>73.99</ele>
        <time>2015-10-11T08:20:50Z</time>
      </trkpt>
      <trkpt lat="49.34252" lon="0.8954">
        <ele>74.19</ele>
        <time>2015-10-11T08:20:52Z</time>
      </trkpt>
      <trkpt lat="49.34252" lon="0.8953">
        <ele>74.4</ele>
        <time>2015-10-11T08:20:54Z</time>
      </trkpt>
      <trkpt lat="49.3425" lon="0.8952">
        <ele>74.62</ele>
        <time>2015-10-11T08:20:56Z</time>
      </trkpt>
      <trkpt lat="49.34247" lon="0.89511">
        <ele>74.81</ele>
        <time>2015-10-11T08:20:58Z</time>
      </trkpt>
      <trkpt lat="49.34242" lon="0.89503">
        <ele>75.02</ele>
        <time>2015-10-11T08:21:00Z</time>
      </trkpt>
      <trkpt lat="49.3424" lon="0.89493">
        <ele>75.26</ele>
        <time>2015-10-11T08:21:02Z</time>
      </trkpt>
      <trkpt lat="49.34236" lon="0.89488">
        <ele>75.4</ele>
        <time>2015-10-11T08:21:04Z</time>
      </trkpt>
      <trkpt lat="49.34231" lon="0.8948">
        <ele>75.52</ele>
        <time>2015-10-11T08:21:06Z</time>
      </trkpt>
      <trkpt lat="49.34225" lon="0.89473">
        <ele>75.53</ele>
        <time>2015-10-11T08:21:08Z</time>
      </trkpt>
      <trkpt lat="49.3422" lon="0.89464">
        <ele>75.56</ele>
        <time>2015-10-11T08:21:10Z</time>
      </trkpt>
      <trkpt lat="49.34215" lon="0.89457">
        <ele>75.66</ele>
        <time>2015-10-11T08:21:12Z</time>
      </trkpt>
      <trkpt lat="49.34211" lon="0.89447">
        <ele>75.84</ele>
        <time>2015-10-11T08:21:14Z</time>
      </trkpt>
      <trkpt lat="49.34206" lon="0.8944">
        <ele>76.14</ele>
        <time>2015-10-11T08:21:16Z</time>
      </trkpt>
      <trkpt lat="49.34203" lon="0.89431">
        <ele>76.46</ele>
        <time>2015-10-11T08:21:18Z</time>
      </trkpt>
      <trkpt lat="49.34201" lon="0.89419">
        <ele>76.76</ele>
        <time>2015-10-11T08:21:20Z</time>
      </trkpt>
      <trkpt lat="49.34198" lon="0.89409">
        <ele>77.05</ele>
        <time>2015-10-11T08:21:22Z</time>
      </trkpt>
      <trkpt lat="49.34195" lon="0.894">
        <ele>77.4</ele>
        <time>2015-10-11T08:21:24Z</time>
      </trkpt>
      <trkpt lat="49.34193" lon="0.89393">
        <ele>77.78</ele>
        <time>2015-10-11T08:21:26Z</time>
      </trkpt>
      <trkpt lat="49.34192" lon="0.89384">
        <ele>78.15</ele>
        <time>2015-10-11T08:21:28Z</time>
      </trkpt>
      <trkpt lat="49.34188" lon="0.89376">
        <ele>78.45</ele>
        <time>2015-10-11T08:21:30Z</time>
      </trkpt>
      <trkpt lat="49.34184" lon="0.89369">
        <ele>78.74</ele>
        <time>2015-10-11T08:21:32Z</time>
      </trkpt>
      <trkpt lat="49.3418" lon="0.89361">
        <ele>79.07</ele>
        <time>2015-10-11T08:21:34Z</time>
      </trkpt>
      <trkpt lat="49.34177" lon="0.89354">
        <ele>79.41</ele>
        <time>2015-10-11T08:21:36Z</time>
      </trkpt>
      <trkpt lat="49.34175" lon="0.89347">
        <ele>79.76</ele>
        <time>2015-10-11T08:21:38Z</time>
      </trkpt>
      <trkpt lat="49.34171" lon="0.8934">
        <ele>80.08</ele>
        <time>2015-10-11T08:21:40Z</time>
      </trkpt>
      <trkpt lat="49.34168" lon="0.89333">
        <ele>80.33</ele>
        <time>2015-10-11T08:21:42Z</time>
      </trkpt>
      <trkpt lat="49.34165" lon="0.89326">
        <ele>80.55</ele>
        <time>2015-10-11T08:21:44Z</time>
      </trkpt>
      <trkpt lat="49.3416" lon="0.89319">
        <ele>80.72</ele>
        <time>2015-10-11T08:21:46Z</time>
      </trkpt>
      <trkpt lat="49.34156" lon="0.89313">
        <ele>80.87</ele>
        <time>2015-10-11T08:21:48Z</time>
      </trkpt>
      <trkpt lat="49.3415" lon="0.89306">
        <ele>81.04</ele>
        <time>2015-10-11T08:21:50Z</time>
      </trkpt>
      <trkpt lat="49.34145" lon="0.89299">
        <ele>81.21</ele>
        <time>2015-10-11T08:21:52Z</time>
      </trkpt>
      <trkpt lat="49.34139" lon="0.89294">
        <ele>81.28</ele>
        <time>2015-10-11T08:21:54Z</time>
      </trkpt>
      <trkpt lat="49.34135" lon="0.8929">
        <ele>81.31</ele>
        <time>2015-10-11T08:21:56Z</time>
      </trkpt>
      <trkpt lat="49.34132" lon="0.89282">
        <ele>81.41</ele>
        <time>2015-10-11T08:21:58Z</time>
      </trkpt>
      <trkpt lat="49.34129" lon="0.89277">
        <ele>81.57</ele>
        <time>2015-10-11T08:22:00Z</time>
      </trkpt>
      <trkpt lat="49.34126" lon="0.8927">
        <ele>81.73</ele>
        <time>2015-10-11T08:22:02Z</time>
      </trkpt>
      <trkpt lat="49.34128" lon="0.89259">
        <ele>82.34</ele>
        <time>2015-10-11T08:22:04Z</time>
      </trkpt>
      <trkpt lat="49.34133" lon="0.89254">
        <ele>82.63</ele>
        <time>2015-10-11T08:22:06Z</time>
      </trkpt>
      <trkpt lat="49.34146" lon="0.89253">
        <ele>82.43</ele>
        <time>2015-10-11T08:22:10Z</time>
      </trkpt>
      <trkpt lat="49.34155" lon="0.89248">
        <ele>81.99</ele>
        <time>2015-10-11T08:22:12Z</time>
      </trkpt>
      <trkpt lat="49.34164" lon="0.89242">
        <ele>82.21</ele>
        <time>2015-10-11T08:22:14Z</time>
      </trkpt>
      <trkpt lat="49.34167" lon="0.89235">
        <ele>82.32</ele>
        <time>2015-10-11T08:22:16Z</time>
      </trkpt>
      <trkpt lat="49.34171" lon="0.89226">
        <ele>82.44</ele>
        <time>2015-10-11T08:22:18Z</time>
      </trkpt>
      <trkpt lat="49.34174" lon="0.89213">
        <ele>82.55</ele>
        <time>2015-10-11T08:22:20Z</time>
      </trkpt>
      <trkpt lat="49.34174" lon="0.89195">
        <ele>81.94</ele>
        <time>2015-10-11T08:22:22Z</time>
      </trkpt>
      <trkpt lat="49.34168" lon="0.89179">
        <ele>81.15</ele>
        <time>2015-10-11T08:22:24Z</time>
      </trkpt>
      <trkpt lat="49.34164" lon="0.89163">
        <ele>79.86</ele>
        <time>2015-10-11T08:22:26Z</time>
      </trkpt>
      <trkpt lat="49.34165" lon="0.89143">
        <ele>78.87</ele>
        <time>2015-10-11T08:22:28Z</time>
      </trkpt>
      <trkpt lat="49.34167" lon="0.89122">
        <ele>77.96</ele>
        <time>2015-10-11T08:22:30Z</time>
      </trkpt>
      <trkpt lat="49.34162" lon="0.89106">
        <ele>77.55</ele>
        <time>2015-10-11T08:22:32Z</time>
      </trkpt>
      <trkpt lat="49.34162" lon="0.89094">
        <ele>77.39</ele>
        <time>2015-10-11T08:22:34Z</time>
      </trkpt>
      <trkpt lat="49.34162" lon="0.8908">
        <ele>77.33</ele>
        <time>2015-10-11T08:22:36Z</time>
      </trkpt>
      <trkpt lat="49.34158" lon="0.8907">
        <ele>77.3</ele>
        <time>2015-10-11T08:22:38Z</time>
      </trkpt>
      <trkpt lat="49.34155" lon="0.89062">
        <ele>77.28</ele>
        <time>2015-10-11T08:22:40Z</time>
      </trkpt>
      <trkpt lat="49.34152" lon="0.89052">
        <ele>77.29</ele>
        <time>2015-10-11T08:22:42Z</time>
      </trkpt>
      <trkpt lat="49.34149" lon="0.89044">
        <ele>77.29</ele>
        <time>2015-10-11T08:22:44Z</time>
      </trkpt>
      <trkpt lat="49.34144" lon="0.89037">
        <ele>77.28</ele>
        <time>2015-10-11T08:22:46Z</time>
      </trkpt>
      <trkpt lat="49.34139" lon="0.89025">
        <ele>77.34</ele>
        <time>2015-10-11T08:22:48Z</time>
      </trkpt>
      <trkpt lat="49.34135" lon="0.89018">
        <ele>77.38</ele>
        <time>2015-10-11T08:22:50Z</time>
      </trkpt>
      <trkpt lat="49.34132" lon="0.89005">
        <ele>77.43</ele>
        <time>2015-10-11T08:22:52Z</time>
      </trkpt>
      <trkpt lat="49.34127" lon="0.88991">
        <ele>77.42</ele>
        <time>2015-10-11T08:22:54Z</time>
      </trkpt>
      <trkpt lat="49.34126" lon="0.88978">
        <ele>77.45</ele>
        <time>2015-10-11T08:22:56Z</time>
      </trkpt>
      <trkpt lat="49.34122" lon="0.88966">
        <ele>77.55</ele>
        <time>2015-10-11T08:22:58Z</time>
      </trkpt>
      <trkpt lat="49.34121" lon="0.88953">
        <ele>77.69</ele>
        <time>2015-10-11T08:23:00Z</time>
      </trkpt>
      <trkpt lat="49.34123" lon="0.8894">
        <ele>77.88</ele>
        <time>2015-10-11T08:23:02Z</time>
      </trkpt>
      <trkpt lat="49.34122" lon="0.88926">
        <ele>78.33</ele>
        <time>2015-10-11T08:23:04Z</time>
      </trkpt>
      <trkpt lat="49.34119" lon="0.88913">
        <ele>78.83</ele>
        <time>2015-10-11T08:23:06Z</time>
      </trkpt>
      <trkpt lat="49.34119" lon="0.88901">
        <ele>79.17</ele>
        <time>2015-10-11T08:23:08Z</time>
      </trkpt>
      <trkpt lat="49.34119" lon="0.88887">
        <ele>79.44</ele>
        <time>2015-10-11T08:23:10Z</time>
      </trkpt>
      <trkpt lat="49.34117" lon="0.88879">
        <ele>79.6</ele>
        <time>2015-10-11T08:23:12Z</time>
      </trkpt>
      <trkpt lat="49.34111" lon="0.88869">
        <ele>80.02</ele>
        <time>2015-10-11T08:23:16Z</time>
      </trkpt>
      <trkpt lat="49.34107" lon="0.88864">
        <ele>80.27</ele>
        <time>2015-10-11T08:23:18Z</time>
      </trkpt>
      <trkpt lat="49.34102" lon="0.88859">
        <ele>80.85</ele>
        <time>2015-10-11T08:23:22Z</time>
      </trkpt>
      <trkpt lat="49.34097" lon="0.88854">
        <ele>81.4</ele>
        <time>2015-10-11T08:23:26Z</time>
      </trkpt>
      <trkpt lat="49.34093" lon="0.88849">
        <ele>82.08</ele>
        <time>2015-10-11T08:23:30Z</time>
      </trkpt>
      <trkpt lat="49.34089" lon="0.88843">
        <ele>83.01</ele>
        <time>2015-10-11T08:23:34Z</time>
      </trkpt>
      <trkpt lat="49.34083" lon="0.88835">
        <ele>84.98</ele>
        <time>2015-10-11T08:23:40Z</time>
      </trkpt>
      <trkpt lat="49.34077" lon="0.88832">
        <ele>87.81</ele>
        <time>2015-10-11T08:23:48Z</time>
      </trkpt>
      <trkpt lat="49.34071" lon="0.88828">
        <ele>89.15</ele>
        <time>2015-10-11T08:23:52Z</time>
      </trkpt>
      <trkpt lat="49.34066" lon="0.88822">
        <ele>90.6</ele>
        <time>2015-10-11T08:23:56Z</time>
      </trkpt>
      <trkpt lat="49.34063" lon="0.88814">
        <ele>92.79</ele>
        <time>2015-10-11T08:24:02Z</time>
      </trkpt>
      <trkpt lat="49.34057" lon="0.88804">
        <ele>94.24</ele>
        <time>2015-10-11T08:24:06Z</time>
      </trkpt>
      <trkpt lat="49.34053" lon="0.88795">
        <ele>96.19</ele>
        <time>2015-10-11T08:24:12Z</time>
      </trkpt>
      <trkpt lat="49.34048" lon="0.88788">
        <ele>97.44</ele>
        <time>2015-10-11T08:24:16Z</time>
      </trkpt>
      <trkpt lat="49.34043" lon="0.88778">
        <ele>98.57</ele>
        <time>2015-10-11T08:24:20Z</time>
      </trkpt>
      <trkpt lat="49.34037" lon="0.88772">
        <ele>99.11</ele>
        <time>2015-10-11T08:24:22Z</time>
      </trkpt>
      <trkpt lat="49.34033" lon="0.88765">
        <ele>99.61</ele>
        <time>2015-10-11T08:24:24Z</time>
      </trkpt>
      <trkpt lat="49.34029" lon="0.88758">
        <ele>100.15</ele>
        <time>2015-10-11T08:24:26Z</time>
      </trkpt>
      <trkpt lat="49.34023" lon="0.88752">
        <ele>100.68</ele>
        <time>2015-10-11T08:24:28Z</time>
      </trkpt>
      <trkpt lat="49.34019" lon="0.88744">
        <ele>101.15</ele>
        <time>2015-10-11T08:24:30Z</time>
      </trkpt>
      <trkpt lat="49.34015" lon="0.88735">
        <ele>101.59</ele>
        <time>2015-10-11T08:24:32Z</time>
      </trkpt>
      <trkpt lat="49.34006" lon="0.88725">
        <ele>103.35</ele>
        <time>2015-10-11T08:24:34Z</time>
      </trkpt>
      <trkpt lat="49.33996" lon="0.88711">
        <ele>104.77</ele>
        <time>2015-10-11T08:24:36Z</time>
      </trkpt>
      <trkpt lat="49.33983" lon="0.88695">
        <ele>105.35</ele>
        <time>2015-10-11T08:24:38Z</time>
      </trkpt>
      <trkpt lat="49.33973" lon="0.8868">
        <ele>105.52</ele>
        <time>2015-10-11T08:24:40Z</time>
      </trkpt>
      <trkpt lat="49.33968" lon="0.88669">
        <ele>105.6</ele>
        <time>2015-10-11T08:24:42Z</time>
      </trkpt>
      <trkpt lat="49.33958" lon="0.8866">
        <ele>105.19</ele>
        <time>2015-10-11T08:24:44Z</time>
      </trkpt>
      <trkpt lat="49.33948" lon="0.88645">
        <ele>103.91</ele>
        <time>2015-10-11T08:24:46Z</time>
      </trkpt>
      <trkpt lat="49.33935" lon="0.88637">
        <ele>101.53</ele>
        <time>2015-10-11T08:24:48Z</time>
      </trkpt>
      <trkpt lat="49.33926" lon="0.88641">
        <ele>99.01</ele>
        <time>2015-10-11T08:24:50Z</time>
      </trkpt>
      <trkpt lat="49.33921" lon="0.8865">
        <ele>96.64</ele>
        <time>2015-10-11T08:24:52Z</time>
      </trkpt>
      <trkpt lat="49.33914" lon="0.88665">
        <ele>94.31</ele>
        <time>2015-10-11T08:24:54Z</time>
      </trkpt>
      <trkpt lat="49.33907" lon="0.88683">
        <ele>92.43</ele>
        <time>2015-10-11T08:24:56Z</time>
      </trkpt>
      <trkpt lat="49.339" lon="0.88702">
        <ele>91.29</ele>
        <time>2015-10-11T08:24:58Z</time>
      </trkpt>
      <trkpt lat="49.33894" lon="0.8872">
        <ele>90.47</ele>
        <time>2015-10-11T08:25:01Z</time>
      </trkpt>
      <trkpt lat="49.33887" lon="0.88742">
        <ele>89.81</ele>
        <time>2015-10-11T08:25:03Z</time>
      </trkpt>
      <trkpt lat="49.3388" lon="0.88768">
        <ele>89.24</ele>
        <time>2015-10-11T08:25:05Z</time>
      </trkpt>
      <trkpt lat="49.33873" lon="0.88791">
        <ele>88.94</ele>
        <time>2015-10-11T08:25:07Z</time>
      </trkpt>
      <trkpt lat="49.33867" lon="0.88812">
        <ele>88.62</ele>
        <time>2015-10-11T08:25:09Z</time>
      </trkpt>
      <trkpt lat="49.33862" lon="0.88834">
        <ele>88.15</ele>
        <time>2015-10-11T08:25:11Z</time>
      </trkpt>
      <trkpt lat="49.33857" lon="0.88853">
        <ele>86.99</ele>
        <time>2015-10-11T08:25:13Z</time>
      </trkpt>
      <trkpt lat="49.33853" lon="0.88869">
        <ele>85.75</ele>
        <time>2015-10-11T08:25:15Z</time>
      </trkpt>
      <trkpt lat="49.3385" lon="0.88883">
        <ele>84.53</ele>
        <time>2015-10-11T08:25:17Z</time>
      </trkpt>
      <trkpt lat="49.33846" lon="0.88898">
        <ele>83.67</ele>
        <time>2015-10-11T08:25:19Z</time>
      </trkpt>
      <trkpt lat="49.33844" lon="0.8891">
        <ele>83.07</ele>
        <time>2015-10-11T08:25:21Z</time>
      </trkpt>
      <trkpt lat="49.33843" lon="0.88922">
        <ele>82.88</ele>
        <time>2015-10-11T08:25:23Z</time>
      </trkpt>
      <trkpt lat="49.33841" lon="0.88934">
        <ele>82.54</ele>
        <time>2015-10-11T08:25:25Z</time>
      </trkpt>
      <trkpt lat="49.3384" lon="0.88949">
        <ele>83</ele>
        <time>2015-10-11T08:25:27Z</time>
      </trkpt>
      <trkpt lat="49.33838" lon="0.88966">
        <ele>83.96</ele>
        <time>2015-10-11T08:25:29Z</time>
      </trkpt>
      <trkpt lat="49.33836" lon="0.88982">
        <ele>84.6</ele>
        <time>2015-10-11T08:25:31Z</time>
      </trkpt>
      <trkpt lat="49.33833" lon="0.88999">
        <ele>85.13</ele>
        <time>2015-10-11T08:25:33Z</time>
      </trkpt>
      <trkpt lat="49.33831" lon="0.89021">
        <ele>85.57</ele>
        <time>2015-10-11T08:25:35Z</time>
      </trkpt>
      <trkpt lat="49.33828" lon="0.89041">
        <ele>85.54</ele>
        <time>2015-10-11T08:25:37Z</time>
      </trkpt>
      <trkpt lat="49.33822" lon="0.89064">
        <ele>84.88</ele>
        <time>2015-10-11T08:25:39Z</time>
      </trkpt>
      <trkpt lat="49.33818" lon="0.89086">
        <ele>83.93</ele>
        <time>2015-10-11T08:25:41Z</time>
      </trkpt>
      <trkpt lat="49.33815" lon="0.89106">
        <ele>82.9</ele>
        <time>2015-10-11T08:25:43Z</time>
      </trkpt>
      <trkpt lat="49.33813" lon="0.89128">
        <ele>81.58</ele>
        <time>2015-10-11T08:25:45Z</time>
      </trkpt>
      <trkpt lat="49.33814" lon="0.89148">
        <ele>79.16</ele>
        <time>2015-10-11T08:25:47Z</time>
      </trkpt>
      <trkpt lat="49.33815" lon="0.89172">
        <ele>76.63</ele>
        <time>2015-10-11T08:25:49Z</time>
      </trkpt>
      <trkpt lat="49.33817" lon="0.89195">
        <ele>73.94</ele>
        <time>2015-10-11T08:25:51Z</time>
      </trkpt>
      <trkpt lat="49.33819" lon="0.89218">
        <ele>72.17</ele>
        <time>2015-10-11T08:25:53Z</time>
      </trkpt>
      <trkpt lat="49.33822" lon="0.8924">
        <ele>70.88</ele>
        <time>2015-10-11T08:25:55Z</time>
      </trkpt>
      <trkpt lat="49.33825" lon="0.89265">
        <ele>70.2</ele>
        <time>2015-10-11T08:25:57Z</time>
      </trkpt>
      <trkpt lat="49.33829" lon="0.89294">
        <ele>69.76</ele>
        <time>2015-10-11T08:25:59Z</time>
      </trkpt>
      <trkpt lat="49.33831" lon="0.89319">
        <ele>69.02</ele>
        <time>2015-10-11T08:26:01Z</time>
      </trkpt>
      <trkpt lat="49.33834" lon="0.8934">
        <ele>68.1</ele>
        <time>2015-10-11T08:26:03Z</time>
      </trkpt>
      <trkpt lat="49.33832" lon="0.89355">
        <ele>67.09</ele>
        <time>2015-10-11T08:26:05Z</time>
      </trkpt>
      <trkpt lat="49.3383" lon="0.89364">
        <ele>66.49</ele>
        <time>2015-10-11T08:26:07Z</time>
      </trkpt>
      <trkpt lat="49.33836" lon="0.89373">
        <ele>65.3</ele>
        <time>2015-10-11T08:26:33Z</time>
      </trkpt>
      <trkpt lat="49.3384" lon="0.89374">
        <ele>65.53</ele>
        <time>2015-10-11T08:26:39Z</time>
      </trkpt>
      <trkpt lat="49.33842" lon="0.89384">
        <ele>67.61</ele>
        <time>2015-10-11T08:27:15Z</time>
      </trkpt>
      <trkpt lat="49.33838" lon="0.89379">
        <ele>69.71</ele>
        <time>2015-10-11T08:29:47Z</time>
      </trkpt>
      <trkpt lat="49.33844" lon="0.89384">
        <ele>68.42</ele>
        <time>2015-10-11T08:30:31Z</time>
      </trkpt>
      <trkpt lat="49.33849" lon="0.89385">
        <ele>68.02</ele>
        <time>2015-10-11T08:30:33Z</time>
      </trkpt>
      <trkpt lat="49.33857" lon="0.89392">
        <ele>67.43</ele>
        <time>2015-10-11T08:30:37Z</time>
      </trkpt>
      <trkpt lat="49.33863" lon="0.89397">
        <ele>67.21</ele>
        <time>2015-10-11T08:30:39Z</time>
      </trkpt>
      <trkpt lat="49.33871" lon="0.89401">
        <ele>67.04</ele>
        <time>2015-10-11T08:30:41Z</time>
      </trkpt>
      <trkpt lat="49.33878" lon="0.89406">
        <ele>66.91</ele>
        <time>2015-10-11T08:30:43Z</time>
      </trkpt>
      <trkpt lat="49.33886" lon="0.89412">
        <ele>66.6</ele>
        <time>2015-10-11T08:30:45Z</time>
      </trkpt>
      <trkpt lat="49.33893" lon="0.89418">
        <ele>66.25</ele>
        <time>2015-10-11T08:30:47Z</time>
      </trkpt>
      <trkpt lat="49.33898" lon="0.89425">
        <ele>65.97</ele>
        <time>2015-10-11T08:30:49Z</time>
      </trkpt>
      <trkpt lat="49.33907" lon="0.89433">
        <ele>65.56</ele>
        <time>2015-10-11T08:30:51Z</time>
      </trkpt>
      <trkpt lat="49.33916" lon="0.89439">
        <ele>64.99</ele>
        <time>2015-10-11T08:30:53Z</time>
      </trkpt>
      <trkpt lat="49.33924" lon="0.89447">
        <ele>64.92</ele>
        <time>2015-10-11T08:30:55Z</time>
      </trkpt>
      <trkpt lat="49.33931" lon="0.89451">
        <ele>64.91</ele>
        <time>2015-10-11T08:30:57Z</time>
      </trkpt>
      <trkpt lat="49.33939" lon="0.89456">
        <ele>64.88</ele>
        <time>2015-10-11T08:30:59Z</time>
      </trkpt>
      <trkpt lat="49.33946" lon="0.89462">
        <ele>65.08</ele>
        <time>2015-10-11T08:31:01Z</time>
      </trkpt>
      <trkpt lat="49.33954" lon="0.89468">
        <ele>65.49</ele>
        <time>2015-10-11T08:31:03Z</time>
      </trkpt>
      <trkpt lat="49.33959" lon="0.89476">
        <ele>65.65</ele>
        <time>2015-10-11T08:31:05Z</time>
      </trkpt>
      <trkpt lat="49.33964" lon="0.89484">
        <ele>65.73</ele>
        <time>2015-10-11T08:31:07Z</time>
      </trkpt>
      <trkpt lat="49.33969" lon="0.89491">
        <ele>65.68</ele>
        <time>2015-10-11T08:31:09Z</time>
      </trkpt>
      <trkpt lat="49.33973" lon="0.89498">
        <ele>65.58</ele>
        <time>2015-10-11T08:31:11Z</time>
      </trkpt>
      <trkpt lat="49.33977" lon="0.89515">
        <ele>65.36</ele>
        <time>2015-10-11T08:31:15Z</time>
      </trkpt>
      <trkpt lat="49.33978" lon="0.89526">
        <ele>65.3</ele>
        <time>2015-10-11T08:31:17Z</time>
      </trkpt>
      <trkpt lat="49.3398" lon="0.89534">
        <ele>65.33</ele>
        <time>2015-10-11T08:31:19Z</time>
      </trkpt>
      <trkpt lat="49.33982" lon="0.89542">
        <ele>65.34</ele>
        <time>2015-10-11T08:31:21Z</time>
      </trkpt>
      <trkpt lat="49.33982" lon="0.89549">
        <ele>65.4</ele>
        <time>2015-10-11T08:31:23Z</time>
      </trkpt>
      <trkpt lat="49.33984" lon="0.89558">
        <ele>65.65</ele>
        <time>2015-10-11T08:31:27Z</time>
      </trkpt>
      <trkpt lat="49.33983" lon="0.89569">
        <ele>66.01</ele>
        <time>2015-10-11T08:31:31Z</time>
      </trkpt>
      <trkpt lat="49.33985" lon="0.89577">
        <ele>66.5</ele>
        <time>2015-10-11T08:31:35Z</time>
      </trkpt>
      <trkpt lat="49.33985" lon="0.89584">
        <ele>67.19</ele>
        <time>2015-10-11T08:31:39Z</time>
      </trkpt>
      <trkpt lat="49.33984" lon="0.89594">
        <ele>67.93</ele>
        <time>2015-10-11T08:31:43Z</time>
      </trkpt>
      <trkpt lat="49.33984" lon="0.89605">
        <ele>68.84</ele>
        <time>2015-10-11T08:31:47Z</time>
      </trkpt>
      <trkpt lat="49.33985" lon="0.89612">
        <ele>69.32</ele>
        <time>2015-10-11T08:31:49Z</time>
      </trkpt>
      <trkpt lat="49.33986" lon="0.89624">
        <ele>70.19</ele>
        <time>2015-10-11T08:31:53Z</time>
      </trkpt>
      <trkpt lat="49.33987" lon="0.89635">
        <ele>70.82</ele>
        <time>2015-10-11T08:31:57Z</time>
      </trkpt>
      <trkpt lat="49.33989" lon="0.89646">
        <ele>71.65</ele>
        <time>2015-10-11T08:32:01Z</time>
      </trkpt>
      <trkpt lat="49.33994" lon="0.89653">
        <ele>72.66</ele>
        <time>2015-10-11T08:32:05Z</time>
      </trkpt>
      <trkpt lat="49.33996" lon="0.8966">
        <ele>73.84</ele>
        <time>2015-10-11T08:32:09Z</time>
      </trkpt>
      <trkpt lat="49.34" lon="0.89667">
        <ele>75.08</ele>
        <time>2015-10-11T08:32:13Z</time>
      </trkpt>
      <trkpt lat="49.34007" lon="0.89674">
        <ele>76.24</ele>
        <time>2015-10-11T08:32:17Z</time>
      </trkpt>
      <trkpt lat="49.34014" lon="0.89681">
        <ele>77.34</ele>
        <time>2015-10-11T08:32:21Z</time>
      </trkpt>
      <trkpt lat="49.34018" lon="0.89686">
        <ele>78.35</ele>
        <time>2015-10-11T08:32:25Z</time>
      </trkpt>
      <trkpt lat="49.34026" lon="0.89693">
        <ele>79.75</ele>
        <time>2015-10-11T08:32:31Z</time>
      </trkpt>
      <trkpt lat="49.34032" lon="0.89697">
        <ele>80.71</ele>
        <time>2015-10-11T08:32:35Z</time>
      </trkpt>
      <trkpt lat="49.34037" lon="0.89701">
        <ele>81.55</ele>
        <time>2015-10-11T08:32:39Z</time>
      </trkpt>
      <trkpt lat="49.3404" lon="0.89711">
        <ele>82.38</ele>
        <time>2015-10-11T08:32:43Z</time>
      </trkpt>
      <trkpt lat="49.34042" lon="0.89721">
        <ele>82.92</ele>
        <time>2015-10-11T08:32:47Z</time>
      </trkpt>
      <trkpt lat="49.34043" lon="0.89729">
        <ele>83.28</ele>
        <time>2015-10-11T08:32:51Z</time>
      </trkpt>
      <trkpt lat="49.34045" lon="0.89738">
        <ele>83.37</ele>
        <time>2015-10-11T08:32:55Z</time>
      </trkpt>
      <trkpt lat="49.34053" lon="0.89744">
        <ele>83.17</ele>
        <time>2015-10-11T08:32:59Z</time>
      </trkpt>
      <trkpt lat="49.3406" lon="0.89754">
        <ele>82.88</ele>
        <time>2015-10-11T08:33:03Z</time>
      </trkpt>
      <trkpt lat="49.34063" lon="0.8976">
        <ele>82.79</ele>
        <time>2015-10-11T08:33:05Z</time>
      </trkpt>
      <trkpt lat="49.34066" lon="0.89766">
        <ele>82.7</ele>
        <time>2015-10-11T08:33:07Z</time>
      </trkpt>
      <trkpt lat="49.34072" lon="0.89779">
        <ele>82.71</ele>
        <time>2015-10-11T08:33:11Z</time>
      </trkpt>
      <trkpt lat="49.34075" lon="0.89785">
        <ele>82.77</ele>
        <time>2015-10-11T08:33:13Z</time>
      </trkpt>
      <trkpt lat="49.34081" lon="0.89791">
        <ele>82.94</ele>
        <time>2015-10-11T08:33:15Z</time>
      </trkpt>
      <trkpt lat="49.34086" lon="0.89799">
        <ele>83.08</ele>
        <time>2015-10-11T08:33:17Z</time>
      </trkpt>
      <trkpt lat="49.34091" lon="0.89806">
        <ele>83.21</ele>
        <time>2015-10-11T08:33:19Z</time>
      </trkpt>
      <trkpt lat="49.34096" lon="0.89818">
        <ele>83.93</ele>
        <time>2015-10-11T08:33:21Z</time>
      </trkpt>
      <trkpt lat="49.34103" lon="0.89834">
        <ele>84.96</ele>
        <time>2015-10-11T08:33:23Z</time>
      </trkpt>
      <trkpt lat="49.34107" lon="0.89845">
        <ele>85.55</ele>
        <time>2015-10-11T08:33:25Z</time>
      </trkpt>
      <trkpt lat="49.34111" lon="0.89853">
        <ele>85.92</ele>
        <time>2015-10-11T08:33:27Z</time>
      </trkpt>
      <trkpt lat="49.34114" lon="0.8986">
        <ele>86.21</ele>
        <time>2015-10-11T08:33:29Z</time>
      </trkpt>
      <trkpt lat="49.34119" lon="0.89869">
        <ele>86.52</ele>
        <time>2015-10-11T08:33:31Z</time>
      </trkpt>
      <trkpt lat="49.34122" lon="0.89877">
        <ele>86.87</ele>
        <time>2015-10-11T08:33:33Z</time>
      </trkpt>
      <trkpt lat="49.34127" lon="0.89886">
        <ele>88.12</ele>
        <time>2015-10-11T08:33:35Z</time>
      </trkpt>
      <trkpt lat="49.34128" lon="0.89897">
        <ele>88.93</ele>
        <time>2015-10-11T08:33:37Z</time>
      </trkpt>
      <trkpt lat="49.34131" lon="0.89902">
        <ele>89.53</ele>
        <time>2015-10-11T08:33:39Z</time>
      </trkpt>
      <trkpt lat="49.34132" lon="0.89912">
        <ele>89.99</ele>
        <time>2015-10-11T08:33:41Z</time>
      </trkpt>
      <trkpt lat="49.34135" lon="0.89921">
        <ele>90.38</ele>
        <time>2015-10-11T08:33:43Z</time>
      </trkpt>
      <trkpt lat="49.34136" lon="0.89929">
        <ele>90.75</ele>
        <time>2015-10-11T08:33:45Z</time>
      </trkpt>
      <trkpt lat="49.34137" lon="0.89937">
        <ele>91.06</ele>
        <time>2015-10-11T08:33:47Z</time>
      </trkpt>
      <trkpt lat="49.3414" lon="0.89946">
        <ele>91.32</ele>
        <time>2015-10-11T08:33:49Z</time>
      </trkpt>
      <trkpt lat="49.34143" lon="0.89952">
        <ele>91.56</ele>
        <time>2015-10-11T08:33:51Z</time>
      </trkpt>
      <trkpt lat="49.34147" lon="0.89957">
        <ele>91.81</ele>
        <time>2015-10-11T08:33:53Z</time>
      </trkpt>
      <trkpt lat="49.34151" lon="0.89961">
        <ele>92.08</ele>
        <time>2015-10-11T08:33:55Z</time>
      </trkpt>
      <trkpt lat="49.34156" lon="0.89966">
        <ele>92.38</ele>
        <time>2015-10-11T08:33:57Z</time>
      </trkpt>
      <trkpt lat="49.34162" lon="0.89971">
        <ele>92.96</ele>
        <time>2015-10-11T08:34:01Z</time>
      </trkpt>
      <trkpt lat="49.34166" lon="0.89976">
        <ele>93.69</ele>
        <time>2015-10-11T08:34:05Z</time>
      </trkpt>
      <trkpt lat="49.34173" lon="0.8998">
        <ele>95.39</ele>
        <time>2015-10-11T08:34:11Z</time>
      </trkpt>
      <trkpt lat="49.3418" lon="0.89982">
        <ele>96.54</ele>
        <time>2015-10-11T08:34:15Z</time>
      </trkpt>
      <trkpt lat="49.34184" lon="0.89984">
        <ele>97.7</ele>
        <time>2015-10-11T08:34:19Z</time>
      </trkpt>
      <trkpt lat="49.3419" lon="0.89987">
        <ele>99.69</ele>
        <time>2015-10-11T08:34:25Z</time>
      </trkpt>
      <trkpt lat="49.34195" lon="0.89997">
        <ele>101.03</ele>
        <time>2015-10-11T08:34:29Z</time>
      </trkpt>
      <trkpt lat="49.34199" lon="0.90001">
        <ele>101.73</ele>
        <time>2015-10-11T08:34:31Z</time>
      </trkpt>
      <trkpt lat="49.34204" lon="0.90009">
        <ele>103.71</ele>
        <time>2015-10-11T08:34:37Z</time>
      </trkpt>
      <trkpt lat="49.3421" lon="0.90016">
        <ele>104.92</ele>
        <time>2015-10-11T08:34:41Z</time>
      </trkpt>
      <trkpt lat="49.34214" lon="0.9002">
        <ele>106.05</ele>
        <time>2015-10-11T08:34:45Z</time>
      </trkpt>
      <trkpt lat="49.34217" lon="0.90028">
        <ele>107.86</ele>
        <time>2015-10-11T08:34:55Z</time>
      </trkpt>
      <trkpt lat="49.34223" lon="0.90031">
        <ele>108.84</ele>
        <time>2015-10-11T08:34:59Z</time>
      </trkpt>
      <trkpt lat="49.34227" lon="0.90036">
        <ele>110.35</ele>
        <time>2015-10-11T08:35:05Z</time>
      </trkpt>
      <trkpt lat="49.34233" lon="0.90038">
        <ele>111.91</ele>
        <time>2015-10-11T08:35:13Z</time>
      </trkpt>
      <trkpt lat="49.34234" lon="0.90047">
        <ele>112.73</ele>
        <time>2015-10-11T08:35:17Z</time>
      </trkpt>
      <trkpt lat="49.34238" lon="0.90056">
        <ele>113.69</ele>
        <time>2015-10-11T08:35:21Z</time>
      </trkpt>
      <trkpt lat="49.34243" lon="0.9006">
        <ele>114.52</ele>
        <time>2015-10-11T08:35:25Z</time>
      </trkpt>
      <trkpt lat="49.34251" lon="0.90067">
        <ele>115.12</ele>
        <time>2015-10-11T08:35:29Z</time>
      </trkpt>
      <trkpt lat="49.34257" lon="0.90073">
        <ele>115.5</ele>
        <time>2015-10-11T08:35:33Z</time>
      </trkpt>
      <trkpt lat="49.34261" lon="0.90079">
        <ele>115.85</ele>
        <time>2015-10-11T08:35:37Z</time>
      </trkpt>
      <trkpt lat="49.34265" lon="0.90083">
        <ele>116.03</ele>
        <time>2015-10-11T08:35:39Z</time>
      </trkpt>
      <trkpt lat="49.34272" lon="0.90091">
        <ele>116.37</ele>
        <time>2015-10-11T08:35:43Z</time>
      </trkpt>
      <trkpt lat="49.34276" lon="0.90095">
        <ele>116.58</ele>
        <time>2015-10-11T08:35:45Z</time>
      </trkpt>
      <trkpt lat="49.3428" lon="0.901">
        <ele>116.79</ele>
        <time>2015-10-11T08:35:47Z</time>
      </trkpt>
      <trkpt lat="49.34283" lon="0.90108">
        <ele>117.31</ele>
        <time>2015-10-11T08:35:51Z</time>
      </trkpt>
      <trkpt lat="49.34286" lon="0.90113">
        <ele>118.02</ele>
        <time>2015-10-11T08:35:55Z</time>
      </trkpt>
      <trkpt lat="49.34289" lon="0.90126">
        <ele>118.66</ele>
        <time>2015-10-11T08:35:59Z</time>
      </trkpt>
      <trkpt lat="49.34284" lon="0.90132">
        <ele>119.18</ele>
        <time>2015-10-11T08:36:03Z</time>
      </trkpt>
      <trkpt lat="49.34279" lon="0.90135">
        <ele>119.37</ele>
        <time>2015-10-11T08:36:05Z</time>
      </trkpt>
      <trkpt lat="49.34269" lon="0.9014">
        <ele>120.06</ele>
        <time>2015-10-11T08:36:09Z</time>
      </trkpt>
      <trkpt lat="49.34263" lon="0.90144">
        <ele>120.75</ele>
        <time>2015-10-11T08:36:11Z</time>
      </trkpt>
      <trkpt lat="49.34256" lon="0.90149">
        <ele>121.4</ele>
        <time>2015-10-11T08:36:13Z</time>
      </trkpt>
      <trkpt lat="49.3425" lon="0.90151">
        <ele>121.43</ele>
        <time>2015-10-11T08:36:15Z</time>
      </trkpt>
      <trkpt lat="49.34239" lon="0.90157">
        <ele>121.34</ele>
        <time>2015-10-11T08:36:17Z</time>
      </trkpt>
      <trkpt lat="49.3423" lon="0.90162">
        <ele>121.17</ele>
        <time>2015-10-11T08:36:19Z</time>
      </trkpt>
      <trkpt lat="49.34222" lon="0.90166">
        <ele>121.55</ele>
        <time>2015-10-11T08:36:21Z</time>
      </trkpt>
      <trkpt lat="49.34213" lon="0.90171">
        <ele>121.89</ele>
        <time>2015-10-11T08:36:23Z</time>
      </trkpt>
      <trkpt lat="49.34207" lon="0.90176">
        <ele>122.1</ele>
        <time>2015-10-11T08:36:25Z</time>
      </trkpt>
      <trkpt lat="49.34199" lon="0.90186">
        <ele>122.31</ele>
        <time>2015-10-11T08:36:27Z</time>
      </trkpt>
      <trkpt lat="49.34192" lon="0.90197">
        <ele>122.63</ele>
        <time>2015-10-11T08:36:29Z</time>
      </trkpt>
      <trkpt lat="49.34185" lon="0.90205">
        <ele>122.56</ele>
        <time>2015-10-11T08:36:31Z</time>
      </trkpt>
      <trkpt lat="49.34178" lon="0.90214">
        <ele>122.54</ele>
        <time>2015-10-11T08:36:33Z</time>
      </trkpt>
      <trkpt lat="49.3417" lon="0.90224">
        <ele>122.19</ele>
        <time>2015-10-11T08:36:35Z</time>
      </trkpt>
      <trkpt lat="49.34161" lon="0.90233">
        <ele>121.98</ele>
        <time>2015-10-11T08:36:37Z</time>
      </trkpt>
      <trkpt lat="49.34152" lon="0.90242">
        <ele>121.87</ele>
        <time>2015-10-11T08:36:39Z</time>
      </trkpt>
      <trkpt lat="49.34145" lon="0.90251">
        <ele>122.15</ele>
        <time>2015-10-11T08:36:41Z</time>
      </trkpt>
      <trkpt lat="49.34136" lon="0.90261">
        <ele>122.51</ele>
        <time>2015-10-11T08:36:43Z</time>
      </trkpt>
      <trkpt lat="49.34128" lon="0.90271">
        <ele>123.43</ele>
        <time>2015-10-11T08:36:45Z</time>
      </trkpt>
      <trkpt lat="49.34119" lon="0.90279">
        <ele>123.84</ele>
        <time>2015-10-11T08:36:47Z</time>
      </trkpt>
      <trkpt lat="49.34112" lon="0.90289">
        <ele>124.22</ele>
        <time>2015-10-11T08:36:49Z</time>
      </trkpt>
      <trkpt lat="49.34104" lon="0.90302">
        <ele>124.82</ele>
        <time>2015-10-11T08:36:51Z</time>
      </trkpt>
      <trkpt lat="49.34094" lon="0.90314">
        <ele>124.76</ele>
        <time>2015-10-11T08:36:53Z</time>
      </trkpt>
      <trkpt lat="49.34083" lon="0.90325">
        <ele>124.66</ele>
        <time>2015-10-11T08:36:55Z</time>
      </trkpt>
      <trkpt lat="49.34073" lon="0.90332">
        <ele>124.69</ele>
        <time>2015-10-11T08:36:57Z</time>
      </trkpt>
      <trkpt lat="49.34063" lon="0.90343">
        <ele>124.56</ele>
        <time>2015-10-11T08:36:59Z</time>
      </trkpt>
      <trkpt lat="49.34056" lon="0.90359">
        <ele>123.29</ele>
        <time>2015-10-11T08:37:01Z</time>
      </trkpt>
      <trkpt lat="49.34053" lon="0.90375">
        <ele>121.82</ele>
        <time>2015-10-11T08:37:03Z</time>
      </trkpt>
      <trkpt lat="49.34048" lon="0.90392">
        <ele>120.27</ele>
        <time>2015-10-11T08:37:05Z</time>
      </trkpt>
      <trkpt lat="49.34045" lon="0.90409">
        <ele>119.51</ele>
        <time>2015-10-11T08:37:07Z</time>
      </trkpt>
      <trkpt lat="49.34039" lon="0.90425">
        <ele>119.04</ele>
        <time>2015-10-11T08:37:09Z</time>
      </trkpt>
      <trkpt lat="49.34033" lon="0.90438">
        <ele>118.41</ele>
        <time>2015-10-11T08:37:11Z</time>
      </trkpt>
      <trkpt lat="49.34023" lon="0.90446">
        <ele>118.15</ele>
        <time>2015-10-11T08:37:13Z</time>
      </trkpt>
      <trkpt lat="49.34014" lon="0.90456">
        <ele>117.6</ele>
        <time>2015-10-11T08:37:15Z</time>
      </trkpt>
      <trkpt lat="49.34004" lon="0.90467">
        <ele>117.11</ele>
        <time>2015-10-11T08:37:17Z</time>
      </trkpt>
      <trkpt lat="49.33998" lon="0.90484">
        <ele>116.12</ele>
        <time>2015-10-11T08:37:19Z</time>
      </trkpt>
      <trkpt lat="49.33993" lon="0.90504">
        <ele>115.26</ele>
        <time>2015-10-11T08:37:21Z</time>
      </trkpt>
      <trkpt lat="49.33991" lon="0.90526">
        <ele>114.85</ele>
        <time>2015-10-11T08:37:23Z</time>
      </trkpt>
      <trkpt lat="49.3399" lon="0.90545">
        <ele>114.55</ele>
        <time>2015-10-11T08:37:25Z</time>
      </trkpt>
      <trkpt lat="49.33987" lon="0.90562">
        <ele>114.55</ele>
        <time>2015-10-11T08:37:27Z</time>
      </trkpt>
      <trkpt lat="49.33986" lon="0.9058">
        <ele>114.66</ele>
        <time>2015-10-11T08:37:29Z</time>
      </trkpt>
      <trkpt lat="49.33982" lon="0.90598">
        <ele>114.56</ele>
        <time>2015-10-11T08:37:31Z</time>
      </trkpt>
      <trkpt lat="49.33979" lon="0.90618">
        <ele>114.23</ele>
        <time>2015-10-11T08:37:33Z</time>
      </trkpt>
      <trkpt lat="49.33975" lon="0.90638">
        <ele>114.01</ele>
        <time>2015-10-11T08:37:35Z</time>
      </trkpt>
      <trkpt lat="49.33974" lon="0.90657">
        <ele>114.28</ele>
        <time>2015-10-11T08:37:37Z</time>
      </trkpt>
      <trkpt lat="49.33971" lon="0.90674">
        <ele>114.84</ele>
        <time>2015-10-11T08:37:39Z</time>
      </trkpt>
      <trkpt lat="49.3397" lon="0.90692">
        <ele>114.74</ele>
        <time>2015-10-11T08:37:41Z</time>
      </trkpt>
      <trkpt lat="49.33966" lon="0.90714">
        <ele>114.64</ele>
        <time>2015-10-11T08:37:43Z</time>
      </trkpt>
      <trkpt lat="49.33966" lon="0.90735">
        <ele>113.78</ele>
        <time>2015-10-11T08:37:45Z</time>
      </trkpt>
      <trkpt lat="49.33965" lon="0.90757">
        <ele>112.67</ele>
        <time>2015-10-11T08:37:47Z</time>
      </trkpt>
      <trkpt lat="49.33966" lon="0.90776">
        <ele>111.4</ele>
        <time>2015-10-11T08:37:49Z</time>
      </trkpt>
      <trkpt lat="49.33965" lon="0.90797">
        <ele>110.39</ele>
        <time>2015-10-11T08:37:51Z</time>
      </trkpt>
      <trkpt lat="49.33964" lon="0.90816">
        <ele>110.36</ele>
        <time>2015-10-11T08:37:53Z</time>
      </trkpt>
      <trkpt lat="49.33965" lon="0.90838">
        <ele>110.52</ele>
        <time>2015-10-11T08:37:55Z</time>
      </trkpt>
      <trkpt lat="49.33966" lon="0.90858">
        <ele>110.62</ele>
        <time>2015-10-11T08:37:57Z</time>
      </trkpt>
      <trkpt lat="49.33969" lon="0.90878">
        <ele>110.99</ele>
        <time>2015-10-11T08:37:59Z</time>
      </trkpt>
      <trkpt lat="49.33975" lon="0.90896">
        <ele>111.13</ele>
        <time>2015-10-11T08:38:01Z</time>
      </trkpt>
      <trkpt lat="49.3398" lon="0.90913">
        <ele>110.78</ele>
        <time>2015-10-11T08:38:03Z</time>
      </trkpt>
      <trkpt lat="49.33986" lon="0.90933">
        <ele>110.46</ele>
        <time>2015-10-11T08:38:05Z</time>
      </trkpt>
      <trkpt lat="49.33988" lon="0.90953">
        <ele>110.19</ele>
        <time>2015-10-11T08:38:07Z</time>
      </trkpt>
      <trkpt lat="49.33988" lon="0.90971">
        <ele>110.14</ele>
        <time>2015-10-11T08:38:09Z</time>
      </trkpt>
      <trkpt lat="49.33988" lon="0.90991">
        <ele>110.25</ele>
        <time>2015-10-11T08:38:11Z</time>
      </trkpt>
      <trkpt lat="49.33985" lon="0.91008">
        <ele>111.18</ele>
        <time>2015-10-11T08:38:13Z</time>
      </trkpt>
      <trkpt lat="49.33981" lon="0.91025">
        <ele>112.2</ele>
        <time>2015-10-11T08:38:15Z</time>
      </trkpt>
      <trkpt lat="49.33975" lon="0.91044">
        <ele>113.06</ele>
        <time>2015-10-11T08:38:17Z</time>
      </trkpt>
      <trkpt lat="49.33969" lon="0.91065">
        <ele>113.26</ele>
        <time>2015-10-11T08:38:19Z</time>
      </trkpt>
      <trkpt lat="49.33966" lon="0.91088">
        <ele>112.8</ele>
        <time>2015-10-11T08:38:21Z</time>
      </trkpt>
      <trkpt lat="49.33965" lon="0.91112">
        <ele>111.82</ele>
        <time>2015-10-11T08:38:23Z</time>
      </trkpt>
      <trkpt lat="49.33957" lon="0.91134">
        <ele>110.81</ele>
        <time>2015-10-11T08:38:25Z</time>
      </trkpt>
      <trkpt lat="49.33948" lon="0.91153">
        <ele>110.04</ele>
        <time>2015-10-11T08:38:27Z</time>
      </trkpt>
      <trkpt lat="49.33939" lon="0.91174">
        <ele>109.6</ele>
        <time>2015-10-11T08:38:29Z</time>
      </trkpt>
      <trkpt lat="49.33932" lon="0.91196">
        <ele>108.66</ele>
        <time>2015-10-11T08:38:31Z</time>
      </trkpt>
      <trkpt lat="49.33927" lon="0.91217">
        <ele>107.11</ele>
        <time>2015-10-11T08:38:33Z</time>
      </trkpt>
      <trkpt lat="49.3392" lon="0.91242">
        <ele>105.69</ele>
        <time>2015-10-11T08:38:35Z</time>
      </trkpt>
      <trkpt lat="49.3391" lon="0.91264">
        <ele>103.99</ele>
        <time>2015-10-11T08:38:37Z</time>
      </trkpt>
      <trkpt lat="49.33895" lon="0.91287">
        <ele>102.68</ele>
        <time>2015-10-11T08:38:39Z</time>
      </trkpt>
      <trkpt lat="49.33881" lon="0.91308">
        <ele>101.41</ele>
        <time>2015-10-11T08:38:41Z</time>
      </trkpt>
      <trkpt lat="49.33868" lon="0.91328">
        <ele>100.46</ele>
        <time>2015-10-11T08:38:43Z</time>
      </trkpt>
      <trkpt lat="49.33856" lon="0.91346">
        <ele>99.39</ele>
        <time>2015-10-11T08:38:45Z</time>
      </trkpt>
      <trkpt lat="49.33843" lon="0.91365">
        <ele>97.68</ele>
        <time>2015-10-11T08:38:47Z</time>
      </trkpt>
      <trkpt lat="49.3383" lon="0.91382">
        <ele>95.96</ele>
        <time>2015-10-11T08:38:49Z</time>
      </trkpt>
      <trkpt lat="49.33815" lon="0.91399">
        <ele>94.13</ele>
        <time>2015-10-11T08:38:51Z</time>
      </trkpt>
      <trkpt lat="49.33798" lon="0.91417">
        <ele>91.81</ele>
        <time>2015-10-11T08:38:53Z</time>
      </trkpt>
      <trkpt lat="49.33784" lon="0.9143">
        <ele>90.19</ele>
        <time>2015-10-11T08:38:55Z</time>
      </trkpt>
      <trkpt lat="49.33769" lon="0.91443">
        <ele>88.92</ele>
        <time>2015-10-11T08:38:57Z</time>
      </trkpt>
      <trkpt lat="49.33754" lon="0.91456">
        <ele>87.71</ele>
        <time>2015-10-11T08:38:59Z</time>
      </trkpt>
      <trkpt lat="49.33737" lon="0.91468">
        <ele>87.22</ele>
        <time>2015-10-11T08:39:01Z</time>
      </trkpt>
      <trkpt lat="49.3372" lon="0.91477">
        <ele>87.59</ele>
        <time>2015-10-11T08:39:03Z</time>
      </trkpt>
      <trkpt lat="49.33701" lon="0.91485">
        <ele>87.56</ele>
        <time>2015-10-11T08:39:05Z</time>
      </trkpt>
      <trkpt lat="49.33683" lon="0.91493">
        <ele>86.83</ele>
        <time>2015-10-11T08:39:07Z</time>
      </trkpt>
      <trkpt lat="49.33664" lon="0.91502">
        <ele>86</ele>
        <time>2015-10-11T08:39:09Z</time>
      </trkpt>
      <trkpt lat="49.33646" lon="0.91515">
        <ele>85.18</ele>
        <time>2015-10-11T08:39:11Z</time>
      </trkpt>
      <trkpt lat="49.3363" lon="0.9153">
        <ele>84.46</ele>
        <time>2015-10-11T08:39:13Z</time>
      </trkpt>
      <trkpt lat="49.33616" lon="0.91546">
        <ele>83.48</ele>
        <time>2015-10-11T08:39:15Z</time>
      </trkpt>
      <trkpt lat="49.33602" lon="0.91565">
        <ele>82.11</ele>
        <time>2015-10-11T08:39:17Z</time>
      </trkpt>
      <trkpt lat="49.33593" lon="0.91585">
        <ele>81.03</ele>
        <time>2015-10-11T08:39:19Z</time>
      </trkpt>
      <trkpt lat="49.33588" lon="0.91607">
        <ele>79.87</ele>
        <time>2015-10-11T08:39:21Z</time>
      </trkpt>
      <trkpt lat="49.33585" lon="0.91629">
        <ele>78.85</ele>
        <time>2015-10-11T08:39:23Z</time>
      </trkpt>
      <trkpt lat="49.33585" lon="0.91652">
        <ele>78.09</ele>
        <time>2015-10-11T08:39:25Z</time>
      </trkpt>
      <trkpt lat="49.3358" lon="0.91675">
        <ele>77.5</ele>
        <time>2015-10-11T08:39:27Z</time>
      </trkpt>
      <trkpt lat="49.33574" lon="0.91698">
        <ele>76.76</ele>
        <time>2015-10-11T08:39:29Z</time>
      </trkpt>
      <trkpt lat="49.33567" lon="0.91721">
        <ele>76.43</ele>
        <time>2015-10-11T08:39:31Z</time>
      </trkpt>
      <trkpt lat="49.33559" lon="0.91748">
        <ele>76.57</ele>
        <time>2015-10-11T08:39:33Z</time>
      </trkpt>
      <trkpt lat="49.3355" lon="0.91774">
        <ele>75.75</ele>
        <time>2015-10-11T08:39:35Z</time>
      </trkpt>
      <trkpt lat="49.33543" lon="0.91803">
        <ele>74.67</ele>
        <time>2015-10-11T08:39:37Z</time>
      </trkpt>
      <trkpt lat="49.33538" lon="0.91831">
        <ele>73.59</ele>
        <time>2015-10-11T08:39:39Z</time>
      </trkpt>
      <trkpt lat="49.33533" lon="0.91856">
        <ele>72.07</ele>
        <time>2015-10-11T08:39:41Z</time>
      </trkpt>
      <trkpt lat="49.3353" lon="0.91878">
        <ele>70.05</ele>
        <time>2015-10-11T08:39:43Z</time>
      </trkpt>
      <trkpt lat="49.33528" lon="0.91896">
        <ele>67.6</ele>
        <time>2015-10-11T08:39:45Z</time>
      </trkpt>
      <trkpt lat="49.33524" lon="0.91907">
        <ele>65.85</ele>
        <time>2015-10-11T08:39:47Z</time>
      </trkpt>
      <trkpt lat="49.3352" lon="0.91911">
        <ele>64.9</ele>
        <time>2015-10-11T08:39:49Z</time>
      </trkpt>
      <trkpt lat="49.33514" lon="0.91911">
        <ele>64.41</ele>
        <time>2015-10-11T08:39:51Z</time>
      </trkpt>
      <trkpt lat="49.33508" lon="0.91908">
        <ele>64.16</ele>
        <time>2015-10-11T08:39:53Z</time>
      </trkpt>
      <trkpt lat="49.335" lon="0.91905">
        <ele>63.93</ele>
        <time>2015-10-11T08:39:55Z</time>
      </trkpt>
      <trkpt lat="49.3349" lon="0.91902">
        <ele>64.13</ele>
        <time>2015-10-11T08:39:57Z</time>
      </trkpt>
      <trkpt lat="49.33479" lon="0.91898">
        <ele>65.04</ele>
        <time>2015-10-11T08:39:59Z</time>
      </trkpt>
      <trkpt lat="49.33469" lon="0.91895">
        <ele>66.19</ele>
        <time>2015-10-11T08:40:01Z</time>
      </trkpt>
      <trkpt lat="49.33459" lon="0.91892">
        <ele>66.76</ele>
        <time>2015-10-11T08:40:03Z</time>
      </trkpt>
      <trkpt lat="49.33449" lon="0.91889">
        <ele>67.18</ele>
        <time>2015-10-11T08:40:05Z</time>
      </trkpt>
      <trkpt lat="49.33439" lon="0.91885">
        <ele>67.54</ele>
        <time>2015-10-11T08:40:07Z</time>
      </trkpt>
      <trkpt lat="49.33428" lon="0.91881">
        <ele>67.61</ele>
        <time>2015-10-11T08:40:09Z</time>
      </trkpt>
      <trkpt lat="49.33419" lon="0.91876">
        <ele>67.54</ele>
        <time>2015-10-11T08:40:11Z</time>
      </trkpt>
      <trkpt lat="49.3341" lon="0.9187">
        <ele>67.39</ele>
        <time>2015-10-11T08:40:13Z</time>
      </trkpt>
      <trkpt lat="49.334" lon="0.91864">
        <ele>66.96</ele>
        <time>2015-10-11T08:40:15Z</time>
      </trkpt>
      <trkpt lat="49.33391" lon="0.91858">
        <ele>66.09</ele>
        <time>2015-10-11T08:40:17Z</time>
      </trkpt>
      <trkpt lat="49.33381" lon="0.91852">
        <ele>65.38</ele>
        <time>2015-10-11T08:40:19Z</time>
      </trkpt>
      <trkpt lat="49.33371" lon="0.91847">
        <ele>65.33</ele>
        <time>2015-10-11T08:40:21Z</time>
      </trkpt>
      <trkpt lat="49.33362" lon="0.91841">
        <ele>65.3</ele>
        <time>2015-10-11T08:40:23Z</time>
      </trkpt>
      <trkpt lat="49.33353" lon="0.91836">
        <ele>65.39</ele>
        <time>2015-10-11T08:40:25Z</time>
      </trkpt>
      <trkpt lat="49.33348" lon="0.91825">
        <ele>65.46</ele>
        <time>2015-10-11T08:40:27Z</time>
      </trkpt>
      <trkpt lat="49.33349" lon="0.91813">
        <ele>65.49</ele>
        <time>2015-10-11T08:40:29Z</time>
      </trkpt>
      <trkpt lat="49.33351" lon="0.91801">
        <ele>65.23</ele>
        <time>2015-10-11T08:40:31Z</time>
      </trkpt>
      <trkpt lat="49.33356" lon="0.9179">
        <ele>65.04</ele>
        <time>2015-10-11T08:40:33Z</time>
      </trkpt>
      <trkpt lat="49.3336" lon="0.91782">
        <ele>64.86</ele>
        <time>2015-10-11T08:40:35Z</time>
      </trkpt>
      <trkpt lat="49.33363" lon="0.91774">
        <ele>64.71</ele>
        <time>2015-10-11T08:40:37Z</time>
      </trkpt>
      <trkpt lat="49.3336" lon="0.91766">
        <ele>64.39</ele>
        <time>2015-10-11T08:40:41Z</time>
      </trkpt>
      <trkpt lat="49.33362" lon="0.91755">
        <ele>64.17</ele>
        <time>2015-10-11T08:40:45Z</time>
      </trkpt>
      <trkpt lat="49.33366" lon="0.91748">
        <ele>64.09</ele>
        <time>2015-10-11T08:40:47Z</time>
      </trkpt>
      <trkpt lat="49.33367" lon="0.91738">
        <ele>64.06</ele>
        <time>2015-10-11T08:40:49Z</time>
      </trkpt>
      <trkpt lat="49.33366" lon="0.91729">
        <ele>64.08</ele>
        <time>2015-10-11T08:40:51Z</time>
      </trkpt>
      <trkpt lat="49.33365" lon="0.91721">
        <ele>64.12</ele>
        <time>2015-10-11T08:40:53Z</time>
      </trkpt>
      <trkpt lat="49.33362" lon="0.91715">
        <ele>64.18</ele>
        <time>2015-10-11T08:40:54Z</time>
      </trkpt>
      <trkpt lat="49.33357" lon="0.91706">
        <ele>64.38</ele>
        <time>2015-10-11T08:40:58Z</time>
      </trkpt>
      <trkpt lat="49.33353" lon="0.91696">
        <ele>64.71</ele>
        <time>2015-10-11T08:41:02Z</time>
      </trkpt>
      <trkpt lat="49.33351" lon="0.91685">
        <ele>65.18</ele>
        <time>2015-10-11T08:41:06Z</time>
      </trkpt>
      <trkpt lat="49.33351" lon="0.91673">
        <ele>65.7</ele>
        <time>2015-10-11T08:41:10Z</time>
      </trkpt>
      <trkpt lat="49.33352" lon="0.91662">
        <ele>66.2</ele>
        <time>2015-10-11T08:41:14Z</time>
      </trkpt>
      <trkpt lat="49.33351" lon="0.91652">
        <ele>66.99</ele>
        <time>2015-10-11T08:41:20Z</time>
      </trkpt>
      <trkpt lat="49.33348" lon="0.91643">
        <ele>67.42</ele>
        <time>2015-10-11T08:41:24Z</time>
      </trkpt>
      <trkpt lat="49.33345" lon="0.91635">
        <ele>67.88</ele>
        <time>2015-10-11T08:41:28Z</time>
      </trkpt>
      <trkpt lat="49.33343" lon="0.91625">
        <ele>68.11</ele>
        <time>2015-10-11T08:41:32Z</time>
      </trkpt>
      <trkpt lat="49.3334" lon="0.91615">
        <ele>68.42</ele>
        <time>2015-10-11T08:41:36Z</time>
      </trkpt>
      <trkpt lat="49.33337" lon="0.91605">
        <ele>68.88</ele>
        <time>2015-10-11T08:41:40Z</time>
      </trkpt>
      <trkpt lat="49.33335" lon="0.91599">
        <ele>69.15</ele>
        <time>2015-10-11T08:41:42Z</time>
      </trkpt>
      <trkpt lat="49.33335" lon="0.91588">
        <ele>69.85</ele>
        <time>2015-10-11T08:41:46Z</time>
      </trkpt>
      <trkpt lat="49.33334" lon="0.91577">
        <ele>70.7</ele>
        <time>2015-10-11T08:41:50Z</time>
      </trkpt>
      <trkpt lat="49.3333" lon="0.91568">
        <ele>71.59</ele>
        <time>2015-10-11T08:41:54Z</time>
      </trkpt>
      <trkpt lat="49.33328" lon="0.91556">
        <ele>72.34</ele>
        <time>2015-10-11T08:41:58Z</time>
      </trkpt>
      <trkpt lat="49.33329" lon="0.91546">
        <ele>72.91</ele>
        <time>2015-10-11T08:42:02Z</time>
      </trkpt>
      <trkpt lat="49.33328" lon="0.91537">
        <ele>73.69</ele>
        <time>2015-10-11T08:42:06Z</time>
      </trkpt>
      <trkpt lat="49.33324" lon="0.9153">
        <ele>74.64</ele>
        <time>2015-10-11T08:42:10Z</time>
      </trkpt>
      <trkpt lat="49.33318" lon="0.91523">
        <ele>75.65</ele>
        <time>2015-10-11T08:42:14Z</time>
      </trkpt>
      <trkpt lat="49.33312" lon="0.91514">
        <ele>76.63</ele>
        <time>2015-10-11T08:42:18Z</time>
      </trkpt>
      <trkpt lat="49.33309" lon="0.91508">
        <ele>77.11</ele>
        <time>2015-10-11T08:42:20Z</time>
      </trkpt>
      <trkpt lat="49.33307" lon="0.91501">
        <ele>77.56</ele>
        <time>2015-10-11T08:42:22Z</time>
      </trkpt>
      <trkpt lat="49.33302" lon="0.91491">
        <ele>78.43</ele>
        <time>2015-10-11T08:42:26Z</time>
      </trkpt>
      <trkpt lat="49.33299" lon="0.91479">
        <ele>79.16</ele>
        <time>2015-10-11T08:42:30Z</time>
      </trkpt>
      <trkpt lat="49.33296" lon="0.91471">
        <ele>79.43</ele>
        <time>2015-10-11T08:42:32Z</time>
      </trkpt>
      <trkpt lat="49.33293" lon="0.91463">
        <ele>79.79</ele>
        <time>2015-10-11T08:42:36Z</time>
      </trkpt>
      <trkpt lat="49.3329" lon="0.91449">
        <ele>80.34</ele>
        <time>2015-10-11T08:42:40Z</time>
      </trkpt>
      <trkpt lat="49.33288" lon="0.91442">
        <ele>80.63</ele>
        <time>2015-10-11T08:42:42Z</time>
      </trkpt>
      <trkpt lat="49.33282" lon="0.91433">
        <ele>81.2</ele>
        <time>2015-10-11T08:42:46Z</time>
      </trkpt>
      <trkpt lat="49.33278" lon="0.91423">
        <ele>81.86</ele>
        <time>2015-10-11T08:42:50Z</time>
      </trkpt>
      <trkpt lat="49.33277" lon="0.91415">
        <ele>82.21</ele>
        <time>2015-10-11T08:42:52Z</time>
      </trkpt>
      <trkpt lat="49.33275" lon="0.91408">
        <ele>82.52</ele>
        <time>2015-10-11T08:42:54Z</time>
      </trkpt>
      <trkpt lat="49.33274" lon="0.91398">
        <ele>83.01</ele>
        <time>2015-10-11T08:42:58Z</time>
      </trkpt>
      <trkpt lat="49.33272" lon="0.91385">
        <ele>83.51</ele>
        <time>2015-10-11T08:43:02Z</time>
      </trkpt>
      <trkpt lat="49.33269" lon="0.91371">
        <ele>84.13</ele>
        <time>2015-10-11T08:43:06Z</time>
      </trkpt>
      <trkpt lat="49.33268" lon="0.91364">
        <ele>84.4</ele>
        <time>2015-10-11T08:43:08Z</time>
      </trkpt>
      <trkpt lat="49.33266" lon="0.91357">
        <ele>84.62</ele>
        <time>2015-10-11T08:43:10Z</time>
      </trkpt>
      <trkpt lat="49.33261" lon="0.91351">
        <ele>84.88</ele>
        <time>2015-10-11T08:43:12Z</time>
      </trkpt>
      <trkpt lat="49.33256" lon="0.91337">
        <ele>85.43</ele>
        <time>2015-10-11T08:43:16Z</time>
      </trkpt>
      <trkpt lat="49.33253" lon="0.91331">
        <ele>85.72</ele>
        <time>2015-10-11T08:43:18Z</time>
      </trkpt>
      <trkpt lat="49.33251" lon="0.91322">
        <ele>86.01</ele>
        <time>2015-10-11T08:43:20Z</time>
      </trkpt>
      <trkpt lat="49.33249" lon="0.91315">
        <ele>86.36</ele>
        <time>2015-10-11T08:43:22Z</time>
      </trkpt>
      <trkpt lat="49.33247" lon="0.91306">
        <ele>86.76</ele>
        <time>2015-10-11T08:43:24Z</time>
      </trkpt>
      <trkpt lat="49.33244" lon="0.91296">
        <ele>87.18</ele>
        <time>2015-10-11T08:43:26Z</time>
      </trkpt>
      <trkpt lat="49.33242" lon="0.91287">
        <ele>87.59</ele>
        <time>2015-10-11T08:43:28Z</time>
      </trkpt>
      <trkpt lat="49.33241" lon="0.91279">
        <ele>87.98</ele>
        <time>2015-10-11T08:43:30Z</time>
      </trkpt>
      <trkpt lat="49.33238" lon="0.91265">
        <ele>88.76</ele>
        <time>2015-10-11T08:43:34Z</time>
      </trkpt>
      <trkpt lat="49.33239" lon="0.91257">
        <ele>89.11</ele>
        <time>2015-10-11T08:43:36Z</time>
      </trkpt>
      <trkpt lat="49.33239" lon="0.9125">
        <ele>89.46</ele>
        <time>2015-10-11T08:43:38Z</time>
      </trkpt>
      <trkpt lat="49.33237" lon="0.91237">
        <ele>90.11</ele>
        <time>2015-10-11T08:43:42Z</time>
      </trkpt>
      <trkpt lat="49.33238" lon="0.91225">
        <ele>90.73</ele>
        <time>2015-10-11T08:43:46Z</time>
      </trkpt>
      <trkpt lat="49.33234" lon="0.91211">
        <ele>91.45</ele>
        <time>2015-10-11T08:43:50Z</time>
      </trkpt>
      <trkpt lat="49.33231" lon="0.91202">
        <ele>91.73</ele>
        <time>2015-10-11T08:43:52Z</time>
      </trkpt>
      <trkpt lat="49.3323" lon="0.91195">
        <ele>92.02</ele>
        <time>2015-10-11T08:43:54Z</time>
      </trkpt>
      <trkpt lat="49.33229" lon="0.9118">
        <ele>92.63</ele>
        <time>2015-10-11T08:43:58Z</time>
      </trkpt>
      <trkpt lat="49.33228" lon="0.9117">
        <ele>92.9</ele>
        <time>2015-10-11T08:44:00Z</time>
      </trkpt>
      <trkpt lat="49.33227" lon="0.91163">
        <ele>93.22</ele>
        <time>2015-10-11T08:44:02Z</time>
      </trkpt>
      <trkpt lat="49.33226" lon="0.91149">
        <ele>93.85</ele>
        <time>2015-10-11T08:44:06Z</time>
      </trkpt>
      <trkpt lat="49.33225" lon="0.91141">
        <ele>94.14</ele>
        <time>2015-10-11T08:44:08Z</time>
      </trkpt>
      <trkpt lat="49.33225" lon="0.91131">
        <ele>94.41</ele>
        <time>2015-10-11T08:44:10Z</time>
      </trkpt>
      <trkpt lat="49.33225" lon="0.91123">
        <ele>94.64</ele>
        <time>2015-10-11T08:44:12Z</time>
      </trkpt>
      <trkpt lat="49.33223" lon="0.91115">
        <ele>94.95</ele>
        <time>2015-10-11T08:44:14Z</time>
      </trkpt>
      <trkpt lat="49.33221" lon="0.91107">
        <ele>95.29</ele>
        <time>2015-10-11T08:44:16Z</time>
      </trkpt>
      <trkpt lat="49.33217" lon="0.91099">
        <ele>95.63</ele>
        <time>2015-10-11T08:44:18Z</time>
      </trkpt>
      <trkpt lat="49.33214" lon="0.91091">
        <ele>95.98</ele>
        <time>2015-10-11T08:44:20Z</time>
      </trkpt>
      <trkpt lat="49.33212" lon="0.91085">
        <ele>96.23</ele>
        <time>2015-10-11T08:44:22Z</time>
      </trkpt>
      <trkpt lat="49.33211" lon="0.91078">
        <ele>96.5</ele>
        <time>2015-10-11T08:44:24Z</time>
      </trkpt>
      <trkpt lat="49.33211" lon="0.91068">
        <ele>96.91</ele>
        <time>2015-10-11T08:44:26Z</time>
      </trkpt>
      <trkpt lat="49.33209" lon="0.91057">
        <ele>97.4</ele>
        <time>2015-10-11T08:44:28Z</time>
      </trkpt>
      <trkpt lat="49.33211" lon="0.91047">
        <ele>97.94</ele>
        <time>2015-10-11T08:44:30Z</time>
      </trkpt>
      <trkpt lat="49.33211" lon="0.91037">
        <ele>98.46</ele>
        <time>2015-10-11T08:44:32Z</time>
      </trkpt>
      <trkpt lat="49.33212" lon="0.91027">
        <ele>98.83</ele>
        <time>2015-10-11T08:44:34Z</time>
      </trkpt>
      <trkpt lat="49.33212" lon="0.9102">
        <ele>99.12</ele>
        <time>2015-10-11T08:44:36Z</time>
      </trkpt>
      <trkpt lat="49.33211" lon="0.91013">
        <ele>99.3</ele>
        <time>2015-10-11T08:44:38Z</time>
      </trkpt>
      <trkpt lat="49.33203" lon="0.9101">
        <ele>99.66</ele>
        <time>2015-10-11T08:44:42Z</time>
      </trkpt>
      <trkpt lat="49.33197" lon="0.9101">
        <ele>99.89</ele>
        <time>2015-10-11T08:44:44Z</time>
      </trkpt>
      <trkpt lat="49.33189" lon="0.9101">
        <ele>100.44</ele>
        <time>2015-10-11T08:44:46Z</time>
      </trkpt>
      <trkpt lat="49.33181" lon="0.91011">
        <ele>101.36</ele>
        <time>2015-10-11T08:44:48Z</time>
      </trkpt>
      <trkpt lat="49.33172" lon="0.91012">
        <ele>103.05</ele>
        <time>2015-10-11T08:44:50Z</time>
      </trkpt>
      <trkpt lat="49.33164" lon="0.91015">
        <ele>104.22</ele>
        <time>2015-10-11T08:44:52Z</time>
      </trkpt>
      <trkpt lat="49.33155" lon="0.91019">
        <ele>105.19</ele>
        <time>2015-10-11T08:44:54Z</time>
      </trkpt>
      <trkpt lat="49.3315" lon="0.91016">
        <ele>105.62</ele>
        <time>2015-10-11T08:44:56Z</time>
      </trkpt>
      <trkpt lat="49.33143" lon="0.91012">
        <ele>105.8</ele>
        <time>2015-10-11T08:45:00Z</time>
      </trkpt>
      <trkpt lat="49.33143" lon="0.91">
        <ele>105.66</ele>
        <time>2015-10-11T08:45:02Z</time>
      </trkpt>
      <trkpt lat="49.33143" lon="0.9099">
        <ele>105.54</ele>
        <time>2015-10-11T08:45:04Z</time>
      </trkpt>
      <trkpt lat="49.33142" lon="0.90982">
        <ele>105.41</ele>
        <time>2015-10-11T08:45:06Z</time>
      </trkpt>
      <trkpt lat="49.33143" lon="0.90972">
        <ele>105.31</ele>
        <time>2015-10-11T08:45:08Z</time>
      </trkpt>
      <trkpt lat="49.33143" lon="0.9096">
        <ele>105.21</ele>
        <time>2015-10-11T08:45:10Z</time>
      </trkpt>
      <trkpt lat="49.33144" lon="0.9095">
        <ele>105.14</ele>
        <time>2015-10-11T08:45:12Z</time>
      </trkpt>
      <trkpt lat="49.33146" lon="0.90943">
        <ele>105.09</ele>
        <time>2015-10-11T08:45:14Z</time>
      </trkpt>
      <trkpt lat="49.33147" lon="0.90936">
        <ele>105.04</ele>
        <time>2015-10-11T08:45:16Z</time>
      </trkpt>
      <trkpt lat="49.33147" lon="0.90928">
        <ele>105</ele>
        <time>2015-10-11T08:45:18Z</time>
      </trkpt>
      <trkpt lat="49.33148" lon="0.90919">
        <ele>105.02</ele>
        <time>2015-10-11T08:45:20Z</time>
      </trkpt>
      <trkpt lat="49.33149" lon="0.90912">
        <ele>105.11</ele>
        <time>2015-10-11T08:45:22Z</time>
      </trkpt>
      <trkpt lat="49.33151" lon="0.90904">
        <ele>105.21</ele>
        <time>2015-10-11T08:45:24Z</time>
      </trkpt>
      <trkpt lat="49.33152" lon="0.90894">
        <ele>105.3</ele>
        <time>2015-10-11T08:45:26Z</time>
      </trkpt>
      <trkpt lat="49.33153" lon="0.9088">
        <ele>105.21</ele>
        <time>2015-10-11T08:45:30Z</time>
      </trkpt>
      <trkpt lat="49.33153" lon="0.90871">
        <ele>105.14</ele>
        <time>2015-10-11T08:45:32Z</time>
      </trkpt>
      <trkpt lat="49.33153" lon="0.90864">
        <ele>105.14</ele>
        <time>2015-10-11T08:45:34Z</time>
      </trkpt>
      <trkpt lat="49.33156" lon="0.9085">
        <ele>105.32</ele>
        <time>2015-10-11T08:45:38Z</time>
      </trkpt>
      <trkpt lat="49.33159" lon="0.90841">
        <ele>105.44</ele>
        <time>2015-10-11T08:45:40Z</time>
      </trkpt>
      <trkpt lat="49.33161" lon="0.90832">
        <ele>105.56</ele>
        <time>2015-10-11T08:45:42Z</time>
      </trkpt>
      <trkpt lat="49.33163" lon="0.90823">
        <ele>105.7</ele>
        <time>2015-10-11T08:45:44Z</time>
      </trkpt>
      <trkpt lat="49.33164" lon="0.90817">
        <ele>105.8</ele>
        <time>2015-10-11T08:45:46Z</time>
      </trkpt>
      <trkpt lat="49.33165" lon="0.90808">
        <ele>105.86</ele>
        <time>2015-10-11T08:45:48Z</time>
      </trkpt>
      <trkpt lat="49.33166" lon="0.90799">
        <ele>105.93</ele>
        <time>2015-10-11T08:45:50Z</time>
      </trkpt>
      <trkpt lat="49.33168" lon="0.90791">
        <ele>106.06</ele>
        <time>2015-10-11T08:45:52Z</time>
      </trkpt>
      <trkpt lat="49.33169" lon="0.90783">
        <ele>106.17</ele>
        <time>2015-10-11T08:45:54Z</time>
      </trkpt>
      <trkpt lat="49.3317" lon="0.90774">
        <ele>106.28</ele>
        <time>2015-10-11T08:45:56Z</time>
      </trkpt>
      <trkpt lat="49.33172" lon="0.90765">
        <ele>106.36</ele>
        <time>2015-10-11T08:45:58Z</time>
      </trkpt>
      <trkpt lat="49.33175" lon="0.90753">
        <ele>106.38</ele>
        <time>2015-10-11T08:46:00Z</time>
      </trkpt>
      <trkpt lat="49.33176" lon="0.90744">
        <ele>106.32</ele>
        <time>2015-10-11T08:46:02Z</time>
      </trkpt>
      <trkpt lat="49.33177" lon="0.90733">
        <ele>106.31</ele>
        <time>2015-10-11T08:46:04Z</time>
      </trkpt>
      <trkpt lat="49.33178" lon="0.90724">
        <ele>106.36</ele>
        <time>2015-10-11T08:46:06Z</time>
      </trkpt>
      <trkpt lat="49.33179" lon="0.90716">
        <ele>106.42</ele>
        <time>2015-10-11T08:46:08Z</time>
      </trkpt>
      <trkpt lat="49.3318" lon="0.90708">
        <ele>106.52</ele>
        <time>2015-10-11T08:46:10Z</time>
      </trkpt>
      <trkpt lat="49.33183" lon="0.907">
        <ele>106.61</ele>
        <time>2015-10-11T08:46:12Z</time>
      </trkpt>
      <trkpt lat="49.33185" lon="0.90691">
        <ele>106.66</ele>
        <time>2015-10-11T08:46:14Z</time>
      </trkpt>
      <trkpt lat="49.33187" lon="0.90681">
        <ele>106.7</ele>
        <time>2015-10-11T08:46:16Z</time>
      </trkpt>
      <trkpt lat="49.33188" lon="0.90668">
        <ele>106.73</ele>
        <time>2015-10-11T08:46:18Z</time>
      </trkpt>
      <trkpt lat="49.33189" lon="0.90656">
        <ele>106.75</ele>
        <time>2015-10-11T08:46:20Z</time>
      </trkpt>
      <trkpt lat="49.33191" lon="0.90644">
        <ele>106.77</ele>
        <time>2015-10-11T08:46:22Z</time>
      </trkpt>
      <trkpt lat="49.33193" lon="0.90633">
        <ele>106.76</ele>
        <time>2015-10-11T08:46:24Z</time>
      </trkpt>
      <trkpt lat="49.33195" lon="0.9062">
        <ele>106.64</ele>
        <time>2015-10-11T08:46:26Z</time>
      </trkpt>
      <trkpt lat="49.33196" lon="0.90603">
        <ele>106.61</ele>
        <time>2015-10-11T08:46:28Z</time>
      </trkpt>
      <trkpt lat="49.33197" lon="0.90587">
        <ele>107.12</ele>
        <time>2015-10-11T08:46:30Z</time>
      </trkpt>
      <trkpt lat="49.332" lon="0.90573">
        <ele>107.44</ele>
        <time>2015-10-11T08:46:32Z</time>
      </trkpt>
      <trkpt lat="49.33202" lon="0.90561">
        <ele>107.61</ele>
        <time>2015-10-11T08:46:34Z</time>
      </trkpt>
      <trkpt lat="49.33205" lon="0.9055">
        <ele>107.76</ele>
        <time>2015-10-11T08:46:36Z</time>
      </trkpt>
      <trkpt lat="49.33212" lon="0.90539">
        <ele>108.25</ele>
        <time>2015-10-11T08:46:38Z</time>
      </trkpt>
      <trkpt lat="49.33211" lon="0.90525">
        <ele>108.74</ele>
        <time>2015-10-11T08:46:40Z</time>
      </trkpt>
      <trkpt lat="49.33213" lon="0.90512">
        <ele>108.63</ele>
        <time>2015-10-11T08:46:42Z</time>
      </trkpt>
      <trkpt lat="49.33214" lon="0.90498">
        <ele>108.38</ele>
        <time>2015-10-11T08:46:44Z</time>
      </trkpt>
      <trkpt lat="49.33215" lon="0.90485">
        <ele>108.28</ele>
        <time>2015-10-11T08:46:46Z</time>
      </trkpt>
      <trkpt lat="49.33217" lon="0.90473">
        <ele>108.4</ele>
        <time>2015-10-11T08:46:48Z</time>
      </trkpt>
      <trkpt lat="49.33217" lon="0.90461">
        <ele>108.46</ele>
        <time>2015-10-11T08:46:50Z</time>
      </trkpt>
      <trkpt lat="49.33219" lon="0.90448">
        <ele>108.32</ele>
        <time>2015-10-11T08:46:52Z</time>
      </trkpt>
      <trkpt lat="49.33222" lon="0.90435">
        <ele>107.61</ele>
        <time>2015-10-11T08:46:54Z</time>
      </trkpt>
      <trkpt lat="49.33224" lon="0.90421">
        <ele>107.39</ele>
        <time>2015-10-11T08:46:56Z</time>
      </trkpt>
      <trkpt lat="49.33224" lon="0.90406">
        <ele>107.23</ele>
        <time>2015-10-11T08:46:58Z</time>
      </trkpt>
      <trkpt lat="49.33226" lon="0.90391">
        <ele>107.07</ele>
        <time>2015-10-11T08:47:00Z</time>
      </trkpt>
      <trkpt lat="49.33229" lon="0.90376">
        <ele>107.75</ele>
        <time>2015-10-11T08:47:02Z</time>
      </trkpt>
      <trkpt lat="49.33232" lon="0.90358">
        <ele>108.13</ele>
        <time>2015-10-11T08:47:04Z</time>
      </trkpt>
      <trkpt lat="49.33235" lon="0.90343">
        <ele>108.82</ele>
        <time>2015-10-11T08:47:06Z</time>
      </trkpt>
      <trkpt lat="49.33238" lon="0.90327">
        <ele>110.02</ele>
        <time>2015-10-11T08:47:08Z</time>
      </trkpt>
      <trkpt lat="49.33241" lon="0.90309">
        <ele>111.19</ele>
        <time>2015-10-11T08:47:10Z</time>
      </trkpt>
      <trkpt lat="49.33245" lon="0.9029">
        <ele>111.95</ele>
        <time>2015-10-11T08:47:12Z</time>
      </trkpt>
      <trkpt lat="49.33247" lon="0.90272">
        <ele>112.14</ele>
        <time>2015-10-11T08:47:14Z</time>
      </trkpt>
      <trkpt lat="49.33249" lon="0.90254">
        <ele>112.46</ele>
        <time>2015-10-11T08:47:16Z</time>
      </trkpt>
      <trkpt lat="49.33252" lon="0.90236">
        <ele>112.82</ele>
        <time>2015-10-11T08:47:18Z</time>
      </trkpt>
      <trkpt lat="49.33255" lon="0.90222">
        <ele>113.35</ele>
        <time>2015-10-11T08:47:20Z</time>
      </trkpt>
      <trkpt lat="49.33254" lon="0.90212">
        <ele>113.67</ele>
        <time>2015-10-11T08:47:22Z</time>
      </trkpt>
      <trkpt lat="49.33246" lon="0.90205">
        <ele>114.26</ele>
        <time>2015-10-11T08:47:26Z</time>
      </trkpt>
      <trkpt lat="49.33239" lon="0.90201">
        <ele>114.59</ele>
        <time>2015-10-11T08:47:28Z</time>
      </trkpt>
      <trkpt lat="49.33233" lon="0.90197">
        <ele>114.92</ele>
        <time>2015-10-11T08:47:30Z</time>
      </trkpt>
      <trkpt lat="49.33224" lon="0.90196">
        <ele>115.45</ele>
        <time>2015-10-11T08:47:34Z</time>
      </trkpt>
      <trkpt lat="49.33219" lon="0.90194">
        <ele>115.66</ele>
        <time>2015-10-11T08:47:36Z</time>
      </trkpt>
      <trkpt lat="49.3321" lon="0.90188">
        <ele>115.92</ele>
        <time>2015-10-11T08:47:40Z</time>
      </trkpt>
      <trkpt lat="49.33205" lon="0.90185">
        <ele>115.97</ele>
        <time>2015-10-11T08:47:42Z</time>
      </trkpt>
      <trkpt lat="49.33199" lon="0.90182">
        <ele>115.97</ele>
        <time>2015-10-11T08:47:44Z</time>
      </trkpt>
      <trkpt lat="49.33193" lon="0.90179">
        <ele>116.01</ele>
        <time>2015-10-11T08:47:46Z</time>
      </trkpt>
      <trkpt lat="49.33187" lon="0.90175">
        <ele>116.09</ele>
        <time>2015-10-11T08:47:48Z</time>
      </trkpt>
      <trkpt lat="49.33181" lon="0.90172">
        <ele>116.2</ele>
        <time>2015-10-11T08:47:50Z</time>
      </trkpt>
      <trkpt lat="49.33177" lon="0.9017">
        <ele>116.41</ele>
        <time>2015-10-11T08:47:52Z</time>
      </trkpt>
      <trkpt lat="49.33169" lon="0.90165">
        <ele>116.91</ele>
        <time>2015-10-11T08:47:56Z</time>
      </trkpt>
      <trkpt lat="49.33164" lon="0.90164">
        <ele>117.17</ele>
        <time>2015-10-11T08:47:58Z</time>
      </trkpt>
      <trkpt lat="49.33159" lon="0.90164">
        <ele>117.56</ele>
        <time>2015-10-11T08:48:00Z</time>
      </trkpt>
      <trkpt lat="49.33153" lon="0.90163">
        <ele>117.97</ele>
        <time>2015-10-11T08:48:02Z</time>
      </trkpt>
      <trkpt lat="49.33148" lon="0.90161">
        <ele>118.43</ele>
        <time>2015-10-11T08:48:04Z</time>
      </trkpt>
      <trkpt lat="49.3314" lon="0.9016">
        <ele>118.92</ele>
        <time>2015-10-11T08:48:06Z</time>
      </trkpt>
      <trkpt lat="49.33134" lon="0.90156">
        <ele>119.44</ele>
        <time>2015-10-11T08:48:08Z</time>
      </trkpt>
      <trkpt lat="49.33127" lon="0.90152">
        <ele>119.99</ele>
        <time>2015-10-11T08:48:10Z</time>
      </trkpt>
      <trkpt lat="49.33119" lon="0.90148">
        <ele>120.5</ele>
        <time>2015-10-11T08:48:12Z</time>
      </trkpt>
      <trkpt lat="49.33112" lon="0.90147">
        <ele>121.02</ele>
        <time>2015-10-11T08:48:14Z</time>
      </trkpt>
      <trkpt lat="49.33106" lon="0.90146">
        <ele>121.53</ele>
        <time>2015-10-11T08:48:16Z</time>
      </trkpt>
      <trkpt lat="49.33099" lon="0.90144">
        <ele>122.02</ele>
        <time>2015-10-11T08:48:18Z</time>
      </trkpt>
      <trkpt lat="49.33091" lon="0.90142">
        <ele>122.45</ele>
        <time>2015-10-11T08:48:20Z</time>
      </trkpt>
      <trkpt lat="49.33084" lon="0.9014">
        <ele>122.84</ele>
        <time>2015-10-11T08:48:22Z</time>
      </trkpt>
      <trkpt lat="49.33077" lon="0.90139">
        <ele>123.28</ele>
        <time>2015-10-11T08:48:24Z</time>
      </trkpt>
      <trkpt lat="49.33072" lon="0.90135">
        <ele>123.78</ele>
        <time>2015-10-11T08:48:26Z</time>
      </trkpt>
      <trkpt lat="49.33063" lon="0.90135">
        <ele>124.72</ele>
        <time>2015-10-11T08:48:30Z</time>
      </trkpt>
      <trkpt lat="49.33058" lon="0.90134">
        <ele>125.16</ele>
        <time>2015-10-11T08:48:32Z</time>
      </trkpt>
      <trkpt lat="49.33051" lon="0.90132">
        <ele>125.54</ele>
        <time>2015-10-11T08:48:34Z</time>
      </trkpt>
      <trkpt lat="49.33045" lon="0.90129">
        <ele>125.89</ele>
        <time>2015-10-11T08:48:36Z</time>
      </trkpt>
      <trkpt lat="49.33038" lon="0.90126">
        <ele>126.21</ele>
        <time>2015-10-11T08:48:38Z</time>
      </trkpt>
      <trkpt lat="49.33031" lon="0.90124">
        <ele>126.48</ele>
        <time>2015-10-11T08:48:40Z</time>
      </trkpt>
      <trkpt lat="49.33022" lon="0.90122">
        <ele>126.75</ele>
        <time>2015-10-11T08:48:42Z</time>
      </trkpt>
      <trkpt lat="49.33013" lon="0.90118">
        <ele>127</ele>
        <time>2015-10-11T08:48:44Z</time>
      </trkpt>
      <trkpt lat="49.33006" lon="0.90117">
        <ele>127.24</ele>
        <time>2015-10-11T08:48:46Z</time>
      </trkpt>
      <trkpt lat="49.32999" lon="0.90114">
        <ele>127.46</ele>
        <time>2015-10-11T08:48:48Z</time>
      </trkpt>
      <trkpt lat="49.32992" lon="0.9011">
        <ele>127.68</ele>
        <time>2015-10-11T08:48:50Z</time>
      </trkpt>
      <trkpt lat="49.32983" lon="0.90108">
        <ele>127.87</ele>
        <time>2015-10-11T08:48:52Z</time>
      </trkpt>
      <trkpt lat="49.32973" lon="0.90105">
        <ele>128.86</ele>
        <time>2015-10-11T08:48:54Z</time>
      </trkpt>
      <trkpt lat="49.32964" lon="0.90102">
        <ele>129.19</ele>
        <time>2015-10-11T08:48:56Z</time>
      </trkpt>
      <trkpt lat="49.32955" lon="0.90097">
        <ele>129.21</ele>
        <time>2015-10-11T08:48:58Z</time>
      </trkpt>
      <trkpt lat="49.32945" lon="0.90094">
        <ele>128.64</ele>
        <time>2015-10-11T08:49:00Z</time>
      </trkpt>
      <trkpt lat="49.32937" lon="0.9009">
        <ele>128.44</ele>
        <time>2015-10-11T08:49:02Z</time>
      </trkpt>
      <trkpt lat="49.32928" lon="0.90086">
        <ele>128.27</ele>
        <time>2015-10-11T08:49:04Z</time>
      </trkpt>
      <trkpt lat="49.32919" lon="0.90082">
        <ele>128.22</ele>
        <time>2015-10-11T08:49:06Z</time>
      </trkpt>
      <trkpt lat="49.32911" lon="0.90078">
        <ele>128.18</ele>
        <time>2015-10-11T08:49:08Z</time>
      </trkpt>
      <trkpt lat="49.32902" lon="0.90075">
        <ele>128.15</ele>
        <time>2015-10-11T08:49:10Z</time>
      </trkpt>
      <trkpt lat="49.32895" lon="0.90073">
        <ele>128.07</ele>
        <time>2015-10-11T08:49:12Z</time>
      </trkpt>
      <trkpt lat="49.32886" lon="0.90068">
        <ele>127</ele>
        <time>2015-10-11T08:49:14Z</time>
      </trkpt>
      <trkpt lat="49.3288" lon="0.90063">
        <ele>126.37</ele>
        <time>2015-10-11T08:49:16Z</time>
      </trkpt>
      <trkpt lat="49.32882" lon="0.90054">
        <ele>125.98</ele>
        <time>2015-10-11T08:49:18Z</time>
      </trkpt>
      <trkpt lat="49.32885" lon="0.90043">
        <ele>125.66</ele>
        <time>2015-10-11T08:49:20Z</time>
      </trkpt>
      <trkpt lat="49.32887" lon="0.90031">
        <ele>125.21</ele>
        <time>2015-10-11T08:49:22Z</time>
      </trkpt>
      <trkpt lat="49.32889" lon="0.90017">
        <ele>124.46</ele>
        <time>2015-10-11T08:49:24Z</time>
      </trkpt>
      <trkpt lat="49.32889" lon="0.90003">
        <ele>123.89</ele>
        <time>2015-10-11T08:49:26Z</time>
      </trkpt>
      <trkpt lat="49.3289" lon="0.89989">
        <ele>123.45</ele>
        <time>2015-10-11T08:49:28Z</time>
      </trkpt>
      <trkpt lat="49.32891" lon="0.89975">
        <ele>123.83</ele>
        <time>2015-10-11T08:49:30Z</time>
      </trkpt>
      <trkpt lat="49.32892" lon="0.8996">
        <ele>124.23</ele>
        <time>2015-10-11T08:49:32Z</time>
      </trkpt>
      <trkpt lat="49.32894" lon="0.89945">
        <ele>124.84</ele>
        <time>2015-10-11T08:49:34Z</time>
      </trkpt>
      <trkpt lat="49.32895" lon="0.89931">
        <ele>124.83</ele>
        <time>2015-10-11T08:49:36Z</time>
      </trkpt>
      <trkpt lat="49.32896" lon="0.89915">
        <ele>124.77</ele>
        <time>2015-10-11T08:49:38Z</time>
      </trkpt>
      <trkpt lat="49.32899" lon="0.89899">
        <ele>125.14</ele>
        <time>2015-10-11T08:49:40Z</time>
      </trkpt>
      <trkpt lat="49.32903" lon="0.89883">
        <ele>125.26</ele>
        <time>2015-10-11T08:49:42Z</time>
      </trkpt>
      <trkpt lat="49.32905" lon="0.89868">
        <ele>125.91</ele>
        <time>2015-10-11T08:49:44Z</time>
      </trkpt>
      <trkpt lat="49.32907" lon="0.89853">
        <ele>126.68</ele>
        <time>2015-10-11T08:49:46Z</time>
      </trkpt>
      <trkpt lat="49.32909" lon="0.89838">
        <ele>127.42</ele>
        <time>2015-10-11T08:49:48Z</time>
      </trkpt>
      <trkpt lat="49.3291" lon="0.89825">
        <ele>127.84</ele>
        <time>2015-10-11T08:49:50Z</time>
      </trkpt>
      <trkpt lat="49.32911" lon="0.89814">
        <ele>127.82</ele>
        <time>2015-10-11T08:49:52Z</time>
      </trkpt>
      <trkpt lat="49.32912" lon="0.89799">
        <ele>126.91</ele>
        <time>2015-10-11T08:49:54Z</time>
      </trkpt>
      <trkpt lat="49.32914" lon="0.89786">
        <ele>125.62</ele>
        <time>2015-10-11T08:49:56Z</time>
      </trkpt>
      <trkpt lat="49.32915" lon="0.89773">
        <ele>123.96</ele>
        <time>2015-10-11T08:49:58Z</time>
      </trkpt>
      <trkpt lat="49.32915" lon="0.89759">
        <ele>122.03</ele>
        <time>2015-10-11T08:50:00Z</time>
      </trkpt>
      <trkpt lat="49.32916" lon="0.89746">
        <ele>120.36</ele>
        <time>2015-10-11T08:50:02Z</time>
      </trkpt>
      <trkpt lat="49.32917" lon="0.89736">
        <ele>119.49</ele>
        <time>2015-10-11T08:50:04Z</time>
      </trkpt>
      <trkpt lat="49.32913" lon="0.89728">
        <ele>118.87</ele>
        <time>2015-10-11T08:50:08Z</time>
      </trkpt>
      <trkpt lat="49.32909" lon="0.89724">
        <ele>118.77</ele>
        <time>2015-10-11T08:50:10Z</time>
      </trkpt>
      <trkpt lat="49.32903" lon="0.89722">
        <ele>118.73</ele>
        <time>2015-10-11T08:50:12Z</time>
      </trkpt>
      <trkpt lat="49.329" lon="0.89715">
        <ele>118.73</ele>
        <time>2015-10-11T08:50:14Z</time>
      </trkpt>
      <trkpt lat="49.32896" lon="0.89709">
        <ele>118.71</ele>
        <time>2015-10-11T08:50:16Z</time>
      </trkpt>
      <trkpt lat="49.32891" lon="0.89705">
        <ele>118.66</ele>
        <time>2015-10-11T08:50:18Z</time>
      </trkpt>
      <trkpt lat="49.32884" lon="0.89711">
        <ele>118.44</ele>
        <time>2015-10-11T08:50:22Z</time>
      </trkpt>
      <trkpt lat="49.32877" lon="0.8971">
        <ele>118.37</ele>
        <time>2015-10-11T08:50:24Z</time>
      </trkpt>
      <trkpt lat="49.32869" lon="0.89711">
        <ele>118.2</ele>
        <time>2015-10-11T08:50:26Z</time>
      </trkpt>
      <trkpt lat="49.32861" lon="0.89709">
        <ele>118.52</ele>
        <time>2015-10-11T08:50:28Z</time>
      </trkpt>
      <trkpt lat="49.32854" lon="0.89705">
        <ele>118.97</ele>
        <time>2015-10-11T08:50:30Z</time>
      </trkpt>
      <trkpt lat="49.32848" lon="0.89703">
        <ele>119.24</ele>
        <time>2015-10-11T08:50:32Z</time>
      </trkpt>
      <trkpt lat="49.32841" lon="0.89701">
        <ele>119.85</ele>
        <time>2015-10-11T08:50:34Z</time>
      </trkpt>
      <trkpt lat="49.32833" lon="0.897">
        <ele>120.74</ele>
        <time>2015-10-11T08:50:36Z</time>
      </trkpt>
      <trkpt lat="49.32823" lon="0.89697">
        <ele>121.65</ele>
        <time>2015-10-11T08:50:38Z</time>
      </trkpt>
      <trkpt lat="49.32813" lon="0.89693">
        <ele>122.69</ele>
        <time>2015-10-11T08:50:40Z</time>
      </trkpt>
      <trkpt lat="49.32803" lon="0.89687">
        <ele>124.1</ele>
        <time>2015-10-11T08:50:42Z</time>
      </trkpt>
      <trkpt lat="49.32795" lon="0.89683">
        <ele>125.06</ele>
        <time>2015-10-11T08:50:44Z</time>
      </trkpt>
      <trkpt lat="49.32787" lon="0.89681">
        <ele>125.56</ele>
        <time>2015-10-11T08:50:46Z</time>
      </trkpt>
      <trkpt lat="49.32778" lon="0.89679">
        <ele>126.35</ele>
        <time>2015-10-11T08:50:48Z</time>
      </trkpt>
      <trkpt lat="49.32769" lon="0.89678">
        <ele>126.87</ele>
        <time>2015-10-11T08:50:50Z</time>
      </trkpt>
      <trkpt lat="49.3276" lon="0.89676">
        <ele>127.92</ele>
        <time>2015-10-11T08:50:52Z</time>
      </trkpt>
      <trkpt lat="49.32751" lon="0.89673">
        <ele>129.87</ele>
        <time>2015-10-11T08:50:54Z</time>
      </trkpt>
      <trkpt lat="49.32741" lon="0.89669">
        <ele>131</ele>
        <time>2015-10-11T08:50:56Z</time>
      </trkpt>
      <trkpt lat="49.32733" lon="0.89668">
        <ele>131.52</ele>
        <time>2015-10-11T08:50:58Z</time>
      </trkpt>
      <trkpt lat="49.32724" lon="0.89664">
        <ele>131.46</ele>
        <time>2015-10-11T08:51:00Z</time>
      </trkpt>
      <trkpt lat="49.32716" lon="0.8966">
        <ele>131.47</ele>
        <time>2015-10-11T08:51:02Z</time>
      </trkpt>
      <trkpt lat="49.32706" lon="0.89656">
        <ele>131.42</ele>
        <time>2015-10-11T08:51:04Z</time>
      </trkpt>
      <trkpt lat="49.32696" lon="0.89651">
        <ele>131.2</ele>
        <time>2015-10-11T08:51:06Z</time>
      </trkpt>
      <trkpt lat="49.32687" lon="0.89649">
        <ele>131.19</ele>
        <time>2015-10-11T08:51:08Z</time>
      </trkpt>
      <trkpt lat="49.32679" lon="0.89645">
        <ele>131.18</ele>
        <time>2015-10-11T08:51:10Z</time>
      </trkpt>
      <trkpt lat="49.32671" lon="0.89646">
        <ele>130.9</ele>
        <time>2015-10-11T08:51:12Z</time>
      </trkpt>
      <trkpt lat="49.3266" lon="0.89644">
        <ele>130.66</ele>
        <time>2015-10-11T08:51:14Z</time>
      </trkpt>
      <trkpt lat="49.3265" lon="0.8964">
        <ele>130.86</ele>
        <time>2015-10-11T08:51:16Z</time>
      </trkpt>
      <trkpt lat="49.32641" lon="0.89636">
        <ele>130.59</ele>
        <time>2015-10-11T08:51:18Z</time>
      </trkpt>
      <trkpt lat="49.32631" lon="0.89632">
        <ele>130.37</ele>
        <time>2015-10-11T08:51:20Z</time>
      </trkpt>
      <trkpt lat="49.32621" lon="0.89628">
        <ele>130.82</ele>
        <time>2015-10-11T08:51:22Z</time>
      </trkpt>
      <trkpt lat="49.32613" lon="0.89626">
        <ele>131.38</ele>
        <time>2015-10-11T08:51:24Z</time>
      </trkpt>
      <trkpt lat="49.32604" lon="0.89625">
        <ele>132.29</ele>
        <time>2015-10-11T08:51:26Z</time>
      </trkpt>
      <trkpt lat="49.32595" lon="0.89623">
        <ele>132.81</ele>
        <time>2015-10-11T08:51:28Z</time>
      </trkpt>
      <trkpt lat="49.32586" lon="0.8962">
        <ele>133.13</ele>
        <time>2015-10-11T08:51:30Z</time>
      </trkpt>
      <trkpt lat="49.32575" lon="0.89618">
        <ele>134</ele>
        <time>2015-10-11T08:51:32Z</time>
      </trkpt>
      <trkpt lat="49.32564" lon="0.89614">
        <ele>134.31</ele>
        <time>2015-10-11T08:51:34Z</time>
      </trkpt>
      <trkpt lat="49.32554" lon="0.89608">
        <ele>134.16</ele>
        <time>2015-10-11T08:51:36Z</time>
      </trkpt>
      <trkpt lat="49.32546" lon="0.89604">
        <ele>134.03</ele>
        <time>2015-10-11T08:51:38Z</time>
      </trkpt>
      <trkpt lat="49.32541" lon="0.89612">
        <ele>133.26</ele>
        <time>2015-10-11T08:51:40Z</time>
      </trkpt>
      <trkpt lat="49.32538" lon="0.89625">
        <ele>132.4</ele>
        <time>2015-10-11T08:51:42Z</time>
      </trkpt>
      <trkpt lat="49.32534" lon="0.89636">
        <ele>131.57</ele>
        <time>2015-10-11T08:51:44Z</time>
      </trkpt>
      <trkpt lat="49.32532" lon="0.89648">
        <ele>130.82</ele>
        <time>2015-10-11T08:51:46Z</time>
      </trkpt>
      <trkpt lat="49.3253" lon="0.89662">
        <ele>129.62</ele>
        <time>2015-10-11T08:51:48Z</time>
      </trkpt>
      <trkpt lat="49.32529" lon="0.89677">
        <ele>128.85</ele>
        <time>2015-10-11T08:51:50Z</time>
      </trkpt>
      <trkpt lat="49.32524" lon="0.89694">
        <ele>128.35</ele>
        <time>2015-10-11T08:51:52Z</time>
      </trkpt>
      <trkpt lat="49.32522" lon="0.8971">
        <ele>127.91</ele>
        <time>2015-10-11T08:51:54Z</time>
      </trkpt>
      <trkpt lat="49.3252" lon="0.89726">
        <ele>127.26</ele>
        <time>2015-10-11T08:51:56Z</time>
      </trkpt>
      <trkpt lat="49.32519" lon="0.89739">
        <ele>125.84</ele>
        <time>2015-10-11T08:51:58Z</time>
      </trkpt>
      <trkpt lat="49.32516" lon="0.89756">
        <ele>124.3</ele>
        <time>2015-10-11T08:52:00Z</time>
      </trkpt>
      <trkpt lat="49.32511" lon="0.89772">
        <ele>123.4</ele>
        <time>2015-10-11T08:52:02Z</time>
      </trkpt>
      <trkpt lat="49.32508" lon="0.89788">
        <ele>122.68</ele>
        <time>2015-10-11T08:52:04Z</time>
      </trkpt>
      <trkpt lat="49.32507" lon="0.89803">
        <ele>122.71</ele>
        <time>2015-10-11T08:52:06Z</time>
      </trkpt>
      <trkpt lat="49.32505" lon="0.89819">
        <ele>122.66</ele>
        <time>2015-10-11T08:52:08Z</time>
      </trkpt>
      <trkpt lat="49.32503" lon="0.89834">
        <ele>121.66</ele>
        <time>2015-10-11T08:52:10Z</time>
      </trkpt>
      <trkpt lat="49.325" lon="0.89848">
        <ele>120.52</ele>
        <time>2015-10-11T08:52:12Z</time>
      </trkpt>
      <trkpt lat="49.32497" lon="0.89865">
        <ele>119.27</ele>
        <time>2015-10-11T08:52:14Z</time>
      </trkpt>
      <trkpt lat="49.32494" lon="0.89881">
        <ele>118.39</ele>
        <time>2015-10-11T08:52:16Z</time>
      </trkpt>
      <trkpt lat="49.3249" lon="0.89897">
        <ele>118.04</ele>
        <time>2015-10-11T08:52:18Z</time>
      </trkpt>
      <trkpt lat="49.32485" lon="0.89912">
        <ele>118.19</ele>
        <time>2015-10-11T08:52:20Z</time>
      </trkpt>
      <trkpt lat="49.32484" lon="0.89923">
        <ele>118.3</ele>
        <time>2015-10-11T08:52:22Z</time>
      </trkpt>
      <trkpt lat="49.32484" lon="0.89932">
        <ele>118.4</ele>
        <time>2015-10-11T08:52:24Z</time>
      </trkpt>
      <trkpt lat="49.32481" lon="0.89944">
        <ele>118.76</ele>
        <time>2015-10-11T08:52:28Z</time>
      </trkpt>
      <trkpt lat="49.3248" lon="0.89952">
        <ele>119.3</ele>
        <time>2015-10-11T08:52:32Z</time>
      </trkpt>
      <trkpt lat="49.32478" lon="0.89959">
        <ele>119.64</ele>
        <time>2015-10-11T08:52:34Z</time>
      </trkpt>
      <trkpt lat="49.32478" lon="0.89969">
        <ele>120.05</ele>
        <time>2015-10-11T08:52:36Z</time>
      </trkpt>
      <trkpt lat="49.32474" lon="0.89982">
        <ele>121.71</ele>
        <time>2015-10-11T08:52:38Z</time>
      </trkpt>
      <trkpt lat="49.3247" lon="0.89996">
        <ele>124.63</ele>
        <time>2015-10-11T08:52:40Z</time>
      </trkpt>
      <trkpt lat="49.3247" lon="0.9001">
        <ele>127.11</ele>
        <time>2015-10-11T08:52:42Z</time>
      </trkpt>
      <trkpt lat="49.32469" lon="0.90022">
        <ele>128.89</ele>
        <time>2015-10-11T08:52:44Z</time>
      </trkpt>
      <trkpt lat="49.32467" lon="0.90031">
        <ele>129.86</ele>
        <time>2015-10-11T08:52:46Z</time>
      </trkpt>
      <trkpt lat="49.32459" lon="0.90035">
        <ele>131.04</ele>
        <time>2015-10-11T08:52:48Z</time>
      </trkpt>
      <trkpt lat="49.3245" lon="0.90037">
        <ele>132.37</ele>
        <time>2015-10-11T08:52:50Z</time>
      </trkpt>
      <trkpt lat="49.32439" lon="0.90041">
        <ele>133.47</ele>
        <time>2015-10-11T08:52:52Z</time>
      </trkpt>
      <trkpt lat="49.32427" lon="0.90045">
        <ele>134.28</ele>
        <time>2015-10-11T08:52:54Z</time>
      </trkpt>
      <trkpt lat="49.32417" lon="0.90048">
        <ele>134.75</ele>
        <time>2015-10-11T08:52:56Z</time>
      </trkpt>
      <trkpt lat="49.32406" lon="0.90051">
        <ele>135.45</ele>
        <time>2015-10-11T08:52:58Z</time>
      </trkpt>
      <trkpt lat="49.32395" lon="0.90054">
        <ele>135.96</ele>
        <time>2015-10-11T08:53:00Z</time>
      </trkpt>
      <trkpt lat="49.32382" lon="0.90057">
        <ele>135.93</ele>
        <time>2015-10-11T08:53:02Z</time>
      </trkpt>
      <trkpt lat="49.32369" lon="0.90062">
        <ele>135.29</ele>
        <time>2015-10-11T08:53:04Z</time>
      </trkpt>
      <trkpt lat="49.32355" lon="0.90066">
        <ele>134.45</ele>
        <time>2015-10-11T08:53:06Z</time>
      </trkpt>
      <trkpt lat="49.32342" lon="0.90071">
        <ele>134.06</ele>
        <time>2015-10-11T08:53:08Z</time>
      </trkpt>
      <trkpt lat="49.32331" lon="0.90076">
        <ele>134.19</ele>
        <time>2015-10-11T08:53:10Z</time>
      </trkpt>
      <trkpt lat="49.3232" lon="0.90079">
        <ele>134.6</ele>
        <time>2015-10-11T08:53:12Z</time>
      </trkpt>
      <trkpt lat="49.32309" lon="0.90081">
        <ele>135.58</ele>
        <time>2015-10-11T08:53:14Z</time>
      </trkpt>
      <trkpt lat="49.32296" lon="0.90084">
        <ele>135.99</ele>
        <time>2015-10-11T08:53:16Z</time>
      </trkpt>
      <trkpt lat="49.32284" lon="0.90087">
        <ele>135.82</ele>
        <time>2015-10-11T08:53:18Z</time>
      </trkpt>
      <trkpt lat="49.32271" lon="0.9009">
        <ele>136.08</ele>
        <time>2015-10-11T08:53:20Z</time>
      </trkpt>
      <trkpt lat="49.32259" lon="0.90092">
        <ele>137.21</ele>
        <time>2015-10-11T08:53:22Z</time>
      </trkpt>
      <trkpt lat="49.32246" lon="0.90095">
        <ele>138.07</ele>
        <time>2015-10-11T08:53:24Z</time>
      </trkpt>
      <trkpt lat="49.32235" lon="0.90098">
        <ele>138.27</ele>
        <time>2015-10-11T08:53:26Z</time>
      </trkpt>
      <trkpt lat="49.32223" lon="0.901">
        <ele>137.59</ele>
        <time>2015-10-11T08:53:28Z</time>
      </trkpt>
      <trkpt lat="49.32212" lon="0.90103">
        <ele>137.37</ele>
        <time>2015-10-11T08:53:30Z</time>
      </trkpt>
      <trkpt lat="49.322" lon="0.90106">
        <ele>136.81</ele>
        <time>2015-10-11T08:53:32Z</time>
      </trkpt>
      <trkpt lat="49.32189" lon="0.90107">
        <ele>136.12</ele>
        <time>2015-10-11T08:53:34Z</time>
      </trkpt>
      <trkpt lat="49.32177" lon="0.9011">
        <ele>135.49</ele>
        <time>2015-10-11T08:53:36Z</time>
      </trkpt>
      <trkpt lat="49.32165" lon="0.90109">
        <ele>135.1</ele>
        <time>2015-10-11T08:53:38Z</time>
      </trkpt>
      <trkpt lat="49.32155" lon="0.90111">
        <ele>135.01</ele>
        <time>2015-10-11T08:53:40Z</time>
      </trkpt>
      <trkpt lat="49.32145" lon="0.90113">
        <ele>134.9</ele>
        <time>2015-10-11T08:53:42Z</time>
      </trkpt>
      <trkpt lat="49.32138" lon="0.90117">
        <ele>134.87</ele>
        <time>2015-10-11T08:53:44Z</time>
      </trkpt>
      <trkpt lat="49.3213" lon="0.90119">
        <ele>134.7</ele>
        <time>2015-10-11T08:53:46Z</time>
      </trkpt>
      <trkpt lat="49.32121" lon="0.90122">
        <ele>134.4</ele>
        <time>2015-10-11T08:53:48Z</time>
      </trkpt>
      <trkpt lat="49.32114" lon="0.90122">
        <ele>134.42</ele>
        <time>2015-10-11T08:53:58Z</time>
      </trkpt>
      <trkpt lat="49.32108" lon="0.90123">
        <ele>134.5</ele>
        <time>2015-10-11T08:54:00Z</time>
      </trkpt>
      <trkpt lat="49.321" lon="0.90125">
        <ele>134.58</ele>
        <time>2015-10-11T08:54:02Z</time>
      </trkpt>
      <trkpt lat="49.3209" lon="0.90126">
        <ele>135.09</ele>
        <time>2015-10-11T08:54:04Z</time>
      </trkpt>
      <trkpt lat="49.3208" lon="0.90129">
        <ele>135.15</ele>
        <time>2015-10-11T08:54:06Z</time>
      </trkpt>
      <trkpt lat="49.32069" lon="0.90133">
        <ele>134.43</ele>
        <time>2015-10-11T08:54:08Z</time>
      </trkpt>
      <trkpt lat="49.3206" lon="0.90131">
        <ele>133.52</ele>
        <time>2015-10-11T08:54:10Z</time>
      </trkpt>
      <trkpt lat="49.32055" lon="0.90117">
        <ele>132.26</ele>
        <time>2015-10-11T08:54:12Z</time>
      </trkpt>
      <trkpt lat="49.32056" lon="0.90101">
        <ele>130.76</ele>
        <time>2015-10-11T08:54:14Z</time>
      </trkpt>
      <trkpt lat="49.32057" lon="0.90084">
        <ele>128.78</ele>
        <time>2015-10-11T08:54:16Z</time>
      </trkpt>
      <trkpt lat="49.32059" lon="0.90068">
        <ele>126.81</ele>
        <time>2015-10-11T08:54:18Z</time>
      </trkpt>
      <trkpt lat="49.32062" lon="0.90052">
        <ele>125.59</ele>
        <time>2015-10-11T08:54:20Z</time>
      </trkpt>
      <trkpt lat="49.32064" lon="0.90036">
        <ele>124.9</ele>
        <time>2015-10-11T08:54:22Z</time>
      </trkpt>
      <trkpt lat="49.32067" lon="0.90022">
        <ele>125.04</ele>
        <time>2015-10-11T08:54:24Z</time>
      </trkpt>
      <trkpt lat="49.32068" lon="0.90012">
        <ele>125.18</ele>
        <time>2015-10-11T08:54:26Z</time>
      </trkpt>
      <trkpt lat="49.32064" lon="0.90006">
        <ele>125.34</ele>
        <time>2015-10-11T08:54:28Z</time>
      </trkpt>
      <trkpt lat="49.32054" lon="0.9">
        <ele>126.37</ele>
        <time>2015-10-11T08:54:32Z</time>
      </trkpt>
      <trkpt lat="49.32047" lon="0.89996">
        <ele>127.3</ele>
        <time>2015-10-11T08:54:34Z</time>
      </trkpt>
      <trkpt lat="49.32041" lon="0.89991">
        <ele>127.85</ele>
        <time>2015-10-11T08:54:36Z</time>
      </trkpt>
      <trkpt lat="49.32032" lon="0.89984">
        <ele>128.93</ele>
        <time>2015-10-11T08:54:38Z</time>
      </trkpt>
      <trkpt lat="49.32024" lon="0.89977">
        <ele>129.73</ele>
        <time>2015-10-11T08:54:40Z</time>
      </trkpt>
      <trkpt lat="49.32017" lon="0.89967">
        <ele>130.15</ele>
        <time>2015-10-11T08:54:42Z</time>
      </trkpt>
      <trkpt lat="49.32009" lon="0.89958">
        <ele>130.41</ele>
        <time>2015-10-11T08:54:44Z</time>
      </trkpt>
      <trkpt lat="49.32002" lon="0.8995">
        <ele>130.32</ele>
        <time>2015-10-11T08:54:46Z</time>
      </trkpt>
      <trkpt lat="49.31994" lon="0.89942">
        <ele>130.04</ele>
        <time>2015-10-11T08:54:48Z</time>
      </trkpt>
      <trkpt lat="49.31987" lon="0.89935">
        <ele>130.04</ele>
        <time>2015-10-11T08:54:50Z</time>
      </trkpt>
      <trkpt lat="49.31981" lon="0.8993">
        <ele>130.1</ele>
        <time>2015-10-11T08:54:52Z</time>
      </trkpt>
      <trkpt lat="49.31973" lon="0.89923">
        <ele>130.35</ele>
        <time>2015-10-11T08:54:54Z</time>
      </trkpt>
      <trkpt lat="49.31966" lon="0.89918">
        <ele>130.39</ele>
        <time>2015-10-11T08:54:56Z</time>
      </trkpt>
      <trkpt lat="49.31956" lon="0.89913">
        <ele>130.45</ele>
        <time>2015-10-11T08:55:00Z</time>
      </trkpt>
      <trkpt lat="49.31949" lon="0.8991">
        <ele>130.47</ele>
        <time>2015-10-11T08:55:02Z</time>
      </trkpt>
      <trkpt lat="49.31943" lon="0.89908">
        <ele>130.52</ele>
        <time>2015-10-11T08:55:04Z</time>
      </trkpt>
      <trkpt lat="49.31939" lon="0.89907">
        <ele>130.5</ele>
        <time>2015-10-11T08:55:06Z</time>
      </trkpt>
      <trkpt lat="49.31932" lon="0.89905">
        <ele>130.32</ele>
        <time>2015-10-11T08:55:10Z</time>
      </trkpt>
      <trkpt lat="49.31927" lon="0.89903">
        <ele>130.22</ele>
        <time>2015-10-11T08:55:12Z</time>
      </trkpt>
      <trkpt lat="49.31922" lon="0.89901">
        <ele>130.11</ele>
        <time>2015-10-11T08:55:14Z</time>
      </trkpt>
      <trkpt lat="49.31916" lon="0.89897">
        <ele>129.98</ele>
        <time>2015-10-11T08:55:16Z</time>
      </trkpt>
      <trkpt lat="49.31909" lon="0.89892">
        <ele>129.37</ele>
        <time>2015-10-11T08:55:18Z</time>
      </trkpt>
      <trkpt lat="49.31902" lon="0.89887">
        <ele>129.03</ele>
        <time>2015-10-11T08:55:20Z</time>
      </trkpt>
      <trkpt lat="49.31896" lon="0.89881">
        <ele>128.78</ele>
        <time>2015-10-11T08:55:22Z</time>
      </trkpt>
      <trkpt lat="49.3189" lon="0.89877">
        <ele>128.62</ele>
        <time>2015-10-11T08:55:24Z</time>
      </trkpt>
      <trkpt lat="49.31884" lon="0.89873">
        <ele>128.5</ele>
        <time>2015-10-11T08:55:26Z</time>
      </trkpt>
      <trkpt lat="49.3188" lon="0.89869">
        <ele>128.32</ele>
        <time>2015-10-11T08:55:28Z</time>
      </trkpt>
      <trkpt lat="49.3187" lon="0.89864">
        <ele>128.01</ele>
        <time>2015-10-11T08:55:32Z</time>
      </trkpt>
      <trkpt lat="49.3186" lon="0.8986">
        <ele>127.8</ele>
        <time>2015-10-11T08:55:36Z</time>
      </trkpt>
      <trkpt lat="49.31852" lon="0.89856">
        <ele>127.67</ele>
        <time>2015-10-11T08:55:40Z</time>
      </trkpt>
      <trkpt lat="49.31844" lon="0.89849">
        <ele>127.53</ele>
        <time>2015-10-11T08:55:44Z</time>
      </trkpt>
      <trkpt lat="49.31841" lon="0.89843">
        <ele>127.45</ele>
        <time>2015-10-11T08:55:46Z</time>
      </trkpt>
      <trkpt lat="49.31836" lon="0.89837">
        <ele>127.4</ele>
        <time>2015-10-11T08:55:48Z</time>
      </trkpt>
      <trkpt lat="49.31833" lon="0.89832">
        <ele>127.44</ele>
        <time>2015-10-11T08:55:50Z</time>
      </trkpt>
      <trkpt lat="49.31829" lon="0.89825">
        <ele>127.53</ele>
        <time>2015-10-11T08:55:52Z</time>
      </trkpt>
      <trkpt lat="49.31825" lon="0.89819">
        <ele>127.59</ele>
        <time>2015-10-11T08:55:54Z</time>
      </trkpt>
      <trkpt lat="49.31818" lon="0.89808">
        <ele>127.72</ele>
        <time>2015-10-11T08:55:58Z</time>
      </trkpt>
      <trkpt lat="49.31814" lon="0.89802">
        <ele>127.8</ele>
        <time>2015-10-11T08:56:00Z</time>
      </trkpt>
      <trkpt lat="49.31811" lon="0.89797">
        <ele>127.94</ele>
        <time>2015-10-11T08:56:02Z</time>
      </trkpt>
      <trkpt lat="49.31806" lon="0.89791">
        <ele>128.13</ele>
        <time>2015-10-11T08:56:04Z</time>
      </trkpt>
      <trkpt lat="49.31799" lon="0.89784">
        <ele>128.62</ele>
        <time>2015-10-11T08:56:08Z</time>
      </trkpt>
      <trkpt lat="49.31791" lon="0.89778">
        <ele>129.24</ele>
        <time>2015-10-11T08:56:12Z</time>
      </trkpt>
      <trkpt lat="49.31788" lon="0.89773">
        <ele>129.5</ele>
        <time>2015-10-11T08:56:14Z</time>
      </trkpt>
      <trkpt lat="49.31783" lon="0.8977">
        <ele>129.74</ele>
        <time>2015-10-11T08:56:16Z</time>
      </trkpt>
      <trkpt lat="49.31779" lon="0.89765">
        <ele>129.99</ele>
        <time>2015-10-11T08:56:18Z</time>
      </trkpt>
      <trkpt lat="49.31771" lon="0.89753">
        <ele>130.37</ele>
        <time>2015-10-11T08:56:22Z</time>
      </trkpt>
      <trkpt lat="49.31766" lon="0.89745">
        <ele>130.48</ele>
        <time>2015-10-11T08:56:24Z</time>
      </trkpt>
      <trkpt lat="49.31762" lon="0.89736">
        <ele>130.56</ele>
        <time>2015-10-11T08:56:26Z</time>
      </trkpt>
      <trkpt lat="49.31757" lon="0.89728">
        <ele>130.59</ele>
        <time>2015-10-11T08:56:28Z</time>
      </trkpt>
      <trkpt lat="49.31752" lon="0.89722">
        <ele>130.56</ele>
        <time>2015-10-11T08:56:30Z</time>
      </trkpt>
      <trkpt lat="49.31745" lon="0.89713">
        <ele>130.33</ele>
        <time>2015-10-11T08:56:34Z</time>
      </trkpt>
      <trkpt lat="49.3174" lon="0.89707">
        <ele>130.22</ele>
        <time>2015-10-11T08:56:36Z</time>
      </trkpt>
      <trkpt lat="49.31734" lon="0.89699">
        <ele>130.06</ele>
        <time>2015-10-11T08:56:38Z</time>
      </trkpt>
      <trkpt lat="49.31729" lon="0.89692">
        <ele>129.85</ele>
        <time>2015-10-11T08:56:40Z</time>
      </trkpt>
      <trkpt lat="49.31723" lon="0.89683">
        <ele>129.66</ele>
        <time>2015-10-11T08:56:42Z</time>
      </trkpt>
      <trkpt lat="49.31717" lon="0.89676">
        <ele>129.48</ele>
        <time>2015-10-11T08:56:45Z</time>
      </trkpt>
      <trkpt lat="49.31713" lon="0.89667">
        <ele>129.3</ele>
        <time>2015-10-11T08:56:47Z</time>
      </trkpt>
      <trkpt lat="49.31712" lon="0.89658">
        <ele>129.11</ele>
        <time>2015-10-11T08:56:49Z</time>
      </trkpt>
      <trkpt lat="49.31715" lon="0.89646">
        <ele>127.98</ele>
        <time>2015-10-11T08:56:51Z</time>
      </trkpt>
      <trkpt lat="49.31717" lon="0.89633">
        <ele>126.52</ele>
        <time>2015-10-11T08:56:53Z</time>
      </trkpt>
      <trkpt lat="49.31719" lon="0.89621">
        <ele>126.15</ele>
        <time>2015-10-11T08:56:55Z</time>
      </trkpt>
      <trkpt lat="49.31721" lon="0.89608">
        <ele>125.74</ele>
        <time>2015-10-11T08:56:57Z</time>
      </trkpt>
      <trkpt lat="49.31724" lon="0.89595">
        <ele>125.68</ele>
        <time>2015-10-11T08:56:59Z</time>
      </trkpt>
      <trkpt lat="49.31726" lon="0.89582">
        <ele>125.8</ele>
        <time>2015-10-11T08:57:01Z</time>
      </trkpt>
      <trkpt lat="49.31728" lon="0.89569">
        <ele>126.1</ele>
        <time>2015-10-11T08:57:03Z</time>
      </trkpt>
      <trkpt lat="49.3173" lon="0.89556">
        <ele>126.44</ele>
        <time>2015-10-11T08:57:05Z</time>
      </trkpt>
      <trkpt lat="49.31732" lon="0.89543">
        <ele>126.19</ele>
        <time>2015-10-11T08:57:07Z</time>
      </trkpt>
      <trkpt lat="49.31734" lon="0.8953">
        <ele>125.1</ele>
        <time>2015-10-11T08:57:09Z</time>
      </trkpt>
      <trkpt lat="49.31736" lon="0.89517">
        <ele>123.44</ele>
        <time>2015-10-11T08:57:11Z</time>
      </trkpt>
      <trkpt lat="49.31738" lon="0.89504">
        <ele>121.83</ele>
        <time>2015-10-11T08:57:13Z</time>
      </trkpt>
      <trkpt lat="49.3174" lon="0.89491">
        <ele>120.75</ele>
        <time>2015-10-11T08:57:15Z</time>
      </trkpt>
      <trkpt lat="49.31742" lon="0.89479">
        <ele>119.98</ele>
        <time>2015-10-11T08:57:17Z</time>
      </trkpt>
      <trkpt lat="49.31743" lon="0.89469">
        <ele>119.57</ele>
        <time>2015-10-11T08:57:19Z</time>
      </trkpt>
      <trkpt lat="49.31747" lon="0.89457">
        <ele>119.67</ele>
        <time>2015-10-11T08:57:21Z</time>
      </trkpt>
      <trkpt lat="49.31749" lon="0.89444">
        <ele>119.95</ele>
        <time>2015-10-11T08:57:23Z</time>
      </trkpt>
      <trkpt lat="49.31752" lon="0.89431">
        <ele>120.13</ele>
        <time>2015-10-11T08:57:25Z</time>
      </trkpt>
      <trkpt lat="49.31754" lon="0.89417">
        <ele>120.24</ele>
        <time>2015-10-11T08:57:27Z</time>
      </trkpt>
      <trkpt lat="49.31756" lon="0.89404">
        <ele>120.57</ele>
        <time>2015-10-11T08:57:29Z</time>
      </trkpt>
      <trkpt lat="49.31756" lon="0.8939">
        <ele>120.97</ele>
        <time>2015-10-11T08:57:31Z</time>
      </trkpt>
      <trkpt lat="49.31756" lon="0.89375">
        <ele>120.91</ele>
        <time>2015-10-11T08:57:33Z</time>
      </trkpt>
      <trkpt lat="49.31759" lon="0.89359">
        <ele>120.72</ele>
        <time>2015-10-11T08:57:35Z</time>
      </trkpt>
      <trkpt lat="49.31763" lon="0.89346">
        <ele>120.9</ele>
        <time>2015-10-11T08:57:37Z</time>
      </trkpt>
      <trkpt lat="49.31766" lon="0.8933">
        <ele>121.5</ele>
        <time>2015-10-11T08:57:39Z</time>
      </trkpt>
      <trkpt lat="49.31769" lon="0.89314">
        <ele>121.68</ele>
        <time>2015-10-11T08:57:41Z</time>
      </trkpt>
      <trkpt lat="49.3177" lon="0.893">
        <ele>121.88</ele>
        <time>2015-10-11T08:57:43Z</time>
      </trkpt>
      <trkpt lat="49.31772" lon="0.89285">
        <ele>121.78</ele>
        <time>2015-10-11T08:57:45Z</time>
      </trkpt>
      <trkpt lat="49.31767" lon="0.89272">
        <ele>122.45</ele>
        <time>2015-10-11T08:57:47Z</time>
      </trkpt>
      <trkpt lat="49.3176" lon="0.89268">
        <ele>123.82</ele>
        <time>2015-10-11T08:57:49Z</time>
      </trkpt>
      <trkpt lat="49.31751" lon="0.89263">
        <ele>124.94</ele>
        <time>2015-10-11T08:57:51Z</time>
      </trkpt>
      <trkpt lat="49.31742" lon="0.89258">
        <ele>125.78</ele>
        <time>2015-10-11T08:57:53Z</time>
      </trkpt>
      <trkpt lat="49.31733" lon="0.89253">
        <ele>126.02</ele>
        <time>2015-10-11T08:57:55Z</time>
      </trkpt>
      <trkpt lat="49.31723" lon="0.89247">
        <ele>125.68</ele>
        <time>2015-10-11T08:57:57Z</time>
      </trkpt>
      <trkpt lat="49.31712" lon="0.89241">
        <ele>125.15</ele>
        <time>2015-10-11T08:57:59Z</time>
      </trkpt>
      <trkpt lat="49.31703" lon="0.89235">
        <ele>124.62</ele>
        <time>2015-10-11T08:58:01Z</time>
      </trkpt>
      <trkpt lat="49.31695" lon="0.8923">
        <ele>124.02</ele>
        <time>2015-10-11T08:58:03Z</time>
      </trkpt>
      <trkpt lat="49.31686" lon="0.89229">
        <ele>122.94</ele>
        <time>2015-10-11T08:58:05Z</time>
      </trkpt>
      <trkpt lat="49.31679" lon="0.89226">
        <ele>122.08</ele>
        <time>2015-10-11T08:58:07Z</time>
      </trkpt>
      <trkpt lat="49.31671" lon="0.8922">
        <ele>121.52</ele>
        <time>2015-10-11T08:58:09Z</time>
      </trkpt>
      <trkpt lat="49.31661" lon="0.89214">
        <ele>121.42</ele>
        <time>2015-10-11T08:58:11Z</time>
      </trkpt>
      <trkpt lat="49.31652" lon="0.89208">
        <ele>121.45</ele>
        <time>2015-10-11T08:58:13Z</time>
      </trkpt>
      <trkpt lat="49.31644" lon="0.89202">
        <ele>121.41</ele>
        <time>2015-10-11T08:58:15Z</time>
      </trkpt>
      <trkpt lat="49.31635" lon="0.89198">
        <ele>121.17</ele>
        <time>2015-10-11T08:58:17Z</time>
      </trkpt>
      <trkpt lat="49.31626" lon="0.89195">
        <ele>120.62</ele>
        <time>2015-10-11T08:58:19Z</time>
      </trkpt>
      <trkpt lat="49.31616" lon="0.89191">
        <ele>120.25</ele>
        <time>2015-10-11T08:58:21Z</time>
      </trkpt>
      <trkpt lat="49.31607" lon="0.89192">
        <ele>120.18</ele>
        <time>2015-10-11T08:58:23Z</time>
      </trkpt>
      <trkpt lat="49.31598" lon="0.89194">
        <ele>119.86</ele>
        <time>2015-10-11T08:58:25Z</time>
      </trkpt>
      <trkpt lat="49.31589" lon="0.89196">
        <ele>119.55</ele>
        <time>2015-10-11T08:58:27Z</time>
      </trkpt>
      <trkpt lat="49.3158" lon="0.89199">
        <ele>119.26</ele>
        <time>2015-10-11T08:58:29Z</time>
      </trkpt>
      <trkpt lat="49.31574" lon="0.892">
        <ele>119.16</ele>
        <time>2015-10-11T08:58:31Z</time>
      </trkpt>
      <trkpt lat="49.31565" lon="0.89205">
        <ele>119.34</ele>
        <time>2015-10-11T08:58:33Z</time>
      </trkpt>
      <trkpt lat="49.31558" lon="0.89212">
        <ele>119.58</ele>
        <time>2015-10-11T08:58:35Z</time>
      </trkpt>
      <trkpt lat="49.31551" lon="0.89218">
        <ele>119.94</ele>
        <time>2015-10-11T08:58:37Z</time>
      </trkpt>
      <trkpt lat="49.31543" lon="0.89217">
        <ele>120.15</ele>
        <time>2015-10-11T08:58:39Z</time>
      </trkpt>
      <trkpt lat="49.31537" lon="0.89214">
        <ele>120.31</ele>
        <time>2015-10-11T08:58:41Z</time>
      </trkpt>
      <trkpt lat="49.31529" lon="0.89209">
        <ele>120.17</ele>
        <time>2015-10-11T08:58:43Z</time>
      </trkpt>
      <trkpt lat="49.31521" lon="0.89202">
        <ele>120.29</ele>
        <time>2015-10-11T08:58:45Z</time>
      </trkpt>
      <trkpt lat="49.31513" lon="0.89192">
        <ele>120.5</ele>
        <time>2015-10-11T08:58:47Z</time>
      </trkpt>
      <trkpt lat="49.31505" lon="0.89184">
        <ele>120.25</ele>
        <time>2015-10-11T08:58:49Z</time>
      </trkpt>
      <trkpt lat="49.31497" lon="0.89177">
        <ele>119.91</ele>
        <time>2015-10-11T08:58:51Z</time>
      </trkpt>
      <trkpt lat="49.31496" lon="0.89165">
        <ele>119.58</ele>
        <time>2015-10-11T08:58:55Z</time>
      </trkpt>
      <trkpt lat="49.31501" lon="0.89159">
        <ele>119.48</ele>
        <time>2015-10-11T08:58:57Z</time>
      </trkpt>
      <trkpt lat="49.31508" lon="0.89151">
        <ele>119.44</ele>
        <time>2015-10-11T08:58:59Z</time>
      </trkpt>
      <trkpt lat="49.31515" lon="0.89143">
        <ele>119.36</ele>
        <time>2015-10-11T08:59:01Z</time>
      </trkpt>
      <trkpt lat="49.31522" lon="0.89136">
        <ele>119.27</ele>
        <time>2015-10-11T08:59:03Z</time>
      </trkpt>
      <trkpt lat="49.3153" lon="0.89126">
        <ele>119.16</ele>
        <time>2015-10-11T08:59:05Z</time>
      </trkpt>
      <trkpt lat="49.31536" lon="0.89116">
        <ele>118.86</ele>
        <time>2015-10-11T08:59:07Z</time>
      </trkpt>
      <trkpt lat="49.31543" lon="0.89106">
        <ele>118.44</ele>
        <time>2015-10-11T08:59:09Z</time>
      </trkpt>
      <trkpt lat="49.31549" lon="0.89093">
        <ele>118.26</ele>
        <time>2015-10-11T08:59:11Z</time>
      </trkpt>
      <trkpt lat="49.31553" lon="0.89082">
        <ele>118.12</ele>
        <time>2015-10-11T08:59:13Z</time>
      </trkpt>
      <trkpt lat="49.31557" lon="0.89068">
        <ele>117.47</ele>
        <time>2015-10-11T08:59:15Z</time>
      </trkpt>
      <trkpt lat="49.31565" lon="0.89057">
        <ele>116.22</ele>
        <time>2015-10-11T08:59:17Z</time>
      </trkpt>
      <trkpt lat="49.31572" lon="0.89048">
        <ele>115.16</ele>
        <time>2015-10-11T08:59:19Z</time>
      </trkpt>
      <trkpt lat="49.31579" lon="0.89039">
        <ele>114.18</ele>
        <time>2015-10-11T08:59:21Z</time>
      </trkpt>
      <trkpt lat="49.31584" lon="0.89032">
        <ele>113.6</ele>
        <time>2015-10-11T08:59:23Z</time>
      </trkpt>
      <trkpt lat="49.31589" lon="0.89026">
        <ele>112.57</ele>
        <time>2015-10-11T08:59:25Z</time>
      </trkpt>
      <trkpt lat="49.31597" lon="0.89021">
        <ele>111.13</ele>
        <time>2015-10-11T08:59:27Z</time>
      </trkpt>
      <trkpt lat="49.31605" lon="0.89017">
        <ele>108.96</ele>
        <time>2015-10-11T08:59:29Z</time>
      </trkpt>
      <trkpt lat="49.31613" lon="0.89011">
        <ele>107.37</ele>
        <time>2015-10-11T08:59:31Z</time>
      </trkpt>
      <trkpt lat="49.3162" lon="0.89005">
        <ele>106.38</ele>
        <time>2015-10-11T08:59:33Z</time>
      </trkpt>
      <trkpt lat="49.31626" lon="0.88998">
        <ele>104.84</ele>
        <time>2015-10-11T08:59:35Z</time>
      </trkpt>
      <trkpt lat="49.31635" lon="0.88991">
        <ele>103.74</ele>
        <time>2015-10-11T08:59:37Z</time>
      </trkpt>
      <trkpt lat="49.31643" lon="0.88984">
        <ele>102.75</ele>
        <time>2015-10-11T08:59:39Z</time>
      </trkpt>
      <trkpt lat="49.31651" lon="0.88977">
        <ele>102.33</ele>
        <time>2015-10-11T08:59:41Z</time>
      </trkpt>
      <trkpt lat="49.3166" lon="0.88968">
        <ele>102.18</ele>
        <time>2015-10-11T08:59:43Z</time>
      </trkpt>
      <trkpt lat="49.31669" lon="0.88958">
        <ele>102.27</ele>
        <time>2015-10-11T08:59:45Z</time>
      </trkpt>
      <trkpt lat="49.3168" lon="0.88945">
        <ele>101.6</ele>
        <time>2015-10-11T08:59:47Z</time>
      </trkpt>
      <trkpt lat="49.31693" lon="0.88929">
        <ele>100.85</ele>
        <time>2015-10-11T08:59:49Z</time>
      </trkpt>
      <trkpt lat="49.31703" lon="0.88913">
        <ele>100.62</ele>
        <time>2015-10-11T08:59:51Z</time>
      </trkpt>
      <trkpt lat="49.31712" lon="0.88902">
        <ele>101.35</ele>
        <time>2015-10-11T08:59:53Z</time>
      </trkpt>
      <trkpt lat="49.31723" lon="0.88891">
        <ele>101.89</ele>
        <time>2015-10-11T08:59:55Z</time>
      </trkpt>
      <trkpt lat="49.31734" lon="0.88881">
        <ele>101.54</ele>
        <time>2015-10-11T08:59:57Z</time>
      </trkpt>
      <trkpt lat="49.31742" lon="0.88874">
        <ele>100.53</ele>
        <time>2015-10-11T08:59:59Z</time>
      </trkpt>
      <trkpt lat="49.31751" lon="0.88866">
        <ele>99.07</ele>
        <time>2015-10-11T09:00:01Z</time>
      </trkpt>
      <trkpt lat="49.31762" lon="0.88863">
        <ele>97.91</ele>
        <time>2015-10-11T09:00:03Z</time>
      </trkpt>
      <trkpt lat="49.31772" lon="0.88859">
        <ele>96.64</ele>
        <time>2015-10-11T09:00:05Z</time>
      </trkpt>
      <trkpt lat="49.31783" lon="0.88854">
        <ele>95.32</ele>
        <time>2015-10-11T09:00:07Z</time>
      </trkpt>
      <trkpt lat="49.31793" lon="0.88848">
        <ele>94.23</ele>
        <time>2015-10-11T09:00:09Z</time>
      </trkpt>
      <trkpt lat="49.31803" lon="0.88844">
        <ele>93.25</ele>
        <time>2015-10-11T09:00:11Z</time>
      </trkpt>
      <trkpt lat="49.31809" lon="0.88849">
        <ele>92.75</ele>
        <time>2015-10-11T09:00:13Z</time>
      </trkpt>
      <trkpt lat="49.31817" lon="0.88849">
        <ele>92.51</ele>
        <time>2015-10-11T09:00:15Z</time>
      </trkpt>
      <trkpt lat="49.31825" lon="0.88851">
        <ele>92.42</ele>
        <time>2015-10-11T09:00:17Z</time>
      </trkpt>
      <trkpt lat="49.31833" lon="0.88857">
        <ele>92.25</ele>
        <time>2015-10-11T09:00:19Z</time>
      </trkpt>
      <trkpt lat="49.31841" lon="0.88859">
        <ele>92.14</ele>
        <time>2015-10-11T09:00:21Z</time>
      </trkpt>
      <trkpt lat="49.31847" lon="0.88863">
        <ele>92.03</ele>
        <time>2015-10-11T09:00:23Z</time>
      </trkpt>
      <trkpt lat="49.31855" lon="0.88861">
        <ele>91.94</ele>
        <time>2015-10-11T09:00:25Z</time>
      </trkpt>
      <trkpt lat="49.3186" lon="0.88861">
        <ele>91.85</ele>
        <time>2015-10-11T09:00:27Z</time>
      </trkpt>
      <trkpt lat="49.31868" lon="0.88862">
        <ele>91.79</ele>
        <time>2015-10-11T09:00:29Z</time>
      </trkpt>
      <trkpt lat="49.31873" lon="0.88862">
        <ele>91.73</ele>
        <time>2015-10-11T09:00:31Z</time>
      </trkpt>
      <trkpt lat="49.31881" lon="0.88862">
        <ele>91.68</ele>
        <time>2015-10-11T09:00:33Z</time>
      </trkpt>
      <trkpt lat="49.31889" lon="0.88862">
        <ele>91.59</ele>
        <time>2015-10-11T09:00:35Z</time>
      </trkpt>
      <trkpt lat="49.31895" lon="0.88864">
        <ele>91.55</ele>
        <time>2015-10-11T09:00:37Z</time>
      </trkpt>
      <trkpt lat="49.31901" lon="0.88866">
        <ele>91.58</ele>
        <time>2015-10-11T09:00:39Z</time>
      </trkpt>
      <trkpt lat="49.31909" lon="0.88868">
        <ele>91.66</ele>
        <time>2015-10-11T09:00:41Z</time>
      </trkpt>
      <trkpt lat="49.31915" lon="0.88869">
        <ele>91.81</ele>
        <time>2015-10-11T09:00:43Z</time>
      </trkpt>
      <trkpt lat="49.31924" lon="0.88872">
        <ele>92.31</ele>
        <time>2015-10-11T09:00:47Z</time>
      </trkpt>
      <trkpt lat="49.31929" lon="0.88873">
        <ele>92.56</ele>
        <time>2015-10-11T09:00:49Z</time>
      </trkpt>
      <trkpt lat="49.31933" lon="0.88875">
        <ele>92.8</ele>
        <time>2015-10-11T09:00:51Z</time>
      </trkpt>
      <trkpt lat="49.31943" lon="0.88884">
        <ele>93.15</ele>
        <time>2015-10-11T09:00:55Z</time>
      </trkpt>
      <trkpt lat="49.31949" lon="0.88886">
        <ele>93.31</ele>
        <time>2015-10-11T09:00:57Z</time>
      </trkpt>
      <trkpt lat="49.31956" lon="0.88889">
        <ele>93.54</ele>
        <time>2015-10-11T09:00:59Z</time>
      </trkpt>
      <trkpt lat="49.31963" lon="0.88892">
        <ele>93.82</ele>
        <time>2015-10-11T09:01:01Z</time>
      </trkpt>
      <trkpt lat="49.31968" lon="0.88895">
        <ele>94.24</ele>
        <time>2015-10-11T09:01:03Z</time>
      </trkpt>
      <trkpt lat="49.31977" lon="0.88905">
        <ele>96.21</ele>
        <time>2015-10-11T09:01:09Z</time>
      </trkpt>
      <trkpt lat="49.31985" lon="0.88912">
        <ele>96.95</ele>
        <time>2015-10-11T09:01:11Z</time>
      </trkpt>
      <trkpt lat="49.31991" lon="0.88922">
        <ele>97.69</ele>
        <time>2015-10-11T09:01:13Z</time>
      </trkpt>
      <trkpt lat="49.31997" lon="0.88931">
        <ele>98.47</ele>
        <time>2015-10-11T09:01:15Z</time>
      </trkpt>
      <trkpt lat="49.32003" lon="0.88938">
        <ele>99.28</ele>
        <time>2015-10-11T09:01:17Z</time>
      </trkpt>
      <trkpt lat="49.32009" lon="0.88946">
        <ele>100.13</ele>
        <time>2015-10-11T09:01:19Z</time>
      </trkpt>
      <trkpt lat="49.32012" lon="0.88957">
        <ele>101</ele>
        <time>2015-10-11T09:01:21Z</time>
      </trkpt>
      <trkpt lat="49.32016" lon="0.88969">
        <ele>104.02</ele>
        <time>2015-10-11T09:01:23Z</time>
      </trkpt>
      <trkpt lat="49.32019" lon="0.88981">
        <ele>105.85</ele>
        <time>2015-10-11T09:01:25Z</time>
      </trkpt>
      <trkpt lat="49.32025" lon="0.88989">
        <ele>107.06</ele>
        <time>2015-10-11T09:01:27Z</time>
      </trkpt>
      <trkpt lat="49.3203" lon="0.88995">
        <ele>107.97</ele>
        <time>2015-10-11T09:01:29Z</time>
      </trkpt>
      <trkpt lat="49.32036" lon="0.89003">
        <ele>109.98</ele>
        <time>2015-10-11T09:01:31Z</time>
      </trkpt>
      <trkpt lat="49.32041" lon="0.89008">
        <ele>111.22</ele>
        <time>2015-10-11T09:01:33Z</time>
      </trkpt>
      <trkpt lat="49.32047" lon="0.89006">
        <ele>112.07</ele>
        <time>2015-10-11T09:01:35Z</time>
      </trkpt>
      <trkpt lat="49.32056" lon="0.89005">
        <ele>113.4</ele>
        <time>2015-10-11T09:01:37Z</time>
      </trkpt>
      <trkpt lat="49.32062" lon="0.89012">
        <ele>114.03</ele>
        <time>2015-10-11T09:01:39Z</time>
      </trkpt>
      <trkpt lat="49.32069" lon="0.8901">
        <ele>114.52</ele>
        <time>2015-10-11T09:01:41Z</time>
      </trkpt>
      <trkpt lat="49.32077" lon="0.89012">
        <ele>114.88</ele>
        <time>2015-10-11T09:01:43Z</time>
      </trkpt>
      <trkpt lat="49.32088" lon="0.89012">
        <ele>115.05</ele>
        <time>2015-10-11T09:01:45Z</time>
      </trkpt>
      <trkpt lat="49.32096" lon="0.89013">
        <ele>115.2</ele>
        <time>2015-10-11T09:01:47Z</time>
      </trkpt>
      <trkpt lat="49.32103" lon="0.89018">
        <ele>116.05</ele>
        <time>2015-10-11T09:01:49Z</time>
      </trkpt>
      <trkpt lat="49.32114" lon="0.89022">
        <ele>116.47</ele>
        <time>2015-10-11T09:01:51Z</time>
      </trkpt>
      <trkpt lat="49.3212" lon="0.89026">
        <ele>116.65</ele>
        <time>2015-10-11T09:01:53Z</time>
      </trkpt>
      <trkpt lat="49.3213" lon="0.89031">
        <ele>115.81</ele>
        <time>2015-10-11T09:01:55Z</time>
      </trkpt>
      <trkpt lat="49.32138" lon="0.89036">
        <ele>115.02</ele>
        <time>2015-10-11T09:01:57Z</time>
      </trkpt>
      <trkpt lat="49.32145" lon="0.89039">
        <ele>114.64</ele>
        <time>2015-10-11T09:01:59Z</time>
      </trkpt>
      <trkpt lat="49.32152" lon="0.89041">
        <ele>114.49</ele>
        <time>2015-10-11T09:02:01Z</time>
      </trkpt>
      <trkpt lat="49.32162" lon="0.89044">
        <ele>114.93</ele>
        <time>2015-10-11T09:02:03Z</time>
      </trkpt>
      <trkpt lat="49.32171" lon="0.89047">
        <ele>115.07</ele>
        <time>2015-10-11T09:02:05Z</time>
      </trkpt>
      <trkpt lat="49.32179" lon="0.89051">
        <ele>115.12</ele>
        <time>2015-10-11T09:02:07Z</time>
      </trkpt>
      <trkpt lat="49.32187" lon="0.89057">
        <ele>115.17</ele>
        <time>2015-10-11T09:02:09Z</time>
      </trkpt>
      <trkpt lat="49.32196" lon="0.8906">
        <ele>114.54</ele>
        <time>2015-10-11T09:02:11Z</time>
      </trkpt>
      <trkpt lat="49.322" lon="0.89072">
        <ele>113.43</ele>
        <time>2015-10-11T09:02:13Z</time>
      </trkpt>
      <trkpt lat="49.32201" lon="0.89084">
        <ele>112.19</ele>
        <time>2015-10-11T09:02:15Z</time>
      </trkpt>
      <trkpt lat="49.32201" lon="0.89099">
        <ele>111.65</ele>
        <time>2015-10-11T09:02:17Z</time>
      </trkpt>
      <trkpt lat="49.32202" lon="0.89117">
        <ele>111.12</ele>
        <time>2015-10-11T09:02:19Z</time>
      </trkpt>
      <trkpt lat="49.32202" lon="0.89134">
        <ele>110.74</ele>
        <time>2015-10-11T09:02:21Z</time>
      </trkpt>
      <trkpt lat="49.32203" lon="0.89147">
        <ele>110.88</ele>
        <time>2015-10-11T09:02:23Z</time>
      </trkpt>
      <trkpt lat="49.32202" lon="0.89162">
        <ele>111.57</ele>
        <time>2015-10-11T09:02:25Z</time>
      </trkpt>
      <trkpt lat="49.32202" lon="0.89178">
        <ele>112.02</ele>
        <time>2015-10-11T09:02:27Z</time>
      </trkpt>
      <trkpt lat="49.322" lon="0.89193">
        <ele>113.13</ele>
        <time>2015-10-11T09:02:29Z</time>
      </trkpt>
      <trkpt lat="49.32197" lon="0.89208">
        <ele>114.16</ele>
        <time>2015-10-11T09:02:31Z</time>
      </trkpt>
      <trkpt lat="49.32194" lon="0.89222">
        <ele>114.89</ele>
        <time>2015-10-11T09:02:33Z</time>
      </trkpt>
      <trkpt lat="49.3219" lon="0.89236">
        <ele>114.93</ele>
        <time>2015-10-11T09:02:35Z</time>
      </trkpt>
      <trkpt lat="49.32188" lon="0.8925">
        <ele>114.51</ele>
        <time>2015-10-11T09:02:37Z</time>
      </trkpt>
      <trkpt lat="49.32186" lon="0.89263">
        <ele>114.9</ele>
        <time>2015-10-11T09:02:39Z</time>
      </trkpt>
      <trkpt lat="49.32184" lon="0.89277">
        <ele>115.49</ele>
        <time>2015-10-11T09:02:41Z</time>
      </trkpt>
      <trkpt lat="49.32183" lon="0.89292">
        <ele>115.67</ele>
        <time>2015-10-11T09:02:43Z</time>
      </trkpt>
      <trkpt lat="49.3218" lon="0.89307">
        <ele>116.77</ele>
        <time>2015-10-11T09:02:45Z</time>
      </trkpt>
      <trkpt lat="49.32177" lon="0.8932">
        <ele>118.01</ele>
        <time>2015-10-11T09:02:47Z</time>
      </trkpt>
      <trkpt lat="49.32173" lon="0.89336">
        <ele>119.54</ele>
        <time>2015-10-11T09:02:49Z</time>
      </trkpt>
      <trkpt lat="49.32171" lon="0.89352">
        <ele>121.59</ele>
        <time>2015-10-11T09:02:51Z</time>
      </trkpt>
      <trkpt lat="49.3217" lon="0.89369">
        <ele>123.69</ele>
        <time>2015-10-11T09:02:53Z</time>
      </trkpt>
      <trkpt lat="49.32167" lon="0.89385">
        <ele>125.36</ele>
        <time>2015-10-11T09:02:55Z</time>
      </trkpt>
      <trkpt lat="49.32165" lon="0.89402">
        <ele>125.77</ele>
        <time>2015-10-11T09:02:57Z</time>
      </trkpt>
      <trkpt lat="49.32162" lon="0.89413">
        <ele>126.02</ele>
        <time>2015-10-11T09:02:59Z</time>
      </trkpt>
      <trkpt lat="49.32161" lon="0.8943">
        <ele>126.16</ele>
        <time>2015-10-11T09:03:01Z</time>
      </trkpt>
      <trkpt lat="49.32157" lon="0.89446">
        <ele>126.57</ele>
        <time>2015-10-11T09:03:03Z</time>
      </trkpt>
      <trkpt lat="49.32154" lon="0.89457">
        <ele>126.84</ele>
        <time>2015-10-11T09:03:05Z</time>
      </trkpt>
      <trkpt lat="49.32161" lon="0.89462">
        <ele>126.62</ele>
        <time>2015-10-11T09:03:17Z</time>
      </trkpt>
      <trkpt lat="49.32174" lon="0.89466">
        <ele>125.57</ele>
        <time>2015-10-11T09:03:21Z</time>
      </trkpt>
      <trkpt lat="49.32181" lon="0.89466">
        <ele>124.7</ele>
        <time>2015-10-11T09:03:23Z</time>
      </trkpt>
      <trkpt lat="49.32192" lon="0.89469">
        <ele>123.94</ele>
        <time>2015-10-11T09:03:25Z</time>
      </trkpt>
      <trkpt lat="49.32199" lon="0.89472">
        <ele>123.49</ele>
        <time>2015-10-11T09:03:27Z</time>
      </trkpt>
      <trkpt lat="49.32208" lon="0.89475">
        <ele>122.59</ele>
        <time>2015-10-11T09:03:29Z</time>
      </trkpt>
      <trkpt lat="49.32216" lon="0.89478">
        <ele>121.68</ele>
        <time>2015-10-11T09:03:31Z</time>
      </trkpt>
      <trkpt lat="49.32227" lon="0.89482">
        <ele>120.63</ele>
        <time>2015-10-11T09:03:33Z</time>
      </trkpt>
      <trkpt lat="49.32236" lon="0.89485">
        <ele>119.72</ele>
        <time>2015-10-11T09:03:35Z</time>
      </trkpt>
      <trkpt lat="49.32243" lon="0.89491">
        <ele>119.48</ele>
        <time>2015-10-11T09:03:37Z</time>
      </trkpt>
      <trkpt lat="49.32251" lon="0.89494">
        <ele>119.32</ele>
        <time>2015-10-11T09:03:39Z</time>
      </trkpt>
      <trkpt lat="49.3226" lon="0.89498">
        <ele>118.75</ele>
        <time>2015-10-11T09:03:41Z</time>
      </trkpt>
      <trkpt lat="49.32267" lon="0.89499">
        <ele>118.64</ele>
        <time>2015-10-11T09:03:43Z</time>
      </trkpt>
      <trkpt lat="49.32276" lon="0.89501">
        <ele>119.46</ele>
        <time>2015-10-11T09:03:45Z</time>
      </trkpt>
      <trkpt lat="49.32281" lon="0.89503">
        <ele>119.93</ele>
        <time>2015-10-11T09:03:47Z</time>
      </trkpt>
      <trkpt lat="49.32288" lon="0.89505">
        <ele>120.22</ele>
        <time>2015-10-11T09:03:49Z</time>
      </trkpt>
      <trkpt lat="49.32295" lon="0.89508">
        <ele>120.39</ele>
        <time>2015-10-11T09:03:51Z</time>
      </trkpt>
      <trkpt lat="49.323" lon="0.8951">
        <ele>120.46</ele>
        <time>2015-10-11T09:03:53Z</time>
      </trkpt>
      <trkpt lat="49.32307" lon="0.8951">
        <ele>120.58</ele>
        <time>2015-10-11T09:03:55Z</time>
      </trkpt>
      <trkpt lat="49.32314" lon="0.89513">
        <ele>120.79</ele>
        <time>2015-10-11T09:03:57Z</time>
      </trkpt>
      <trkpt lat="49.32323" lon="0.89518">
        <ele>121.65</ele>
        <time>2015-10-11T09:03:59Z</time>
      </trkpt>
      <trkpt lat="49.3233" lon="0.89521">
        <ele>122.14</ele>
        <time>2015-10-11T09:04:01Z</time>
      </trkpt>
      <trkpt lat="49.32337" lon="0.89525">
        <ele>122.39</ele>
        <time>2015-10-11T09:04:03Z</time>
      </trkpt>
      <trkpt lat="49.32343" lon="0.89528">
        <ele>122.54</ele>
        <time>2015-10-11T09:04:05Z</time>
      </trkpt>
      <trkpt lat="49.32351" lon="0.89532">
        <ele>122.59</ele>
        <time>2015-10-11T09:04:07Z</time>
      </trkpt>
      <trkpt lat="49.32359" lon="0.89533">
        <ele>122.58</ele>
        <time>2015-10-11T09:04:09Z</time>
      </trkpt>
      <trkpt lat="49.32368" lon="0.89537">
        <ele>122.64</ele>
        <time>2015-10-11T09:04:11Z</time>
      </trkpt>
      <trkpt lat="49.32375" lon="0.89539">
        <ele>122.76</ele>
        <time>2015-10-11T09:04:13Z</time>
      </trkpt>
      <trkpt lat="49.32382" lon="0.89538">
        <ele>122.87</ele>
        <time>2015-10-11T09:04:15Z</time>
      </trkpt>
      <trkpt lat="49.3239" lon="0.89539">
        <ele>123</ele>
        <time>2015-10-11T09:04:17Z</time>
      </trkpt>
      <trkpt lat="49.32395" lon="0.89538">
        <ele>123.07</ele>
        <time>2015-10-11T09:04:19Z</time>
      </trkpt>
      <trkpt lat="49.32402" lon="0.89536">
        <ele>123.16</ele>
        <time>2015-10-11T09:04:21Z</time>
      </trkpt>
      <trkpt lat="49.32409" lon="0.89535">
        <ele>123.29</ele>
        <time>2015-10-11T09:04:23Z</time>
      </trkpt>
      <trkpt lat="49.32415" lon="0.89535">
        <ele>123.47</ele>
        <time>2015-10-11T09:04:25Z</time>
      </trkpt>
      <trkpt lat="49.32422" lon="0.89537">
        <ele>123.56</ele>
        <time>2015-10-11T09:04:27Z</time>
      </trkpt>
      <trkpt lat="49.32428" lon="0.89538">
        <ele>123.62</ele>
        <time>2015-10-11T09:04:29Z</time>
      </trkpt>
      <trkpt lat="49.32433" lon="0.8954">
        <ele>123.73</ele>
        <time>2015-10-11T09:04:31Z</time>
      </trkpt>
      <trkpt lat="49.32438" lon="0.89541">
        <ele>123.9</ele>
        <time>2015-10-11T09:04:33Z</time>
      </trkpt>
      <trkpt lat="49.32444" lon="0.89542">
        <ele>123.98</ele>
        <time>2015-10-11T09:04:35Z</time>
      </trkpt>
      <trkpt lat="49.3245" lon="0.89538">
        <ele>124</ele>
        <time>2015-10-11T09:04:37Z</time>
      </trkpt>
      <trkpt lat="49.32448" lon="0.89527">
        <ele>124.05</ele>
        <time>2015-10-11T09:04:39Z</time>
      </trkpt>
      <trkpt lat="49.32445" lon="0.89515">
        <ele>125.25</ele>
        <time>2015-10-11T09:04:41Z</time>
      </trkpt>
      <trkpt lat="49.32442" lon="0.89501">
        <ele>126.8</ele>
        <time>2015-10-11T09:04:43Z</time>
      </trkpt>
      <trkpt lat="49.3244" lon="0.89488">
        <ele>128.12</ele>
        <time>2015-10-11T09:04:45Z</time>
      </trkpt>
      <trkpt lat="49.32438" lon="0.89471">
        <ele>128.72</ele>
        <time>2015-10-11T09:04:47Z</time>
      </trkpt>
      <trkpt lat="49.32436" lon="0.89455">
        <ele>128.66</ele>
        <time>2015-10-11T09:04:49Z</time>
      </trkpt>
      <trkpt lat="49.32434" lon="0.89437">
        <ele>128.93</ele>
        <time>2015-10-11T09:04:51Z</time>
      </trkpt>
      <trkpt lat="49.32432" lon="0.8942">
        <ele>128.77</ele>
        <time>2015-10-11T09:04:53Z</time>
      </trkpt>
      <trkpt lat="49.32429" lon="0.89402">
        <ele>128.65</ele>
        <time>2015-10-11T09:04:55Z</time>
      </trkpt>
      <trkpt lat="49.32427" lon="0.89383">
        <ele>128.83</ele>
        <time>2015-10-11T09:04:57Z</time>
      </trkpt>
      <trkpt lat="49.32423" lon="0.89362">
        <ele>129.2</ele>
        <time>2015-10-11T09:04:59Z</time>
      </trkpt>
      <trkpt lat="49.3242" lon="0.89342">
        <ele>128.79</ele>
        <time>2015-10-11T09:05:01Z</time>
      </trkpt>
      <trkpt lat="49.32416" lon="0.89321">
        <ele>128.67</ele>
        <time>2015-10-11T09:05:03Z</time>
      </trkpt>
      <trkpt lat="49.32411" lon="0.89301">
        <ele>128.61</ele>
        <time>2015-10-11T09:05:05Z</time>
      </trkpt>
      <trkpt lat="49.32408" lon="0.89281">
        <ele>128.15</ele>
        <time>2015-10-11T09:05:07Z</time>
      </trkpt>
      <trkpt lat="49.32404" lon="0.89256">
        <ele>127.05</ele>
        <time>2015-10-11T09:05:09Z</time>
      </trkpt>
      <trkpt lat="49.324" lon="0.89237">
        <ele>125.87</ele>
        <time>2015-10-11T09:05:11Z</time>
      </trkpt>
      <trkpt lat="49.32397" lon="0.89218">
        <ele>124.46</ele>
        <time>2015-10-11T09:05:13Z</time>
      </trkpt>
      <trkpt lat="49.32392" lon="0.89197">
        <ele>122.94</ele>
        <time>2015-10-11T09:05:15Z</time>
      </trkpt>
      <trkpt lat="49.32388" lon="0.89178">
        <ele>120.91</ele>
        <time>2015-10-11T09:05:17Z</time>
      </trkpt>
      <trkpt lat="49.32384" lon="0.89156">
        <ele>119.26</ele>
        <time>2015-10-11T09:05:19Z</time>
      </trkpt>
      <trkpt lat="49.3238" lon="0.89136">
        <ele>117.92</ele>
        <time>2015-10-11T09:05:21Z</time>
      </trkpt>
      <trkpt lat="49.32376" lon="0.89114">
        <ele>116.52</ele>
        <time>2015-10-11T09:05:23Z</time>
      </trkpt>
      <trkpt lat="49.32372" lon="0.89093">
        <ele>115.35</ele>
        <time>2015-10-11T09:05:25Z</time>
      </trkpt>
      <trkpt lat="49.32369" lon="0.89072">
        <ele>114.68</ele>
        <time>2015-10-11T09:05:27Z</time>
      </trkpt>
      <trkpt lat="49.32365" lon="0.89052">
        <ele>114.06</ele>
        <time>2015-10-11T09:05:29Z</time>
      </trkpt>
      <trkpt lat="49.32361" lon="0.89035">
        <ele>113.63</ele>
        <time>2015-10-11T09:05:31Z</time>
      </trkpt>
      <trkpt lat="49.32359" lon="0.89017">
        <ele>113.2</ele>
        <time>2015-10-11T09:05:33Z</time>
      </trkpt>
      <trkpt lat="49.32355" lon="0.88998">
        <ele>113.1</ele>
        <time>2015-10-11T09:05:35Z</time>
      </trkpt>
      <trkpt lat="49.32352" lon="0.88981">
        <ele>113.11</ele>
        <time>2015-10-11T09:05:37Z</time>
      </trkpt>
      <trkpt lat="49.3235" lon="0.88966">
        <ele>112.88</ele>
        <time>2015-10-11T09:05:39Z</time>
      </trkpt>
      <trkpt lat="49.32352" lon="0.88958">
        <ele>112.68</ele>
        <time>2015-10-11T09:05:41Z</time>
      </trkpt>
      <trkpt lat="49.32359" lon="0.88957">
        <ele>112.49</ele>
        <time>2015-10-11T09:05:43Z</time>
      </trkpt>
      <trkpt lat="49.32364" lon="0.88959">
        <ele>112.34</ele>
        <time>2015-10-11T09:05:45Z</time>
      </trkpt>
      <trkpt lat="49.32368" lon="0.88962">
        <ele>112.16</ele>
        <time>2015-10-11T09:05:47Z</time>
      </trkpt>
      <trkpt lat="49.32374" lon="0.88967">
        <ele>111.32</ele>
        <time>2015-10-11T09:05:49Z</time>
      </trkpt>
      <trkpt lat="49.32381" lon="0.88969">
        <ele>110.78</ele>
        <time>2015-10-11T09:05:51Z</time>
      </trkpt>
      <trkpt lat="49.32387" lon="0.88972">
        <ele>110.41</ele>
        <time>2015-10-11T09:05:53Z</time>
      </trkpt>
      <trkpt lat="49.32395" lon="0.88977">
        <ele>109.9</ele>
        <time>2015-10-11T09:05:55Z</time>
      </trkpt>
      <trkpt lat="49.32403" lon="0.88981">
        <ele>109.14</ele>
        <time>2015-10-11T09:05:57Z</time>
      </trkpt>
      <trkpt lat="49.32411" lon="0.88986">
        <ele>108.1</ele>
        <time>2015-10-11T09:05:59Z</time>
      </trkpt>
      <trkpt lat="49.32418" lon="0.88989">
        <ele>107.47</ele>
        <time>2015-10-11T09:06:01Z</time>
      </trkpt>
      <trkpt lat="49.32427" lon="0.88992">
        <ele>106.65</ele>
        <time>2015-10-11T09:06:03Z</time>
      </trkpt>
      <trkpt lat="49.32436" lon="0.88995">
        <ele>105.99</ele>
        <time>2015-10-11T09:06:05Z</time>
      </trkpt>
      <trkpt lat="49.32444" lon="0.88998">
        <ele>105.64</ele>
        <time>2015-10-11T09:06:07Z</time>
      </trkpt>
      <trkpt lat="49.3245" lon="0.89001">
        <ele>105.54</ele>
        <time>2015-10-11T09:06:09Z</time>
      </trkpt>
      <trkpt lat="49.32457" lon="0.89003">
        <ele>105.54</ele>
        <time>2015-10-11T09:06:11Z</time>
      </trkpt>
      <trkpt lat="49.32463" lon="0.89009">
        <ele>105.61</ele>
        <time>2015-10-11T09:06:13Z</time>
      </trkpt>
      <trkpt lat="49.32469" lon="0.89013">
        <ele>105.69</ele>
        <time>2015-10-11T09:06:15Z</time>
      </trkpt>
      <trkpt lat="49.32477" lon="0.89017">
        <ele>105.81</ele>
        <time>2015-10-11T09:06:17Z</time>
      </trkpt>
      <trkpt lat="49.32483" lon="0.8902">
        <ele>105.98</ele>
        <time>2015-10-11T09:06:19Z</time>
      </trkpt>
      <trkpt lat="49.32489" lon="0.89023">
        <ele>106.2</ele>
        <time>2015-10-11T09:06:21Z</time>
      </trkpt>
      <trkpt lat="49.32496" lon="0.89024">
        <ele>106.51</ele>
        <time>2015-10-11T09:06:23Z</time>
      </trkpt>
      <trkpt lat="49.32501" lon="0.89028">
        <ele>106.86</ele>
        <time>2015-10-11T09:06:25Z</time>
      </trkpt>
      <trkpt lat="49.32508" lon="0.89033">
        <ele>107.23</ele>
        <time>2015-10-11T09:06:27Z</time>
      </trkpt>
      <trkpt lat="49.32513" lon="0.89037">
        <ele>107.65</ele>
        <time>2015-10-11T09:06:29Z</time>
      </trkpt>
      <trkpt lat="49.32518" lon="0.89042">
        <ele>108.04</ele>
        <time>2015-10-11T09:06:31Z</time>
      </trkpt>
      <trkpt lat="49.32523" lon="0.89049">
        <ele>108.41</ele>
        <time>2015-10-11T09:06:33Z</time>
      </trkpt>
      <trkpt lat="49.3253" lon="0.89056">
        <ele>109.57</ele>
        <time>2015-10-11T09:06:35Z</time>
      </trkpt>
      <trkpt lat="49.32535" lon="0.89063">
        <ele>110.26</ele>
        <time>2015-10-11T09:06:37Z</time>
      </trkpt>
      <trkpt lat="49.32541" lon="0.89069">
        <ele>110.72</ele>
        <time>2015-10-11T09:06:39Z</time>
      </trkpt>
      <trkpt lat="49.32547" lon="0.89074">
        <ele>111.07</ele>
        <time>2015-10-11T09:06:41Z</time>
      </trkpt>
      <trkpt lat="49.32553" lon="0.89077">
        <ele>111.36</ele>
        <time>2015-10-11T09:06:43Z</time>
      </trkpt>
      <trkpt lat="49.32558" lon="0.89082">
        <ele>111.6</ele>
        <time>2015-10-11T09:06:45Z</time>
      </trkpt>
      <trkpt lat="49.32564" lon="0.89087">
        <ele>111.86</ele>
        <time>2015-10-11T09:06:47Z</time>
      </trkpt>
      <trkpt lat="49.3257" lon="0.89091">
        <ele>112.13</ele>
        <time>2015-10-11T09:06:49Z</time>
      </trkpt>
      <trkpt lat="49.32575" lon="0.89094">
        <ele>112.35</ele>
        <time>2015-10-11T09:06:51Z</time>
      </trkpt>
      <trkpt lat="49.32581" lon="0.89098">
        <ele>112.63</ele>
        <time>2015-10-11T09:06:53Z</time>
      </trkpt>
      <trkpt lat="49.32587" lon="0.89101">
        <ele>113.64</ele>
        <time>2015-10-11T09:06:55Z</time>
      </trkpt>
      <trkpt lat="49.32594" lon="0.89105">
        <ele>114.21</ele>
        <time>2015-10-11T09:06:57Z</time>
      </trkpt>
      <trkpt lat="49.326" lon="0.8911">
        <ele>114.93</ele>
        <time>2015-10-11T09:06:59Z</time>
      </trkpt>
      <trkpt lat="49.32601" lon="0.89121">
        <ele>115.34</ele>
        <time>2015-10-11T09:07:01Z</time>
      </trkpt>
      <trkpt lat="49.32601" lon="0.89131">
        <ele>115.61</ele>
        <time>2015-10-11T09:07:03Z</time>
      </trkpt>
      <trkpt lat="49.32601" lon="0.89143">
        <ele>116.09</ele>
        <time>2015-10-11T09:07:05Z</time>
      </trkpt>
      <trkpt lat="49.32601" lon="0.89158">
        <ele>116.39</ele>
        <time>2015-10-11T09:07:07Z</time>
      </trkpt>
      <trkpt lat="49.326" lon="0.89168">
        <ele>116.59</ele>
        <time>2015-10-11T09:07:09Z</time>
      </trkpt>
      <trkpt lat="49.32599" lon="0.89175">
        <ele>116.77</ele>
        <time>2015-10-11T09:07:11Z</time>
      </trkpt>
      <trkpt lat="49.32598" lon="0.89183">
        <ele>116.98</ele>
        <time>2015-10-11T09:07:13Z</time>
      </trkpt>
      <trkpt lat="49.32598" lon="0.8919">
        <ele>117.2</ele>
        <time>2015-10-11T09:07:15Z</time>
      </trkpt>
      <trkpt lat="49.32597" lon="0.89199">
        <ele>117.47</ele>
        <time>2015-10-11T09:07:17Z</time>
      </trkpt>
      <trkpt lat="49.32596" lon="0.89211">
        <ele>117.84</ele>
        <time>2015-10-11T09:07:19Z</time>
      </trkpt>
      <trkpt lat="49.32595" lon="0.89221">
        <ele>118.27</ele>
        <time>2015-10-11T09:07:21Z</time>
      </trkpt>
      <trkpt lat="49.32592" lon="0.89231">
        <ele>118.73</ele>
        <time>2015-10-11T09:07:23Z</time>
      </trkpt>
      <trkpt lat="49.32592" lon="0.89238">
        <ele>119.25</ele>
        <time>2015-10-11T09:07:25Z</time>
      </trkpt>
      <trkpt lat="49.32591" lon="0.89252">
        <ele>119.79</ele>
        <time>2015-10-11T09:07:27Z</time>
      </trkpt>
      <trkpt lat="49.32588" lon="0.89268">
        <ele>121.61</ele>
        <time>2015-10-11T09:07:29Z</time>
      </trkpt>
      <trkpt lat="49.32585" lon="0.89281">
        <ele>122.74</ele>
        <time>2015-10-11T09:07:31Z</time>
      </trkpt>
      <trkpt lat="49.32585" lon="0.89293">
        <ele>123.49</ele>
        <time>2015-10-11T09:07:33Z</time>
      </trkpt>
      <trkpt lat="49.32587" lon="0.89304">
        <ele>124.66</ele>
        <time>2015-10-11T09:07:35Z</time>
      </trkpt>
      <trkpt lat="49.32595" lon="0.89313">
        <ele>125.58</ele>
        <time>2015-10-11T09:07:39Z</time>
      </trkpt>
      <trkpt lat="49.326" lon="0.89319">
        <ele>125.68</ele>
        <time>2015-10-11T09:07:41Z</time>
      </trkpt>
      <trkpt lat="49.32606" lon="0.89323">
        <ele>125.68</ele>
        <time>2015-10-11T09:07:43Z</time>
      </trkpt>
      <trkpt lat="49.32611" lon="0.89326">
        <ele>125.59</ele>
        <time>2015-10-11T09:07:45Z</time>
      </trkpt>
      <trkpt lat="49.32617" lon="0.89329">
        <ele>125.5</ele>
        <time>2015-10-11T09:07:47Z</time>
      </trkpt>
      <trkpt lat="49.32625" lon="0.89331">
        <ele>125.45</ele>
        <time>2015-10-11T09:07:49Z</time>
      </trkpt>
      <trkpt lat="49.32632" lon="0.89333">
        <ele>125.34</ele>
        <time>2015-10-11T09:07:51Z</time>
      </trkpt>
      <trkpt lat="49.32638" lon="0.89336">
        <ele>125.06</ele>
        <time>2015-10-11T09:07:53Z</time>
      </trkpt>
      <trkpt lat="49.32645" lon="0.8934">
        <ele>124.85</ele>
        <time>2015-10-11T09:07:55Z</time>
      </trkpt>
      <trkpt lat="49.32653" lon="0.89343">
        <ele>124.7</ele>
        <time>2015-10-11T09:07:57Z</time>
      </trkpt>
      <trkpt lat="49.32659" lon="0.89346">
        <ele>124.58</ele>
        <time>2015-10-11T09:07:59Z</time>
      </trkpt>
      <trkpt lat="49.32666" lon="0.89348">
        <ele>124.51</ele>
        <time>2015-10-11T09:08:01Z</time>
      </trkpt>
      <trkpt lat="49.32672" lon="0.89352">
        <ele>124.48</ele>
        <time>2015-10-11T09:08:03Z</time>
      </trkpt>
      <trkpt lat="49.32681" lon="0.89355">
        <ele>124.61</ele>
        <time>2015-10-11T09:08:05Z</time>
      </trkpt>
      <trkpt lat="49.32688" lon="0.89357">
        <ele>124.71</ele>
        <time>2015-10-11T09:08:07Z</time>
      </trkpt>
      <trkpt lat="49.32697" lon="0.89359">
        <ele>124.88</ele>
        <time>2015-10-11T09:08:09Z</time>
      </trkpt>
      <trkpt lat="49.32705" lon="0.89361">
        <ele>125.11</ele>
        <time>2015-10-11T09:08:11Z</time>
      </trkpt>
      <trkpt lat="49.32712" lon="0.89363">
        <ele>125.29</ele>
        <time>2015-10-11T09:08:13Z</time>
      </trkpt>
      <trkpt lat="49.32722" lon="0.89365">
        <ele>125.4</ele>
        <time>2015-10-11T09:08:15Z</time>
      </trkpt>
      <trkpt lat="49.32729" lon="0.89365">
        <ele>125.49</ele>
        <time>2015-10-11T09:08:17Z</time>
      </trkpt>
      <trkpt lat="49.32735" lon="0.89366">
        <ele>125.5</ele>
        <time>2015-10-11T09:08:19Z</time>
      </trkpt>
      <trkpt lat="49.32744" lon="0.89371">
        <ele>125.49</ele>
        <time>2015-10-11T09:08:21Z</time>
      </trkpt>
      <trkpt lat="49.32751" lon="0.89375">
        <ele>125.52</ele>
        <time>2015-10-11T09:08:23Z</time>
      </trkpt>
      <trkpt lat="49.3276" lon="0.89378">
        <ele>125.63</ele>
        <time>2015-10-11T09:08:25Z</time>
      </trkpt>
      <trkpt lat="49.32769" lon="0.8938">
        <ele>125.72</ele>
        <time>2015-10-11T09:08:27Z</time>
      </trkpt>
      <trkpt lat="49.32775" lon="0.89383">
        <ele>125.76</ele>
        <time>2015-10-11T09:08:29Z</time>
      </trkpt>
      <trkpt lat="49.32781" lon="0.89386">
        <ele>125.74</ele>
        <time>2015-10-11T09:08:31Z</time>
      </trkpt>
      <trkpt lat="49.32789" lon="0.89392">
        <ele>125.74</ele>
        <time>2015-10-11T09:08:33Z</time>
      </trkpt>
      <trkpt lat="49.32797" lon="0.89393">
        <ele>125.74</ele>
        <time>2015-10-11T09:08:35Z</time>
      </trkpt>
      <trkpt lat="49.32805" lon="0.89394">
        <ele>125.74</ele>
        <time>2015-10-11T09:08:37Z</time>
      </trkpt>
      <trkpt lat="49.32812" lon="0.89396">
        <ele>125.78</ele>
        <time>2015-10-11T09:08:39Z</time>
      </trkpt>
      <trkpt lat="49.32819" lon="0.89399">
        <ele>125.86</ele>
        <time>2015-10-11T09:08:41Z</time>
      </trkpt>
      <trkpt lat="49.32827" lon="0.89401">
        <ele>125.98</ele>
        <time>2015-10-11T09:08:43Z</time>
      </trkpt>
      <trkpt lat="49.32835" lon="0.89403">
        <ele>126.06</ele>
        <time>2015-10-11T09:08:45Z</time>
      </trkpt>
      <trkpt lat="49.32842" lon="0.89407">
        <ele>126.21</ele>
        <time>2015-10-11T09:08:47Z</time>
      </trkpt>
      <trkpt lat="49.3285" lon="0.89409">
        <ele>126.37</ele>
        <time>2015-10-11T09:08:49Z</time>
      </trkpt>
      <trkpt lat="49.32861" lon="0.89411">
        <ele>126.46</ele>
        <time>2015-10-11T09:08:51Z</time>
      </trkpt>
      <trkpt lat="49.32872" lon="0.89414">
        <ele>125.97</ele>
        <time>2015-10-11T09:08:53Z</time>
      </trkpt>
      <trkpt lat="49.32882" lon="0.89417">
        <ele>125.03</ele>
        <time>2015-10-11T09:08:55Z</time>
      </trkpt>
      <trkpt lat="49.3289" lon="0.89421">
        <ele>124.49</ele>
        <time>2015-10-11T09:08:57Z</time>
      </trkpt>
      <trkpt lat="49.32899" lon="0.89427">
        <ele>124.22</ele>
        <time>2015-10-11T09:08:59Z</time>
      </trkpt>
      <trkpt lat="49.32906" lon="0.89432">
        <ele>124.15</ele>
        <time>2015-10-11T09:09:01Z</time>
      </trkpt>
      <trkpt lat="49.32912" lon="0.89432">
        <ele>124.17</ele>
        <time>2015-10-11T09:09:03Z</time>
      </trkpt>
      <trkpt lat="49.3292" lon="0.89433">
        <ele>124.33</ele>
        <time>2015-10-11T09:09:05Z</time>
      </trkpt>
      <trkpt lat="49.32928" lon="0.89437">
        <ele>124.52</ele>
        <time>2015-10-11T09:09:07Z</time>
      </trkpt>
      <trkpt lat="49.32937" lon="0.89442">
        <ele>125.38</ele>
        <time>2015-10-11T09:09:09Z</time>
      </trkpt>
      <trkpt lat="49.32943" lon="0.89447">
        <ele>125.98</ele>
        <time>2015-10-11T09:09:11Z</time>
      </trkpt>
      <trkpt lat="49.32948" lon="0.89454">
        <ele>126.53</ele>
        <time>2015-10-11T09:09:13Z</time>
      </trkpt>
      <trkpt lat="49.32955" lon="0.89455">
        <ele>127.03</ele>
        <time>2015-10-11T09:09:15Z</time>
      </trkpt>
      <trkpt lat="49.32959" lon="0.89445">
        <ele>128.11</ele>
        <time>2015-10-11T09:09:17Z</time>
      </trkpt>
      <trkpt lat="49.32962" lon="0.89432">
        <ele>129.93</ele>
        <time>2015-10-11T09:09:19Z</time>
      </trkpt>
      <trkpt lat="49.32965" lon="0.89419">
        <ele>131.63</ele>
        <time>2015-10-11T09:09:21Z</time>
      </trkpt>
      <trkpt lat="49.32969" lon="0.89405">
        <ele>132.52</ele>
        <time>2015-10-11T09:09:23Z</time>
      </trkpt>
      <trkpt lat="49.32972" lon="0.89391">
        <ele>132.8</ele>
        <time>2015-10-11T09:09:25Z</time>
      </trkpt>
      <trkpt lat="49.32977" lon="0.89376">
        <ele>132.93</ele>
        <time>2015-10-11T09:09:27Z</time>
      </trkpt>
      <trkpt lat="49.32979" lon="0.89359">
        <ele>132.93</ele>
        <time>2015-10-11T09:09:29Z</time>
      </trkpt>
      <trkpt lat="49.32983" lon="0.89342">
        <ele>132.62</ele>
        <time>2015-10-11T09:09:31Z</time>
      </trkpt>
      <trkpt lat="49.32986" lon="0.89326">
        <ele>132.19</ele>
        <time>2015-10-11T09:09:33Z</time>
      </trkpt>
      <trkpt lat="49.32988" lon="0.89312">
        <ele>132.08</ele>
        <time>2015-10-11T09:09:35Z</time>
      </trkpt>
      <trkpt lat="49.32991" lon="0.89295">
        <ele>132.08</ele>
        <time>2015-10-11T09:09:37Z</time>
      </trkpt>
      <trkpt lat="49.32994" lon="0.89279">
        <ele>132.22</ele>
        <time>2015-10-11T09:09:39Z</time>
      </trkpt>
      <trkpt lat="49.32997" lon="0.89262">
        <ele>132.69</ele>
        <time>2015-10-11T09:09:41Z</time>
      </trkpt>
      <trkpt lat="49.33" lon="0.89244">
        <ele>133.6</ele>
        <time>2015-10-11T09:09:43Z</time>
      </trkpt>
      <trkpt lat="49.33003" lon="0.89226">
        <ele>134.35</ele>
        <time>2015-10-11T09:09:45Z</time>
      </trkpt>
      <trkpt lat="49.33006" lon="0.89207">
        <ele>134.47</ele>
        <time>2015-10-11T09:09:47Z</time>
      </trkpt>
      <trkpt lat="49.33008" lon="0.89191">
        <ele>133.99</ele>
        <time>2015-10-11T09:09:49Z</time>
      </trkpt>
      <trkpt lat="49.33012" lon="0.89176">
        <ele>133.03</ele>
        <time>2015-10-11T09:09:51Z</time>
      </trkpt>
      <trkpt lat="49.33014" lon="0.89159">
        <ele>131.9</ele>
        <time>2015-10-11T09:09:53Z</time>
      </trkpt>
      <trkpt lat="49.33016" lon="0.89142">
        <ele>130.68</ele>
        <time>2015-10-11T09:09:55Z</time>
      </trkpt>
      <trkpt lat="49.33019" lon="0.89125">
        <ele>129.48</ele>
        <time>2015-10-11T09:09:57Z</time>
      </trkpt>
      <trkpt lat="49.33021" lon="0.89105">
        <ele>128.52</ele>
        <time>2015-10-11T09:09:59Z</time>
      </trkpt>
      <trkpt lat="49.33025" lon="0.89087">
        <ele>128.38</ele>
        <time>2015-10-11T09:10:01Z</time>
      </trkpt>
      <trkpt lat="49.33028" lon="0.89069">
        <ele>128.21</ele>
        <time>2015-10-11T09:10:03Z</time>
      </trkpt>
      <trkpt lat="49.33031" lon="0.89049">
        <ele>127.74</ele>
        <time>2015-10-11T09:10:05Z</time>
      </trkpt>
      <trkpt lat="49.33035" lon="0.89029">
        <ele>127.08</ele>
        <time>2015-10-11T09:10:07Z</time>
      </trkpt>
      <trkpt lat="49.33037" lon="0.89011">
        <ele>126.53</ele>
        <time>2015-10-11T09:10:09Z</time>
      </trkpt>
      <trkpt lat="49.33039" lon="0.88992">
        <ele>126.28</ele>
        <time>2015-10-11T09:10:11Z</time>
      </trkpt>
      <trkpt lat="49.33041" lon="0.88974">
        <ele>125.76</ele>
        <time>2015-10-11T09:10:13Z</time>
      </trkpt>
      <trkpt lat="49.33044" lon="0.88959">
        <ele>125.21</ele>
        <time>2015-10-11T09:10:15Z</time>
      </trkpt>
      <trkpt lat="49.33046" lon="0.88941">
        <ele>125.05</ele>
        <time>2015-10-11T09:10:17Z</time>
      </trkpt>
      <trkpt lat="49.33049" lon="0.88923">
        <ele>124.78</ele>
        <time>2015-10-11T09:10:19Z</time>
      </trkpt>
      <trkpt lat="49.33052" lon="0.88905">
        <ele>125.07</ele>
        <time>2015-10-11T09:10:21Z</time>
      </trkpt>
      <trkpt lat="49.33055" lon="0.88889">
        <ele>125.51</ele>
        <time>2015-10-11T09:10:23Z</time>
      </trkpt>
      <trkpt lat="49.33058" lon="0.8887">
        <ele>126.08</ele>
        <time>2015-10-11T09:10:25Z</time>
      </trkpt>
      <trkpt lat="49.33061" lon="0.88852">
        <ele>126.42</ele>
        <time>2015-10-11T09:10:27Z</time>
      </trkpt>
      <trkpt lat="49.33064" lon="0.88834">
        <ele>126.66</ele>
        <time>2015-10-11T09:10:29Z</time>
      </trkpt>
      <trkpt lat="49.33068" lon="0.88817">
        <ele>126.68</ele>
        <time>2015-10-11T09:10:31Z</time>
      </trkpt>
      <trkpt lat="49.33071" lon="0.88799">
        <ele>126.05</ele>
        <time>2015-10-11T09:10:33Z</time>
      </trkpt>
      <trkpt lat="49.33073" lon="0.88781">
        <ele>125.31</ele>
        <time>2015-10-11T09:10:35Z</time>
      </trkpt>
      <trkpt lat="49.33076" lon="0.88763">
        <ele>124.4</ele>
        <time>2015-10-11T09:10:37Z</time>
      </trkpt>
      <trkpt lat="49.33079" lon="0.88744">
        <ele>123.36</ele>
        <time>2015-10-11T09:10:39Z</time>
      </trkpt>
      <trkpt lat="49.33081" lon="0.88727">
        <ele>123.04</ele>
        <time>2015-10-11T09:10:41Z</time>
      </trkpt>
      <trkpt lat="49.33084" lon="0.88708">
        <ele>123.22</ele>
        <time>2015-10-11T09:10:43Z</time>
      </trkpt>
      <trkpt lat="49.33087" lon="0.88686">
        <ele>123.71</ele>
        <time>2015-10-11T09:10:45Z</time>
      </trkpt>
      <trkpt lat="49.3309" lon="0.88665">
        <ele>123.95</ele>
        <time>2015-10-11T09:10:47Z</time>
      </trkpt>
      <trkpt lat="49.33091" lon="0.88645">
        <ele>124.13</ele>
        <time>2015-10-11T09:10:49Z</time>
      </trkpt>
      <trkpt lat="49.33092" lon="0.88626">
        <ele>124.29</ele>
        <time>2015-10-11T09:10:51Z</time>
      </trkpt>
      <trkpt lat="49.33095" lon="0.88608">
        <ele>124.43</ele>
        <time>2015-10-11T09:10:53Z</time>
      </trkpt>
      <trkpt lat="49.33097" lon="0.88588">
        <ele>124.34</ele>
        <time>2015-10-11T09:10:55Z</time>
      </trkpt>
      <trkpt lat="49.331" lon="0.88568">
        <ele>124</ele>
        <time>2015-10-11T09:10:57Z</time>
      </trkpt>
      <trkpt lat="49.33103" lon="0.8855">
        <ele>123.62</ele>
        <time>2015-10-11T09:10:59Z</time>
      </trkpt>
      <trkpt lat="49.33105" lon="0.88533">
        <ele>123.21</ele>
        <time>2015-10-11T09:11:01Z</time>
      </trkpt>
      <trkpt lat="49.33104" lon="0.88514">
        <ele>122.7</ele>
        <time>2015-10-11T09:11:03Z</time>
      </trkpt>
      <trkpt lat="49.33108" lon="0.88493">
        <ele>122.74</ele>
        <time>2015-10-11T09:11:05Z</time>
      </trkpt>
      <trkpt lat="49.33111" lon="0.88471">
        <ele>123.37</ele>
        <time>2015-10-11T09:11:07Z</time>
      </trkpt>
      <trkpt lat="49.33114" lon="0.8845">
        <ele>124.55</ele>
        <time>2015-10-11T09:11:09Z</time>
      </trkpt>
      <trkpt lat="49.33117" lon="0.88429">
        <ele>125.99</ele>
        <time>2015-10-11T09:11:11Z</time>
      </trkpt>
      <trkpt lat="49.3312" lon="0.88408">
        <ele>127.09</ele>
        <time>2015-10-11T09:11:13Z</time>
      </trkpt>
      <trkpt lat="49.33123" lon="0.88387">
        <ele>128.46</ele>
        <time>2015-10-11T09:11:15Z</time>
      </trkpt>
      <trkpt lat="49.33126" lon="0.88369">
        <ele>129.77</ele>
        <time>2015-10-11T09:11:17Z</time>
      </trkpt>
      <trkpt lat="49.33129" lon="0.8835">
        <ele>130.66</ele>
        <time>2015-10-11T09:11:19Z</time>
      </trkpt>
      <trkpt lat="49.33132" lon="0.88329">
        <ele>131.6</ele>
        <time>2015-10-11T09:11:21Z</time>
      </trkpt>
      <trkpt lat="49.33136" lon="0.88307">
        <ele>132.27</ele>
        <time>2015-10-11T09:11:23Z</time>
      </trkpt>
      <trkpt lat="49.33139" lon="0.88289">
        <ele>132.21</ele>
        <time>2015-10-11T09:11:25Z</time>
      </trkpt>
      <trkpt lat="49.33141" lon="0.8827">
        <ele>131.44</ele>
        <time>2015-10-11T09:11:27Z</time>
      </trkpt>
      <trkpt lat="49.33145" lon="0.88251">
        <ele>130.66</ele>
        <time>2015-10-11T09:11:29Z</time>
      </trkpt>
      <trkpt lat="49.33148" lon="0.88233">
        <ele>130.42</ele>
        <time>2015-10-11T09:11:31Z</time>
      </trkpt>
      <trkpt lat="49.33151" lon="0.88215">
        <ele>129.74</ele>
        <time>2015-10-11T09:11:33Z</time>
      </trkpt>
      <trkpt lat="49.33155" lon="0.88196">
        <ele>128.57</ele>
        <time>2015-10-11T09:11:35Z</time>
      </trkpt>
      <trkpt lat="49.33159" lon="0.88178">
        <ele>127.66</ele>
        <time>2015-10-11T09:11:37Z</time>
      </trkpt>
      <trkpt lat="49.33162" lon="0.8816">
        <ele>126.83</ele>
        <time>2015-10-11T09:11:39Z</time>
      </trkpt>
      <trkpt lat="49.33165" lon="0.88142">
        <ele>126.48</ele>
        <time>2015-10-11T09:11:41Z</time>
      </trkpt>
      <trkpt lat="49.33166" lon="0.88123">
        <ele>126.83</ele>
        <time>2015-10-11T09:11:43Z</time>
      </trkpt>
      <trkpt lat="49.3316" lon="0.88109">
        <ele>127.39</ele>
        <time>2015-10-11T09:11:45Z</time>
      </trkpt>
      <trkpt lat="49.33152" lon="0.88103">
        <ele>127.92</ele>
        <time>2015-10-11T09:11:47Z</time>
      </trkpt>
      <trkpt lat="49.33145" lon="0.881">
        <ele>128.19</ele>
        <time>2015-10-11T09:11:49Z</time>
      </trkpt>
      <trkpt lat="49.33138" lon="0.88095">
        <ele>128.48</ele>
        <time>2015-10-11T09:11:51Z</time>
      </trkpt>
      <trkpt lat="49.3313" lon="0.88093">
        <ele>129.08</ele>
        <time>2015-10-11T09:11:53Z</time>
      </trkpt>
      <trkpt lat="49.33123" lon="0.88088">
        <ele>129.38</ele>
        <time>2015-10-11T09:11:55Z</time>
      </trkpt>
      <trkpt lat="49.33118" lon="0.88084">
        <ele>129.54</ele>
        <time>2015-10-11T09:11:57Z</time>
      </trkpt>
      <trkpt lat="49.3311" lon="0.8808">
        <ele>129.68</ele>
        <time>2015-10-11T09:11:59Z</time>
      </trkpt>
      <trkpt lat="49.33102" lon="0.88079">
        <ele>129.81</ele>
        <time>2015-10-11T09:12:01Z</time>
      </trkpt>
      <trkpt lat="49.33094" lon="0.88076">
        <ele>129.72</ele>
        <time>2015-10-11T09:12:03Z</time>
      </trkpt>
      <trkpt lat="49.33087" lon="0.88073">
        <ele>130</ele>
        <time>2015-10-11T09:12:05Z</time>
      </trkpt>
      <trkpt lat="49.33079" lon="0.88071">
        <ele>130.19</ele>
        <time>2015-10-11T09:12:07Z</time>
      </trkpt>
      <trkpt lat="49.33071" lon="0.8807">
        <ele>130.32</ele>
        <time>2015-10-11T09:12:09Z</time>
      </trkpt>
      <trkpt lat="49.33064" lon="0.88067">
        <ele>129.94</ele>
        <time>2015-10-11T09:12:11Z</time>
      </trkpt>
      <trkpt lat="49.33058" lon="0.88061">
        <ele>129.74</ele>
        <time>2015-10-11T09:12:13Z</time>
      </trkpt>
      <trkpt lat="49.3305" lon="0.88058">
        <ele>129.15</ele>
        <time>2015-10-11T09:12:15Z</time>
      </trkpt>
      <trkpt lat="49.33044" lon="0.88055">
        <ele>128.79</ele>
        <time>2015-10-11T09:12:17Z</time>
      </trkpt>
      <trkpt lat="49.33038" lon="0.88052">
        <ele>128.21</ele>
        <time>2015-10-11T09:12:19Z</time>
      </trkpt>
      <trkpt lat="49.33032" lon="0.88051">
        <ele>127.87</ele>
        <time>2015-10-11T09:12:21Z</time>
      </trkpt>
      <trkpt lat="49.33025" lon="0.88046">
        <ele>127.15</ele>
        <time>2015-10-11T09:12:22Z</time>
      </trkpt>
      <trkpt lat="49.33017" lon="0.88038">
        <ele>126.58</ele>
        <time>2015-10-11T09:12:24Z</time>
      </trkpt>
      <trkpt lat="49.3301" lon="0.8803">
        <ele>126.35</ele>
        <time>2015-10-11T09:12:26Z</time>
      </trkpt>
      <trkpt lat="49.33002" lon="0.88028">
        <ele>126.22</ele>
        <time>2015-10-11T09:12:28Z</time>
      </trkpt>
      <trkpt lat="49.32994" lon="0.88026">
        <ele>126.08</ele>
        <time>2015-10-11T09:12:30Z</time>
      </trkpt>
      <trkpt lat="49.32986" lon="0.88027">
        <ele>125.98</ele>
        <time>2015-10-11T09:12:32Z</time>
      </trkpt>
      <trkpt lat="49.3298" lon="0.88027">
        <ele>125.94</ele>
        <time>2015-10-11T09:12:34Z</time>
      </trkpt>
      <trkpt lat="49.32973" lon="0.88026">
        <ele>126.07</ele>
        <time>2015-10-11T09:12:36Z</time>
      </trkpt>
      <trkpt lat="49.32966" lon="0.88022">
        <ele>126</ele>
        <time>2015-10-11T09:12:38Z</time>
      </trkpt>
      <trkpt lat="49.32958" lon="0.8802">
        <ele>126.25</ele>
        <time>2015-10-11T09:12:40Z</time>
      </trkpt>
      <trkpt lat="49.32949" lon="0.88019">
        <ele>126.3</ele>
        <time>2015-10-11T09:12:42Z</time>
      </trkpt>
      <trkpt lat="49.3294" lon="0.88018">
        <ele>126.38</ele>
        <time>2015-10-11T09:12:44Z</time>
      </trkpt>
      <trkpt lat="49.32932" lon="0.88014">
        <ele>126.18</ele>
        <time>2015-10-11T09:12:46Z</time>
      </trkpt>
      <trkpt lat="49.32923" lon="0.88007">
        <ele>125.95</ele>
        <time>2015-10-11T09:12:48Z</time>
      </trkpt>
      <trkpt lat="49.32915" lon="0.88005">
        <ele>125.76</ele>
        <time>2015-10-11T09:12:50Z</time>
      </trkpt>
      <trkpt lat="49.32908" lon="0.88005">
        <ele>125.62</ele>
        <time>2015-10-11T09:12:52Z</time>
      </trkpt>
      <trkpt lat="49.32899" lon="0.88006">
        <ele>125.38</ele>
        <time>2015-10-11T09:12:54Z</time>
      </trkpt>
      <trkpt lat="49.32891" lon="0.88006">
        <ele>125.72</ele>
        <time>2015-10-11T09:12:56Z</time>
      </trkpt>
      <trkpt lat="49.32883" lon="0.88003">
        <ele>125.89</ele>
        <time>2015-10-11T09:12:58Z</time>
      </trkpt>
      <trkpt lat="49.32875" lon="0.87998">
        <ele>125.94</ele>
        <time>2015-10-11T09:13:00Z</time>
      </trkpt>
      <trkpt lat="49.32869" lon="0.87994">
        <ele>125.93</ele>
        <time>2015-10-11T09:13:02Z</time>
      </trkpt>
      <trkpt lat="49.32863" lon="0.87989">
        <ele>125.94</ele>
        <time>2015-10-11T09:13:04Z</time>
      </trkpt>
      <trkpt lat="49.32857" lon="0.87985">
        <ele>126.08</ele>
        <time>2015-10-11T09:13:06Z</time>
      </trkpt>
      <trkpt lat="49.32851" lon="0.87988">
        <ele>126.16</ele>
        <time>2015-10-11T09:13:08Z</time>
      </trkpt>
      <trkpt lat="49.32845" lon="0.87987">
        <ele>125.9</ele>
        <time>2015-10-11T09:13:10Z</time>
      </trkpt>
      <trkpt lat="49.32838" lon="0.87985">
        <ele>125.66</ele>
        <time>2015-10-11T09:13:12Z</time>
      </trkpt>
      <trkpt lat="49.32829" lon="0.87983">
        <ele>124.59</ele>
        <time>2015-10-11T09:13:14Z</time>
      </trkpt>
      <trkpt lat="49.32821" lon="0.8798">
        <ele>123.82</ele>
        <time>2015-10-11T09:13:16Z</time>
      </trkpt>
      <trkpt lat="49.32813" lon="0.87977">
        <ele>123.31</ele>
        <time>2015-10-11T09:13:18Z</time>
      </trkpt>
      <trkpt lat="49.32805" lon="0.87974">
        <ele>122.3</ele>
        <time>2015-10-11T09:13:20Z</time>
      </trkpt>
      <trkpt lat="49.32798" lon="0.87971">
        <ele>121.72</ele>
        <time>2015-10-11T09:13:22Z</time>
      </trkpt>
      <trkpt lat="49.32791" lon="0.87966">
        <ele>121.44</ele>
        <time>2015-10-11T09:13:24Z</time>
      </trkpt>
      <trkpt lat="49.32785" lon="0.87961">
        <ele>121.31</ele>
        <time>2015-10-11T09:13:26Z</time>
      </trkpt>
      <trkpt lat="49.32777" lon="0.87958">
        <ele>121.23</ele>
        <time>2015-10-11T09:13:28Z</time>
      </trkpt>
      <trkpt lat="49.32771" lon="0.87953">
        <ele>121.19</ele>
        <time>2015-10-11T09:13:30Z</time>
      </trkpt>
      <trkpt lat="49.32763" lon="0.87946">
        <ele>121.22</ele>
        <time>2015-10-11T09:13:32Z</time>
      </trkpt>
      <trkpt lat="49.32754" lon="0.87944">
        <ele>121.44</ele>
        <time>2015-10-11T09:13:34Z</time>
      </trkpt>
      <trkpt lat="49.32745" lon="0.87937">
        <ele>121.32</ele>
        <time>2015-10-11T09:13:36Z</time>
      </trkpt>
      <trkpt lat="49.32736" lon="0.87928">
        <ele>120.74</ele>
        <time>2015-10-11T09:13:38Z</time>
      </trkpt>
      <trkpt lat="49.32727" lon="0.87926">
        <ele>119.67</ele>
        <time>2015-10-11T09:13:40Z</time>
      </trkpt>
      <trkpt lat="49.32716" lon="0.87924">
        <ele>119.44</ele>
        <time>2015-10-11T09:13:42Z</time>
      </trkpt>
      <trkpt lat="49.32704" lon="0.8792">
        <ele>119.59</ele>
        <time>2015-10-11T09:13:44Z</time>
      </trkpt>
      <trkpt lat="49.32693" lon="0.87916">
        <ele>119.27</ele>
        <time>2015-10-11T09:13:46Z</time>
      </trkpt>
      <trkpt lat="49.32681" lon="0.87909">
        <ele>118.98</ele>
        <time>2015-10-11T09:13:48Z</time>
      </trkpt>
      <trkpt lat="49.32671" lon="0.87904">
        <ele>118.66</ele>
        <time>2015-10-11T09:13:50Z</time>
      </trkpt>
      <trkpt lat="49.32661" lon="0.87904">
        <ele>119.19</ele>
        <time>2015-10-11T09:13:52Z</time>
      </trkpt>
      <trkpt lat="49.3265" lon="0.87898">
        <ele>120.33</ele>
        <time>2015-10-11T09:13:54Z</time>
      </trkpt>
      <trkpt lat="49.32637" lon="0.87892">
        <ele>120.35</ele>
        <time>2015-10-11T09:13:56Z</time>
      </trkpt>
      <trkpt lat="49.32625" lon="0.87887">
        <ele>119.75</ele>
        <time>2015-10-11T09:13:58Z</time>
      </trkpt>
      <trkpt lat="49.32611" lon="0.87884">
        <ele>119.32</ele>
        <time>2015-10-11T09:14:00Z</time>
      </trkpt>
      <trkpt lat="49.32598" lon="0.87881">
        <ele>118.86</ele>
        <time>2015-10-11T09:14:02Z</time>
      </trkpt>
      <trkpt lat="49.32587" lon="0.87875">
        <ele>118.24</ele>
        <time>2015-10-11T09:14:04Z</time>
      </trkpt>
      <trkpt lat="49.32576" lon="0.8787">
        <ele>117.96</ele>
        <time>2015-10-11T09:14:06Z</time>
      </trkpt>
      <trkpt lat="49.32564" lon="0.87868">
        <ele>117.12</ele>
        <time>2015-10-11T09:14:08Z</time>
      </trkpt>
      <trkpt lat="49.3255" lon="0.87864">
        <ele>116.46</ele>
        <time>2015-10-11T09:14:10Z</time>
      </trkpt>
      <trkpt lat="49.32539" lon="0.87861">
        <ele>115.56</ele>
        <time>2015-10-11T09:14:12Z</time>
      </trkpt>
      <trkpt lat="49.32527" lon="0.87855">
        <ele>115.12</ele>
        <time>2015-10-11T09:14:14Z</time>
      </trkpt>
      <trkpt lat="49.32514" lon="0.87851">
        <ele>114.73</ele>
        <time>2015-10-11T09:14:16Z</time>
      </trkpt>
      <trkpt lat="49.32501" lon="0.87844">
        <ele>114.59</ele>
        <time>2015-10-11T09:14:18Z</time>
      </trkpt>
      <trkpt lat="49.32487" lon="0.87838">
        <ele>114.02</ele>
        <time>2015-10-11T09:14:20Z</time>
      </trkpt>
      <trkpt lat="49.32474" lon="0.87836">
        <ele>113</ele>
        <time>2015-10-11T09:14:22Z</time>
      </trkpt>
      <trkpt lat="49.32458" lon="0.87833">
        <ele>111.38</ele>
        <time>2015-10-11T09:14:24Z</time>
      </trkpt>
      <trkpt lat="49.32445" lon="0.87829">
        <ele>109.69</ele>
        <time>2015-10-11T09:14:26Z</time>
      </trkpt>
      <trkpt lat="49.32431" lon="0.87825">
        <ele>108.59</ele>
        <time>2015-10-11T09:14:28Z</time>
      </trkpt>
      <trkpt lat="49.32422" lon="0.87818">
        <ele>108.12</ele>
        <time>2015-10-11T09:14:30Z</time>
      </trkpt>
      <trkpt lat="49.32416" lon="0.87819">
        <ele>108.03</ele>
        <time>2015-10-11T09:14:32Z</time>
      </trkpt>
      <trkpt lat="49.32407" lon="0.87821">
        <ele>108.22</ele>
        <time>2015-10-11T09:14:34Z</time>
      </trkpt>
      <trkpt lat="49.32396" lon="0.87818">
        <ele>110.67</ele>
        <time>2015-10-11T09:14:36Z</time>
      </trkpt>
      <trkpt lat="49.32385" lon="0.87817">
        <ele>113.91</ele>
        <time>2015-10-11T09:14:38Z</time>
      </trkpt>
      <trkpt lat="49.32375" lon="0.87812">
        <ele>117.3</ele>
        <time>2015-10-11T09:14:40Z</time>
      </trkpt>
      <trkpt lat="49.32364" lon="0.87808">
        <ele>119.24</ele>
        <time>2015-10-11T09:14:42Z</time>
      </trkpt>
      <trkpt lat="49.32354" lon="0.87805">
        <ele>120.2</ele>
        <time>2015-10-11T09:14:44Z</time>
      </trkpt>
      <trkpt lat="49.32341" lon="0.87804">
        <ele>120.62</ele>
        <time>2015-10-11T09:14:46Z</time>
      </trkpt>
      <trkpt lat="49.32332" lon="0.87805">
        <ele>120.77</ele>
        <time>2015-10-11T09:14:48Z</time>
      </trkpt>
      <trkpt lat="49.3232" lon="0.87799">
        <ele>120.63</ele>
        <time>2015-10-11T09:14:50Z</time>
      </trkpt>
      <trkpt lat="49.32307" lon="0.87789">
        <ele>120.79</ele>
        <time>2015-10-11T09:14:52Z</time>
      </trkpt>
      <trkpt lat="49.32294" lon="0.87779">
        <ele>120.86</ele>
        <time>2015-10-11T09:14:54Z</time>
      </trkpt>
      <trkpt lat="49.3228" lon="0.87768">
        <ele>120.98</ele>
        <time>2015-10-11T09:14:56Z</time>
      </trkpt>
      <trkpt lat="49.32265" lon="0.87758">
        <ele>120.82</ele>
        <time>2015-10-11T09:14:58Z</time>
      </trkpt>
      <trkpt lat="49.32251" lon="0.87749">
        <ele>120.47</ele>
        <time>2015-10-11T09:15:00Z</time>
      </trkpt>
      <trkpt lat="49.32237" lon="0.8774">
        <ele>119.69</ele>
        <time>2015-10-11T09:15:02Z</time>
      </trkpt>
      <trkpt lat="49.32221" lon="0.87729">
        <ele>118.71</ele>
        <time>2015-10-11T09:15:04Z</time>
      </trkpt>
      <trkpt lat="49.32205" lon="0.8772">
        <ele>118.01</ele>
        <time>2015-10-11T09:15:06Z</time>
      </trkpt>
      <trkpt lat="49.3219" lon="0.87711">
        <ele>117.23</ele>
        <time>2015-10-11T09:15:08Z</time>
      </trkpt>
      <trkpt lat="49.32177" lon="0.877">
        <ele>116.49</ele>
        <time>2015-10-11T09:15:10Z</time>
      </trkpt>
      <trkpt lat="49.32164" lon="0.87686">
        <ele>115.35</ele>
        <time>2015-10-11T09:15:12Z</time>
      </trkpt>
      <trkpt lat="49.32153" lon="0.87667">
        <ele>114.18</ele>
        <time>2015-10-11T09:15:14Z</time>
      </trkpt>
      <trkpt lat="49.32141" lon="0.87649">
        <ele>112.77</ele>
        <time>2015-10-11T09:15:16Z</time>
      </trkpt>
      <trkpt lat="49.32126" lon="0.87632">
        <ele>111.19</ele>
        <time>2015-10-11T09:15:18Z</time>
      </trkpt>
      <trkpt lat="49.32111" lon="0.87626">
        <ele>109.79</ele>
        <time>2015-10-11T09:15:20Z</time>
      </trkpt>
      <trkpt lat="49.32101" lon="0.8762">
        <ele>108.34</ele>
        <time>2015-10-11T09:15:22Z</time>
      </trkpt>
      <trkpt lat="49.32093" lon="0.87611">
        <ele>107.38</ele>
        <time>2015-10-11T09:15:24Z</time>
      </trkpt>
      <trkpt lat="49.32087" lon="0.87605">
        <ele>106.89</ele>
        <time>2015-10-11T09:15:26Z</time>
      </trkpt>
      <trkpt lat="49.32077" lon="0.87598">
        <ele>106.57</ele>
        <time>2015-10-11T09:15:28Z</time>
      </trkpt>
      <trkpt lat="49.32067" lon="0.8759">
        <ele>106.49</ele>
        <time>2015-10-11T09:15:30Z</time>
      </trkpt>
      <trkpt lat="49.32057" lon="0.87582">
        <ele>106.55</ele>
        <time>2015-10-11T09:15:32Z</time>
      </trkpt>
      <trkpt lat="49.32046" lon="0.87573">
        <ele>106.84</ele>
        <time>2015-10-11T09:15:34Z</time>
      </trkpt>
      <trkpt lat="49.32035" lon="0.87565">
        <ele>107.19</ele>
        <time>2015-10-11T09:15:36Z</time>
      </trkpt>
      <trkpt lat="49.32024" lon="0.87556">
        <ele>107.27</ele>
        <time>2015-10-11T09:15:38Z</time>
      </trkpt>
      <trkpt lat="49.32013" lon="0.87547">
        <ele>107.03</ele>
        <time>2015-10-11T09:15:40Z</time>
      </trkpt>
      <trkpt lat="49.32004" lon="0.87537">
        <ele>106.71</ele>
        <time>2015-10-11T09:15:42Z</time>
      </trkpt>
      <trkpt lat="49.31992" lon="0.87526">
        <ele>106.29</ele>
        <time>2015-10-11T09:15:44Z</time>
      </trkpt>
      <trkpt lat="49.31982" lon="0.87515">
        <ele>105.9</ele>
        <time>2015-10-11T09:15:46Z</time>
      </trkpt>
      <trkpt lat="49.31972" lon="0.87504">
        <ele>105.39</ele>
        <time>2015-10-11T09:15:48Z</time>
      </trkpt>
      <trkpt lat="49.31962" lon="0.87494">
        <ele>104.61</ele>
        <time>2015-10-11T09:15:50Z</time>
      </trkpt>
      <trkpt lat="49.31954" lon="0.87485">
        <ele>104.25</ele>
        <time>2015-10-11T09:15:52Z</time>
      </trkpt>
      <trkpt lat="49.31946" lon="0.87475">
        <ele>104.38</ele>
        <time>2015-10-11T09:15:54Z</time>
      </trkpt>
      <trkpt lat="49.31939" lon="0.87466">
        <ele>105.06</ele>
        <time>2015-10-11T09:15:56Z</time>
      </trkpt>
      <trkpt lat="49.31931" lon="0.87457">
        <ele>105.8</ele>
        <time>2015-10-11T09:15:58Z</time>
      </trkpt>
      <trkpt lat="49.31924" lon="0.87448">
        <ele>106.54</ele>
        <time>2015-10-11T09:16:00Z</time>
      </trkpt>
      <trkpt lat="49.31916" lon="0.87439">
        <ele>107.46</ele>
        <time>2015-10-11T09:16:02Z</time>
      </trkpt>
      <trkpt lat="49.31908" lon="0.8743">
        <ele>107.69</ele>
        <time>2015-10-11T09:16:04Z</time>
      </trkpt>
      <trkpt lat="49.31901" lon="0.87421">
        <ele>107.77</ele>
        <time>2015-10-11T09:16:06Z</time>
      </trkpt>
      <trkpt lat="49.31895" lon="0.87415">
        <ele>108.08</ele>
        <time>2015-10-11T09:16:08Z</time>
      </trkpt>
      <trkpt lat="49.31888" lon="0.87408">
        <ele>108.61</ele>
        <time>2015-10-11T09:16:10Z</time>
      </trkpt>
      <trkpt lat="49.31882" lon="0.874">
        <ele>109.26</ele>
        <time>2015-10-11T09:16:12Z</time>
      </trkpt>
      <trkpt lat="49.31877" lon="0.87393">
        <ele>109.59</ele>
        <time>2015-10-11T09:16:14Z</time>
      </trkpt>
      <trkpt lat="49.31872" lon="0.87388">
        <ele>110.47</ele>
        <time>2015-10-11T09:16:16Z</time>
      </trkpt>
      <trkpt lat="49.31866" lon="0.87382">
        <ele>111.61</ele>
        <time>2015-10-11T09:16:18Z</time>
      </trkpt>
      <trkpt lat="49.3186" lon="0.87376">
        <ele>112.23</ele>
        <time>2015-10-11T09:16:20Z</time>
      </trkpt>
      <trkpt lat="49.31854" lon="0.87369">
        <ele>112.6</ele>
        <time>2015-10-11T09:16:22Z</time>
      </trkpt>
      <trkpt lat="49.31847" lon="0.87364">
        <ele>112.82</ele>
        <time>2015-10-11T09:16:24Z</time>
      </trkpt>
      <trkpt lat="49.31841" lon="0.8736">
        <ele>113</ele>
        <time>2015-10-11T09:16:26Z</time>
      </trkpt>
      <trkpt lat="49.31834" lon="0.87357">
        <ele>113.38</ele>
        <time>2015-10-11T09:16:28Z</time>
      </trkpt>
      <trkpt lat="49.31827" lon="0.87352">
        <ele>113.57</ele>
        <time>2015-10-11T09:16:30Z</time>
      </trkpt>
      <trkpt lat="49.3182" lon="0.87348">
        <ele>113.65</ele>
        <time>2015-10-11T09:16:32Z</time>
      </trkpt>
      <trkpt lat="49.31815" lon="0.87343">
        <ele>113.71</ele>
        <time>2015-10-11T09:16:34Z</time>
      </trkpt>
      <trkpt lat="49.31809" lon="0.87338">
        <ele>113.76</ele>
        <time>2015-10-11T09:16:36Z</time>
      </trkpt>
      <trkpt lat="49.31802" lon="0.87332">
        <ele>113.78</ele>
        <time>2015-10-11T09:16:38Z</time>
      </trkpt>
      <trkpt lat="49.31795" lon="0.87326">
        <ele>113.82</ele>
        <time>2015-10-11T09:16:40Z</time>
      </trkpt>
      <trkpt lat="49.31788" lon="0.8732">
        <ele>113.86</ele>
        <time>2015-10-11T09:16:42Z</time>
      </trkpt>
      <trkpt lat="49.31782" lon="0.87315">
        <ele>113.91</ele>
        <time>2015-10-11T09:16:44Z</time>
      </trkpt>
      <trkpt lat="49.31776" lon="0.87312">
        <ele>114</ele>
        <time>2015-10-11T09:16:46Z</time>
      </trkpt>
      <trkpt lat="49.31769" lon="0.87308">
        <ele>114.43</ele>
        <time>2015-10-11T09:16:48Z</time>
      </trkpt>
      <trkpt lat="49.31761" lon="0.87306">
        <ele>114.7</ele>
        <time>2015-10-11T09:16:50Z</time>
      </trkpt>
      <trkpt lat="49.31754" lon="0.87306">
        <ele>115.12</ele>
        <time>2015-10-11T09:16:52Z</time>
      </trkpt>
      <trkpt lat="49.31748" lon="0.87305">
        <ele>115.39</ele>
        <time>2015-10-11T09:16:54Z</time>
      </trkpt>
      <trkpt lat="49.31742" lon="0.87304">
        <ele>116.05</ele>
        <time>2015-10-11T09:16:56Z</time>
      </trkpt>
      <trkpt lat="49.31735" lon="0.87302">
        <ele>116.35</ele>
        <time>2015-10-11T09:16:58Z</time>
      </trkpt>
      <trkpt lat="49.31728" lon="0.87299">
        <ele>116.7</ele>
        <time>2015-10-11T09:17:00Z</time>
      </trkpt>
      <trkpt lat="49.3172" lon="0.87297">
        <ele>117.25</ele>
        <time>2015-10-11T09:17:02Z</time>
      </trkpt>
      <trkpt lat="49.31713" lon="0.87295">
        <ele>117.57</ele>
        <time>2015-10-11T09:17:04Z</time>
      </trkpt>
      <trkpt lat="49.31705" lon="0.87291">
        <ele>118.21</ele>
        <time>2015-10-11T09:17:06Z</time>
      </trkpt>
      <trkpt lat="49.31698" lon="0.87287">
        <ele>118.54</ele>
        <time>2015-10-11T09:17:08Z</time>
      </trkpt>
      <trkpt lat="49.31692" lon="0.87284">
        <ele>118.75</ele>
        <time>2015-10-11T09:17:10Z</time>
      </trkpt>
      <trkpt lat="49.31684" lon="0.87279">
        <ele>118.84</ele>
        <time>2015-10-11T09:17:12Z</time>
      </trkpt>
      <trkpt lat="49.31676" lon="0.87275">
        <ele>118.88</ele>
        <time>2015-10-11T09:17:14Z</time>
      </trkpt>
      <trkpt lat="49.3167" lon="0.87272">
        <ele>118.89</ele>
        <time>2015-10-11T09:17:16Z</time>
      </trkpt>
      <trkpt lat="49.31663" lon="0.87269">
        <ele>118.87</ele>
        <time>2015-10-11T09:17:18Z</time>
      </trkpt>
      <trkpt lat="49.31655" lon="0.87267">
        <ele>118.85</ele>
        <time>2015-10-11T09:17:20Z</time>
      </trkpt>
      <trkpt lat="49.31648" lon="0.87266">
        <ele>118.84</ele>
        <time>2015-10-11T09:17:22Z</time>
      </trkpt>
      <trkpt lat="49.31642" lon="0.87265">
        <ele>118.93</ele>
        <time>2015-10-11T09:17:24Z</time>
      </trkpt>
      <trkpt lat="49.31636" lon="0.87263">
        <ele>119.03</ele>
        <time>2015-10-11T09:17:26Z</time>
      </trkpt>
      <trkpt lat="49.3163" lon="0.8726">
        <ele>119.18</ele>
        <time>2015-10-11T09:17:28Z</time>
      </trkpt>
      <trkpt lat="49.31622" lon="0.87255">
        <ele>119.36</ele>
        <time>2015-10-11T09:17:30Z</time>
      </trkpt>
      <trkpt lat="49.31615" lon="0.87251">
        <ele>119.59</ele>
        <time>2015-10-11T09:17:32Z</time>
      </trkpt>
      <trkpt lat="49.31609" lon="0.87248">
        <ele>119.81</ele>
        <time>2015-10-11T09:17:34Z</time>
      </trkpt>
      <trkpt lat="49.31602" lon="0.87243">
        <ele>120.05</ele>
        <time>2015-10-11T09:17:36Z</time>
      </trkpt>
      <trkpt lat="49.31595" lon="0.87239">
        <ele>121.58</ele>
        <time>2015-10-11T09:17:38Z</time>
      </trkpt>
      <trkpt lat="49.31588" lon="0.87232">
        <ele>122.88</ele>
        <time>2015-10-11T09:17:40Z</time>
      </trkpt>
      <trkpt lat="49.31581" lon="0.87226">
        <ele>124.06</ele>
        <time>2015-10-11T09:17:42Z</time>
      </trkpt>
      <trkpt lat="49.31574" lon="0.87219">
        <ele>125</ele>
        <time>2015-10-11T09:17:44Z</time>
      </trkpt>
      <trkpt lat="49.31567" lon="0.87212">
        <ele>125.73</ele>
        <time>2015-10-11T09:17:46Z</time>
      </trkpt>
      <trkpt lat="49.31561" lon="0.87204">
        <ele>126.37</ele>
        <time>2015-10-11T09:17:48Z</time>
      </trkpt>
      <trkpt lat="49.31555" lon="0.87196">
        <ele>126.68</ele>
        <time>2015-10-11T09:17:50Z</time>
      </trkpt>
      <trkpt lat="49.3155" lon="0.87187">
        <ele>126.68</ele>
        <time>2015-10-11T09:17:52Z</time>
      </trkpt>
      <trkpt lat="49.31544" lon="0.87178">
        <ele>126.43</ele>
        <time>2015-10-11T09:17:54Z</time>
      </trkpt>
      <trkpt lat="49.31538" lon="0.87171">
        <ele>126.49</ele>
        <time>2015-10-11T09:17:56Z</time>
      </trkpt>
      <trkpt lat="49.31531" lon="0.87163">
        <ele>127.02</ele>
        <time>2015-10-11T09:17:58Z</time>
      </trkpt>
      <trkpt lat="49.31524" lon="0.87155">
        <ele>127.49</ele>
        <time>2015-10-11T09:18:00Z</time>
      </trkpt>
      <trkpt lat="49.31516" lon="0.87148">
        <ele>127.61</ele>
        <time>2015-10-11T09:18:02Z</time>
      </trkpt>
      <trkpt lat="49.31507" lon="0.87141">
        <ele>127.56</ele>
        <time>2015-10-11T09:18:04Z</time>
      </trkpt>
      <trkpt lat="49.31498" lon="0.87135">
        <ele>127.31</ele>
        <time>2015-10-11T09:18:06Z</time>
      </trkpt>
      <trkpt lat="49.31489" lon="0.87131">
        <ele>127.15</ele>
        <time>2015-10-11T09:18:08Z</time>
      </trkpt>
      <trkpt lat="49.31479" lon="0.87128">
        <ele>127.04</ele>
        <time>2015-10-11T09:18:10Z</time>
      </trkpt>
      <trkpt lat="49.31468" lon="0.87126">
        <ele>127</ele>
        <time>2015-10-11T09:18:12Z</time>
      </trkpt>
      <trkpt lat="49.31459" lon="0.87125">
        <ele>127.41</ele>
        <time>2015-10-11T09:18:14Z</time>
      </trkpt>
      <trkpt lat="49.31448" lon="0.87123">
        <ele>128.35</ele>
        <time>2015-10-11T09:18:16Z</time>
      </trkpt>
      <trkpt lat="49.31437" lon="0.87121">
        <ele>128.95</ele>
        <time>2015-10-11T09:18:18Z</time>
      </trkpt>
      <trkpt lat="49.31428" lon="0.87118">
        <ele>129.65</ele>
        <time>2015-10-11T09:18:20Z</time>
      </trkpt>
      <trkpt lat="49.31417" lon="0.87117">
        <ele>130.4</ele>
        <time>2015-10-11T09:18:22Z</time>
      </trkpt>
      <trkpt lat="49.31406" lon="0.87116">
        <ele>130.64</ele>
        <time>2015-10-11T09:18:24Z</time>
      </trkpt>
      <trkpt lat="49.31395" lon="0.87113">
        <ele>130.46</ele>
        <time>2015-10-11T09:18:26Z</time>
      </trkpt>
      <trkpt lat="49.31384" lon="0.8711">
        <ele>130.27</ele>
        <time>2015-10-11T09:18:28Z</time>
      </trkpt>
      <trkpt lat="49.31372" lon="0.87106">
        <ele>129.95</ele>
        <time>2015-10-11T09:18:30Z</time>
      </trkpt>
      <trkpt lat="49.31359" lon="0.87105">
        <ele>129.31</ele>
        <time>2015-10-11T09:18:32Z</time>
      </trkpt>
      <trkpt lat="49.31347" lon="0.87109">
        <ele>128.83</ele>
        <time>2015-10-11T09:18:34Z</time>
      </trkpt>
      <trkpt lat="49.31335" lon="0.87114">
        <ele>128.91</ele>
        <time>2015-10-11T09:18:36Z</time>
      </trkpt>
      <trkpt lat="49.31325" lon="0.8712">
        <ele>129.17</ele>
        <time>2015-10-11T09:18:38Z</time>
      </trkpt>
      <trkpt lat="49.31313" lon="0.87125">
        <ele>129.31</ele>
        <time>2015-10-11T09:18:40Z</time>
      </trkpt>
      <trkpt lat="49.31302" lon="0.87132">
        <ele>129.41</ele>
        <time>2015-10-11T09:18:42Z</time>
      </trkpt>
      <trkpt lat="49.31292" lon="0.87138">
        <ele>129.51</ele>
        <time>2015-10-11T09:18:44Z</time>
      </trkpt>
      <trkpt lat="49.3128" lon="0.87146">
        <ele>129.44</ele>
        <time>2015-10-11T09:18:46Z</time>
      </trkpt>
      <trkpt lat="49.31269" lon="0.87152">
        <ele>129.4</ele>
        <time>2015-10-11T09:18:48Z</time>
      </trkpt>
      <trkpt lat="49.31257" lon="0.87158">
        <ele>129.18</ele>
        <time>2015-10-11T09:18:50Z</time>
      </trkpt>
      <trkpt lat="49.31246" lon="0.87164">
        <ele>128.86</ele>
        <time>2015-10-11T09:18:52Z</time>
      </trkpt>
      <trkpt lat="49.31236" lon="0.87168">
        <ele>128.3</ele>
        <time>2015-10-11T09:18:54Z</time>
      </trkpt>
      <trkpt lat="49.31227" lon="0.87169">
        <ele>127.57</ele>
        <time>2015-10-11T09:18:56Z</time>
      </trkpt>
      <trkpt lat="49.31219" lon="0.87178">
        <ele>126.73</ele>
        <time>2015-10-11T09:18:58Z</time>
      </trkpt>
      <trkpt lat="49.31219" lon="0.87195">
        <ele>125.05</ele>
        <time>2015-10-11T09:19:00Z</time>
      </trkpt>
      <trkpt lat="49.31219" lon="0.87212">
        <ele>123.4</ele>
        <time>2015-10-11T09:19:02Z</time>
      </trkpt>
      <trkpt lat="49.3122" lon="0.87232">
        <ele>122.21</ele>
        <time>2015-10-11T09:19:04Z</time>
      </trkpt>
      <trkpt lat="49.31223" lon="0.87251">
        <ele>121.31</ele>
        <time>2015-10-11T09:19:06Z</time>
      </trkpt>
      <trkpt lat="49.31228" lon="0.87271">
        <ele>120.42</ele>
        <time>2015-10-11T09:19:08Z</time>
      </trkpt>
      <trkpt lat="49.31232" lon="0.87288">
        <ele>119.8</ele>
        <time>2015-10-11T09:19:10Z</time>
      </trkpt>
      <trkpt lat="49.31237" lon="0.87305">
        <ele>119.33</ele>
        <time>2015-10-11T09:19:12Z</time>
      </trkpt>
      <trkpt lat="49.31243" lon="0.87324">
        <ele>118.64</ele>
        <time>2015-10-11T09:19:14Z</time>
      </trkpt>
      <trkpt lat="49.31249" lon="0.87342">
        <ele>118.17</ele>
        <time>2015-10-11T09:19:16Z</time>
      </trkpt>
      <trkpt lat="49.31255" lon="0.87357">
        <ele>117.91</ele>
        <time>2015-10-11T09:19:18Z</time>
      </trkpt>
      <trkpt lat="49.31259" lon="0.87362">
        <ele>117.76</ele>
        <time>2015-10-11T09:19:20Z</time>
      </trkpt>
      <trkpt lat="49.31264" lon="0.87365">
        <ele>117.64</ele>
        <time>2015-10-11T09:19:22Z</time>
      </trkpt>
      <trkpt lat="49.31257" lon="0.8736">
        <ele>118.47</ele>
        <time>2015-10-11T09:19:34Z</time>
      </trkpt>
      <trkpt lat="49.31254" lon="0.87351">
        <ele>119.14</ele>
        <time>2015-10-11T09:19:38Z</time>
      </trkpt>
      <trkpt lat="49.31251" lon="0.87343">
        <ele>119.45</ele>
        <time>2015-10-11T09:19:40Z</time>
      </trkpt>
      <trkpt lat="49.31248" lon="0.87334">
        <ele>120.73</ele>
        <time>2015-10-11T09:19:42Z</time>
      </trkpt>
      <trkpt lat="49.31244" lon="0.87323">
        <ele>121.83</ele>
        <time>2015-10-11T09:19:44Z</time>
      </trkpt>
      <trkpt lat="49.3124" lon="0.8731">
        <ele>122.54</ele>
        <time>2015-10-11T09:19:46Z</time>
      </trkpt>
      <trkpt lat="49.31236" lon="0.87297">
        <ele>123.19</ele>
        <time>2015-10-11T09:19:48Z</time>
      </trkpt>
      <trkpt lat="49.31232" lon="0.87284">
        <ele>123.77</ele>
        <time>2015-10-11T09:19:50Z</time>
      </trkpt>
      <trkpt lat="49.31227" lon="0.8727">
        <ele>124.2</ele>
        <time>2015-10-11T09:19:52Z</time>
      </trkpt>
      <trkpt lat="49.31224" lon="0.87257">
        <ele>124.67</ele>
        <time>2015-10-11T09:19:54Z</time>
      </trkpt>
      <trkpt lat="49.31221" lon="0.87245">
        <ele>125.1</ele>
        <time>2015-10-11T09:19:56Z</time>
      </trkpt>
      <trkpt lat="49.31219" lon="0.87233">
        <ele>125.25</ele>
        <time>2015-10-11T09:19:58Z</time>
      </trkpt>
      <trkpt lat="49.31216" lon="0.87219">
        <ele>125.4</ele>
        <time>2015-10-11T09:20:00Z</time>
      </trkpt>
      <trkpt lat="49.31215" lon="0.87205">
        <ele>125.87</ele>
        <time>2015-10-11T09:20:02Z</time>
      </trkpt>
      <trkpt lat="49.31213" lon="0.87192">
        <ele>126.19</ele>
        <time>2015-10-11T09:20:04Z</time>
      </trkpt>
      <trkpt lat="49.31212" lon="0.87181">
        <ele>126.47</ele>
        <time>2015-10-11T09:20:06Z</time>
      </trkpt>
      <trkpt lat="49.3121" lon="0.87173">
        <ele>126.64</ele>
        <time>2015-10-11T09:20:08Z</time>
      </trkpt>
      <trkpt lat="49.31206" lon="0.87168">
        <ele>126.76</ele>
        <time>2015-10-11T09:20:10Z</time>
      </trkpt>
      <trkpt lat="49.31199" lon="0.87165">
        <ele>126.61</ele>
        <time>2015-10-11T09:20:12Z</time>
      </trkpt>
      <trkpt lat="49.31191" lon="0.87163">
        <ele>126.21</ele>
        <time>2015-10-11T09:20:14Z</time>
      </trkpt>
      <trkpt lat="49.3118" lon="0.87161">
        <ele>125.98</ele>
        <time>2015-10-11T09:20:16Z</time>
      </trkpt>
      <trkpt lat="49.3117" lon="0.87158">
        <ele>126.02</ele>
        <time>2015-10-11T09:20:18Z</time>
      </trkpt>
      <trkpt lat="49.31159" lon="0.8715">
        <ele>126.03</ele>
        <time>2015-10-11T09:20:20Z</time>
      </trkpt>
      <trkpt lat="49.31152" lon="0.87134">
        <ele>125.68</ele>
        <time>2015-10-11T09:20:22Z</time>
      </trkpt>
      <trkpt lat="49.31147" lon="0.87115">
        <ele>124.97</ele>
        <time>2015-10-11T09:20:24Z</time>
      </trkpt>
      <trkpt lat="49.31143" lon="0.87096">
        <ele>124.66</ele>
        <time>2015-10-11T09:20:26Z</time>
      </trkpt>
      <trkpt lat="49.31138" lon="0.87081">
        <ele>124.95</ele>
        <time>2015-10-11T09:20:28Z</time>
      </trkpt>
      <trkpt lat="49.31129" lon="0.87071">
        <ele>125.14</ele>
        <time>2015-10-11T09:20:30Z</time>
      </trkpt>
      <trkpt lat="49.31117" lon="0.87065">
        <ele>125.36</ele>
        <time>2015-10-11T09:20:32Z</time>
      </trkpt>
      <trkpt lat="49.31104" lon="0.87064">
        <ele>125.68</ele>
        <time>2015-10-11T09:20:34Z</time>
      </trkpt>
      <trkpt lat="49.3109" lon="0.87065">
        <ele>125.93</ele>
        <time>2015-10-11T09:20:36Z</time>
      </trkpt>
      <trkpt lat="49.31076" lon="0.87068">
        <ele>125.77</ele>
        <time>2015-10-11T09:20:38Z</time>
      </trkpt>
      <trkpt lat="49.31063" lon="0.87071">
        <ele>125.15</ele>
        <time>2015-10-11T09:20:40Z</time>
      </trkpt>
      <trkpt lat="49.31049" lon="0.87074">
        <ele>124.58</ele>
        <time>2015-10-11T09:20:42Z</time>
      </trkpt>
      <trkpt lat="49.31036" lon="0.87077">
        <ele>123.89</ele>
        <time>2015-10-11T09:20:44Z</time>
      </trkpt>
      <trkpt lat="49.31023" lon="0.8708">
        <ele>123.14</ele>
        <time>2015-10-11T09:20:46Z</time>
      </trkpt>
      <trkpt lat="49.31011" lon="0.87086">
        <ele>121.96</ele>
        <time>2015-10-11T09:20:48Z</time>
      </trkpt>
      <trkpt lat="49.30997" lon="0.87093">
        <ele>121.03</ele>
        <time>2015-10-11T09:20:50Z</time>
      </trkpt>
      <trkpt lat="49.30986" lon="0.87102">
        <ele>120.5</ele>
        <time>2015-10-11T09:20:52Z</time>
      </trkpt>
      <trkpt lat="49.30972" lon="0.87111">
        <ele>119.83</ele>
        <time>2015-10-11T09:20:54Z</time>
      </trkpt>
      <trkpt lat="49.30957" lon="0.87117">
        <ele>119.09</ele>
        <time>2015-10-11T09:20:56Z</time>
      </trkpt>
      <trkpt lat="49.30941" lon="0.87118">
        <ele>118.4</ele>
        <time>2015-10-11T09:20:58Z</time>
      </trkpt>
      <trkpt lat="49.30925" lon="0.87116">
        <ele>117.7</ele>
        <time>2015-10-11T09:21:00Z</time>
      </trkpt>
      <trkpt lat="49.30911" lon="0.87113">
        <ele>117.42</ele>
        <time>2015-10-11T09:21:02Z</time>
      </trkpt>
      <trkpt lat="49.30897" lon="0.87112">
        <ele>117.06</ele>
        <time>2015-10-11T09:21:04Z</time>
      </trkpt>
      <trkpt lat="49.30885" lon="0.87113">
        <ele>116.8</ele>
        <time>2015-10-11T09:21:06Z</time>
      </trkpt>
      <trkpt lat="49.30872" lon="0.87115">
        <ele>116.24</ele>
        <time>2015-10-11T09:21:08Z</time>
      </trkpt>
      <trkpt lat="49.30859" lon="0.8712">
        <ele>115.01</ele>
        <time>2015-10-11T09:21:10Z</time>
      </trkpt>
      <trkpt lat="49.30846" lon="0.87125">
        <ele>113.7</ele>
        <time>2015-10-11T09:21:12Z</time>
      </trkpt>
      <trkpt lat="49.30834" lon="0.87131">
        <ele>112.81</ele>
        <time>2015-10-11T09:21:14Z</time>
      </trkpt>
      <trkpt lat="49.30821" lon="0.87137">
        <ele>112.2</ele>
        <time>2015-10-11T09:21:16Z</time>
      </trkpt>
      <trkpt lat="49.30809" lon="0.87142">
        <ele>111.81</ele>
        <time>2015-10-11T09:21:18Z</time>
      </trkpt>
      <trkpt lat="49.30797" lon="0.87146">
        <ele>111.54</ele>
        <time>2015-10-11T09:21:20Z</time>
      </trkpt>
      <trkpt lat="49.30784" lon="0.87151">
        <ele>111.73</ele>
        <time>2015-10-11T09:21:22Z</time>
      </trkpt>
      <trkpt lat="49.30772" lon="0.87154">
        <ele>111.98</ele>
        <time>2015-10-11T09:21:24Z</time>
      </trkpt>
      <trkpt lat="49.3076" lon="0.87156">
        <ele>112.08</ele>
        <time>2015-10-11T09:21:26Z</time>
      </trkpt>
      <trkpt lat="49.30747" lon="0.87158">
        <ele>112.25</ele>
        <time>2015-10-11T09:21:28Z</time>
      </trkpt>
      <trkpt lat="49.30734" lon="0.87159">
        <ele>113.13</ele>
        <time>2015-10-11T09:21:30Z</time>
      </trkpt>
      <trkpt lat="49.30722" lon="0.87158">
        <ele>113.85</ele>
        <time>2015-10-11T09:21:32Z</time>
      </trkpt>
      <trkpt lat="49.30709" lon="0.87157">
        <ele>114.42</ele>
        <time>2015-10-11T09:21:34Z</time>
      </trkpt>
      <trkpt lat="49.30696" lon="0.87155">
        <ele>114.87</ele>
        <time>2015-10-11T09:21:36Z</time>
      </trkpt>
      <trkpt lat="49.30683" lon="0.87152">
        <ele>115.68</ele>
        <time>2015-10-11T09:21:38Z</time>
      </trkpt>
      <trkpt lat="49.30672" lon="0.87149">
        <ele>117.14</ele>
        <time>2015-10-11T09:21:40Z</time>
      </trkpt>
      <trkpt lat="49.30661" lon="0.87147">
        <ele>118.55</ele>
        <time>2015-10-11T09:21:42Z</time>
      </trkpt>
      <trkpt lat="49.3065" lon="0.87144">
        <ele>119.62</ele>
        <time>2015-10-11T09:21:44Z</time>
      </trkpt>
      <trkpt lat="49.30639" lon="0.87142">
        <ele>120.58</ele>
        <time>2015-10-11T09:21:46Z</time>
      </trkpt>
      <trkpt lat="49.30626" lon="0.87141">
        <ele>121.49</ele>
        <time>2015-10-11T09:21:48Z</time>
      </trkpt>
      <trkpt lat="49.30615" lon="0.8714">
        <ele>121.95</ele>
        <time>2015-10-11T09:21:50Z</time>
      </trkpt>
      <trkpt lat="49.30603" lon="0.8714">
        <ele>122.13</ele>
        <time>2015-10-11T09:21:52Z</time>
      </trkpt>
      <trkpt lat="49.30593" lon="0.87141">
        <ele>122.41</ele>
        <time>2015-10-11T09:21:54Z</time>
      </trkpt>
      <trkpt lat="49.30583" lon="0.87142">
        <ele>122.41</ele>
        <time>2015-10-11T09:21:56Z</time>
      </trkpt>
      <trkpt lat="49.30571" lon="0.87143">
        <ele>122.45</ele>
        <time>2015-10-11T09:21:58Z</time>
      </trkpt>
      <trkpt lat="49.3056" lon="0.87145">
        <ele>122.62</ele>
        <time>2015-10-11T09:22:00Z</time>
      </trkpt>
      <trkpt lat="49.3055" lon="0.87148">
        <ele>122.79</ele>
        <time>2015-10-11T09:22:02Z</time>
      </trkpt>
      <trkpt lat="49.3054" lon="0.8715">
        <ele>123.02</ele>
        <time>2015-10-11T09:22:04Z</time>
      </trkpt>
      <trkpt lat="49.3053" lon="0.87152">
        <ele>123.21</ele>
        <time>2015-10-11T09:22:06Z</time>
      </trkpt>
      <trkpt lat="49.30519" lon="0.87153">
        <ele>123.39</ele>
        <time>2015-10-11T09:22:08Z</time>
      </trkpt>
      <trkpt lat="49.30506" lon="0.87156">
        <ele>123.16</ele>
        <time>2015-10-11T09:22:10Z</time>
      </trkpt>
      <trkpt lat="49.30495" lon="0.87158">
        <ele>122.91</ele>
        <time>2015-10-11T09:22:12Z</time>
      </trkpt>
      <trkpt lat="49.30483" lon="0.87159">
        <ele>122.99</ele>
        <time>2015-10-11T09:22:14Z</time>
      </trkpt>
      <trkpt lat="49.3047" lon="0.87158">
        <ele>123.2</ele>
        <time>2015-10-11T09:22:16Z</time>
      </trkpt>
      <trkpt lat="49.30458" lon="0.87157">
        <ele>123.21</ele>
        <time>2015-10-11T09:22:18Z</time>
      </trkpt>
      <trkpt lat="49.30445" lon="0.87155">
        <ele>123.27</ele>
        <time>2015-10-11T09:22:20Z</time>
      </trkpt>
      <trkpt lat="49.30433" lon="0.87153">
        <ele>123.45</ele>
        <time>2015-10-11T09:22:22Z</time>
      </trkpt>
      <trkpt lat="49.3042" lon="0.8715">
        <ele>123.71</ele>
        <time>2015-10-11T09:22:24Z</time>
      </trkpt>
      <trkpt lat="49.30408" lon="0.87148">
        <ele>123.85</ele>
        <time>2015-10-11T09:22:26Z</time>
      </trkpt>
      <trkpt lat="49.30397" lon="0.87146">
        <ele>123.76</ele>
        <time>2015-10-11T09:22:28Z</time>
      </trkpt>
      <trkpt lat="49.30384" lon="0.87145">
        <ele>123.56</ele>
        <time>2015-10-11T09:22:30Z</time>
      </trkpt>
      <trkpt lat="49.30371" lon="0.87145">
        <ele>123.17</ele>
        <time>2015-10-11T09:22:32Z</time>
      </trkpt>
      <trkpt lat="49.30358" lon="0.87145">
        <ele>122.48</ele>
        <time>2015-10-11T09:22:34Z</time>
      </trkpt>
      <trkpt lat="49.30346" lon="0.87148">
        <ele>121.89</ele>
        <time>2015-10-11T09:22:36Z</time>
      </trkpt>
      <trkpt lat="49.30335" lon="0.8715">
        <ele>121.5</ele>
        <time>2015-10-11T09:22:38Z</time>
      </trkpt>
      <trkpt lat="49.30323" lon="0.87151">
        <ele>121.16</ele>
        <time>2015-10-11T09:22:40Z</time>
      </trkpt>
      <trkpt lat="49.3031" lon="0.87151">
        <ele>120.92</ele>
        <time>2015-10-11T09:22:42Z</time>
      </trkpt>
      <trkpt lat="49.30297" lon="0.87151">
        <ele>120.88</ele>
        <time>2015-10-11T09:22:44Z</time>
      </trkpt>
      <trkpt lat="49.30285" lon="0.87151">
        <ele>121.1</ele>
        <time>2015-10-11T09:22:46Z</time>
      </trkpt>
      <trkpt lat="49.30272" lon="0.87151">
        <ele>121.41</ele>
        <time>2015-10-11T09:22:48Z</time>
      </trkpt>
      <trkpt lat="49.30261" lon="0.87151">
        <ele>121.94</ele>
        <time>2015-10-11T09:22:50Z</time>
      </trkpt>
      <trkpt lat="49.30249" lon="0.87151">
        <ele>122.44</ele>
        <time>2015-10-11T09:22:52Z</time>
      </trkpt>
      <trkpt lat="49.30238" lon="0.87151">
        <ele>122.38</ele>
        <time>2015-10-11T09:22:54Z</time>
      </trkpt>
      <trkpt lat="49.30226" lon="0.87152">
        <ele>122.11</ele>
        <time>2015-10-11T09:22:56Z</time>
      </trkpt>
      <trkpt lat="49.30216" lon="0.87155">
        <ele>121.6</ele>
        <time>2015-10-11T09:22:58Z</time>
      </trkpt>
      <trkpt lat="49.30205" lon="0.87158">
        <ele>120.99</ele>
        <time>2015-10-11T09:23:00Z</time>
      </trkpt>
      <trkpt lat="49.30196" lon="0.87161">
        <ele>120.56</ele>
        <time>2015-10-11T09:23:02Z</time>
      </trkpt>
      <trkpt lat="49.30187" lon="0.87164">
        <ele>120.52</ele>
        <time>2015-10-11T09:23:04Z</time>
      </trkpt>
      <trkpt lat="49.30179" lon="0.87166">
        <ele>120.63</ele>
        <time>2015-10-11T09:23:06Z</time>
      </trkpt>
      <trkpt lat="49.30169" lon="0.87169">
        <ele>120.85</ele>
        <time>2015-10-11T09:23:08Z</time>
      </trkpt>
      <trkpt lat="49.30161" lon="0.8717">
        <ele>121.21</ele>
        <time>2015-10-11T09:23:10Z</time>
      </trkpt>
      <trkpt lat="49.30152" lon="0.87171">
        <ele>121.52</ele>
        <time>2015-10-11T09:23:12Z</time>
      </trkpt>
      <trkpt lat="49.30143" lon="0.87171">
        <ele>121.72</ele>
        <time>2015-10-11T09:23:14Z</time>
      </trkpt>
      <trkpt lat="49.30135" lon="0.87171">
        <ele>121.9</ele>
        <time>2015-10-11T09:23:16Z</time>
      </trkpt>
      <trkpt lat="49.30127" lon="0.87172">
        <ele>122.18</ele>
        <time>2015-10-11T09:23:18Z</time>
      </trkpt>
      <trkpt lat="49.30118" lon="0.87171">
        <ele>122.66</ele>
        <time>2015-10-11T09:23:20Z</time>
      </trkpt>
      <trkpt lat="49.3011" lon="0.87171">
        <ele>123.26</ele>
        <time>2015-10-11T09:23:22Z</time>
      </trkpt>
      <trkpt lat="49.30101" lon="0.87171">
        <ele>124.01</ele>
        <time>2015-10-11T09:23:24Z</time>
      </trkpt>
      <trkpt lat="49.30091" lon="0.87171">
        <ele>124.41</ele>
        <time>2015-10-11T09:23:26Z</time>
      </trkpt>
      <trkpt lat="49.30081" lon="0.87171">
        <ele>124.68</ele>
        <time>2015-10-11T09:23:28Z</time>
      </trkpt>
      <trkpt lat="49.30071" lon="0.87171">
        <ele>125.2</ele>
        <time>2015-10-11T09:23:30Z</time>
      </trkpt>
      <trkpt lat="49.30062" lon="0.87172">
        <ele>125.78</ele>
        <time>2015-10-11T09:23:32Z</time>
      </trkpt>
      <trkpt lat="49.30053" lon="0.87172">
        <ele>126.31</ele>
        <time>2015-10-11T09:23:34Z</time>
      </trkpt>
      <trkpt lat="49.30046" lon="0.87178">
        <ele>126.59</ele>
        <time>2015-10-11T09:23:36Z</time>
      </trkpt>
      <trkpt lat="49.30042" lon="0.87185">
        <ele>126.95</ele>
        <time>2015-10-11T09:23:38Z</time>
      </trkpt>
      <trkpt lat="49.30035" lon="0.87185">
        <ele>127.12</ele>
        <time>2015-10-11T09:23:40Z</time>
      </trkpt>
      <trkpt lat="49.30026" lon="0.87184">
        <ele>127.05</ele>
        <time>2015-10-11T09:23:42Z</time>
      </trkpt>
      <trkpt lat="49.30017" lon="0.87186">
        <ele>126.98</ele>
        <time>2015-10-11T09:23:44Z</time>
      </trkpt>
      <trkpt lat="49.30009" lon="0.87193">
        <ele>126.87</ele>
        <time>2015-10-11T09:23:46Z</time>
      </trkpt>
      <trkpt lat="49.30003" lon="0.87203">
        <ele>126.95</ele>
        <time>2015-10-11T09:23:48Z</time>
      </trkpt>
      <trkpt lat="49.29998" lon="0.87215">
        <ele>126.91</ele>
        <time>2015-10-11T09:23:50Z</time>
      </trkpt>
      <trkpt lat="49.29993" lon="0.87227">
        <ele>126.7</ele>
        <time>2015-10-11T09:23:52Z</time>
      </trkpt>
      <trkpt lat="49.29989" lon="0.87239">
        <ele>127</ele>
        <time>2015-10-11T09:23:54Z</time>
      </trkpt>
      <trkpt lat="49.29984" lon="0.87251">
        <ele>127.92</ele>
        <time>2015-10-11T09:23:56Z</time>
      </trkpt>
      <trkpt lat="49.2998" lon="0.87263">
        <ele>128.76</ele>
        <time>2015-10-11T09:23:58Z</time>
      </trkpt>
      <trkpt lat="49.29974" lon="0.87275">
        <ele>129.28</ele>
        <time>2015-10-11T09:24:00Z</time>
      </trkpt>
      <trkpt lat="49.29969" lon="0.87285">
        <ele>129.45</ele>
        <time>2015-10-11T09:24:02Z</time>
      </trkpt>
      <trkpt lat="49.29963" lon="0.87294">
        <ele>129.53</ele>
        <time>2015-10-11T09:24:04Z</time>
      </trkpt>
      <trkpt lat="49.29959" lon="0.87303">
        <ele>129.57</ele>
        <time>2015-10-11T09:24:06Z</time>
      </trkpt>
      <trkpt lat="49.29959" lon="0.87311">
        <ele>129.56</ele>
        <time>2015-10-11T09:24:08Z</time>
      </trkpt>
      <trkpt lat="49.29953" lon="0.87306">
        <ele>128.73</ele>
        <time>2015-10-11T09:24:38Z</time>
      </trkpt>
      <trkpt lat="49.29949" lon="0.87307">
        <ele>128.76</ele>
        <time>2015-10-11T09:24:40Z</time>
      </trkpt>
      <trkpt lat="49.29945" lon="0.87315">
        <ele>128.77</ele>
        <time>2015-10-11T09:24:42Z</time>
      </trkpt>
      <trkpt lat="49.29941" lon="0.87326">
        <ele>128.75</ele>
        <time>2015-10-11T09:24:44Z</time>
      </trkpt>
      <trkpt lat="49.29938" lon="0.87335">
        <ele>129.26</ele>
        <time>2015-10-11T09:24:46Z</time>
      </trkpt>
      <trkpt lat="49.29934" lon="0.87346">
        <ele>129.49</ele>
        <time>2015-10-11T09:24:48Z</time>
      </trkpt>
      <trkpt lat="49.29928" lon="0.87358">
        <ele>129.82</ele>
        <time>2015-10-11T09:24:50Z</time>
      </trkpt>
      <trkpt lat="49.29924" lon="0.8737">
        <ele>130.04</ele>
        <time>2015-10-11T09:24:52Z</time>
      </trkpt>
      <trkpt lat="49.2992" lon="0.8738">
        <ele>130.35</ele>
        <time>2015-10-11T09:24:54Z</time>
      </trkpt>
      <trkpt lat="49.29919" lon="0.87394">
        <ele>130.51</ele>
        <time>2015-10-11T09:24:56Z</time>
      </trkpt>
      <trkpt lat="49.2992" lon="0.87406">
        <ele>130.25</ele>
        <time>2015-10-11T09:24:58Z</time>
      </trkpt>
      <trkpt lat="49.29924" lon="0.87418">
        <ele>129.64</ele>
        <time>2015-10-11T09:25:00Z</time>
      </trkpt>
      <trkpt lat="49.2993" lon="0.87431">
        <ele>128.27</ele>
        <time>2015-10-11T09:25:02Z</time>
      </trkpt>
      <trkpt lat="49.29935" lon="0.87443">
        <ele>126.61</ele>
        <time>2015-10-11T09:25:04Z</time>
      </trkpt>
      <trkpt lat="49.2994" lon="0.87455">
        <ele>124.84</ele>
        <time>2015-10-11T09:25:06Z</time>
      </trkpt>
      <trkpt lat="49.29941" lon="0.87466">
        <ele>123.6</ele>
        <time>2015-10-11T09:25:08Z</time>
      </trkpt>
      <trkpt lat="49.2994" lon="0.87476">
        <ele>123.09</ele>
        <time>2015-10-11T09:25:10Z</time>
      </trkpt>
      <trkpt lat="49.2994" lon="0.8749">
        <ele>122.53</ele>
        <time>2015-10-11T09:25:12Z</time>
      </trkpt>
      <trkpt lat="49.29941" lon="0.87501">
        <ele>121.87</ele>
        <time>2015-10-11T09:25:14Z</time>
      </trkpt>
      <trkpt lat="49.29936" lon="0.87509">
        <ele>121.52</ele>
        <time>2015-10-11T09:25:16Z</time>
      </trkpt>
      <trkpt lat="49.29933" lon="0.87521">
        <ele>121.93</ele>
        <time>2015-10-11T09:25:18Z</time>
      </trkpt>
      <trkpt lat="49.29931" lon="0.87535">
        <ele>122.52</ele>
        <time>2015-10-11T09:25:20Z</time>
      </trkpt>
      <trkpt lat="49.29929" lon="0.87548">
        <ele>123.62</ele>
        <time>2015-10-11T09:25:22Z</time>
      </trkpt>
      <trkpt lat="49.29927" lon="0.87562">
        <ele>124.66</ele>
        <time>2015-10-11T09:25:24Z</time>
      </trkpt>
      <trkpt lat="49.29931" lon="0.87577">
        <ele>125.31</ele>
        <time>2015-10-11T09:25:26Z</time>
      </trkpt>
      <trkpt lat="49.29938" lon="0.8759">
        <ele>125.56</ele>
        <time>2015-10-11T09:25:28Z</time>
      </trkpt>
      <trkpt lat="49.29945" lon="0.876">
        <ele>125.57</ele>
        <time>2015-10-11T09:25:30Z</time>
      </trkpt>
      <trkpt lat="49.29944" lon="0.87612">
        <ele>125.55</ele>
        <time>2015-10-11T09:25:32Z</time>
      </trkpt>
      <trkpt lat="49.29938" lon="0.87622">
        <ele>125.17</ele>
        <time>2015-10-11T09:25:34Z</time>
      </trkpt>
      <trkpt lat="49.29932" lon="0.87632">
        <ele>125.05</ele>
        <time>2015-10-11T09:25:36Z</time>
      </trkpt>
      <trkpt lat="49.29928" lon="0.87646">
        <ele>124.98</ele>
        <time>2015-10-11T09:25:38Z</time>
      </trkpt>
      <trkpt lat="49.29923" lon="0.87666">
        <ele>125.35</ele>
        <time>2015-10-11T09:25:40Z</time>
      </trkpt>
      <trkpt lat="49.29919" lon="0.87687">
        <ele>125.81</ele>
        <time>2015-10-11T09:25:42Z</time>
      </trkpt>
      <trkpt lat="49.29918" lon="0.87703">
        <ele>126.15</ele>
        <time>2015-10-11T09:25:44Z</time>
      </trkpt>
      <trkpt lat="49.29918" lon="0.87719">
        <ele>126.61</ele>
        <time>2015-10-11T09:25:46Z</time>
      </trkpt>
      <trkpt lat="49.29918" lon="0.87735">
        <ele>126.65</ele>
        <time>2015-10-11T09:25:48Z</time>
      </trkpt>
      <trkpt lat="49.29913" lon="0.87746">
        <ele>126.62</ele>
        <time>2015-10-11T09:25:50Z</time>
      </trkpt>
      <trkpt lat="49.29905" lon="0.87743">
        <ele>126.58</ele>
        <time>2015-10-11T09:25:52Z</time>
      </trkpt>
      <trkpt lat="49.29898" lon="0.87739">
        <ele>126.59</ele>
        <time>2015-10-11T09:25:54Z</time>
      </trkpt>
      <trkpt lat="49.29892" lon="0.87736">
        <ele>126.83</ele>
        <time>2015-10-11T09:25:56Z</time>
      </trkpt>
      <trkpt lat="49.29886" lon="0.87736">
        <ele>127.28</ele>
        <time>2015-10-11T09:25:58Z</time>
      </trkpt>
      <trkpt lat="49.29877" lon="0.87738">
        <ele>127.55</ele>
        <time>2015-10-11T09:26:00Z</time>
      </trkpt>
      <trkpt lat="49.29869" lon="0.8774">
        <ele>127.85</ele>
        <time>2015-10-11T09:26:02Z</time>
      </trkpt>
      <trkpt lat="49.29861" lon="0.8774">
        <ele>128</ele>
        <time>2015-10-11T09:26:04Z</time>
      </trkpt>
      <trkpt lat="49.29854" lon="0.87747">
        <ele>128.14</ele>
        <time>2015-10-11T09:26:06Z</time>
      </trkpt>
      <trkpt lat="49.29848" lon="0.87753">
        <ele>128.17</ele>
        <time>2015-10-11T09:26:08Z</time>
      </trkpt>
      <trkpt lat="49.29842" lon="0.87759">
        <ele>128.14</ele>
        <time>2015-10-11T09:26:10Z</time>
      </trkpt>
      <trkpt lat="49.29838" lon="0.87766">
        <ele>128.07</ele>
        <time>2015-10-11T09:26:12Z</time>
      </trkpt>
      <trkpt lat="49.29835" lon="0.87775">
        <ele>127.95</ele>
        <time>2015-10-11T09:26:14Z</time>
      </trkpt>
      <trkpt lat="49.29833" lon="0.87782">
        <ele>127.81</ele>
        <time>2015-10-11T09:26:16Z</time>
      </trkpt>
      <trkpt lat="49.2983" lon="0.8779">
        <ele>127.65</ele>
        <time>2015-10-11T09:26:18Z</time>
      </trkpt>
      <trkpt lat="49.29825" lon="0.87792">
        <ele>127.49</ele>
        <time>2015-10-11T09:26:20Z</time>
      </trkpt>
      <trkpt lat="49.29833" lon="0.87796">
        <ele>127.22</ele>
        <time>2015-10-11T09:27:10Z</time>
      </trkpt>
      <trkpt lat="49.29837" lon="0.87797">
        <ele>127.14</ele>
        <time>2015-10-11T09:27:14Z</time>
      </trkpt>
      <trkpt lat="49.29843" lon="0.87797">
        <ele>127.12</ele>
        <time>2015-10-11T09:27:18Z</time>
      </trkpt>
      <trkpt lat="49.2985" lon="0.87799">
        <ele>127.02</ele>
        <time>2015-10-11T09:27:22Z</time>
      </trkpt>
      <trkpt lat="49.29854" lon="0.87802">
        <ele>126.94</ele>
        <time>2015-10-11T09:27:26Z</time>
      </trkpt>
      <trkpt lat="49.2986" lon="0.87807">
        <ele>126.74</ele>
        <time>2015-10-11T09:27:32Z</time>
      </trkpt>
      <trkpt lat="49.29864" lon="0.87811">
        <ele>126.69</ele>
        <time>2015-10-11T09:27:36Z</time>
      </trkpt>
      <trkpt lat="49.29879" lon="0.87817">
        <ele>126.59</ele>
        <time>2015-10-11T09:28:15Z</time>
      </trkpt>
      <trkpt lat="49.29887" lon="0.87821">
        <ele>127.05</ele>
        <time>2015-10-11T09:29:49Z</time>
      </trkpt>
      <trkpt lat="49.29877" lon="0.87819">
        <ele>131.03</ele>
        <time>2015-10-11T09:31:57Z</time>
      </trkpt>
      <trkpt lat="49.29872" lon="0.87817">
        <ele>131.45</ele>
        <time>2015-10-11T09:31:59Z</time>
      </trkpt>
      <trkpt lat="49.29867" lon="0.87815">
        <ele>131.86</ele>
        <time>2015-10-11T09:32:01Z</time>
      </trkpt>
      <trkpt lat="49.2986" lon="0.87811">
        <ele>132.32</ele>
        <time>2015-10-11T09:32:05Z</time>
      </trkpt>
      <trkpt lat="49.29852" lon="0.87806">
        <ele>132.37</ele>
        <time>2015-10-11T09:32:09Z</time>
      </trkpt>
      <trkpt lat="49.29846" lon="0.87804">
        <ele>132.23</ele>
        <time>2015-10-11T09:32:13Z</time>
      </trkpt>
      <trkpt lat="49.2984" lon="0.87803">
        <ele>131.93</ele>
        <time>2015-10-11T09:32:17Z</time>
      </trkpt>
      <trkpt lat="49.29834" lon="0.87799">
        <ele>131.55</ele>
        <time>2015-10-11T09:32:21Z</time>
      </trkpt>
      <trkpt lat="49.29828" lon="0.87796">
        <ele>131.24</ele>
        <time>2015-10-11T09:32:25Z</time>
      </trkpt>
      <trkpt lat="49.29824" lon="0.87793">
        <ele>129.54</ele>
        <time>2015-10-11T09:32:49Z</time>
      </trkpt>
    </trkseg>
  </trk>
</gpx>